<?xml version='1.0' encoding='UTF-8'?><gpx version="1.1" creator="JPX - https://github.com/jenetics/jpx" xmlns="http://www.topografix.com/GPX/1/1"><trk><trkseg><trkpt lat="42.021712732782184" lon="11.967345421112855"><ele>12.999999999999998</ele><time>2026-04-19T06:45:21.999Z</time></trkpt><trkpt lat="42.021639936183156" lon="11.967407428357898"><ele>13.0</ele><time>2026-04-19T06:45:23.999Z</time></trkpt><trkpt lat="42.02158942160921" lon="11.967463235603631"><ele>13.0</ele><time>2026-04-19T06:45:27.999Z</time></trkpt><trkpt lat="42.02158775571656" lon="11.96757418095739"><ele>13.0</ele><time>2026-04-19T06:45:36Z</time></trkpt><trkpt lat="42.02165643232084" lon="11.967662503406231"><ele>12.999999999999998</ele><time>2026-04-19T06:45:38Z</time></trkpt><trkpt lat="42.02171608950288" lon="11.967693916565079"><ele>13.0</ele><time>2026-04-19T06:45:39Z</time></trkpt><trkpt lat="42.02177503215823" lon="11.967736063472854"><ele>13.2</ele><time>2026-04-19T06:45:40Z</time></trkpt><trkpt lat="42.02189650463089" lon="11.967798892654873"><ele>13.4</ele><time>2026-04-19T06:45:42Z</time></trkpt><trkpt lat="42.02197985985357" lon="11.96785029540314"><ele>13.599999999999998</ele><time>2026-04-19T06:45:43Z</time></trkpt><trkpt lat="42.02207166480037" lon="11.967885762063975"><ele>13.799999999999999</ele><time>2026-04-19T06:45:44Z</time></trkpt><trkpt lat="42.02212411070805" lon="11.967940604924998"><ele>14.0</ele><time>2026-04-19T06:45:45Z</time></trkpt><trkpt lat="42.02218863218822" lon="11.967995741367332"><ele>14.000000000000002</ele><time>2026-04-19T06:45:46Z</time></trkpt><trkpt lat="42.022248693394886" lon="11.968069930432788"><ele>14.0</ele><time>2026-04-19T06:45:47Z</time></trkpt><trkpt lat="42.02230419255146" lon="11.968132343366502"><ele>14.0</ele><time>2026-04-19T06:45:48Z</time></trkpt><trkpt lat="42.02236731602655" lon="11.968174473235718"><ele>14.0</ele><time>2026-04-19T06:45:49Z</time></trkpt><trkpt lat="42.02242809255432" lon="11.968224645160833"><ele>14.000000000000002</ele><time>2026-04-19T06:45:50Z</time></trkpt><trkpt lat="42.022492912448186" lon="11.968266095295894"><ele>14.0</ele><time>2026-04-19T06:45:51Z</time></trkpt><trkpt lat="42.022564443358824" lon="11.968332647003992"><ele>14.0</ele><time>2026-04-19T06:45:53Z</time></trkpt><trkpt lat="42.02265750657653" lon="11.968175160362424"><ele>13.999999999999998</ele><time>2026-04-19T06:45:55Z</time></trkpt><trkpt lat="42.02271514353132" lon="11.96810330419962"><ele>13.999999999999998</ele><time>2026-04-19T06:45:56Z</time></trkpt><trkpt lat="42.022782810505724" lon="11.968026924627717"><ele>14.0</ele><time>2026-04-19T06:45:57Z</time></trkpt><trkpt lat="42.022861606494885" lon="11.967954552119371"><ele>14.0</ele><time>2026-04-19T06:45:58Z</time></trkpt><trkpt lat="42.02293602622598" lon="11.96786713702862"><ele>14.0</ele><time>2026-04-19T06:45:59Z</time></trkpt><trkpt lat="42.0230122766219" lon="11.967789135129582"><ele>13.999999999999998</ele><time>2026-04-19T06:46:00Z</time></trkpt><trkpt lat="42.023096863053745" lon="11.967703264844408"><ele>13.999999999999998</ele><time>2026-04-19T06:46:01Z</time></trkpt><trkpt lat="42.02318810065104" lon="11.967608940619716"><ele>14.0</ele><time>2026-04-19T06:46:02Z</time></trkpt><trkpt lat="42.02327857210936" lon="11.967519315876245"><ele>14.0</ele><time>2026-04-19T06:46:03Z</time></trkpt><trkpt lat="42.0233700390942" lon="11.967427617819116"><ele>14.5</ele><time>2026-04-19T06:46:04Z</time></trkpt><trkpt lat="42.02345532039768" lon="11.967342645162004"><ele>15.0</ele><time>2026-04-19T06:46:05Z</time></trkpt><trkpt lat="42.02354453742101" lon="11.967251490195874"><ele>15.5</ele><time>2026-04-19T06:46:06Z</time></trkpt><trkpt lat="42.023637531347376" lon="11.967160968368944"><ele>16.0</ele><time>2026-04-19T06:46:07Z</time></trkpt><trkpt lat="42.02373164729766" lon="11.967067333302722"><ele>16.0</ele><time>2026-04-19T06:46:08Z</time></trkpt><trkpt lat="42.02382454775586" lon="11.966977837810314"><ele>16.0</ele><time>2026-04-19T06:46:09Z</time></trkpt><trkpt lat="42.023915706231456" lon="11.966887044975365"><ele>16.0</ele><time>2026-04-19T06:46:10Z</time></trkpt><trkpt lat="42.02398995303441" lon="11.966780172293255"><ele>16.0</ele><time>2026-04-19T06:46:11Z</time></trkpt><trkpt lat="42.024060395320156" lon="11.96669375612348"><ele>16.0</ele><time>2026-04-19T06:46:12Z</time></trkpt><trkpt lat="42.02413107366524" lon="11.966567366852358"><ele>16.0</ele><time>2026-04-19T06:46:13Z</time></trkpt><trkpt lat="42.02420116409113" lon="11.966449527693007"><ele>16.0</ele><time>2026-04-19T06:46:14Z</time></trkpt><trkpt lat="42.024247513946655" lon="11.966324501935443"><ele>16.0</ele><time>2026-04-19T06:46:15Z</time></trkpt><trkpt lat="42.02431334226535" lon="11.96621314674871"><ele>16.0</ele><time>2026-04-19T06:46:16Z</time></trkpt><trkpt lat="42.02437346990457" lon="11.966111726833168"><ele>16.0</ele><time>2026-04-19T06:46:17Z</time></trkpt><trkpt lat="42.02445045587872" lon="11.966019183201222"><ele>16.0</ele><time>2026-04-19T06:46:18Z</time></trkpt><trkpt lat="42.024512361591334" lon="11.965916926926557"><ele>16.0</ele><time>2026-04-19T06:46:19Z</time></trkpt><trkpt lat="42.02456409407822" lon="11.965794004965307"><ele>16.0</ele><time>2026-04-19T06:46:20Z</time></trkpt><trkpt lat="42.024598434545275" lon="11.96566451189752"><ele>16.0</ele><time>2026-04-19T06:46:21Z</time></trkpt><trkpt lat="42.02463965822822" lon="11.965526000522946"><ele>16.0</ele><time>2026-04-19T06:46:22Z</time></trkpt><trkpt lat="42.024777412133425" lon="11.965442243799158"><ele>16.2</ele><time>2026-04-19T06:46:23Z</time></trkpt><trkpt lat="42.024846818845084" lon="11.96531447740129"><ele>16.400000000000002</ele><time>2026-04-19T06:46:24Z</time></trkpt><trkpt lat="42.02491690780513" lon="11.96519739929257"><ele>16.6</ele><time>2026-04-19T06:46:25Z</time></trkpt><trkpt lat="42.02498633676346" lon="11.965099004061384"><ele>16.8</ele><time>2026-04-19T06:46:26Z</time></trkpt><trkpt lat="42.025046232372304" lon="11.965001669754994"><ele>17.0</ele><time>2026-04-19T06:46:27Z</time></trkpt><trkpt lat="42.02511108797216" lon="11.96491106136983"><ele>16.5</ele><time>2026-04-19T06:46:28Z</time></trkpt><trkpt lat="42.02520244089495" lon="11.964772740516239"><ele>16.0</ele><time>2026-04-19T06:46:29Z</time></trkpt><trkpt lat="42.025291605659575" lon="11.964625014570746"><ele>15.5</ele><time>2026-04-19T06:46:30Z</time></trkpt><trkpt lat="42.02537358847321" lon="11.964480908504212"><ele>15.0</ele><time>2026-04-19T06:46:31Z</time></trkpt><trkpt lat="42.02545258548095" lon="11.964344785177529"><ele>15.0</ele><time>2026-04-19T06:46:31.999Z</time></trkpt><trkpt lat="42.02553324304025" lon="11.964205637036692"><ele>15.0</ele><time>2026-04-19T06:46:32.999Z</time></trkpt><trkpt lat="42.02560705134928" lon="11.964070936476352"><ele>15.0</ele><time>2026-04-19T06:46:33.999Z</time></trkpt><trkpt lat="42.02568081254921" lon="11.963943007595038"><ele>15.0</ele><time>2026-04-19T06:46:34.999Z</time></trkpt><trkpt lat="42.02576132512872" lon="11.963817105230175"><ele>15.0</ele><time>2026-04-19T06:46:35.999Z</time></trkpt><trkpt lat="42.02583967424809" lon="11.963688249490813"><ele>15.0</ele><time>2026-04-19T06:46:36.999Z</time></trkpt><trkpt lat="42.02592446416747" lon="11.963551611035808"><ele>15.0</ele><time>2026-04-19T06:46:37.999Z</time></trkpt><trkpt lat="42.026003690253006" lon="11.963419841858254"><ele>15.0</ele><time>2026-04-19T06:46:38.999Z</time></trkpt><trkpt lat="42.02608169786084" lon="11.963279436017851"><ele>15.0</ele><time>2026-04-19T06:46:39.999Z</time></trkpt><trkpt lat="42.02616223877495" lon="11.963149634389522"><ele>15.0</ele><time>2026-04-19T06:46:40.999Z</time></trkpt><trkpt lat="42.026238092122625" lon="11.963025707217957"><ele>15.0</ele><time>2026-04-19T06:46:41.999Z</time></trkpt><trkpt lat="42.02630980874012" lon="11.962902143463566"><ele>15.0</ele><time>2026-04-19T06:46:42.999Z</time></trkpt><trkpt lat="42.02638539751571" lon="11.96278199816995"><ele>15.0</ele><time>2026-04-19T06:46:43.999Z</time></trkpt><trkpt lat="42.0264620515829" lon="11.962654220618418"><ele>15.0</ele><time>2026-04-19T06:46:44.999Z</time></trkpt><trkpt lat="42.02654194349402" lon="11.962524829761415"><ele>15.0</ele><time>2026-04-19T06:46:45.999Z</time></trkpt><trkpt lat="42.026623098279416" lon="11.962383270891815"><ele>15.0</ele><time>2026-04-19T06:46:46.999Z</time></trkpt><trkpt lat="42.02670967304974" lon="11.962240469783357"><ele>15.0</ele><time>2026-04-19T06:46:47.999Z</time></trkpt><trkpt lat="42.026795141321905" lon="11.962098844850845"><ele>15.0</ele><time>2026-04-19T06:46:48.999Z</time></trkpt><trkpt lat="42.02687766650006" lon="11.961962030591623"><ele>15.0</ele><time>2026-04-19T06:46:49.999Z</time></trkpt><trkpt lat="42.026960527942755" lon="11.961822903294825"><ele>15.0</ele><time>2026-04-19T06:46:50.999Z</time></trkpt><trkpt lat="42.02703772872539" lon="11.961678020105449"><ele>14.5</ele><time>2026-04-19T06:46:51.999Z</time></trkpt><trkpt lat="42.027116783887294" lon="11.961550677607889"><ele>14.0</ele><time>2026-04-19T06:46:52.999Z</time></trkpt><trkpt lat="42.0271939803803" lon="11.96140717002358"><ele>13.5</ele><time>2026-04-19T06:46:53.999Z</time></trkpt><trkpt lat="42.02727004049591" lon="11.961282481465197"><ele>13.0</ele><time>2026-04-19T06:46:54.999Z</time></trkpt><trkpt lat="42.02733918662798" lon="11.961153465514666"><ele>13.0</ele><time>2026-04-19T06:46:55.999Z</time></trkpt><trkpt lat="42.02741293213902" lon="11.961033493847882"><ele>13.0</ele><time>2026-04-19T06:46:56.999Z</time></trkpt><trkpt lat="42.02748099966198" lon="11.960921817327712"><ele>13.0</ele><time>2026-04-19T06:46:57.999Z</time></trkpt><trkpt lat="42.02755373820028" lon="11.960809726431794"><ele>13.0</ele><time>2026-04-19T06:46:58.999Z</time></trkpt><trkpt lat="42.027623780927115" lon="11.960689178433311"><ele>13.0</ele><time>2026-04-19T06:46:59.999Z</time></trkpt><trkpt lat="42.02769179629937" lon="11.960568868866522"><ele>13.0</ele><time>2026-04-19T06:47:00.999Z</time></trkpt><trkpt lat="42.0277568747748" lon="11.960455704292501"><ele>13.0</ele><time>2026-04-19T06:47:01.999Z</time></trkpt><trkpt lat="42.02782665499366" lon="11.960342216957518"><ele>13.0</ele><time>2026-04-19T06:47:02.999Z</time></trkpt><trkpt lat="42.02790353654432" lon="11.960242062869753"><ele>13.0</ele><time>2026-04-19T06:47:03.999Z</time></trkpt><trkpt lat="42.02797680707746" lon="11.960115137758859"><ele>13.0</ele><time>2026-04-19T06:47:04.999Z</time></trkpt><trkpt lat="42.028047677011415" lon="11.959978824048001"><ele>13.25</ele><time>2026-04-19T06:47:05.999Z</time></trkpt><trkpt lat="42.028126018653474" lon="11.95985916772173"><ele>13.5</ele><time>2026-04-19T06:47:06.999Z</time></trkpt><trkpt lat="42.028198715450344" lon="11.959727460838955"><ele>13.75</ele><time>2026-04-19T06:47:07.999Z</time></trkpt><trkpt lat="42.02827645711677" lon="11.959612440583834"><ele>14.0</ele><time>2026-04-19T06:47:08.999Z</time></trkpt><trkpt lat="42.02834370346159" lon="11.959491220375307"><ele>14.0</ele><time>2026-04-19T06:47:09.999Z</time></trkpt><trkpt lat="42.02839765551064" lon="11.959352705373112"><ele>14.0</ele><time>2026-04-19T06:47:10.999Z</time></trkpt><trkpt lat="42.02846813797911" lon="11.959232212735833"><ele>14.0</ele><time>2026-04-19T06:47:11.999Z</time></trkpt><trkpt lat="42.0285466182301" lon="11.95910737724698"><ele>14.0</ele><time>2026-04-19T06:47:12.999Z</time></trkpt><trkpt lat="42.028617320133954" lon="11.958986313833286"><ele>13.6</ele><time>2026-04-19T06:47:13.999Z</time></trkpt><trkpt lat="42.02869184074959" lon="11.958896489209067"><ele>13.2</ele><time>2026-04-19T06:47:14.999Z</time></trkpt><trkpt lat="42.02875437085552" lon="11.958780716056378"><ele>12.799999999999999</ele><time>2026-04-19T06:47:15.999Z</time></trkpt><trkpt lat="42.02882908724692" lon="11.958649937055013"><ele>12.399999999999999</ele><time>2026-04-19T06:47:16.999Z</time></trkpt><trkpt lat="42.028903766626364" lon="11.95852853774071"><ele>12.0</ele><time>2026-04-19T06:47:17.999Z</time></trkpt><trkpt lat="42.02897312529148" lon="11.958419211723825"><ele>12.0</ele><time>2026-04-19T06:47:18.999Z</time></trkpt><trkpt lat="42.02904663558342" lon="11.958333330014414"><ele>12.0</ele><time>2026-04-19T06:47:19.999Z</time></trkpt><trkpt lat="42.02911005484975" lon="11.958241457703625"><ele>12.0</ele><time>2026-04-19T06:47:20.999Z</time></trkpt><trkpt lat="42.02916207044281" lon="11.958128591606611"><ele>12.0</ele><time>2026-04-19T06:47:21.999Z</time></trkpt><trkpt lat="42.02920936965472" lon="11.95800157490788"><ele>12.0</ele><time>2026-04-19T06:47:22.999Z</time></trkpt><trkpt lat="42.029267429125106" lon="11.95787831564439"><ele>12.5</ele><time>2026-04-19T06:47:23.999Z</time></trkpt><trkpt lat="42.02931721856888" lon="11.957743124710223"><ele>13.0</ele><time>2026-04-19T06:47:24.999Z</time></trkpt><trkpt lat="42.02935544167506" lon="11.957572288824668"><ele>13.5</ele><time>2026-04-19T06:47:25.999Z</time></trkpt><trkpt lat="42.029402718163695" lon="11.957405310178393"><ele>14.0</ele><time>2026-04-19T06:47:26.999Z</time></trkpt><trkpt lat="42.02944750868297" lon="11.957247207547672"><ele>14.0</ele><time>2026-04-19T06:47:27.999Z</time></trkpt><trkpt lat="42.02947960429367" lon="11.957091240784463"><ele>13.999999999999998</ele><time>2026-04-19T06:47:28.999Z</time></trkpt><trkpt lat="42.02950517725651" lon="11.956948296256694"><ele>13.999999999999998</ele><time>2026-04-19T06:47:29.999Z</time></trkpt><trkpt lat="42.0295193397184" lon="11.956822365831725"><ele>14.0</ele><time>2026-04-19T06:47:30.999Z</time></trkpt><trkpt lat="42.02952204424342" lon="11.956700436222913"><ele>14.0</ele><time>2026-04-19T06:47:31.999Z</time></trkpt><trkpt lat="42.029525736023174" lon="11.956577700565237"><ele>14.0</ele><time>2026-04-19T06:47:32.999Z</time></trkpt><trkpt lat="42.02953272812932" lon="11.956458927222219"><ele>13.999999999999998</ele><time>2026-04-19T06:47:33.999Z</time></trkpt><trkpt lat="42.029537526104676" lon="11.956333850886892"><ele>13.999999999999998</ele><time>2026-04-19T06:47:34.999Z</time></trkpt><trkpt lat="42.02952153577049" lon="11.95617488262331"><ele>14.0</ele><time>2026-04-19T06:47:35.999Z</time></trkpt><trkpt lat="42.02951602000091" lon="11.956031652216412"><ele>14.0</ele><time>2026-04-19T06:47:36.999Z</time></trkpt><trkpt lat="42.02950860521136" lon="11.955913347169995"><ele>13.799999999999999</ele><time>2026-04-19T06:47:37.999Z</time></trkpt><trkpt lat="42.02956672347612" lon="11.955825843076353"><ele>13.599999999999998</ele><time>2026-04-19T06:47:38.999Z</time></trkpt><trkpt lat="42.02961485689237" lon="11.955704094487475"><ele>13.4</ele><time>2026-04-19T06:47:39.999Z</time></trkpt><trkpt lat="42.02965788585664" lon="11.955574691742388"><ele>13.2</ele><time>2026-04-19T06:47:40.999Z</time></trkpt><trkpt lat="42.029698630118055" lon="11.955457929569187"><ele>13.0</ele><time>2026-04-19T06:47:42Z</time></trkpt><trkpt lat="42.029738653866445" lon="11.955339056336854"><ele>12.999999999999998</ele><time>2026-04-19T06:47:43Z</time></trkpt><trkpt lat="42.02977919715385" lon="11.955236885988105"><ele>13.0</ele><time>2026-04-19T06:47:44Z</time></trkpt><trkpt lat="42.029816840406674" lon="11.955137705717789"><ele>13.0</ele><time>2026-04-19T06:47:45Z</time></trkpt><trkpt lat="42.029838446343135" lon="11.9550277687924"><ele>13.0</ele><time>2026-04-19T06:47:46Z</time></trkpt><trkpt lat="42.02985396672518" lon="11.954923184327088"><ele>12.999999999999998</ele><time>2026-04-19T06:47:48Z</time></trkpt><trkpt lat="42.02990963758709" lon="11.954854451846572"><ele>13.0</ele><time>2026-04-19T06:47:50Z</time></trkpt><trkpt lat="42.03001653390586" lon="11.95488285372688"><ele>13.666666666666666</ele><time>2026-04-19T06:47:52Z</time></trkpt><trkpt lat="42.03007219387079" lon="11.95492351130687"><ele>14.333333333333332</ele><time>2026-04-19T06:47:53Z</time></trkpt><trkpt lat="42.03014354815595" lon="11.95496844047224"><ele>15.0</ele><time>2026-04-19T06:47:54Z</time></trkpt><trkpt lat="42.03022684460482" lon="11.955020299118882"><ele>15.666666666666668</ele><time>2026-04-19T06:47:55Z</time></trkpt><trkpt lat="42.03032388847787" lon="11.955079374642365"><ele>16.333333333333336</ele><time>2026-04-19T06:47:56Z</time></trkpt><trkpt lat="42.030413630590054" lon="11.955128566279281"><ele>17.0</ele><time>2026-04-19T06:47:57Z</time></trkpt><trkpt lat="42.030496410708054" lon="11.95517122470916"><ele>17.2</ele><time>2026-04-19T06:47:58Z</time></trkpt><trkpt lat="42.030586832156324" lon="11.955205620293226"><ele>17.4</ele><time>2026-04-19T06:47:59Z</time></trkpt><trkpt lat="42.03069359989061" lon="11.95523444908913"><ele>17.6</ele><time>2026-04-19T06:48:00Z</time></trkpt><trkpt lat="42.03079089200868" lon="11.955272890412768"><ele>17.8</ele><time>2026-04-19T06:48:01Z</time></trkpt><trkpt lat="42.03087376776151" lon="11.955314316596853"><ele>18.0</ele><time>2026-04-19T06:48:02Z</time></trkpt><trkpt lat="42.03095550768999" lon="11.955359765876562"><ele>18.4</ele><time>2026-04-19T06:48:03Z</time></trkpt><trkpt lat="42.03104459644866" lon="11.955405647580411"><ele>18.8</ele><time>2026-04-19T06:48:04Z</time></trkpt><trkpt lat="42.03113865275738" lon="11.955455101703253"><ele>19.2</ele><time>2026-04-19T06:48:05Z</time></trkpt><trkpt lat="42.03123960985488" lon="11.955502472113016"><ele>19.6</ele><time>2026-04-19T06:48:06Z</time></trkpt><trkpt lat="42.03135001998148" lon="11.955554468178791"><ele>20.0</ele><time>2026-04-19T06:48:07Z</time></trkpt><trkpt lat="42.03145030500333" lon="11.955606438320384"><ele>20.0</ele><time>2026-04-19T06:48:08Z</time></trkpt><trkpt lat="42.03154403179221" lon="11.955651025954722"><ele>20.0</ele><time>2026-04-19T06:48:09Z</time></trkpt><trkpt lat="42.0316518811632" lon="11.955687508788044"><ele>20.0</ele><time>2026-04-19T06:48:10Z</time></trkpt><trkpt lat="42.03178690870764" lon="11.955713047860316"><ele>20.0</ele><time>2026-04-19T06:48:11Z</time></trkpt><trkpt lat="42.03190571784029" lon="11.955730752472803"><ele>20.5</ele><time>2026-04-19T06:48:12Z</time></trkpt><trkpt lat="42.0320071868329" lon="11.955764408121404"><ele>21.0</ele><time>2026-04-19T06:48:13Z</time></trkpt><trkpt lat="42.03210585557091" lon="11.95580436474176"><ele>21.5</ele><time>2026-04-19T06:48:14Z</time></trkpt><trkpt lat="42.03221934664065" lon="11.955819063352735"><ele>22.0</ele><time>2026-04-19T06:48:15Z</time></trkpt><trkpt lat="42.03235030865355" lon="11.955887144618686"><ele>22.75</ele><time>2026-04-19T06:48:16Z</time></trkpt><trkpt lat="42.03247961413462" lon="11.955941244753234"><ele>23.5</ele><time>2026-04-19T06:48:17Z</time></trkpt><trkpt lat="42.032607290979605" lon="11.955984503856358"><ele>24.25</ele><time>2026-04-19T06:48:18Z</time></trkpt><trkpt lat="42.032705344054506" lon="11.956039157320395"><ele>25.0</ele><time>2026-04-19T06:48:19Z</time></trkpt><trkpt lat="42.03280475817171" lon="11.956093594089381"><ele>25.0</ele><time>2026-04-19T06:48:20Z</time></trkpt><trkpt lat="42.03290477332999" lon="11.956133897064632"><ele>25.0</ele><time>2026-04-19T06:48:21Z</time></trkpt><trkpt lat="42.03299206962491" lon="11.956170992659048"><ele>25.0</ele><time>2026-04-19T06:48:22Z</time></trkpt><trkpt lat="42.033074908879975" lon="11.956206774777792"><ele>25.0</ele><time>2026-04-19T06:48:23Z</time></trkpt><trkpt lat="42.0331597266409" lon="11.95626263679889"><ele>25.0</ele><time>2026-04-19T06:48:24Z</time></trkpt><trkpt lat="42.03325743046204" lon="11.956317905067083"><ele>25.2</ele><time>2026-04-19T06:48:25Z</time></trkpt><trkpt lat="42.033366757297415" lon="11.956367349032377"><ele>25.4</ele><time>2026-04-19T06:48:26Z</time></trkpt><trkpt lat="42.033462516330644" lon="11.956411362370519"><ele>25.6</ele><time>2026-04-19T06:48:27Z</time></trkpt><trkpt lat="42.0335652807203" lon="11.956458127808506"><ele>25.8</ele><time>2026-04-19T06:48:28Z</time></trkpt><trkpt lat="42.03367047346707" lon="11.956508694053781"><ele>26.0</ele><time>2026-04-19T06:48:29Z</time></trkpt><trkpt lat="42.033776664975875" lon="11.956556792676992"><ele>26.0</ele><time>2026-04-19T06:48:30Z</time></trkpt><trkpt lat="42.033886120521636" lon="11.956607010064943"><ele>26.0</ele><time>2026-04-19T06:48:31Z</time></trkpt><trkpt lat="42.03399483444258" lon="11.956642039363379"><ele>26.0</ele><time>2026-04-19T06:48:32Z</time></trkpt><trkpt lat="42.034117049269724" lon="11.956674884460789"><ele>26.0</ele><time>2026-04-19T06:48:33Z</time></trkpt><trkpt lat="42.034228429523104" lon="11.956710748382312"><ele>26.0</ele><time>2026-04-19T06:48:34Z</time></trkpt><trkpt lat="42.034338043358865" lon="11.956750714071944"><ele>26.0</ele><time>2026-04-19T06:48:35Z</time></trkpt><trkpt lat="42.03445262658821" lon="11.956789538570154"><ele>26.0</ele><time>2026-04-19T06:48:36Z</time></trkpt><trkpt lat="42.03456073069926" lon="11.956836507631408"><ele>26.0</ele><time>2026-04-19T06:48:37Z</time></trkpt><trkpt lat="42.03467968582515" lon="11.956884420254484"><ele>26.0</ele><time>2026-04-19T06:48:38Z</time></trkpt><trkpt lat="42.03480341927272" lon="11.956935147836052"><ele>26.0</ele><time>2026-04-19T06:48:39Z</time></trkpt><trkpt lat="42.03492372745851" lon="11.956984426306283"><ele>26.0</ele><time>2026-04-19T06:48:40Z</time></trkpt><trkpt lat="42.035047809010486" lon="11.957040440412335"><ele>26.0</ele><time>2026-04-19T06:48:41Z</time></trkpt><trkpt lat="42.0351687618396" lon="11.957092833080415"><ele>26.5</ele><time>2026-04-19T06:48:41.999Z</time></trkpt><trkpt lat="42.03528193625713" lon="11.957141195226512"><ele>27.0</ele><time>2026-04-19T06:48:42.999Z</time></trkpt><trkpt lat="42.03539196982268" lon="11.957202423336156"><ele>27.5</ele><time>2026-04-19T06:48:43.999Z</time></trkpt><trkpt lat="42.03549978157662" lon="11.957251677966601"><ele>28.0</ele><time>2026-04-19T06:48:44.999Z</time></trkpt><trkpt lat="42.035614162232974" lon="11.957278859754771"><ele>28.0</ele><time>2026-04-19T06:48:45.999Z</time></trkpt><trkpt lat="42.03571968053084" lon="11.957326327963042"><ele>27.999999999999996</ele><time>2026-04-19T06:48:46.999Z</time></trkpt><trkpt lat="42.03581301578245" lon="11.957401757403472"><ele>27.999999999999996</ele><time>2026-04-19T06:48:47.999Z</time></trkpt><trkpt lat="42.03589584620151" lon="11.957496915154328"><ele>28.0</ele><time>2026-04-19T06:48:48.999Z</time></trkpt><trkpt lat="42.035991232934414" lon="11.95757427803157"><ele>28.0</ele><time>2026-04-19T06:48:49.999Z</time></trkpt><trkpt lat="42.03609757163272" lon="11.957602203191332"><ele>28.599999999999998</ele><time>2026-04-19T06:48:50.999Z</time></trkpt><trkpt lat="42.03620263226304" lon="11.95761400684134"><ele>29.199999999999996</ele><time>2026-04-19T06:48:51.999Z</time></trkpt><trkpt lat="42.03628297931625" lon="11.957619627412997"><ele>29.8</ele><time>2026-04-19T06:48:52.999Z</time></trkpt><trkpt lat="42.03640208123312" lon="11.957601683363341"><ele>30.4</ele><time>2026-04-19T06:48:53.999Z</time></trkpt><trkpt lat="42.036483574137705" lon="11.957561283967037"><ele>31.0</ele><time>2026-04-19T06:48:54.999Z</time></trkpt><trkpt lat="42.03656749262542" lon="11.957491486068719"><ele>31.8</ele><time>2026-04-19T06:48:55.999Z</time></trkpt><trkpt lat="42.03664914929637" lon="11.95736606225034"><ele>32.6</ele><time>2026-04-19T06:48:56.999Z</time></trkpt><trkpt lat="42.0367192096282" lon="11.957252073502918"><ele>33.4</ele><time>2026-04-19T06:48:57.999Z</time></trkpt><trkpt lat="42.036778075913666" lon="11.95716382097955"><ele>34.2</ele><time>2026-04-19T06:48:58.999Z</time></trkpt><trkpt lat="42.03682758504794" lon="11.957094960408579"><ele>35.0</ele><time>2026-04-19T06:48:59.999Z</time></trkpt><trkpt lat="42.036838330162766" lon="11.956990947928864"><ele>35.0</ele><time>2026-04-19T06:49:01.999Z</time></trkpt><trkpt lat="42.03683144003501" lon="11.956889225567874"><ele>35.0</ele><time>2026-04-19T06:49:02.999Z</time></trkpt><trkpt lat="42.036822770772275" lon="11.956743533449528"><ele>35.0</ele><time>2026-04-19T06:49:03.999Z</time></trkpt><trkpt lat="42.036826773463936" lon="11.956580279005715"><ele>35.0</ele><time>2026-04-19T06:49:04.999Z</time></trkpt><trkpt lat="42.03683782795771" lon="11.956426452080274"><ele>35.0</ele><time>2026-04-19T06:49:05.999Z</time></trkpt><trkpt lat="42.036847048292984" lon="11.956281864118942"><ele>35.0</ele><time>2026-04-19T06:49:06.999Z</time></trkpt><trkpt lat="42.0368617326369" lon="11.956149381317942"><ele>35.0</ele><time>2026-04-19T06:49:07.999Z</time></trkpt><trkpt lat="42.03687107398379" lon="11.95602916976339"><ele>35.0</ele><time>2026-04-19T06:49:08.999Z</time></trkpt><trkpt lat="42.03687969997484" lon="11.955935743433564"><ele>35.0</ele><time>2026-04-19T06:49:09.999Z</time></trkpt><trkpt lat="42.036933950856735" lon="11.955879912986381"><ele>35.0</ele><time>2026-04-19T06:49:10.999Z</time></trkpt><trkpt lat="42.03694810519978" lon="11.95578010671062"><ele>35.0</ele><time>2026-04-19T06:49:12.999Z</time></trkpt><trkpt lat="42.036965661705466" lon="11.955657948437338"><ele>35.0</ele><time>2026-04-19T06:49:15.999Z</time></trkpt><trkpt lat="42.03698827102342" lon="11.955502588893557"><ele>35.0</ele><time>2026-04-19T06:49:17.999Z</time></trkpt><trkpt lat="42.037002176043444" lon="11.955407040817398"><ele>35.0</ele><time>2026-04-19T06:49:18.999Z</time></trkpt><trkpt lat="42.03701779610559" lon="11.955295403525943"><ele>35.0</ele><time>2026-04-19T06:49:19.999Z</time></trkpt><trkpt lat="42.037033535932956" lon="11.955171890504829"><ele>35.0</ele><time>2026-04-19T06:49:20.999Z</time></trkpt><trkpt lat="42.03704618343419" lon="11.955048743348165"><ele>35.2</ele><time>2026-04-19T06:49:21.999Z</time></trkpt><trkpt lat="42.03705639578963" lon="11.954915794249665"><ele>35.4</ele><time>2026-04-19T06:49:22.999Z</time></trkpt><trkpt lat="42.037065880338" lon="11.954784916645869"><ele>35.6</ele><time>2026-04-19T06:49:23.999Z</time></trkpt><trkpt lat="42.03707765187563" lon="11.954657338089985"><ele>35.8</ele><time>2026-04-19T06:49:24.999Z</time></trkpt><trkpt lat="42.037096988863176" lon="11.954497250441838"><ele>36.0</ele><time>2026-04-19T06:49:25.999Z</time></trkpt><trkpt lat="42.03710783909348" lon="11.954318792150804"><ele>36.0</ele><time>2026-04-19T06:49:26.999Z</time></trkpt><trkpt lat="42.0371342436371" lon="11.954158973560942"><ele>36.0</ele><time>2026-04-19T06:49:27.999Z</time></trkpt><trkpt lat="42.037163483779835" lon="11.953993179368032"><ele>36.0</ele><time>2026-04-19T06:49:28.999Z</time></trkpt><trkpt lat="42.03718432381886" lon="11.953824649230441"><ele>36.0</ele><time>2026-04-19T06:49:29.999Z</time></trkpt><trkpt lat="42.037205087398746" lon="11.95365550649285"><ele>36.0</ele><time>2026-04-19T06:49:30.999Z</time></trkpt><trkpt lat="42.037224208501996" lon="11.953499743660434"><ele>36.0</ele><time>2026-04-19T06:49:31.999Z</time></trkpt><trkpt lat="42.037243686911836" lon="11.95334107011046"><ele>36.0</ele><time>2026-04-19T06:49:32.999Z</time></trkpt><trkpt lat="42.037263107631986" lon="11.953182866516233"><ele>36.0</ele><time>2026-04-19T06:49:33.999Z</time></trkpt><trkpt lat="42.037281252422424" lon="11.953024394630832"><ele>35.5</ele><time>2026-04-19T06:49:34.999Z</time></trkpt><trkpt lat="42.037300097989224" lon="11.952858161895236"><ele>35.0</ele><time>2026-04-19T06:49:35.999Z</time></trkpt><trkpt lat="42.037320736450596" lon="11.952676114422534"><ele>34.5</ele><time>2026-04-19T06:49:36.999Z</time></trkpt><trkpt lat="42.0373396595536" lon="11.952501194948098"><ele>34.0</ele><time>2026-04-19T06:49:37.999Z</time></trkpt><trkpt lat="42.03735829857445" lon="11.952326412721948"><ele>33.75</ele><time>2026-04-19T06:49:38.999Z</time></trkpt><trkpt lat="42.03737631412029" lon="11.95215747697248"><ele>33.5</ele><time>2026-04-19T06:49:39.999Z</time></trkpt><trkpt lat="42.03739314141379" lon="11.95199968377217"><ele>33.25</ele><time>2026-04-19T06:49:40.999Z</time></trkpt><trkpt lat="42.03740744534468" lon="11.951850034945831"><ele>33.0</ele><time>2026-04-19T06:49:41.999Z</time></trkpt><trkpt lat="42.0374207587251" lon="11.951675759532906"><ele>32.75</ele><time>2026-04-19T06:49:42.999Z</time></trkpt><trkpt lat="42.037436992600384" lon="11.951503236278503"><ele>32.5</ele><time>2026-04-19T06:49:43.999Z</time></trkpt><trkpt lat="42.03745310117544" lon="11.951329336247847"><ele>32.25</ele><time>2026-04-19T06:49:44.999Z</time></trkpt><trkpt lat="42.03747390607828" lon="11.95116445850423"><ele>32.0</ele><time>2026-04-19T06:49:45.999Z</time></trkpt><trkpt lat="42.037488271432" lon="11.950985153901886"><ele>33.75</ele><time>2026-04-19T06:49:46.999Z</time></trkpt><trkpt lat="42.037504829071835" lon="11.950823636163786"><ele>35.5</ele><time>2026-04-19T06:49:48Z</time></trkpt><trkpt lat="42.0375239181015" lon="11.950662910205928"><ele>37.25</ele><time>2026-04-19T06:49:49Z</time></trkpt><trkpt lat="42.037547543791504" lon="11.95051422607541"><ele>39.0</ele><time>2026-04-19T06:49:50Z</time></trkpt><trkpt lat="42.03757821297966" lon="11.950370649038385"><ele>39.0</ele><time>2026-04-19T06:49:51Z</time></trkpt><trkpt lat="42.037593733643234" lon="11.950216406078912"><ele>39.0</ele><time>2026-04-19T06:49:52Z</time></trkpt><trkpt lat="42.037607742922184" lon="11.950069656474342"><ele>39.0</ele><time>2026-04-19T06:49:53Z</time></trkpt><trkpt lat="42.037617344393105" lon="11.949933122149364"><ele>39.0</ele><time>2026-04-19T06:49:54Z</time></trkpt><trkpt lat="42.03763304612417" lon="11.949795504367012"><ele>39.0</ele><time>2026-04-19T06:49:55Z</time></trkpt><trkpt lat="42.0376493212147" lon="11.949659923055702"><ele>39.0</ele><time>2026-04-19T06:49:56Z</time></trkpt><trkpt lat="42.03766465242707" lon="11.949519073266046"><ele>39.0</ele><time>2026-04-19T06:49:57Z</time></trkpt><trkpt lat="42.037682097686215" lon="11.949368222733412"><ele>39.0</ele><time>2026-04-19T06:49:58Z</time></trkpt><trkpt lat="42.03769735346063" lon="11.949196868763066"><ele>39.0</ele><time>2026-04-19T06:49:59Z</time></trkpt><trkpt lat="42.037721250619995" lon="11.949016586508833"><ele>38.5</ele><time>2026-04-19T06:50:00Z</time></trkpt><trkpt lat="42.03773868815001" lon="11.948853365179863"><ele>38.0</ele><time>2026-04-19T06:50:01Z</time></trkpt><trkpt lat="42.03776687662991" lon="11.948690427677173"><ele>37.5</ele><time>2026-04-19T06:50:02Z</time></trkpt><trkpt lat="42.03778615296863" lon="11.948509675003267"><ele>37.0</ele><time>2026-04-19T06:50:03Z</time></trkpt><trkpt lat="42.03780403731972" lon="11.948326907333652"><ele>36.75</ele><time>2026-04-19T06:50:04Z</time></trkpt><trkpt lat="42.03782172548734" lon="11.948155950561356"><ele>36.5</ele><time>2026-04-19T06:50:05Z</time></trkpt><trkpt lat="42.03783474368585" lon="11.947972051274734"><ele>36.25</ele><time>2026-04-19T06:50:06Z</time></trkpt><trkpt lat="42.03786603071442" lon="11.94779325547225"><ele>36.0</ele><time>2026-04-19T06:50:07Z</time></trkpt><trkpt lat="42.037883883245364" lon="11.94762274362097"><ele>35.75</ele><time>2026-04-19T06:50:08Z</time></trkpt><trkpt lat="42.03790212166847" lon="11.947448545825594"><ele>35.5</ele><time>2026-04-19T06:50:09Z</time></trkpt><trkpt lat="42.03791962457762" lon="11.947277202175972"><ele>35.25</ele><time>2026-04-19T06:50:10Z</time></trkpt><trkpt lat="42.037937685007115" lon="11.94709816839391"><ele>35.0</ele><time>2026-04-19T06:50:11Z</time></trkpt><trkpt lat="42.03795484867563" lon="11.946897815030495"><ele>34.33333333333333</ele><time>2026-04-19T06:50:12Z</time></trkpt><trkpt lat="42.03797155430792" lon="11.946678428491152"><ele>33.666666666666664</ele><time>2026-04-19T06:50:13Z</time></trkpt><trkpt lat="42.03798734480936" lon="11.946443392484882"><ele>33.0</ele><time>2026-04-19T06:50:14Z</time></trkpt><trkpt lat="42.03799897736062" lon="11.946252455125364"><ele>33.0</ele><time>2026-04-19T06:50:15Z</time></trkpt><trkpt lat="42.038010610584486" lon="11.946061506523204"><ele>33.0</ele><time>2026-04-19T06:50:16Z</time></trkpt><trkpt lat="42.03802221017363" lon="11.945871110077016"><ele>33.0</ele><time>2026-04-19T06:50:17Z</time></trkpt><trkpt lat="42.03803347499225" lon="11.945686208569878"><ele>33.0</ele><time>2026-04-19T06:50:18Z</time></trkpt><trkpt lat="42.03804540334128" lon="11.945490415859572"><ele>32.75</ele><time>2026-04-19T06:50:19Z</time></trkpt><trkpt lat="42.03805743700205" lon="11.94529289441671"><ele>32.5</ele><time>2026-04-19T06:50:20Z</time></trkpt><trkpt lat="42.038069513243535" lon="11.945094674167086"><ele>32.25</ele><time>2026-04-19T06:50:21Z</time></trkpt><trkpt lat="42.03808343467501" lon="11.944895727183116"><ele>32.0</ele><time>2026-04-19T06:50:22Z</time></trkpt><trkpt lat="42.03809775038157" lon="11.944696476326977"><ele>32.0</ele><time>2026-04-19T06:50:23Z</time></trkpt><trkpt lat="42.03809496717816" lon="11.944505484701182"><ele>32.0</ele><time>2026-04-19T06:50:24Z</time></trkpt><trkpt lat="42.038125635720064" lon="11.944308358685706"><ele>32.0</ele><time>2026-04-19T06:50:25Z</time></trkpt><trkpt lat="42.0381398585508" lon="11.944110400504366"><ele>32.0</ele><time>2026-04-19T06:50:26Z</time></trkpt><trkpt lat="42.03815394308673" lon="11.943910092173063"><ele>31.25</ele><time>2026-04-19T06:50:27Z</time></trkpt><trkpt lat="42.0381665995981" lon="11.943714308144862"><ele>30.5</ele><time>2026-04-19T06:50:28Z</time></trkpt><trkpt lat="42.0381629157749" lon="11.943525416913074"><ele>29.75</ele><time>2026-04-19T06:50:29Z</time></trkpt><trkpt lat="42.03817576792328" lon="11.94333538300814"><ele>29.0</ele><time>2026-04-19T06:50:30Z</time></trkpt><trkpt lat="42.038187127713186" lon="11.943143868714422"><ele>29.0</ele><time>2026-04-19T06:50:31Z</time></trkpt><trkpt lat="42.03820287214112" lon="11.942958738625414"><ele>29.0</ele><time>2026-04-19T06:50:32Z</time></trkpt><trkpt lat="42.03822621643854" lon="11.942783907400377"><ele>29.0</ele><time>2026-04-19T06:50:33Z</time></trkpt><trkpt lat="42.03824119862339" lon="11.942593666598285"><ele>29.0</ele><time>2026-04-19T06:50:34Z</time></trkpt><trkpt lat="42.038253840547604" lon="11.942406885459333"><ele>29.0</ele><time>2026-04-19T06:50:35Z</time></trkpt><trkpt lat="42.038268202819836" lon="11.942214876028851"><ele>29.0</ele><time>2026-04-19T06:50:36Z</time></trkpt><trkpt lat="42.03828018355384" lon="11.942019659214804"><ele>29.0</ele><time>2026-04-19T06:50:37Z</time></trkpt><trkpt lat="42.03829169465659" lon="11.941830369057097"><ele>29.0</ele><time>2026-04-19T06:50:38Z</time></trkpt><trkpt lat="42.03830010516142" lon="11.941641434402438"><ele>29.0</ele><time>2026-04-19T06:50:39Z</time></trkpt><trkpt lat="42.038306937105396" lon="11.94146055523543"><ele>29.0</ele><time>2026-04-19T06:50:40Z</time></trkpt><trkpt lat="42.03833605065001" lon="11.941296176899852"><ele>29.0</ele><time>2026-04-19T06:50:41Z</time></trkpt><trkpt lat="42.03834772275626" lon="11.941145874504011"><ele>29.0</ele><time>2026-04-19T06:50:42Z</time></trkpt><trkpt lat="42.0383583021001" lon="11.941009643910952"><ele>29.0</ele><time>2026-04-19T06:50:43Z</time></trkpt><trkpt lat="42.03836814303372" lon="11.94088292158937"><ele>29.0</ele><time>2026-04-19T06:50:44Z</time></trkpt><trkpt lat="42.03837703291049" lon="11.940768446202174"><ele>29.0</ele><time>2026-04-19T06:50:45Z</time></trkpt><trkpt lat="42.038384995753205" lon="11.94066590833703"><ele>29.0</ele><time>2026-04-19T06:50:46Z</time></trkpt><trkpt lat="42.03839703406182" lon="11.940510890412677"><ele>29.0</ele><time>2026-04-19T06:50:48Z</time></trkpt><trkpt lat="42.03824547911068" lon="11.940352121653802"><ele>28.799999999999997</ele><time>2026-04-19T06:50:50.999Z</time></trkpt><trkpt lat="42.03816458355524" lon="11.940379108528568"><ele>28.599999999999998</ele><time>2026-04-19T06:50:51.999Z</time></trkpt><trkpt lat="42.038063530503685" lon="11.940346257326357"><ele>28.4</ele><time>2026-04-19T06:50:52.999Z</time></trkpt><trkpt lat="42.037967532450985" lon="11.940314214987625"><ele>28.2</ele><time>2026-04-19T06:50:53.999Z</time></trkpt><trkpt lat="42.037865486841234" lon="11.940256759658864"><ele>28.0</ele><time>2026-04-19T06:50:54.999Z</time></trkpt><trkpt lat="42.03775632393376" lon="11.94018585002989"><ele>28.0</ele><time>2026-04-19T06:50:55.999Z</time></trkpt><trkpt lat="42.03764781843941" lon="11.94010377114325"><ele>28.0</ele><time>2026-04-19T06:50:56.999Z</time></trkpt><trkpt lat="42.03753737642769" lon="11.940018042753167"><ele>28.0</ele><time>2026-04-19T06:50:57.999Z</time></trkpt><trkpt lat="42.03742160630107" lon="11.939927223521263"><ele>28.0</ele><time>2026-04-19T06:50:58.999Z</time></trkpt><trkpt lat="42.037298813535834" lon="11.939835274890914"><ele>27.75</ele><time>2026-04-19T06:50:59.999Z</time></trkpt><trkpt lat="42.03717066765254" lon="11.939738302412684"><ele>27.5</ele><time>2026-04-19T06:51:00.999Z</time></trkpt><trkpt lat="42.037042670818664" lon="11.939639863434673"><ele>27.25</ele><time>2026-04-19T06:51:01.999Z</time></trkpt><trkpt lat="42.03691339973143" lon="11.939538688170975"><ele>27.0</ele><time>2026-04-19T06:51:02.999Z</time></trkpt><trkpt lat="42.036792486564394" lon="11.939442045260321"><ele>27.0</ele><time>2026-04-19T06:51:03.999Z</time></trkpt><trkpt lat="42.0366816603193" lon="11.939353463458005"><ele>27.0</ele><time>2026-04-19T06:51:04.999Z</time></trkpt><trkpt lat="42.036583614444254" lon="11.939275097718546"><ele>27.0</ele><time>2026-04-19T06:51:05.999Z</time></trkpt><trkpt lat="42.03647121594233" lon="11.93918723972228"><ele>27.0</ele><time>2026-04-19T06:51:06.999Z</time></trkpt><trkpt lat="42.03636755856687" lon="11.93910680537873"><ele>26.5</ele><time>2026-04-19T06:51:07.999Z</time></trkpt><trkpt lat="42.03625359283483" lon="11.93902390194795"><ele>26.0</ele><time>2026-04-19T06:51:08.999Z</time></trkpt><trkpt lat="42.03613444611946" lon="11.938951132863558"><ele>25.5</ele><time>2026-04-19T06:51:09.999Z</time></trkpt><trkpt lat="42.03600717782255" lon="11.938912001955991"><ele>25.0</ele><time>2026-04-19T06:51:10.999Z</time></trkpt><trkpt lat="42.03588903099736" lon="11.938876508509804"><ele>24.4</ele><time>2026-04-19T06:51:11.999Z</time></trkpt><trkpt lat="42.035774152486866" lon="11.938851734719712"><ele>23.8</ele><time>2026-04-19T06:51:12.999Z</time></trkpt><trkpt lat="42.035680350753665" lon="11.938833098833975"><ele>23.200000000000003</ele><time>2026-04-19T06:51:13.999Z</time></trkpt><trkpt lat="42.035588117264794" lon="11.93881590629092"><ele>22.6</ele><time>2026-04-19T06:51:14.999Z</time></trkpt><trkpt lat="42.03551573348325" lon="11.938809031286178"><ele>22.0</ele><time>2026-04-19T06:51:15.999Z</time></trkpt><trkpt lat="42.03543499229868" lon="11.938806094056599"><ele>22.0</ele><time>2026-04-19T06:51:17.999Z</time></trkpt><trkpt lat="42.03537791560152" lon="11.93876771036585"><ele>22.0</ele><time>2026-04-19T06:51:20.999Z</time></trkpt><trkpt lat="42.03541821455529" lon="11.938693657872331"><ele>22.0</ele><time>2026-04-19T06:51:56Z</time></trkpt><trkpt lat="42.03547653626762" lon="11.938632778805074"><ele>22.0</ele><time>2026-04-19T06:52:36Z</time></trkpt><trkpt lat="42.03551530798405" lon="11.938504912970433"><ele>22.0</ele><time>2026-04-19T06:52:38Z</time></trkpt><trkpt lat="42.03555478896198" lon="11.938341707866188"><ele>22.0</ele><time>2026-04-19T06:52:40Z</time></trkpt><trkpt lat="42.03560064840306" lon="11.938253937297336"><ele>21.6</ele><time>2026-04-19T06:52:41Z</time></trkpt><trkpt lat="42.03563359866689" lon="11.93813317127759"><ele>21.200000000000003</ele><time>2026-04-19T06:52:42Z</time></trkpt><trkpt lat="42.0356863951135" lon="11.93801284026427"><ele>20.8</ele><time>2026-04-19T06:52:43Z</time></trkpt><trkpt lat="42.03574083264728" lon="11.937889964089688"><ele>20.4</ele><time>2026-04-19T06:52:44Z</time></trkpt><trkpt lat="42.03578489385971" lon="11.937763786172333"><ele>20.0</ele><time>2026-04-19T06:52:45Z</time></trkpt><trkpt lat="42.035835490631385" lon="11.937631645264487"><ele>19.2</ele><time>2026-04-19T06:52:46Z</time></trkpt><trkpt lat="42.0358990472271" lon="11.93750811461259"><ele>18.4</ele><time>2026-04-19T06:52:47Z</time></trkpt><trkpt lat="42.03594724903187" lon="11.937379397181676"><ele>17.6</ele><time>2026-04-19T06:52:48Z</time></trkpt><trkpt lat="42.03599715409667" lon="11.93724613127885"><ele>16.8</ele><time>2026-04-19T06:52:49Z</time></trkpt><trkpt lat="42.03602799801585" lon="11.93712073001301"><ele>16.0</ele><time>2026-04-19T06:52:50Z</time></trkpt><trkpt lat="42.03607174048594" lon="11.937013644278096"><ele>15.999999999999998</ele><time>2026-04-19T06:52:51Z</time></trkpt><trkpt lat="42.03611243009289" lon="11.936922948699467"><ele>16.0</ele><time>2026-04-19T06:52:52Z</time></trkpt><trkpt lat="42.036144052523866" lon="11.9368462423667"><ele>16.0</ele><time>2026-04-19T06:52:53Z</time></trkpt><trkpt lat="42.0361765004362" lon="11.936770461405882"><ele>16.0</ele><time>2026-04-19T06:52:53.999Z</time></trkpt><trkpt lat="42.03623894410061" lon="11.93661090502468"><ele>15.999999999999998</ele><time>2026-04-19T06:52:55.999Z</time></trkpt><trkpt lat="42.0362732886431" lon="11.93650553593374"><ele>16.0</ele><time>2026-04-19T06:52:56.999Z</time></trkpt><trkpt lat="42.03631325776396" lon="11.936379728884694"><ele>15.5</ele><time>2026-04-19T06:52:57.999Z</time></trkpt><trkpt lat="42.03634309333824" lon="11.936233691072758"><ele>15.0</ele><time>2026-04-19T06:52:58.999Z</time></trkpt><trkpt lat="42.0363886624085" lon="11.93609825354973"><ele>14.5</ele><time>2026-04-19T06:52:59.999Z</time></trkpt><trkpt lat="42.03643466134416" lon="11.935950862010785"><ele>14.0</ele><time>2026-04-19T06:53:00.999Z</time></trkpt><trkpt lat="42.03648792586328" lon="11.935794663941397"><ele>14.0</ele><time>2026-04-19T06:53:01.999Z</time></trkpt><trkpt lat="42.03653972640217" lon="11.935631537000553"><ele>14.0</ele><time>2026-04-19T06:53:02.999Z</time></trkpt><trkpt lat="42.03659184141951" lon="11.935470457229446"><ele>14.0</ele><time>2026-04-19T06:53:03.999Z</time></trkpt><trkpt lat="42.03664356678466" lon="11.935304354284725"><ele>14.0</ele><time>2026-04-19T06:53:04.999Z</time></trkpt><trkpt lat="42.036698444532156" lon="11.935136335203403"><ele>14.666666666666668</ele><time>2026-04-19T06:53:05.999Z</time></trkpt><trkpt lat="42.036747368293476" lon="11.934941379386757"><ele>15.333333333333332</ele><time>2026-04-19T06:53:06.999Z</time></trkpt><trkpt lat="42.03682431726236" lon="11.934735603338313"><ele>16.0</ele><time>2026-04-19T06:53:07.999Z</time></trkpt><trkpt lat="42.03689280656229" lon="11.93452818743402"><ele>16.0</ele><time>2026-04-19T06:53:08.999Z</time></trkpt><trkpt lat="42.03695923290214" lon="11.934329808919294"><ele>16.0</ele><time>2026-04-19T06:53:09.999Z</time></trkpt><trkpt lat="42.03702496465701" lon="11.934137123791839"><ele>16.0</ele><time>2026-04-19T06:53:10.999Z</time></trkpt><trkpt lat="42.03707483194271" lon="11.933939733491565"><ele>15.75</ele><time>2026-04-19T06:53:11.999Z</time></trkpt><trkpt lat="42.037140996004155" lon="11.933755775696266"><ele>15.5</ele><time>2026-04-19T06:53:12.999Z</time></trkpt><trkpt lat="42.0372088461229" lon="11.93358453575758"><ele>15.25</ele><time>2026-04-19T06:53:13.999Z</time></trkpt><trkpt lat="42.037274295903096" lon="11.93341155499803"><ele>15.0</ele><time>2026-04-19T06:53:14.999Z</time></trkpt><trkpt lat="42.03733864043763" lon="11.933237633040214"><ele>14.75</ele><time>2026-04-19T06:53:15.999Z</time></trkpt><trkpt lat="42.03740285338277" lon="11.933060881891624"><ele>14.5</ele><time>2026-04-19T06:53:16.999Z</time></trkpt><trkpt lat="42.03746968481913" lon="11.932880103340036"><ele>14.25</ele><time>2026-04-19T06:53:17.999Z</time></trkpt><trkpt lat="42.037556530150304" lon="11.932729064312063"><ele>14.0</ele><time>2026-04-19T06:53:18.999Z</time></trkpt><trkpt lat="42.0376262608965" lon="11.932573110856724"><ele>13.5</ele><time>2026-04-19T06:53:19.999Z</time></trkpt><trkpt lat="42.03765779806031" lon="11.932399861933435"><ele>13.0</ele><time>2026-04-19T06:53:20.999Z</time></trkpt><trkpt lat="42.03769072982543" lon="11.932222984570775"><ele>12.5</ele><time>2026-04-19T06:53:21.999Z</time></trkpt><trkpt lat="42.0377123535438" lon="11.932047290969027"><ele>12.0</ele><time>2026-04-19T06:53:22.999Z</time></trkpt><trkpt lat="42.03776871189588" lon="11.931881091357981"><ele>11.75</ele><time>2026-04-19T06:53:23.999Z</time></trkpt><trkpt lat="42.03781204290053" lon="11.931698992197937"><ele>11.5</ele><time>2026-04-19T06:53:24.999Z</time></trkpt><trkpt lat="42.037847897286404" lon="11.931525436705927"><ele>11.25</ele><time>2026-04-19T06:53:25.999Z</time></trkpt><trkpt lat="42.03788426370712" lon="11.931341653039027"><ele>11.0</ele><time>2026-04-19T06:53:26.999Z</time></trkpt><trkpt lat="42.037920618458486" lon="11.931157929016774"><ele>11.0</ele><time>2026-04-19T06:53:27.999Z</time></trkpt><trkpt lat="42.03795658615399" lon="11.930977883328167"><ele>11.0</ele><time>2026-04-19T06:53:28.999Z</time></trkpt><trkpt lat="42.0379907502469" lon="11.930806865255708"><ele>11.0</ele><time>2026-04-19T06:53:29.999Z</time></trkpt><trkpt lat="42.03802360924101" lon="11.930642380008425"><ele>11.0</ele><time>2026-04-19T06:53:30.999Z</time></trkpt><trkpt lat="42.038055005283134" lon="11.930485217834278"><ele>10.200000000000001</ele><time>2026-04-19T06:53:31.999Z</time></trkpt><trkpt lat="42.03808449918996" lon="11.930339830420428"><ele>9.4</ele><time>2026-04-19T06:53:32.999Z</time></trkpt><trkpt lat="42.03810512340905" lon="11.930208508582261"><ele>8.6</ele><time>2026-04-19T06:53:33.999Z</time></trkpt><trkpt lat="42.038124536175054" lon="11.930093793725577"><ele>7.8</ele><time>2026-04-19T06:53:34.999Z</time></trkpt><trkpt lat="42.03814133103399" lon="11.930006962189381"><ele>7.0</ele><time>2026-04-19T06:53:35.999Z</time></trkpt><trkpt lat="42.03819020746461" lon="11.929857837018297"><ele>7.000000000000001</ele><time>2026-04-19T06:53:37.999Z</time></trkpt><trkpt lat="42.03821349523181" lon="11.929758653380858"><ele>7.0</ele><time>2026-04-19T06:53:38.999Z</time></trkpt><trkpt lat="42.03823915434578" lon="11.929658183857551"><ele>7.0</ele><time>2026-04-19T06:53:39.999Z</time></trkpt><trkpt lat="42.038268918875666" lon="11.929547905639582"><ele>7.0</ele><time>2026-04-19T06:53:40.999Z</time></trkpt><trkpt lat="42.038298567922865" lon="11.929442587696306"><ele>7.000000000000001</ele><time>2026-04-19T06:53:41.999Z</time></trkpt><trkpt lat="42.03832972382771" lon="11.929351834532156"><ele>7.0</ele><time>2026-04-19T06:53:42.999Z</time></trkpt><trkpt lat="42.038353042248445" lon="11.929247474965145"><ele>7.0</ele><time>2026-04-19T06:53:43.999Z</time></trkpt><trkpt lat="42.03841487708328" lon="11.929150180476613"><ele>6.999999999999999</ele><time>2026-04-19T06:53:44.999Z</time></trkpt><trkpt lat="42.038469576925024" lon="11.929032715881394"><ele>6.999999999999999</ele><time>2026-04-19T06:53:45.999Z</time></trkpt><trkpt lat="42.03852569545279" lon="11.928912882527676"><ele>7.0</ele><time>2026-04-19T06:53:46.999Z</time></trkpt><trkpt lat="42.03859145105932" lon="11.928790361005184"><ele>7.0</ele><time>2026-04-19T06:53:47.999Z</time></trkpt><trkpt lat="42.03867092789784" lon="11.92867911451624"><ele>7.0</ele><time>2026-04-19T06:53:48.999Z</time></trkpt><trkpt lat="42.038719856129696" lon="11.928560417257101"><ele>6.999999999999999</ele><time>2026-04-19T06:53:49.999Z</time></trkpt><trkpt lat="42.03879417105939" lon="11.928465528065644"><ele>6.999999999999999</ele><time>2026-04-19T06:53:50.999Z</time></trkpt><trkpt lat="42.038852382927686" lon="11.928363853666465"><ele>7.0</ele><time>2026-04-19T06:53:51.999Z</time></trkpt><trkpt lat="42.03889103278723" lon="11.928258786140454"><ele>7.0</ele><time>2026-04-19T06:53:52.999Z</time></trkpt><trkpt lat="42.03894266129118" lon="11.928173030400988"><ele>6.6</ele><time>2026-04-19T06:53:53.999Z</time></trkpt><trkpt lat="42.03898340354414" lon="11.928089947398751"><ele>6.199999999999999</ele><time>2026-04-19T06:53:54.999Z</time></trkpt><trkpt lat="42.0390194978328" lon="11.928016665521605"><ele>5.8</ele><time>2026-04-19T06:53:55.999Z</time></trkpt><trkpt lat="42.03907983902661" lon="11.927900463353614"><ele>5.4</ele><time>2026-04-19T06:53:57.999Z</time></trkpt><trkpt lat="42.0391207411001" lon="11.927639183528305"><ele>5.0</ele><time>2026-04-19T06:54:28Z</time></trkpt><trkpt lat="42.03915554014747" lon="11.927544781595598"><ele>5.0</ele><time>2026-04-19T06:54:29Z</time></trkpt><trkpt lat="42.03920942626427" lon="11.927450767573806"><ele>5.0</ele><time>2026-04-19T06:54:30Z</time></trkpt><trkpt lat="42.03925052718696" lon="11.927310294418723"><ele>5.0</ele><time>2026-04-19T06:54:31Z</time></trkpt><trkpt lat="42.039278699980464" lon="11.927164747847003"><ele>5.0</ele><time>2026-04-19T06:54:32Z</time></trkpt><trkpt lat="42.039338213720754" lon="11.927034526112298"><ele>5.0</ele><time>2026-04-19T06:54:33Z</time></trkpt><trkpt lat="42.0393785427324" lon="11.926910044001373"><ele>5.0</ele><time>2026-04-19T06:54:34Z</time></trkpt><trkpt lat="42.039416841741755" lon="11.926791827341098"><ele>5.0</ele><time>2026-04-19T06:54:35Z</time></trkpt><trkpt lat="42.039456078332016" lon="11.926670716873481"><ele>5.0</ele><time>2026-04-19T06:54:36Z</time></trkpt><trkpt lat="42.039493983823704" lon="11.926515414944644"><ele>5.0</ele><time>2026-04-19T06:54:37Z</time></trkpt><trkpt lat="42.039556547586464" lon="11.926344476733677"><ele>5.0</ele><time>2026-04-19T06:54:38Z</time></trkpt><trkpt lat="42.03961903707903" lon="11.926162358758084"><ele>5.0</ele><time>2026-04-19T06:54:39Z</time></trkpt><trkpt lat="42.03967889220516" lon="11.92597581382507"><ele>5.0</ele><time>2026-04-19T06:54:40Z</time></trkpt><trkpt lat="42.03973617600046" lon="11.925798000333693"><ele>5.0</ele><time>2026-04-19T06:54:41Z</time></trkpt><trkpt lat="42.039807840966354" lon="11.925645960036462"><ele>5.0</ele><time>2026-04-19T06:54:42Z</time></trkpt><trkpt lat="42.03986406536687" lon="11.925491980158242"><ele>5.0</ele><time>2026-04-19T06:54:43Z</time></trkpt><trkpt lat="42.03991309334326" lon="11.925358232136508"><ele>5.0</ele><time>2026-04-19T06:54:44Z</time></trkpt><trkpt lat="42.039961308234744" lon="11.9252327787998"><ele>5.0</ele><time>2026-04-19T06:54:45Z</time></trkpt><trkpt lat="42.0400063699667" lon="11.925134153033705"><ele>5.0</ele><time>2026-04-19T06:54:46Z</time></trkpt><trkpt lat="42.04004155907835" lon="11.92504313422827"><ele>5.6</ele><time>2026-04-19T06:54:47Z</time></trkpt><trkpt lat="42.04011520233497" lon="11.924990019663136"><ele>6.2</ele><time>2026-04-19T06:54:48Z</time></trkpt><trkpt lat="42.040204960394746" lon="11.924981245404528"><ele>6.800000000000001</ele><time>2026-04-19T06:54:49Z</time></trkpt><trkpt lat="42.040289317411975" lon="11.924983062725596"><ele>7.4</ele><time>2026-04-19T06:54:50Z</time></trkpt><trkpt lat="42.040384419237625" lon="11.925004854703635"><ele>8.0</ele><time>2026-04-19T06:54:51Z</time></trkpt><trkpt lat="42.0404947682215" lon="11.92499187729354"><ele>8.0</ele><time>2026-04-19T06:54:52Z</time></trkpt><trkpt lat="42.040624926624524" lon="11.925006343464414"><ele>8.0</ele><time>2026-04-19T06:54:53Z</time></trkpt><trkpt lat="42.040770436505866" lon="11.925025276790553"><ele>8.0</ele><time>2026-04-19T06:54:54Z</time></trkpt><trkpt lat="42.04092484960174" lon="11.925035411461131"><ele>8.0</ele><time>2026-04-19T06:54:55Z</time></trkpt><trkpt lat="42.041077525239984" lon="11.925045102567035"><ele>8.25</ele><time>2026-04-19T06:54:56Z</time></trkpt><trkpt lat="42.041222539965176" lon="11.925054806168092"><ele>8.5</ele><time>2026-04-19T06:54:57Z</time></trkpt><trkpt lat="42.04136335110513" lon="11.92506316615929"><ele>8.75</ele><time>2026-04-19T06:54:58Z</time></trkpt><trkpt lat="42.041508054695576" lon="11.92507565619591"><ele>9.0</ele><time>2026-04-19T06:54:59Z</time></trkpt><trkpt lat="42.04165874559838" lon="11.925095961542782"><ele>10.0</ele><time>2026-04-19T06:55:00Z</time></trkpt><trkpt lat="42.04180382679945" lon="11.925115278057753"><ele>11.0</ele><time>2026-04-19T06:55:00.999Z</time></trkpt><trkpt lat="42.04194569262573" lon="11.925125888577602"><ele>12.0</ele><time>2026-04-19T06:55:01.999Z</time></trkpt><trkpt lat="42.04208168034278" lon="11.925136894902685"><ele>13.0</ele><time>2026-04-19T06:55:02.999Z</time></trkpt><trkpt lat="42.04221543601949" lon="11.925138924659041"><ele>13.0</ele><time>2026-04-19T06:55:03.999Z</time></trkpt><trkpt lat="42.042350822503764" lon="11.925133537537924"><ele>13.0</ele><time>2026-04-19T06:55:04.999Z</time></trkpt><trkpt lat="42.042485927384114" lon="11.925136903915535"><ele>13.0</ele><time>2026-04-19T06:55:05.999Z</time></trkpt><trkpt lat="42.04261645550576" lon="11.925142674004613"><ele>13.0</ele><time>2026-04-19T06:55:06.999Z</time></trkpt><trkpt lat="42.04274394480403" lon="11.925175662990117"><ele>14.25</ele><time>2026-04-19T06:55:07.999Z</time></trkpt><trkpt lat="42.042870416555516" lon="11.925190303297333"><ele>15.5</ele><time>2026-04-19T06:55:08.999Z</time></trkpt><trkpt lat="42.042996532571976" lon="11.925214630396129"><ele>16.75</ele><time>2026-04-19T06:55:09.999Z</time></trkpt><trkpt lat="42.043117853580675" lon="11.925245161371459"><ele>18.0</ele><time>2026-04-19T06:55:10.999Z</time></trkpt><trkpt lat="42.04323268086321" lon="11.925287003260593"><ele>18.5</ele><time>2026-04-19T06:55:11.999Z</time></trkpt><trkpt lat="42.04335918811775" lon="11.925318884884424"><ele>19.0</ele><time>2026-04-19T06:55:12.999Z</time></trkpt><trkpt lat="42.043467881240105" lon="11.925359661991852"><ele>19.5</ele><time>2026-04-19T06:55:13.999Z</time></trkpt><trkpt lat="42.04356370052153" lon="11.925422070267768"><ele>20.0</ele><time>2026-04-19T06:55:14.999Z</time></trkpt><trkpt lat="42.043666910904854" lon="11.925443844669026"><ele>20.0</ele><time>2026-04-19T06:55:15.999Z</time></trkpt><trkpt lat="42.04376315820136" lon="11.92548135029125"><ele>20.0</ele><time>2026-04-19T06:55:16.999Z</time></trkpt><trkpt lat="42.04384888520221" lon="11.925520453654173"><ele>20.0</ele><time>2026-04-19T06:55:17.999Z</time></trkpt><trkpt lat="42.043926673773356" lon="11.925537980975626"><ele>20.0</ele><time>2026-04-19T06:55:18.999Z</time></trkpt><trkpt lat="42.04402106447593" lon="11.925522684943147"><ele>20.0</ele><time>2026-04-19T06:55:19.999Z</time></trkpt><trkpt lat="42.04413517133437" lon="11.925477622968454"><ele>20.8</ele><time>2026-04-19T06:55:20.999Z</time></trkpt><trkpt lat="42.04425704732847" lon="11.925440689812792"><ele>21.6</ele><time>2026-04-19T06:55:21.999Z</time></trkpt><trkpt lat="42.044369723077985" lon="11.925417177225366"><ele>22.4</ele><time>2026-04-19T06:55:22.999Z</time></trkpt><trkpt lat="42.04446683220166" lon="11.92540076252145"><ele>23.2</ele><time>2026-04-19T06:55:23.999Z</time></trkpt><trkpt lat="42.044564965019" lon="11.925391296536969"><ele>24.0</ele><time>2026-04-19T06:55:24.999Z</time></trkpt><trkpt lat="42.044658368015355" lon="11.925389844326656"><ele>24.0</ele><time>2026-04-19T06:55:25.999Z</time></trkpt><trkpt lat="42.044742977983596" lon="11.925392729156265"><ele>24.0</ele><time>2026-04-19T06:55:26.999Z</time></trkpt><trkpt lat="42.044834776384896" lon="11.925378161791055"><ele>24.0</ele><time>2026-04-19T06:55:27.999Z</time></trkpt><trkpt lat="42.04490738197004" lon="11.925406410545072"><ele>24.0</ele><time>2026-04-19T06:55:28.999Z</time></trkpt><trkpt lat="42.04498175665961" lon="11.925405079557121"><ele>24.0</ele><time>2026-04-19T06:55:49.999Z</time></trkpt><trkpt lat="42.04505499392432" lon="11.925404411051561"><ele>24.0</ele><time>2026-04-19T06:55:53.999Z</time></trkpt><trkpt lat="42.04516466366611" lon="11.925419800698718"><ele>24.25</ele><time>2026-04-19T06:56:11Z</time></trkpt><trkpt lat="42.045256662671534" lon="11.925422103239722"><ele>24.5</ele><time>2026-04-19T06:56:12Z</time></trkpt><trkpt lat="42.04538018695082" lon="11.925445054612071"><ele>24.75</ele><time>2026-04-19T06:56:13Z</time></trkpt><trkpt lat="42.04550053801586" lon="11.925487188470392"><ele>25.0</ele><time>2026-04-19T06:56:14Z</time></trkpt><trkpt lat="42.04562076195441" lon="11.925502878319719"><ele>25.0</ele><time>2026-04-19T06:56:15Z</time></trkpt><trkpt lat="42.045740450170236" lon="11.925502763302354"><ele>25.0</ele><time>2026-04-19T06:56:16Z</time></trkpt><trkpt lat="42.04585015086997" lon="11.925520662858764"><ele>25.0</ele><time>2026-04-19T06:56:17Z</time></trkpt><trkpt lat="42.045938855180076" lon="11.925557252571602"><ele>25.0</ele><time>2026-04-19T06:56:18Z</time></trkpt><trkpt lat="42.04601497840944" lon="11.925584340080126"><ele>25.0</ele><time>2026-04-19T06:56:19Z</time></trkpt><trkpt lat="42.046090591513085" lon="11.925627963228987"><ele>25.333333333333336</ele><time>2026-04-19T06:56:20Z</time></trkpt><trkpt lat="42.046169971015715" lon="11.925666226301392"><ele>25.666666666666668</ele><time>2026-04-19T06:56:21Z</time></trkpt><trkpt lat="42.046190216389476" lon="11.925766555665593"><ele>26.0</ele><time>2026-04-19T06:56:22Z</time></trkpt><trkpt lat="42.04625926198718" lon="11.92581879043051"><ele>26.333333333333336</ele><time>2026-04-19T06:56:23Z</time></trkpt><trkpt lat="42.04633342292232" lon="11.925871673385771"><ele>26.666666666666668</ele><time>2026-04-19T06:56:24Z</time></trkpt><trkpt lat="42.04642378341907" lon="11.925934764358828"><ele>27.0</ele><time>2026-04-19T06:56:25Z</time></trkpt><trkpt lat="42.04674177360213" lon="11.925596475676171"><ele>27.25</ele><time>2026-04-19T06:56:26Z</time></trkpt><trkpt lat="42.04685242414013" lon="11.925619297578944"><ele>27.5</ele><time>2026-04-19T06:56:27Z</time></trkpt><trkpt lat="42.04697224281557" lon="11.925621911650593"><ele>27.75</ele><time>2026-04-19T06:56:28Z</time></trkpt><trkpt lat="42.047097620678734" lon="11.925611798710689"><ele>28.0</ele><time>2026-04-19T06:56:29Z</time></trkpt><trkpt lat="42.047220068827826" lon="11.92561526612603"><ele>28.0</ele><time>2026-04-19T06:56:30Z</time></trkpt><trkpt lat="42.047342673487776" lon="11.925629295449994"><ele>28.0</ele><time>2026-04-19T06:56:31Z</time></trkpt><trkpt lat="42.04745970471413" lon="11.925636357271783"><ele>28.0</ele><time>2026-04-19T06:56:32Z</time></trkpt><trkpt lat="42.04757151812175" lon="11.925632657431585"><ele>28.0</ele><time>2026-04-19T06:56:33Z</time></trkpt><trkpt lat="42.04768574601298" lon="11.925642456381189"><ele>28.5</ele><time>2026-04-19T06:56:34Z</time></trkpt><trkpt lat="42.047804274769824" lon="11.92565208003428"><ele>29.0</ele><time>2026-04-19T06:56:35Z</time></trkpt><trkpt lat="42.047926055695086" lon="11.925666276901943"><ele>29.5</ele><time>2026-04-19T06:56:36Z</time></trkpt><trkpt lat="42.0480412271826" lon="11.925678485003413"><ele>30.0</ele><time>2026-04-19T06:56:37Z</time></trkpt><trkpt lat="42.048148296074835" lon="11.925697478666232"><ele>30.0</ele><time>2026-04-19T06:56:38Z</time></trkpt><trkpt lat="42.04824871664161" lon="11.92571604530497"><ele>30.0</ele><time>2026-04-19T06:56:39Z</time></trkpt><trkpt lat="42.048356389537176" lon="11.925724920913826"><ele>30.0</ele><time>2026-04-19T06:56:40Z</time></trkpt><trkpt lat="42.048469034849774" lon="11.925725536485574"><ele>30.0</ele><time>2026-04-19T06:56:41Z</time></trkpt><trkpt lat="42.04857222576262" lon="11.925735503040128"><ele>30.0</ele><time>2026-04-19T06:56:42Z</time></trkpt><trkpt lat="42.048681390656945" lon="11.925748046686126"><ele>31.4</ele><time>2026-04-19T06:56:43Z</time></trkpt><trkpt lat="42.04877031303103" lon="11.92575600566671"><ele>32.8</ele><time>2026-04-19T06:56:44Z</time></trkpt><trkpt lat="42.048863124240114" lon="11.925758259227424"><ele>34.2</ele><time>2026-04-19T06:56:45Z</time></trkpt><trkpt lat="42.04895312779783" lon="11.925766237920582"><ele>35.6</ele><time>2026-04-19T06:56:46Z</time></trkpt><trkpt lat="42.04903530114825" lon="11.925766181346797"><ele>37.0</ele><time>2026-04-19T06:56:47Z</time></trkpt><trkpt lat="42.049130723969874" lon="11.925759663970119"><ele>37.6</ele><time>2026-04-19T06:56:48Z</time></trkpt><trkpt lat="42.049223937638075" lon="11.92577096129528"><ele>38.2</ele><time>2026-04-19T06:56:49Z</time></trkpt><trkpt lat="42.04931449556546" lon="11.925779161320763"><ele>38.8</ele><time>2026-04-19T06:56:50Z</time></trkpt><trkpt lat="42.04940237753631" lon="11.925778763514051"><ele>39.4</ele><time>2026-04-19T06:56:51Z</time></trkpt><trkpt lat="42.04951133657272" lon="11.925789599871502"><ele>40.0</ele><time>2026-04-19T06:56:52Z</time></trkpt><trkpt lat="42.049629087251475" lon="11.925799022299186"><ele>40.0</ele><time>2026-04-19T06:56:53Z</time></trkpt><trkpt lat="42.049754098697235" lon="11.925810026175341"><ele>40.0</ele><time>2026-04-19T06:56:54Z</time></trkpt><trkpt lat="42.04987726532421" lon="11.925830075135233"><ele>40.0</ele><time>2026-04-19T06:56:55Z</time></trkpt><trkpt lat="42.05000678514212" lon="11.925846909721649"><ele>40.0</ele><time>2026-04-19T06:56:56Z</time></trkpt><trkpt lat="42.050127273978184" lon="11.925866953416845"><ele>40.75</ele><time>2026-04-19T06:56:57Z</time></trkpt><trkpt lat="42.05025078723869" lon="11.925876725775028"><ele>41.5</ele><time>2026-04-19T06:56:58Z</time></trkpt><trkpt lat="42.05037335800637" lon="11.925891350602116"><ele>42.25</ele><time>2026-04-19T06:56:59Z</time></trkpt><trkpt lat="42.05049328223886" lon="11.925900727413403"><ele>43.0</ele><time>2026-04-19T06:57:00Z</time></trkpt><trkpt lat="42.050606090609165" lon="11.92591716465205"><ele>43.0</ele><time>2026-04-19T06:57:01Z</time></trkpt><trkpt lat="42.0507200476816" lon="11.925919896312504"><ele>43.0</ele><time>2026-04-19T06:57:02Z</time></trkpt><trkpt lat="42.050833488888635" lon="11.92592783802202"><ele>43.0</ele><time>2026-04-19T06:57:03Z</time></trkpt><trkpt lat="42.05094375183377" lon="11.925943677034605"><ele>43.0</ele><time>2026-04-19T06:57:04Z</time></trkpt><trkpt lat="42.0510626655628" lon="11.925955885030167"><ele>45.25</ele><time>2026-04-19T06:57:05Z</time></trkpt><trkpt lat="42.05118213301538" lon="11.925963963807407"><ele>47.5</ele><time>2026-04-19T06:57:06Z</time></trkpt><trkpt lat="42.05130325719179" lon="11.925976659876758"><ele>49.75</ele><time>2026-04-19T06:57:06.999Z</time></trkpt><trkpt lat="42.051414282798554" lon="11.925974758528298"><ele>52.0</ele><time>2026-04-19T06:57:07.999Z</time></trkpt><trkpt lat="42.051537620664085" lon="11.92597135649117"><ele>53.400000000000006</ele><time>2026-04-19T06:57:08.999Z</time></trkpt><trkpt lat="42.051651842958854" lon="11.925977439729248"><ele>54.800000000000004</ele><time>2026-04-19T06:57:09.999Z</time></trkpt><trkpt lat="42.051755447361785" lon="11.925979869948776"><ele>56.2</ele><time>2026-04-19T06:57:10.999Z</time></trkpt><trkpt lat="42.05185760470329" lon="11.92598266910042"><ele>57.6</ele><time>2026-04-19T06:57:11.999Z</time></trkpt><trkpt lat="42.05195437651951" lon="11.92599238967562"><ele>59.0</ele><time>2026-04-19T06:57:12.999Z</time></trkpt><trkpt lat="42.05205287259362" lon="11.926004534668158"><ele>59.0</ele><time>2026-04-19T06:57:13.999Z</time></trkpt><trkpt lat="42.05215412341425" lon="11.926017083977916"><ele>59.00000000000001</ele><time>2026-04-19T06:57:14.999Z</time></trkpt><trkpt lat="42.052264287173074" lon="11.926032520458087"><ele>59.00000000000001</ele><time>2026-04-19T06:57:15.999Z</time></trkpt><trkpt lat="42.052362302923285" lon="11.926034301847029"><ele>59.0</ele><time>2026-04-19T06:57:16.999Z</time></trkpt><trkpt lat="42.05245022121361" lon="11.926030523304805"><ele>59.0</ele><time>2026-04-19T06:57:17.999Z</time></trkpt><trkpt lat="42.05251855060068" lon="11.926038431507992"><ele>60.50000000000001</ele><time>2026-04-19T06:57:18.999Z</time></trkpt><trkpt lat="42.0525851033609" lon="11.926042615376078"><ele>62.0</ele><time>2026-04-19T06:57:19.999Z</time></trkpt><trkpt lat="42.05265212896496" lon="11.926036142729096"><ele>63.5</ele><time>2026-04-19T06:57:20.999Z</time></trkpt><trkpt lat="42.052727448224964" lon="11.926024001893827"><ele>65.0</ele><time>2026-04-19T06:57:21.999Z</time></trkpt><trkpt lat="42.05287237596824" lon="11.92600150256993"><ele>66.5</ele><time>2026-04-19T06:57:23.999Z</time></trkpt><trkpt lat="42.05295343147704" lon="11.925993942654832"><ele>68.0</ele><time>2026-04-19T06:57:24.999Z</time></trkpt><trkpt lat="42.053032467584465" lon="11.925985928389931"><ele>68.0</ele><time>2026-04-19T06:57:25.999Z</time></trkpt><trkpt lat="42.05312246971615" lon="11.925977650940238"><ele>68.0</ele><time>2026-04-19T06:57:26.999Z</time></trkpt><trkpt lat="42.05319940868695" lon="11.925954190335563"><ele>68.0</ele><time>2026-04-19T06:57:27.999Z</time></trkpt><trkpt lat="42.05326267043974" lon="11.925927670892486"><ele>68.0</ele><time>2026-04-19T06:57:28.999Z</time></trkpt><trkpt lat="42.05333456088498" lon="11.925940212916956"><ele>68.0</ele><time>2026-04-19T06:58:01.999Z</time></trkpt><trkpt lat="42.05341384569958" lon="11.925928675078"><ele>68.0</ele><time>2026-04-19T06:58:40Z</time></trkpt><trkpt lat="42.05350809675154" lon="11.925939113326942"><ele>69.57142857142857</ele><time>2026-04-19T06:58:42Z</time></trkpt><trkpt lat="42.053569571766225" lon="11.925966900799978"><ele>71.14285714285714</ele><time>2026-04-19T06:58:43Z</time></trkpt><trkpt lat="42.05362857576753" lon="11.926007500174318"><ele>72.71428571428572</ele><time>2026-04-19T06:58:44Z</time></trkpt><trkpt lat="42.05370207910202" lon="11.926016443005311"><ele>74.28571428571428</ele><time>2026-04-19T06:58:45Z</time></trkpt><trkpt lat="42.05377367768057" lon="11.926033053677859"><ele>75.85714285714286</ele><time>2026-04-19T06:58:46Z</time></trkpt><trkpt lat="42.05385287021737" lon="11.926055181901543"><ele>77.42857142857143</ele><time>2026-04-19T06:58:47Z</time></trkpt><trkpt lat="42.05392975436672" lon="11.926067639181385"><ele>79.0</ele><time>2026-04-19T06:58:48Z</time></trkpt><trkpt lat="42.05399624548144" lon="11.926060300457669"><ele>79.0</ele><time>2026-04-19T06:58:49Z</time></trkpt><trkpt lat="42.05405942010487" lon="11.926058347598008"><ele>79.0</ele><time>2026-04-19T06:58:50Z</time></trkpt><trkpt lat="42.054165681572705" lon="11.926074548035581"><ele>79.0</ele><time>2026-04-19T06:58:52Z</time></trkpt><trkpt lat="42.05428692440265" lon="11.926085002737683"><ele>79.0</ele><time>2026-04-19T06:58:54Z</time></trkpt><trkpt lat="42.054349956725886" lon="11.926099052742652"><ele>79.0</ele><time>2026-04-19T06:58:55Z</time></trkpt><trkpt lat="42.05442413269784" lon="11.926105749216491"><ele>79.0</ele><time>2026-04-19T06:58:56Z</time></trkpt><trkpt lat="42.054542950003814" lon="11.926164353776558"><ele>81.33333333333333</ele><time>2026-04-19T06:58:58Z</time></trkpt><trkpt lat="42.05464624307838" lon="11.926196819741309"><ele>83.66666666666666</ele><time>2026-04-19T06:58:59Z</time></trkpt><trkpt lat="42.05474686939928" lon="11.9262217341339"><ele>86.0</ele><time>2026-04-19T06:59:01Z</time></trkpt><trkpt lat="42.054813916105125" lon="11.92624087292445"><ele>88.33333333333333</ele><time>2026-04-19T06:59:02Z</time></trkpt><trkpt lat="42.05488419611563" lon="11.926254290010492"><ele>90.66666666666667</ele><time>2026-04-19T06:59:03Z</time></trkpt><trkpt lat="42.05496076106435" lon="11.92631286941862"><ele>93.0</ele><time>2026-04-19T06:59:05Z</time></trkpt><trkpt lat="42.055040987803174" lon="11.926340504251652"><ele>94.16666666666667</ele><time>2026-04-19T06:59:07Z</time></trkpt><trkpt lat="42.05511236114276" lon="11.926373026699698"><ele>95.33333333333334</ele><time>2026-04-19T06:59:08Z</time></trkpt><trkpt lat="42.055178533357264" lon="11.926418756197114"><ele>96.5</ele><time>2026-04-19T06:59:09Z</time></trkpt><trkpt lat="42.05526643607789" lon="11.92643688486943"><ele>97.66666666666667</ele><time>2026-04-19T06:59:10Z</time></trkpt><trkpt lat="42.05533708476366" lon="11.926461930307076"><ele>98.83333333333334</ele><time>2026-04-19T06:59:10.999Z</time></trkpt><trkpt lat="42.05539819360308" lon="11.926487432362798"><ele>100.0</ele><time>2026-04-19T06:59:11.999Z</time></trkpt><trkpt lat="42.05549142858557" lon="11.92650884866045"><ele>100.00000000000001</ele><time>2026-04-19T06:59:12.999Z</time></trkpt><trkpt lat="42.05555180193977" lon="11.926535864265604"><ele>100.0</ele><time>2026-04-19T06:59:13.999Z</time></trkpt><trkpt lat="42.05560379649431" lon="11.926590250649905"><ele>100.0</ele><time>2026-04-19T06:59:14.999Z</time></trkpt><trkpt lat="42.055662078618255" lon="11.926659071327613"><ele>100.0</ele><time>2026-04-19T06:59:15.999Z</time></trkpt><trkpt lat="42.055732034751365" lon="11.92669978522162"><ele>100.0</ele><time>2026-04-19T06:59:16.999Z</time></trkpt><trkpt lat="42.05581940814524" lon="11.926768854664525"><ele>100.00000000000001</ele><time>2026-04-19T06:59:18.999Z</time></trkpt><trkpt lat="42.055883389609896" lon="11.926771006592217"><ele>100.0</ele><time>2026-04-19T06:59:19.999Z</time></trkpt><trkpt lat="42.05594575311863" lon="11.926803797856266"><ele>102.83333333333334</ele><time>2026-04-19T06:59:20.999Z</time></trkpt><trkpt lat="42.0559489833789" lon="11.92689667123075"><ele>105.66666666666667</ele><time>2026-04-19T06:59:22.999Z</time></trkpt><trkpt lat="42.056025643140046" lon="11.926932479575669"><ele>108.5</ele><time>2026-04-19T06:59:24.999Z</time></trkpt><trkpt lat="42.05613397706484" lon="11.926998463384763"><ele>111.33333333333334</ele><time>2026-04-19T06:59:26.999Z</time></trkpt><trkpt lat="42.056228373945586" lon="11.927034430625184"><ele>114.16666666666667</ele><time>2026-04-19T06:59:28.999Z</time></trkpt><trkpt lat="42.05629023912702" lon="11.927075912967265"><ele>117.0</ele><time>2026-04-19T06:59:30.999Z</time></trkpt><trkpt lat="42.05636545091097" lon="11.927107983015915"><ele>117.0</ele><time>2026-04-19T06:59:32.999Z</time></trkpt><trkpt lat="42.056416179725844" lon="11.927167876042894"><ele>117.0</ele><time>2026-04-19T06:59:34.999Z</time></trkpt><trkpt lat="42.056512752430564" lon="11.927222212410829"><ele>117.0</ele><time>2026-04-19T06:59:36.999Z</time></trkpt><trkpt lat="42.056572563206686" lon="11.927263477019446"><ele>117.0</ele><time>2026-04-19T06:59:38.999Z</time></trkpt><trkpt lat="42.056644750204185" lon="11.927306195316618"><ele>117.0</ele><time>2026-04-19T06:59:40.999Z</time></trkpt><trkpt lat="42.056715714489854" lon="11.927305092744652"><ele>117.0</ele><time>2026-04-19T06:59:41.999Z</time></trkpt><trkpt lat="42.05691277449027" lon="11.927253718493894"><ele>117.8</ele><time>2026-04-19T06:59:45.999Z</time></trkpt><trkpt lat="42.05697491140266" lon="11.927292356142384"><ele>118.6</ele><time>2026-04-19T06:59:46.999Z</time></trkpt><trkpt lat="42.05705151861783" lon="11.927322058309285"><ele>119.39999999999999</ele><time>2026-04-19T06:59:47.999Z</time></trkpt><trkpt lat="42.057116621216515" lon="11.927327873190277"><ele>120.19999999999999</ele><time>2026-04-19T06:59:48.999Z</time></trkpt><trkpt lat="42.05733804217726" lon="11.927340110852105"><ele>121.0</ele><time>2026-04-19T06:59:52.999Z</time></trkpt><trkpt lat="42.05744548781793" lon="11.927369728827022"><ele>127.25</ele><time>2026-04-19T06:59:54.999Z</time></trkpt><trkpt lat="42.057544955813526" lon="11.92757551269148"><ele>133.5</ele><time>2026-04-19T06:59:59.999Z</time></trkpt><trkpt lat="42.05763185890647" lon="11.927626451151204"><ele>139.75</ele><time>2026-04-19T07:00:01.999Z</time></trkpt><trkpt lat="42.057743755456336" lon="11.927656594767221"><ele>146.0</ele><time>2026-04-19T07:00:03.999Z</time></trkpt><trkpt lat="42.05780923645803" lon="11.927685504234262"><ele>146.0</ele><time>2026-04-19T07:00:04.999Z</time></trkpt><trkpt lat="42.05790294848153" lon="11.927729439694176"><ele>146.0</ele><time>2026-04-19T07:00:06.999Z</time></trkpt><trkpt lat="42.05799957706624" lon="11.92777995067588"><ele>146.0</ele><time>2026-04-19T07:00:08.999Z</time></trkpt><trkpt lat="42.05805273461343" lon="11.92783492815706"><ele>146.0</ele><time>2026-04-19T07:00:10.999Z</time></trkpt><trkpt lat="42.05813213571041" lon="11.927888584674935"><ele>146.0</ele><time>2026-04-19T07:00:12.999Z</time></trkpt><trkpt lat="42.05821778395718" lon="11.927975924019309"><ele>146.33333333333331</ele><time>2026-04-19T07:00:14.999Z</time></trkpt><trkpt lat="42.05829093558317" lon="11.928033866527604"><ele>146.66666666666666</ele><time>2026-04-19T07:00:16.999Z</time></trkpt><trkpt lat="42.0583231588034" lon="11.92810887224745"><ele>147.0</ele><time>2026-04-19T07:01:22.999Z</time></trkpt><trkpt lat="42.05838643790268" lon="11.92821170216711"><ele>147.33333333333334</ele><time>2026-04-19T07:01:24.999Z</time></trkpt><trkpt lat="42.058446323121935" lon="11.928275332083265"><ele>147.66666666666669</ele><time>2026-04-19T07:01:25.999Z</time></trkpt><trkpt lat="42.05853046586146" lon="11.928358396040982"><ele>148.0</ele><time>2026-04-19T07:01:27.999Z</time></trkpt><trkpt lat="42.05862279619077" lon="11.928438996923049"><ele>148.0</ele><time>2026-04-19T07:01:29.999Z</time></trkpt><trkpt lat="42.05867604517541" lon="11.928489392622993"><ele>148.0</ele><time>2026-04-19T07:01:30.999Z</time></trkpt><trkpt lat="42.05873828594455" lon="11.928556973850359"><ele>148.0</ele><time>2026-04-19T07:01:31.999Z</time></trkpt><trkpt lat="42.05880167115476" lon="11.92857599022388"><ele>148.0</ele><time>2026-04-19T07:01:32.999Z</time></trkpt><trkpt lat="42.05892430513051" lon="11.928643516668664"><ele>148.0</ele><time>2026-04-19T07:01:35.999Z</time></trkpt><trkpt lat="42.05899898035581" lon="11.928752166759283"><ele>148.0</ele><time>2026-04-19T07:01:37.999Z</time></trkpt><trkpt lat="42.05906932190327" lon="11.928910002861356"><ele>148.0</ele><time>2026-04-19T07:01:39.999Z</time></trkpt><trkpt lat="42.059135762780656" lon="11.928949786424047"><ele>148.0</ele><time>2026-04-19T07:01:40.999Z</time></trkpt><trkpt lat="42.059184324954444" lon="11.929003928239151"><ele>148.0</ele><time>2026-04-19T07:01:41.999Z</time></trkpt><trkpt lat="42.05931283956297" lon="11.92909106578606"><ele>148.0</ele><time>2026-04-19T07:01:43.999Z</time></trkpt><trkpt lat="42.05938294928186" lon="11.929148280437326"><ele>146.20000000000002</ele><time>2026-04-19T07:01:44.999Z</time></trkpt><trkpt lat="42.05945054505087" lon="11.929203312000146"><ele>144.4</ele><time>2026-04-19T07:01:45.999Z</time></trkpt><trkpt lat="42.059534000054846" lon="11.929236356949806"><ele>142.60000000000002</ele><time>2026-04-19T07:01:46.999Z</time></trkpt><trkpt lat="42.059628775576115" lon="11.929311825987229"><ele>140.8</ele><time>2026-04-19T07:01:48.999Z</time></trkpt><trkpt lat="42.05972019191896" lon="11.9292368376949"><ele>139.0</ele><time>2026-04-19T07:01:49.999Z</time></trkpt><trkpt lat="42.05980011361568" lon="11.929212262792339"><ele>138.4</ele><time>2026-04-19T07:01:50.999Z</time></trkpt><trkpt lat="42.059950366678265" lon="11.929169061028553"><ele>137.8</ele><time>2026-04-19T07:01:52.999Z</time></trkpt><trkpt lat="42.060018157626715" lon="11.929165628706995"><ele>137.2</ele><time>2026-04-19T07:01:53.999Z</time></trkpt><trkpt lat="42.06009858508654" lon="11.929161929307524"><ele>136.6</ele><time>2026-04-19T07:01:54.999Z</time></trkpt><trkpt lat="42.06022933248703" lon="11.92914580118386"><ele>136.0</ele><time>2026-04-19T07:01:56.999Z</time></trkpt><trkpt lat="42.06029402040967" lon="11.92913374526333"><ele>136.0</ele><time>2026-04-19T07:01:57.999Z</time></trkpt><trkpt lat="42.06035501965427" lon="11.92910854629554"><ele>136.0</ele><time>2026-04-19T07:01:58.999Z</time></trkpt><trkpt lat="42.060455312345034" lon="11.929063553599466"><ele>136.0</ele><time>2026-04-19T07:02:00.999Z</time></trkpt><trkpt lat="42.060552681360655" lon="11.929018587814927"><ele>136.0</ele><time>2026-04-19T07:02:02.999Z</time></trkpt><trkpt lat="42.060669535017276" lon="11.928939537289102"><ele>136.0</ele><time>2026-04-19T07:02:03.999Z</time></trkpt><trkpt lat="42.06075581472307" lon="11.928835438409708"><ele>136.75</ele><time>2026-04-19T07:02:05.999Z</time></trkpt><trkpt lat="42.060801111073424" lon="11.928548139955572"><ele>137.5</ele><time>2026-04-19T07:02:09.999Z</time></trkpt><trkpt lat="42.0608530395919" lon="11.928479135306054"><ele>138.25</ele><time>2026-04-19T07:02:10.999Z</time></trkpt><trkpt lat="42.060965043870645" lon="11.928435747465327"><ele>139.0</ele><time>2026-04-19T07:02:11.999Z</time></trkpt><trkpt lat="42.06102572967909" lon="11.928366957361467"><ele>139.0</ele><time>2026-04-19T07:02:12.999Z</time></trkpt><trkpt lat="42.06108052757631" lon="11.928297849319861"><ele>139.0</ele><time>2026-04-19T07:02:13.999Z</time></trkpt><trkpt lat="42.06113315786348" lon="11.928251115058746"><ele>139.0</ele><time>2026-04-19T07:02:14.999Z</time></trkpt><trkpt lat="42.06121694643236" lon="11.92814841551414"><ele>139.0</ele><time>2026-04-19T07:02:16.999Z</time></trkpt><trkpt lat="42.06153736337397" lon="11.927966450681131"><ele>139.0</ele><time>2026-04-19T07:02:22.999Z</time></trkpt><trkpt lat="42.06159358584501" lon="11.927912346148146"><ele>139.0</ele><time>2026-04-19T07:02:24Z</time></trkpt><trkpt lat="42.06167425711932" lon="11.92788131703079"><ele>139.0</ele><time>2026-04-19T07:02:25Z</time></trkpt><trkpt lat="42.06173552078274" lon="11.92781204559229"><ele>139.0</ele><time>2026-04-19T07:02:27Z</time></trkpt><trkpt lat="42.06181780768478" lon="11.927811095076336"><ele>139.0</ele><time>2026-04-19T07:02:28Z</time></trkpt><trkpt lat="42.06193121543655" lon="11.927735927814812"><ele>139.0</ele><time>2026-04-19T07:02:30Z</time></trkpt><trkpt lat="42.06205344750037" lon="11.927629048534344"><ele>139.5</ele><time>2026-04-19T07:02:32Z</time></trkpt><trkpt lat="42.0621583703147" lon="11.927574345280462"><ele>140.0</ele><time>2026-04-19T07:02:33Z</time></trkpt><trkpt lat="42.06231241371219" lon="11.927463772949375"><ele>140.5</ele><time>2026-04-19T07:02:35Z</time></trkpt><trkpt lat="42.06241068573329" lon="11.927511433996102"><ele>141.0</ele><time>2026-04-19T07:02:36Z</time></trkpt><trkpt lat="42.062516625188685" lon="11.927440224806604"><ele>141.0</ele><time>2026-04-19T07:02:38Z</time></trkpt><trkpt lat="42.062699295058245" lon="11.927410587257667"><ele>141.0</ele><time>2026-04-19T07:02:41Z</time></trkpt><trkpt lat="42.06277733899627" lon="11.927396707822512"><ele>141.0</ele><time>2026-04-19T07:02:42Z</time></trkpt><trkpt lat="42.062809925250065" lon="11.92731703003498"><ele>141.0</ele><time>2026-04-19T07:02:43Z</time></trkpt><trkpt lat="42.06287241494879" lon="11.927265612339086"><ele>141.0</ele><time>2026-04-19T07:02:44Z</time></trkpt><trkpt lat="42.06294235741351" lon="11.927208922800867"><ele>141.0</ele><time>2026-04-19T07:02:45Z</time></trkpt><trkpt lat="42.063001418953824" lon="11.927152152042758"><ele>141.0</ele><time>2026-04-19T07:02:46Z</time></trkpt><trkpt lat="42.06304913057937" lon="11.92709509453093"><ele>141.0</ele><time>2026-04-19T07:02:47Z</time></trkpt><trkpt lat="42.063212006202995" lon="11.927110101643306"><ele>141.0</ele><time>2026-04-19T07:02:49Z</time></trkpt><trkpt lat="42.06356174355609" lon="11.92709112558791"><ele>140.2</ele><time>2026-04-19T07:02:53Z</time></trkpt><trkpt lat="42.063623640651116" lon="11.927152942556122"><ele>139.39999999999998</ele><time>2026-04-19T07:02:54Z</time></trkpt><trkpt lat="42.06370209540596" lon="11.927203061881857"><ele>138.6</ele><time>2026-04-19T07:02:56Z</time></trkpt><trkpt lat="42.063780872905795" lon="11.927233432322648"><ele>137.79999999999998</ele><time>2026-04-19T07:02:57Z</time></trkpt><trkpt lat="42.0639029659581" lon="11.927278130506696"><ele>137.0</ele><time>2026-04-19T07:02:59Z</time></trkpt><trkpt lat="42.0639757305146" lon="11.92734609782946"><ele>137.0</ele><time>2026-04-19T07:03:01Z</time></trkpt><trkpt lat="42.06405236578719" lon="11.927306012450622"><ele>137.0</ele><time>2026-04-19T07:03:02Z</time></trkpt><trkpt lat="42.06414072232763" lon="11.927259013988857"><ele>137.0</ele><time>2026-04-19T07:03:03Z</time></trkpt><trkpt lat="42.06421911813494" lon="11.927232104006332"><ele>137.0</ele><time>2026-04-19T07:03:04Z</time></trkpt><trkpt lat="42.06429166317141" lon="11.927216230545815"><ele>137.0</ele><time>2026-04-19T07:03:05Z</time></trkpt><trkpt lat="42.064382081967906" lon="11.927136795380175"><ele>137.0</ele><time>2026-04-19T07:03:07Z</time></trkpt><trkpt lat="42.06449966449099" lon="11.92712145774088"><ele>136.4</ele><time>2026-04-19T07:03:09Z</time></trkpt><trkpt lat="42.06456423407483" lon="11.927135144708284"><ele>135.79999999999998</ele><time>2026-04-19T07:03:11Z</time></trkpt><trkpt lat="42.064707105330505" lon="11.927140659831847"><ele>135.2</ele><time>2026-04-19T07:03:13Z</time></trkpt><trkpt lat="42.06478589324719" lon="11.927129830184334"><ele>134.6</ele><time>2026-04-19T07:03:15Z</time></trkpt><trkpt lat="42.06485665574097" lon="11.927109796457666"><ele>134.0</ele><time>2026-04-19T07:03:17Z</time></trkpt><trkpt lat="42.064942930664614" lon="11.926953993753422"><ele>133.5</ele><time>2026-04-19T07:03:18Z</time></trkpt><trkpt lat="42.064983130116296" lon="11.926884413722517"><ele>133.0</ele><time>2026-04-19T07:03:19Z</time></trkpt><trkpt lat="42.0650514906638" lon="11.92680077007957"><ele>132.5</ele><time>2026-04-19T07:03:20Z</time></trkpt><trkpt lat="42.065103994117266" lon="11.926746390470184"><ele>132.0</ele><time>2026-04-19T07:03:21Z</time></trkpt><trkpt lat="42.065143308232486" lon="11.926577837241567"><ele>131.5</ele><time>2026-04-19T07:03:22.999Z</time></trkpt><trkpt lat="42.06517551332986" lon="11.926502030988098"><ele>131.0</ele><time>2026-04-19T07:03:23.999Z</time></trkpt><trkpt lat="42.06519934751355" lon="11.926349912750053"><ele>134.33333333333331</ele><time>2026-04-19T07:03:25.999Z</time></trkpt><trkpt lat="42.06520674511322" lon="11.926254191336033"><ele>137.66666666666666</ele><time>2026-04-19T07:03:26.999Z</time></trkpt><trkpt lat="42.06522868587344" lon="11.926165577853032"><ele>141.0</ele><time>2026-04-19T07:03:27.999Z</time></trkpt><trkpt lat="42.065254539541854" lon="11.926083157791737"><ele>144.33333333333334</ele><time>2026-04-19T07:03:28.999Z</time></trkpt><trkpt lat="42.065272881992314" lon="11.925994393328782"><ele>147.66666666666669</ele><time>2026-04-19T07:03:29.999Z</time></trkpt><trkpt lat="42.06528488847028" lon="11.92585452105608"><ele>151.0</ele><time>2026-04-19T07:03:31.999Z</time></trkpt><trkpt lat="42.065321371174115" lon="11.925755137981742"><ele>153.5</ele><time>2026-04-19T07:03:34.999Z</time></trkpt><trkpt lat="42.065377710192244" lon="11.925653783008347"><ele>156.0</ele><time>2026-04-19T07:03:36.999Z</time></trkpt><trkpt lat="42.065429703547835" lon="11.925535299239993"><ele>158.5</ele><time>2026-04-19T07:03:37.999Z</time></trkpt><trkpt lat="42.06545461700741" lon="11.925441673181089"><ele>161.0</ele><time>2026-04-19T07:03:38.999Z</time></trkpt><trkpt lat="42.065466126148536" lon="11.925306585794646"><ele>163.5</ele><time>2026-04-19T07:03:40.999Z</time></trkpt><trkpt lat="42.065464396882135" lon="11.925208171795537"><ele>166.0</ele><time>2026-04-19T07:03:42.999Z</time></trkpt><trkpt lat="42.06549631245606" lon="11.925115588470673"><ele>166.8</ele><time>2026-04-19T07:03:43.999Z</time></trkpt><trkpt lat="42.06552719509532" lon="11.92503259289578"><ele>167.60000000000002</ele><time>2026-04-19T07:03:44.999Z</time></trkpt><trkpt lat="42.06555191946425" lon="11.924872758676807"><ele>168.4</ele><time>2026-04-19T07:03:46.999Z</time></trkpt><trkpt lat="42.06559421855182" lon="11.924970960889706"><ele>169.2</ele><time>2026-04-19T07:03:47.999Z</time></trkpt><trkpt lat="42.06568907832452" lon="11.924805820931468"><ele>170.0</ele><time>2026-04-19T07:03:52.999Z</time></trkpt><trkpt lat="42.065715371444426" lon="11.924712346791917"><ele>170.0</ele><time>2026-04-19T07:03:53.999Z</time></trkpt><trkpt lat="42.06578068805988" lon="11.924625759770812"><ele>170.0</ele><time>2026-04-19T07:03:54.999Z</time></trkpt><trkpt lat="42.065778750214314" lon="11.924517393820674"><ele>170.0</ele><time>2026-04-19T07:03:56.999Z</time></trkpt><trkpt lat="42.065734473181244" lon="11.924420582097577"><ele>170.0</ele><time>2026-04-19T07:03:58.999Z</time></trkpt><trkpt lat="42.06578060389198" lon="11.924316581667457"><ele>170.0</ele><time>2026-04-19T07:04:00.999Z</time></trkpt><trkpt lat="42.065800323435845" lon="11.924213810572803"><ele>170.0</ele><time>2026-04-19T07:04:03.999Z</time></trkpt><trkpt lat="42.06583328834451" lon="11.924107169219289"><ele>169.66666666666666</ele><time>2026-04-19T07:04:05.999Z</time></trkpt><trkpt lat="42.065848919211014" lon="11.92401705124486"><ele>169.33333333333331</ele><time>2026-04-19T07:04:06.999Z</time></trkpt><trkpt lat="42.06586609528012" lon="11.923931651646628"><ele>169.0</ele><time>2026-04-19T07:04:07.999Z</time></trkpt><trkpt lat="42.06589069827076" lon="11.92379230705757"><ele>168.66666666666666</ele><time>2026-04-19T07:04:09.999Z</time></trkpt><trkpt lat="42.06594774459194" lon="11.9237385928977"><ele>168.33333333333334</ele><time>2026-04-19T07:04:10.999Z</time></trkpt><trkpt lat="42.06598448503734" lon="11.923568913486072"><ele>168.0</ele><time>2026-04-19T07:04:12.999Z</time></trkpt><trkpt lat="42.066072734415094" lon="11.923395120474733"><ele>169.33333333333334</ele><time>2026-04-19T07:04:14.999Z</time></trkpt><trkpt lat="42.06610076733769" lon="11.923267475598243"><ele>170.66666666666666</ele><time>2026-04-19T07:04:16.999Z</time></trkpt><trkpt lat="42.066163104260895" lon="11.923191771082017"><ele>172.0</ele><time>2026-04-19T07:04:18.999Z</time></trkpt><trkpt lat="42.0662199220265" lon="11.923152006102248"><ele>173.33333333333331</ele><time>2026-04-19T07:04:20.999Z</time></trkpt><trkpt lat="42.06627282528949" lon="11.9230400455303"><ele>174.66666666666666</ele><time>2026-04-19T07:04:22.999Z</time></trkpt><trkpt lat="42.06631894494066" lon="11.922970533698749"><ele>176.0</ele><time>2026-04-19T07:04:24.999Z</time></trkpt><trkpt lat="42.06640415541446" lon="11.92297596226083"><ele>176.0</ele><time>2026-04-19T07:04:26.999Z</time></trkpt><trkpt lat="42.066471178188095" lon="11.923012801461377"><ele>176.0</ele><time>2026-04-19T07:04:27.999Z</time></trkpt><trkpt lat="42.06655373484728" lon="11.9230249974045"><ele>176.0</ele><time>2026-04-19T07:04:30Z</time></trkpt><trkpt lat="42.066689550572825" lon="11.923028955784337"><ele>176.0</ele><time>2026-04-19T07:05:51.999Z</time></trkpt><trkpt lat="42.06676272430864" lon="11.923050586250795"><ele>176.0</ele><time>2026-04-19T07:05:52.999Z</time></trkpt><trkpt lat="42.06688667125665" lon="11.923092768888365"><ele>175.20000000000002</ele><time>2026-04-19T07:05:53.999Z</time></trkpt><trkpt lat="42.06698604240372" lon="11.923148034509557"><ele>174.4</ele><time>2026-04-19T07:05:54.999Z</time></trkpt><trkpt lat="42.06707593180593" lon="11.923247670692431"><ele>173.6</ele><time>2026-04-19T07:05:56.999Z</time></trkpt><trkpt lat="42.067161098859756" lon="11.92331888134352"><ele>172.8</ele><time>2026-04-19T07:05:58.999Z</time></trkpt><trkpt lat="42.06721645417081" lon="11.923373456621341"><ele>172.0</ele><time>2026-04-19T07:06:00.999Z</time></trkpt><trkpt lat="42.067281168088236" lon="11.923450672525522"><ele>172.5</ele><time>2026-04-19T07:06:02.999Z</time></trkpt><trkpt lat="42.06736575294926" lon="11.923500464296511"><ele>173.0</ele><time>2026-04-19T07:06:04.999Z</time></trkpt><trkpt lat="42.06759066511661" lon="11.923546940678458"><ele>173.5</ele><time>2026-04-19T07:06:09.999Z</time></trkpt><trkpt lat="42.067680433367194" lon="11.923659811261466"><ele>174.0</ele><time>2026-04-19T07:06:11.999Z</time></trkpt><trkpt lat="42.06774586505808" lon="11.923766558844033"><ele>174.0</ele><time>2026-04-19T07:06:13.999Z</time></trkpt><trkpt lat="42.06787029168629" lon="11.92391272958122"><ele>174.0</ele><time>2026-04-19T07:06:15.999Z</time></trkpt><trkpt lat="42.06793858038692" lon="11.924041685957508"><ele>174.0</ele><time>2026-04-19T07:06:17.999Z</time></trkpt><trkpt lat="42.06799656852915" lon="11.92410267266791"><ele>174.0</ele><time>2026-04-19T07:06:18.999Z</time></trkpt><trkpt lat="42.06809104059077" lon="11.924243512148074"><ele>171.79999999999998</ele><time>2026-04-19T07:06:20.999Z</time></trkpt><trkpt lat="42.068100510349254" lon="11.924346094840278"><ele>169.6</ele><time>2026-04-19T07:06:22.999Z</time></trkpt><trkpt lat="42.06808793898116" lon="11.92448691173669"><ele>167.4</ele><time>2026-04-19T07:06:25.999Z</time></trkpt><trkpt lat="42.06813594338667" lon="11.924602958704794"><ele>165.2</ele><time>2026-04-19T07:06:27.999Z</time></trkpt><trkpt lat="42.06816441283743" lon="11.924724217070315"><ele>163.0</ele><time>2026-04-19T07:06:29.999Z</time></trkpt><trkpt lat="42.06821197563534" lon="11.924853274212026"><ele>163.0</ele><time>2026-04-19T07:06:31.999Z</time></trkpt><trkpt lat="42.06825172450244" lon="11.924946163866988"><ele>163.0</ele><time>2026-04-19T07:06:32.999Z</time></trkpt><trkpt lat="42.06829241392541" lon="11.925082978439592"><ele>163.0</ele><time>2026-04-19T07:06:34.999Z</time></trkpt><trkpt lat="42.06836696680527" lon="11.925261859558102"><ele>163.0</ele><time>2026-04-19T07:06:37Z</time></trkpt><trkpt lat="42.06839822222745" lon="11.92534596041618"><ele>163.0</ele><time>2026-04-19T07:06:38Z</time></trkpt><trkpt lat="42.068472403455765" lon="11.92545829777859"><ele>163.2</ele><time>2026-04-19T07:06:40Z</time></trkpt><trkpt lat="42.068485065054055" lon="11.92558162143059"><ele>163.4</ele><time>2026-04-19T07:06:42Z</time></trkpt><trkpt lat="42.06846471386314" lon="11.925663559967429"><ele>163.6</ele><time>2026-04-19T07:06:43Z</time></trkpt><trkpt lat="42.068489050812936" lon="11.925814510857359"><ele>163.79999999999998</ele><time>2026-04-19T07:06:45Z</time></trkpt><trkpt lat="42.06855572863491" lon="11.925925350677717"><ele>164.0</ele><time>2026-04-19T07:06:47Z</time></trkpt><trkpt lat="42.06862809981574" lon="11.925957092122003"><ele>161.75</ele><time>2026-04-19T07:06:49Z</time></trkpt><trkpt lat="42.06880521737467" lon="11.926074659411697"><ele>159.5</ele><time>2026-04-19T07:06:52Z</time></trkpt><trkpt lat="42.06890341060466" lon="11.926171225356223"><ele>157.25</ele><time>2026-04-19T07:06:54Z</time></trkpt><trkpt lat="42.06898769505316" lon="11.926206702745166"><ele>155.0</ele><time>2026-04-19T07:06:55Z</time></trkpt><trkpt lat="42.06905175895804" lon="11.9262718462317"><ele>155.0</ele><time>2026-04-19T07:06:56Z</time></trkpt><trkpt lat="42.069101064288056" lon="11.926338940307732"><ele>155.0</ele><time>2026-04-19T07:06:57Z</time></trkpt><trkpt lat="42.06915589543457" lon="11.92638124756164"><ele>155.0</ele><time>2026-04-19T07:06:58Z</time></trkpt><trkpt lat="42.06920885346721" lon="11.92643649142024"><ele>155.0</ele><time>2026-04-19T07:06:59Z</time></trkpt><trkpt lat="42.0693129026203" lon="11.926585139452968"><ele>155.0</ele><time>2026-04-19T07:07:01Z</time></trkpt><trkpt lat="42.06935925723608" lon="11.92666382830824"><ele>155.0</ele><time>2026-04-19T07:07:02Z</time></trkpt><trkpt lat="42.06945214434846" lon="11.926718399163798"><ele>154.5</ele><time>2026-04-19T07:07:04Z</time></trkpt><trkpt lat="42.069515614928086" lon="11.926833922606395"><ele>154.0</ele><time>2026-04-19T07:07:06Z</time></trkpt><trkpt lat="42.06961075640624" lon="11.926864393740235"><ele>153.5</ele><time>2026-04-19T07:07:08Z</time></trkpt><trkpt lat="42.06979787144129" lon="11.926843246359448"><ele>153.0</ele><time>2026-04-19T07:07:28Z</time></trkpt><trkpt lat="42.06984967055186" lon="11.926939170974004"><ele>153.0</ele><time>2026-04-19T07:07:32Z</time></trkpt><trkpt lat="42.06991910225947" lon="11.92697758068993"><ele>153.0</ele><time>2026-04-19T07:07:33.999Z</time></trkpt><trkpt lat="42.07003299780568" lon="11.926990836114912"><ele>153.0</ele><time>2026-04-19T07:07:35.999Z</time></trkpt><trkpt lat="42.07006479932062" lon="11.926914706865183"><ele>153.0</ele><time>2026-04-19T07:07:46.999Z</time></trkpt><trkpt lat="42.07013673357365" lon="11.926877721831005"><ele>153.0</ele><time>2026-04-19T07:07:49.999Z</time></trkpt><trkpt lat="42.07020265848623" lon="11.92685443550157"><ele>153.0</ele><time>2026-04-19T07:07:52.999Z</time></trkpt><trkpt lat="42.07030040778016" lon="11.926946721351502"><ele>154.0</ele><time>2026-04-19T07:08:27.999Z</time></trkpt><trkpt lat="42.07038515928117" lon="11.927002166706833"><ele>155.0</ele><time>2026-04-19T07:08:29.999Z</time></trkpt><trkpt lat="42.07045309270383" lon="11.927033795165764"><ele>156.0</ele><time>2026-04-19T07:08:30.999Z</time></trkpt><trkpt lat="42.070541660909846" lon="11.927089014972015"><ele>157.0</ele><time>2026-04-19T07:08:32.999Z</time></trkpt><trkpt lat="42.07064409140179" lon="11.92716564307352"><ele>158.0</ele><time>2026-04-19T07:08:34.999Z</time></trkpt><trkpt lat="42.070717889880264" lon="11.92728175693774"><ele>159.16666666666666</ele><time>2026-04-19T07:08:36.999Z</time></trkpt><trkpt lat="42.07078660290501" lon="11.927336901814565"><ele>160.33333333333331</ele><time>2026-04-19T07:08:38.999Z</time></trkpt><trkpt lat="42.07086147782209" lon="11.927398951202713"><ele>161.5</ele><time>2026-04-19T07:08:53Z</time></trkpt><trkpt lat="42.07093268382257" lon="11.927464707660913"><ele>162.66666666666666</ele><time>2026-04-19T07:08:56Z</time></trkpt><trkpt lat="42.070968867658344" lon="11.927562513256762"><ele>163.83333333333334</ele><time>2026-04-19T07:08:58Z</time></trkpt><trkpt lat="42.07101269256179" lon="11.927684250054412"><ele>165.0</ele><time>2026-04-19T07:09:00Z</time></trkpt><trkpt lat="42.07105929364058" lon="11.927779586884883"><ele>162.0</ele><time>2026-04-19T07:09:03Z</time></trkpt><trkpt lat="42.07112280694073" lon="11.927853861064936"><ele>159.0</ele><time>2026-04-19T07:09:05Z</time></trkpt><trkpt lat="42.07118893466727" lon="11.927895451825364"><ele>156.0</ele><time>2026-04-19T07:09:07Z</time></trkpt><trkpt lat="42.07136450564454" lon="11.927949762634404"><ele>153.0</ele><time>2026-04-19T07:09:11Z</time></trkpt><trkpt lat="42.07141081265021" lon="11.928021207455506"><ele>150.0</ele><time>2026-04-19T07:09:12Z</time></trkpt><trkpt lat="42.07146607834657" lon="11.9280795175875"><ele>150.0</ele><time>2026-04-19T07:09:13Z</time></trkpt><trkpt lat="42.07154799268465" lon="11.928195498068488"><ele>150.0</ele><time>2026-04-19T07:09:15Z</time></trkpt><trkpt lat="42.07159772214308" lon="11.928336862359744"><ele>150.0</ele><time>2026-04-19T07:09:17Z</time></trkpt><trkpt lat="42.07168609432818" lon="11.928410820898444"><ele>150.0</ele><time>2026-04-19T07:09:19Z</time></trkpt><trkpt lat="42.07175675629401" lon="11.928364909506604"><ele>150.0</ele><time>2026-04-19T07:10:04.999Z</time></trkpt><trkpt lat="42.07184600374367" lon="11.928294362687064"><ele>152.16666666666666</ele><time>2026-04-19T07:10:10.999Z</time></trkpt><trkpt lat="42.071910868319826" lon="11.928241430207464"><ele>154.33333333333334</ele><time>2026-04-19T07:10:11.999Z</time></trkpt><trkpt lat="42.07199146622055" lon="11.928186103498051"><ele>156.5</ele><time>2026-04-19T07:10:12.999Z</time></trkpt><trkpt lat="42.072058677333644" lon="11.928136121673"><ele>158.66666666666669</ele><time>2026-04-19T07:10:13.999Z</time></trkpt><trkpt lat="42.0721178646465" lon="11.928093335810985"><ele>160.83333333333334</ele><time>2026-04-19T07:10:14.999Z</time></trkpt><trkpt lat="42.07218618302135" lon="11.927974054538478"><ele>163.0</ele><time>2026-04-19T07:10:16.999Z</time></trkpt><trkpt lat="42.07221382407026" lon="11.92787337601276"><ele>163.0</ele><time>2026-04-19T07:10:17.999Z</time></trkpt><trkpt lat="42.0723469306546" lon="11.927881794751652"><ele>163.0</ele><time>2026-04-19T07:10:19.999Z</time></trkpt><trkpt lat="42.07241775497543" lon="11.927842152196154"><ele>163.0</ele><time>2026-04-19T07:10:20.999Z</time></trkpt><trkpt lat="42.0724259771178" lon="11.9275451524904"><ele>163.0</ele><time>2026-04-19T07:10:24.999Z</time></trkpt><trkpt lat="42.072518026968766" lon="11.92741402047328"><ele>168.0</ele><time>2026-04-19T07:10:26.999Z</time></trkpt><trkpt lat="42.072569256513084" lon="11.927353531739191"><ele>173.0</ele><time>2026-04-19T07:10:27.999Z</time></trkpt><trkpt lat="42.07269290496439" lon="11.9273495283934"><ele>178.0</ele><time>2026-04-19T07:10:29.999Z</time></trkpt><trkpt lat="42.07279152346674" lon="11.927283250401677"><ele>183.0</ele><time>2026-04-19T07:10:31.999Z</time></trkpt><trkpt lat="42.072859493085446" lon="11.927175591126474"><ele>188.0</ele><time>2026-04-19T07:10:33.999Z</time></trkpt><trkpt lat="42.072929128997394" lon="11.927112506878577"><ele>188.0</ele><time>2026-04-19T07:10:35.999Z</time></trkpt><trkpt lat="42.0729992846473" lon="11.927076047570694"><ele>188.0</ele><time>2026-04-19T07:10:37.999Z</time></trkpt><trkpt lat="42.07316290082039" lon="11.927029379657808"><ele>188.0</ele><time>2026-04-19T07:10:39.999Z</time></trkpt><trkpt lat="42.073236439335574" lon="11.926988655821324"><ele>188.0</ele><time>2026-04-19T07:10:40.999Z</time></trkpt><trkpt lat="42.07330620628449" lon="11.926956196237924"><ele>188.0</ele><time>2026-04-19T07:10:42.999Z</time></trkpt><trkpt lat="42.07340175497155" lon="11.926830611919984"><ele>187.60000000000002</ele><time>2026-04-19T07:10:44.999Z</time></trkpt><trkpt lat="42.07345225117134" lon="11.926770605323801"><ele>187.20000000000002</ele><time>2026-04-19T07:10:45.999Z</time></trkpt><trkpt lat="42.073520799605824" lon="11.926652968296654"><ele>186.8</ele><time>2026-04-19T07:10:48Z</time></trkpt><trkpt lat="42.073616398868396" lon="11.926540116791994"><ele>186.4</ele><time>2026-04-19T07:10:50Z</time></trkpt><trkpt lat="42.07373227751567" lon="11.926563392544825"><ele>186.0</ele><time>2026-04-19T07:10:52Z</time></trkpt><trkpt lat="42.073798953587044" lon="11.926515822232876"><ele>189.4</ele><time>2026-04-19T07:10:54Z</time></trkpt><trkpt lat="42.07382640420946" lon="11.926435026774902"><ele>192.8</ele><time>2026-04-19T07:10:56Z</time></trkpt><trkpt lat="42.07386654714347" lon="11.926242359349622"><ele>196.20000000000002</ele><time>2026-04-19T07:10:59Z</time></trkpt><trkpt lat="42.07394521431871" lon="11.926224084283882"><ele>199.60000000000002</ele><time>2026-04-19T07:11:00Z</time></trkpt><trkpt lat="42.07400054147915" lon="11.926160041484065"><ele>203.0</ele><time>2026-04-19T07:11:01Z</time></trkpt><trkpt lat="42.07407774500897" lon="11.92610222742795"><ele>201.75</ele><time>2026-04-19T07:11:02Z</time></trkpt><trkpt lat="42.07415335945557" lon="11.926045100544103"><ele>200.5</ele><time>2026-04-19T07:11:03Z</time></trkpt><trkpt lat="42.074230179384756" lon="11.925948252210416"><ele>199.25</ele><time>2026-04-19T07:11:05Z</time></trkpt><trkpt lat="42.07415626647056" lon="11.926038535559561"><ele>198.0</ele><time>2026-04-19T07:11:06Z</time></trkpt><trkpt lat="42.07429430114055" lon="11.925928913597765"><ele>201.0</ele><time>2026-04-19T07:11:10Z</time></trkpt><trkpt lat="42.074349067701505" lon="11.925878479970342"><ele>204.0</ele><time>2026-04-19T07:11:11Z</time></trkpt><trkpt lat="42.074405924556935" lon="11.925755532071962"><ele>207.0</ele><time>2026-04-19T07:11:12Z</time></trkpt><trkpt lat="42.07446455818388" lon="11.92569198366958"><ele>210.0</ele><time>2026-04-19T07:11:13Z</time></trkpt><trkpt lat="42.074509445534346" lon="11.925608674885442"><ele>213.0</ele><time>2026-04-19T07:11:14Z</time></trkpt><trkpt lat="42.0746066032461" lon="11.92555340198836"><ele>216.0</ele><time>2026-04-19T07:11:16Z</time></trkpt><trkpt lat="42.07467263245692" lon="11.925528922807004"><ele>216.0</ele><time>2026-04-19T07:11:17Z</time></trkpt><trkpt lat="42.07477040921337" lon="11.925510052440313"><ele>216.00000000000003</ele><time>2026-04-19T07:11:18Z</time></trkpt><trkpt lat="42.07483354807037" lon="11.925475881505687"><ele>216.00000000000003</ele><time>2026-04-19T07:11:19Z</time></trkpt><trkpt lat="42.07492682701257" lon="11.925383900505008"><ele>216.0</ele><time>2026-04-19T07:11:21Z</time></trkpt><trkpt lat="42.074990516224425" lon="11.925261702241038"><ele>216.0</ele><time>2026-04-19T07:11:22Z</time></trkpt><trkpt lat="42.07504659007257" lon="11.925199419972508"><ele>215.66666666666666</ele><time>2026-04-19T07:11:23Z</time></trkpt><trkpt lat="42.075114621409256" lon="11.925128523700486"><ele>215.33333333333331</ele><time>2026-04-19T07:11:24Z</time></trkpt><trkpt lat="42.07517986009119" lon="11.925052270445773"><ele>215.0</ele><time>2026-04-19T07:11:25Z</time></trkpt><trkpt lat="42.07523038726468" lon="11.924979147185525"><ele>214.66666666666666</ele><time>2026-04-19T07:11:26Z</time></trkpt><trkpt lat="42.075294843589006" lon="11.924928048533607"><ele>214.33333333333331</ele><time>2026-04-19T07:11:27Z</time></trkpt><trkpt lat="42.07536348682925" lon="11.9248633731046"><ele>214.0</ele><time>2026-04-19T07:11:28Z</time></trkpt><trkpt lat="42.0754327658019" lon="11.924777616003881"><ele>216.79999999999998</ele><time>2026-04-19T07:11:29Z</time></trkpt><trkpt lat="42.07549453078753" lon="11.924724090165254"><ele>219.59999999999997</ele><time>2026-04-19T07:11:30Z</time></trkpt><trkpt lat="42.07556047553602" lon="11.92469401754494"><ele>222.4</ele><time>2026-04-19T07:11:31Z</time></trkpt><trkpt lat="42.075641214562474" lon="11.924675103673897"><ele>225.2</ele><time>2026-04-19T07:11:32Z</time></trkpt><trkpt lat="42.07583678104909" lon="11.924647368890785"><ele>228.0</ele><time>2026-04-19T07:11:34Z</time></trkpt><trkpt lat="42.0759264844965" lon="11.92457377082618"><ele>228.0</ele><time>2026-04-19T07:11:36Z</time></trkpt><trkpt lat="42.076044633085935" lon="11.924483813103565"><ele>228.0</ele><time>2026-04-19T07:11:38Z</time></trkpt><trkpt lat="42.076110372439025" lon="11.924452050453205"><ele>228.0</ele><time>2026-04-19T07:11:39Z</time></trkpt><trkpt lat="42.07621092320591" lon="11.924389538063428"><ele>228.0</ele><time>2026-04-19T07:11:40Z</time></trkpt><trkpt lat="42.0763334857496" lon="11.924305712055034"><ele>229.2</ele><time>2026-04-19T07:11:41Z</time></trkpt><trkpt lat="42.07634615397678" lon="11.924190425647996"><ele>230.4</ele><time>2026-04-19T07:11:43Z</time></trkpt><trkpt lat="42.07644052097177" lon="11.924214358379357"><ele>231.59999999999997</ele><time>2026-04-19T07:11:45Z</time></trkpt><trkpt lat="42.07651069931145" lon="11.924174606865693"><ele>232.79999999999998</ele><time>2026-04-19T07:11:47Z</time></trkpt><trkpt lat="42.07662594314809" lon="11.924250744364908"><ele>234.0</ele><time>2026-04-19T07:11:48.999Z</time></trkpt><trkpt lat="42.07675719525104" lon="11.924242254332102"><ele>234.6</ele><time>2026-04-19T07:11:50.999Z</time></trkpt><trkpt lat="42.07682513612322" lon="11.924224999128027"><ele>235.2</ele><time>2026-04-19T07:11:51.999Z</time></trkpt><trkpt lat="42.07691542185162" lon="11.92417024126278"><ele>235.79999999999998</ele><time>2026-04-19T07:11:53.999Z</time></trkpt><trkpt lat="42.07703042462663" lon="11.924051909671219"><ele>236.39999999999998</ele><time>2026-04-19T07:11:55.999Z</time></trkpt><trkpt lat="42.077106125829424" lon="11.924002103028585"><ele>237.0</ele><time>2026-04-19T07:11:56.999Z</time></trkpt><trkpt lat="42.07717521786047" lon="11.923971026245898"><ele>237.0</ele><time>2026-04-19T07:11:57.999Z</time></trkpt><trkpt lat="42.07726357811849" lon="11.923969504393405"><ele>237.0</ele><time>2026-04-19T07:11:58.999Z</time></trkpt><trkpt lat="42.077339850956484" lon="11.923954822725198"><ele>237.0</ele><time>2026-04-19T07:11:59.999Z</time></trkpt><trkpt lat="42.077469520961934" lon="11.923921910522148"><ele>237.0</ele><time>2026-04-19T07:12:01.999Z</time></trkpt><trkpt lat="42.077524219267275" lon="11.923861174708472"><ele>237.0</ele><time>2026-04-19T07:12:02.999Z</time></trkpt><trkpt lat="42.077646977789534" lon="11.92380714668079"><ele>237.16666666666666</ele><time>2026-04-19T07:12:04.999Z</time></trkpt><trkpt lat="42.07770576211642" lon="11.923768882130432"><ele>237.33333333333331</ele><time>2026-04-19T07:12:05.999Z</time></trkpt><trkpt lat="42.07777351874069" lon="11.923700007459022"><ele>237.5</ele><time>2026-04-19T07:12:06.999Z</time></trkpt><trkpt lat="42.077826551092784" lon="11.92359548226619"><ele>237.66666666666666</ele><time>2026-04-19T07:12:07.999Z</time></trkpt><trkpt lat="42.07788982090479" lon="11.923517289257685"><ele>237.83333333333331</ele><time>2026-04-19T07:12:08.999Z</time></trkpt><trkpt lat="42.077963128433595" lon="11.923444197462173"><ele>238.0</ele><time>2026-04-19T07:12:09.999Z</time></trkpt><trkpt lat="42.07802565847001" lon="11.923370189627077"><ele>238.83333333333331</ele><time>2026-04-19T07:12:10.999Z</time></trkpt><trkpt lat="42.07808375364545" lon="11.923291738783623"><ele>239.66666666666666</ele><time>2026-04-19T07:12:11.999Z</time></trkpt><trkpt lat="42.07815851708738" lon="11.92322153728975"><ele>240.5</ele><time>2026-04-19T07:12:12.999Z</time></trkpt><trkpt lat="42.07823366095338" lon="11.9231602639963"><ele>241.33333333333331</ele><time>2026-04-19T07:12:13.999Z</time></trkpt><trkpt lat="42.07828393618832" lon="11.923097695781385"><ele>242.16666666666666</ele><time>2026-04-19T07:12:14.999Z</time></trkpt><trkpt lat="42.078332652806004" lon="11.923033605357718"><ele>243.0</ele><time>2026-04-19T07:12:15.999Z</time></trkpt><trkpt lat="42.0784635504169" lon="11.922976517583297"><ele>243.0</ele><time>2026-04-19T07:12:17.999Z</time></trkpt><trkpt lat="42.07841450716712" lon="11.922858329522864"><ele>243.0</ele><time>2026-04-19T07:12:18.999Z</time></trkpt><trkpt lat="42.078464421555154" lon="11.92277025149025"><ele>243.0</ele><time>2026-04-19T07:12:20.999Z</time></trkpt><trkpt lat="42.0785703310218" lon="11.922780347995792"><ele>243.0</ele><time>2026-04-19T07:12:22.999Z</time></trkpt><trkpt lat="42.07866511836284" lon="11.92276720020887"><ele>243.0</ele><time>2026-04-19T07:12:24.999Z</time></trkpt><trkpt lat="42.07876495746524" lon="11.922769376988853"><ele>243.0</ele><time>2026-04-19T07:12:26.999Z</time></trkpt><trkpt lat="42.079008668977814" lon="11.92287061354413"><ele>243.0</ele><time>2026-04-19T07:12:29.999Z</time></trkpt><trkpt lat="42.07908177731826" lon="11.922844326812053"><ele>243.0</ele><time>2026-04-19T07:12:30.999Z</time></trkpt><trkpt lat="42.079176747805" lon="11.922827619318904"><ele>243.0</ele><time>2026-04-19T07:12:32.999Z</time></trkpt><trkpt lat="42.079236796667274" lon="11.92279717190637"><ele>243.4</ele><time>2026-04-19T07:12:33.999Z</time></trkpt><trkpt lat="42.07932166955963" lon="11.922803551940763"><ele>243.8</ele><time>2026-04-19T07:12:35.999Z</time></trkpt><trkpt lat="42.07940034890724" lon="11.922821454755244"><ele>244.2</ele><time>2026-04-19T07:12:37.999Z</time></trkpt><trkpt lat="42.07947586651316" lon="11.92283318961262"><ele>244.6</ele><time>2026-04-19T07:12:38.999Z</time></trkpt><trkpt lat="42.07955331329073" lon="11.922861215440886"><ele>245.0</ele><time>2026-04-19T07:12:39.999Z</time></trkpt><trkpt lat="42.07972640788534" lon="11.92286924167187"><ele>245.0</ele><time>2026-04-19T07:12:41.999Z</time></trkpt><trkpt lat="42.07979477725878" lon="11.92286767915727"><ele>245.0</ele><time>2026-04-19T07:12:42.999Z</time></trkpt><trkpt lat="42.079865467524016" lon="11.922855048410623"><ele>245.0</ele><time>2026-04-19T07:12:43.999Z</time></trkpt><trkpt lat="42.07994448812109" lon="11.922824777757764"><ele>245.0</ele><time>2026-04-19T07:12:44.999Z</time></trkpt><trkpt lat="42.080051828048596" lon="11.922788540470933"><ele>245.0</ele><time>2026-04-19T07:12:46.999Z</time></trkpt><trkpt lat="42.08019450587813" lon="11.922775580666041"><ele>245.5</ele><time>2026-04-19T07:12:50.999Z</time></trkpt><trkpt lat="42.08027990765178" lon="11.922696364268656"><ele>246.0</ele><time>2026-04-19T07:12:52.999Z</time></trkpt><trkpt lat="42.08040179319966" lon="11.922637648851556"><ele>246.5</ele><time>2026-04-19T07:12:55Z</time></trkpt><trkpt lat="42.0805315087323" lon="11.922577532204969"><ele>247.0</ele><time>2026-04-19T07:12:56Z</time></trkpt><trkpt lat="42.08063830597744" lon="11.922494961257925"><ele>249.0</ele><time>2026-04-19T07:12:57Z</time></trkpt><trkpt lat="42.080714372927936" lon="11.922416500930918"><ele>251.0</ele><time>2026-04-19T07:12:58Z</time></trkpt><trkpt lat="42.08080918365542" lon="11.9223422879479"><ele>253.0</ele><time>2026-04-19T07:12:59Z</time></trkpt><trkpt lat="42.08087699293382" lon="11.922254665835082"><ele>255.0</ele><time>2026-04-19T07:13:00Z</time></trkpt><trkpt lat="42.08098575149766" lon="11.922227026005523"><ele>257.0</ele><time>2026-04-19T07:13:01Z</time></trkpt><trkpt lat="42.08105634457029" lon="11.922191219738865"><ele>257.0</ele><time>2026-04-19T07:13:02Z</time></trkpt><trkpt lat="42.08117726450244" lon="11.92219593744523"><ele>257.0</ele><time>2026-04-19T07:13:04Z</time></trkpt><trkpt lat="42.08135034954151" lon="11.922238195999553"><ele>257.0</ele><time>2026-04-19T07:13:07Z</time></trkpt><trkpt lat="42.08147913635808" lon="11.922285870806705"><ele>257.0</ele><time>2026-04-19T07:13:09Z</time></trkpt><trkpt lat="42.08154382035006" lon="11.922383412978167"><ele>257.75</ele><time>2026-04-19T07:13:11Z</time></trkpt><trkpt lat="42.08162268571826" lon="11.922400051086282"><ele>258.5</ele><time>2026-04-19T07:13:15Z</time></trkpt><trkpt lat="42.08166642018353" lon="11.922257548528535"><ele>259.25</ele><time>2026-04-19T07:13:17Z</time></trkpt><trkpt lat="42.08190497251012" lon="11.92214699381913"><ele>260.0</ele><time>2026-04-19T07:13:22Z</time></trkpt><trkpt lat="42.08197996333796" lon="11.92208331984036"><ele>260.0</ele><time>2026-04-19T07:13:24Z</time></trkpt><trkpt lat="42.0820640596365" lon="11.92197071052304"><ele>260.0</ele><time>2026-04-19T07:13:26Z</time></trkpt><trkpt lat="42.082128372948134" lon="11.921910734951219"><ele>260.0</ele><time>2026-04-19T07:13:27Z</time></trkpt><trkpt lat="42.082162311297864" lon="11.921811373374114"><ele>260.0</ele><time>2026-04-19T07:13:29Z</time></trkpt><trkpt lat="42.08212938915487" lon="11.921658615136067"><ele>260.0</ele><time>2026-04-19T07:13:31Z</time></trkpt><trkpt lat="42.082129217513035" lon="11.921553378656945"><ele>262.0</ele><time>2026-04-19T07:13:32Z</time></trkpt><trkpt lat="42.08215611380189" lon="11.921399554432629"><ele>264.0</ele><time>2026-04-19T07:13:34Z</time></trkpt><trkpt lat="42.082175806158794" lon="11.921316026123296"><ele>266.0</ele><time>2026-04-19T07:13:35Z</time></trkpt><trkpt lat="42.08222326481561" lon="11.921228014497983"><ele>268.0</ele><time>2026-04-19T07:13:37Z</time></trkpt><trkpt lat="42.08228469923368" lon="11.921138764886601"><ele>270.0</ele><time>2026-04-19T07:13:39Z</time></trkpt><trkpt lat="42.082331308053455" lon="11.921045927891525"><ele>272.0</ele><time>2026-04-19T07:13:40Z</time></trkpt><trkpt lat="42.08242884296869" lon="11.920986899779992"><ele>272.8</ele><time>2026-04-19T07:13:41Z</time></trkpt><trkpt lat="42.082467880195345" lon="11.920915517121937"><ele>273.6</ele><time>2026-04-19T07:13:42Z</time></trkpt><trkpt lat="42.0826061603392" lon="11.920853141297947"><ele>274.40000000000003</ele><time>2026-04-19T07:13:44Z</time></trkpt><trkpt lat="42.08267013444762" lon="11.920806709980129"><ele>275.2</ele><time>2026-04-19T07:13:45Z</time></trkpt><trkpt lat="42.082773822790685" lon="11.920769162728956"><ele>276.0</ele><time>2026-04-19T07:13:46Z</time></trkpt><trkpt lat="42.08286234608402" lon="11.920714107617112"><ele>276.3333333333333</ele><time>2026-04-19T07:13:48Z</time></trkpt><trkpt lat="42.08318542608625" lon="11.920712990848862"><ele>276.66666666666663</ele><time>2026-04-19T07:13:55Z</time></trkpt><trkpt lat="42.08330705979348" lon="11.920701247848877"><ele>277.0</ele><time>2026-04-19T07:13:57Z</time></trkpt><trkpt lat="42.083368550673754" lon="11.920615749575928"><ele>275.5</ele><time>2026-04-19T07:13:59Z</time></trkpt><trkpt lat="42.08344350205982" lon="11.920567967688909"><ele>274.0</ele><time>2026-04-19T07:13:59.999Z</time></trkpt><trkpt lat="42.08349237783615" lon="11.920506623070187"><ele>272.5</ele><time>2026-04-19T07:14:00.999Z</time></trkpt><trkpt lat="42.08348161666041" lon="11.92037205490345"><ele>271.0</ele><time>2026-04-19T07:14:01.999Z</time></trkpt><trkpt lat="42.0835354414221" lon="11.920265116752596"><ele>269.5</ele><time>2026-04-19T07:14:03.999Z</time></trkpt><trkpt lat="42.083581575002285" lon="11.920179339715421"><ele>268.0</ele><time>2026-04-19T07:14:04.999Z</time></trkpt><trkpt lat="42.08362509907608" lon="11.920106490857645"><ele>268.5</ele><time>2026-04-19T07:14:05.999Z</time></trkpt><trkpt lat="42.083675705595525" lon="11.92005321343681"><ele>269.0</ele><time>2026-04-19T07:14:06.999Z</time></trkpt><trkpt lat="42.083723473821195" lon="11.91999217542791"><ele>269.5</ele><time>2026-04-19T07:14:07.999Z</time></trkpt><trkpt lat="42.083766880554876" lon="11.919924085166146"><ele>270.0</ele><time>2026-04-19T07:14:08.999Z</time></trkpt><trkpt lat="42.083846243625" lon="11.919832548855123"><ele>270.5</ele><time>2026-04-19T07:14:10.999Z</time></trkpt><trkpt lat="42.08393506092922" lon="11.919730860604076"><ele>271.0</ele><time>2026-04-19T07:14:12.999Z</time></trkpt><trkpt lat="42.084031077163935" lon="11.919633723064088"><ele>271.0</ele><time>2026-04-19T07:14:14.999Z</time></trkpt><trkpt lat="42.0840784371573" lon="11.919574499598856"><ele>271.0</ele><time>2026-04-19T07:14:15.999Z</time></trkpt><trkpt lat="42.084145588016725" lon="11.919537334781259"><ele>271.0</ele><time>2026-04-19T07:14:16.999Z</time></trkpt><trkpt lat="42.08419612249968" lon="11.919476707198466"><ele>271.0</ele><time>2026-04-19T07:14:17.999Z</time></trkpt><trkpt lat="42.08422747166012" lon="11.919381251111067"><ele>271.0</ele><time>2026-04-19T07:14:18.999Z</time></trkpt><trkpt lat="42.08427723718453" lon="11.919322031955287"><ele>271.0</ele><time>2026-04-19T07:14:19.999Z</time></trkpt><trkpt lat="42.084325327977645" lon="11.9192593529514"><ele>271.0</ele><time>2026-04-19T07:14:20.999Z</time></trkpt><trkpt lat="42.08441224646474" lon="11.919227984731483"><ele>269.0</ele><time>2026-04-19T07:14:22.999Z</time></trkpt><trkpt lat="42.08448936068239" lon="11.919169318013855"><ele>267.0</ele><time>2026-04-19T07:14:25.999Z</time></trkpt><trkpt lat="42.08454881156576" lon="11.919259314631104"><ele>265.0</ele><time>2026-04-19T07:16:32.999Z</time></trkpt><trkpt lat="42.08461007086423" lon="11.919408432401188"><ele>263.0</ele><time>2026-04-19T07:16:34.999Z</time></trkpt><trkpt lat="42.08466308100444" lon="11.919504643073495"><ele>261.0</ele><time>2026-04-19T07:16:35.999Z</time></trkpt><trkpt lat="42.08469025688061" lon="11.919587946675966"><ele>261.0</ele><time>2026-04-19T07:16:36.999Z</time></trkpt><trkpt lat="42.08471300178927" lon="11.919739543899771"><ele>261.0</ele><time>2026-04-19T07:16:38.999Z</time></trkpt><trkpt lat="42.084685759230794" lon="11.919880430161122"><ele>261.0</ele><time>2026-04-19T07:16:40.999Z</time></trkpt><trkpt lat="42.084700549543946" lon="11.91999307806889"><ele>261.0</ele><time>2026-04-19T07:16:41.999Z</time></trkpt><trkpt lat="42.08470692735676" lon="11.920088157118666"><ele>261.0</ele><time>2026-04-19T07:16:43.999Z</time></trkpt><trkpt lat="42.08471794010079" lon="11.920196279830371"><ele>260.5</ele><time>2026-04-19T07:16:45.999Z</time></trkpt><trkpt lat="42.08471491206472" lon="11.920318666240618"><ele>260.0</ele><time>2026-04-19T07:16:46.999Z</time></trkpt><trkpt lat="42.084733311386124" lon="11.920442826085301"><ele>259.5</ele><time>2026-04-19T07:16:48.999Z</time></trkpt><trkpt lat="42.0847171669317" lon="11.920528170234245"><ele>259.0</ele><time>2026-04-19T07:16:52.999Z</time></trkpt><trkpt lat="42.08477616025422" lon="11.920603252074896"><ele>258.5</ele><time>2026-04-19T07:16:57.999Z</time></trkpt><trkpt lat="42.084796478321614" lon="11.920687379999888"><ele>258.0</ele><time>2026-04-19T07:17:01.999Z</time></trkpt><trkpt lat="42.08481918221675" lon="11.92080850828171"><ele>258.0</ele><time>2026-04-19T07:17:04.999Z</time></trkpt><trkpt lat="42.08483122860954" lon="11.920893815410162"><ele>258.0</ele><time>2026-04-19T07:17:07Z</time></trkpt><trkpt lat="42.08484965923025" lon="11.921132427213928"><ele>258.0</ele><time>2026-04-19T07:17:09Z</time></trkpt><trkpt lat="42.08489405733964" lon="11.921318793544918"><ele>258.0</ele><time>2026-04-19T07:17:11Z</time></trkpt><trkpt lat="42.08490239958532" lon="11.921477120555267"><ele>256.6666666666667</ele><time>2026-04-19T07:17:13Z</time></trkpt><trkpt lat="42.08492493353661" lon="11.921565224701634"><ele>255.33333333333331</ele><time>2026-04-19T07:17:14Z</time></trkpt><trkpt lat="42.084929385162255" lon="11.921708791334815"><ele>254.0</ele><time>2026-04-19T07:17:16Z</time></trkpt><trkpt lat="42.08494595125829" lon="11.921817534008115"><ele>252.66666666666666</ele><time>2026-04-19T07:17:18Z</time></trkpt><trkpt lat="42.0850018117198" lon="11.92187534365192"><ele>251.33333333333331</ele><time>2026-04-19T07:17:21Z</time></trkpt><trkpt lat="42.08500724158306" lon="11.92198975643169"><ele>250.0</ele><time>2026-04-19T07:17:23Z</time></trkpt><trkpt lat="42.084992551530505" lon="11.922168666616129"><ele>248.0</ele><time>2026-04-19T07:17:25Z</time></trkpt><trkpt lat="42.0849886258762" lon="11.922319496511143"><ele>246.0</ele><time>2026-04-19T07:17:27Z</time></trkpt><trkpt lat="42.0850080306698" lon="11.92248862939463"><ele>244.0</ele><time>2026-04-19T07:17:29Z</time></trkpt><trkpt lat="42.08504297312458" lon="11.922650090032219"><ele>242.0</ele><time>2026-04-19T07:17:31Z</time></trkpt><trkpt lat="42.08506012755457" lon="11.922732741125952"><ele>240.0</ele><time>2026-04-19T07:17:32Z</time></trkpt><trkpt lat="42.08504402349148" lon="11.922832695583649"><ele>239.83333333333334</ele><time>2026-04-19T07:17:33Z</time></trkpt><trkpt lat="42.08505234792088" lon="11.922943991347337"><ele>239.66666666666669</ele><time>2026-04-19T07:17:34Z</time></trkpt><trkpt lat="42.085051053722815" lon="11.92305153727513"><ele>239.5</ele><time>2026-04-19T07:17:35Z</time></trkpt><trkpt lat="42.08503949229777" lon="11.923135899673685"><ele>239.33333333333334</ele><time>2026-04-19T07:17:36Z</time></trkpt><trkpt lat="42.08501379241506" lon="11.92328155889145"><ele>239.16666666666669</ele><time>2026-04-19T07:17:38Z</time></trkpt><trkpt lat="42.085008379853996" lon="11.923415580726672"><ele>239.0</ele><time>2026-04-19T07:17:40Z</time></trkpt><trkpt lat="42.085040831069186" lon="11.923516678790651"><ele>238.39999999999998</ele><time>2026-04-19T07:17:42Z</time></trkpt><trkpt lat="42.08505999950738" lon="11.923602819999484"><ele>237.79999999999998</ele><time>2026-04-19T07:17:43Z</time></trkpt><trkpt lat="42.08507714637587" lon="11.923748053561074"><ele>237.20000000000002</ele><time>2026-04-19T07:17:45Z</time></trkpt><trkpt lat="42.085073171810286" lon="11.923893588323246"><ele>236.60000000000002</ele><time>2026-04-19T07:17:47Z</time></trkpt><trkpt lat="42.085099815076475" lon="11.92404039842202"><ele>236.0</ele><time>2026-04-19T07:17:49Z</time></trkpt><trkpt lat="42.08510075976272" lon="11.92413871313717"><ele>234.71428571428572</ele><time>2026-04-19T07:17:50Z</time></trkpt><trkpt lat="42.08511232368926" lon="11.924231438140186"><ele>233.42857142857144</ele><time>2026-04-19T07:17:51Z</time></trkpt><trkpt lat="42.085149398507596" lon="11.924306171591882"><ele>232.14285714285717</ele><time>2026-04-19T07:17:53Z</time></trkpt><trkpt lat="42.08515587712227" lon="11.924393879304224"><ele>230.85714285714286</ele><time>2026-04-19T07:17:55Z</time></trkpt><trkpt lat="42.085156421513396" lon="11.924523562790382"><ele>229.5714285714286</ele><time>2026-04-19T07:17:58Z</time></trkpt><trkpt lat="42.08517760407592" lon="11.924608735201081"><ele>228.2857142857143</ele><time>2026-04-19T07:18:00Z</time></trkpt><trkpt lat="42.08518647679919" lon="11.924712383193253"><ele>227.0</ele><time>2026-04-19T07:18:02Z</time></trkpt><trkpt lat="42.08521144553896" lon="11.92481922025592"><ele>227.00000000000003</ele><time>2026-04-19T07:18:04Z</time></trkpt><trkpt lat="42.08524345308822" lon="11.924944731924784"><ele>227.0</ele><time>2026-04-19T07:18:06Z</time></trkpt><trkpt lat="42.08524737864278" lon="11.925039646943128"><ele>227.0</ele><time>2026-04-19T07:18:08Z</time></trkpt><trkpt lat="42.08521750138823" lon="11.925161821263263"><ele>227.0</ele><time>2026-04-19T07:18:10.999Z</time></trkpt><trkpt lat="42.0852156240412" lon="11.925256389298745"><ele>227.00000000000003</ele><time>2026-04-19T07:18:12.999Z</time></trkpt><trkpt lat="42.08522838401338" lon="11.925362349950442"><ele>227.0</ele><time>2026-04-19T07:18:14.999Z</time></trkpt><trkpt lat="42.08522701345042" lon="11.925477769795405"><ele>225.2857142857143</ele><time>2026-04-19T07:18:15.999Z</time></trkpt><trkpt lat="42.08523922705188" lon="11.925568451576618"><ele>223.5714285714286</ele><time>2026-04-19T07:18:16.999Z</time></trkpt><trkpt lat="42.08524393748345" lon="11.925654810962746"><ele>221.85714285714286</ele><time>2026-04-19T07:18:18.999Z</time></trkpt><trkpt lat="42.08518974066774" lon="11.925717318350816"><ele>220.14285714285717</ele><time>2026-04-19T07:18:20.999Z</time></trkpt><trkpt lat="42.08522070439838" lon="11.925803319005558"><ele>218.42857142857144</ele><time>2026-04-19T07:18:23.999Z</time></trkpt><trkpt lat="42.08530383646647" lon="11.925859714548908"><ele>216.71428571428572</ele><time>2026-04-19T07:18:25.999Z</time></trkpt><trkpt lat="42.08531574100431" lon="11.92595898596582"><ele>215.0</ele><time>2026-04-19T07:18:27.999Z</time></trkpt><trkpt lat="42.085312515129125" lon="11.926068704798714"><ele>212.6</ele><time>2026-04-19T07:18:29.999Z</time></trkpt><trkpt lat="42.08531744150735" lon="11.926175624653087"><ele>210.2</ele><time>2026-04-19T07:18:31.999Z</time></trkpt><trkpt lat="42.08529466880517" lon="11.926284658319624"><ele>207.8</ele><time>2026-04-19T07:18:32.999Z</time></trkpt><trkpt lat="42.0852973012298" lon="11.926447319739953"><ele>205.4</ele><time>2026-04-19T07:18:34.999Z</time></trkpt><trkpt lat="42.08531354268286" lon="11.926590991514061"><ele>203.0</ele><time>2026-04-19T07:18:36.999Z</time></trkpt><trkpt lat="42.085356485591035" lon="11.9267403221219"><ele>200.66666666666669</ele><time>2026-04-19T07:18:38.999Z</time></trkpt><trkpt lat="42.0853830801915" lon="11.926892727435522"><ele>198.33333333333334</ele><time>2026-04-19T07:18:40.999Z</time></trkpt><trkpt lat="42.08538615031531" lon="11.927006597256128"><ele>196.0</ele><time>2026-04-19T07:18:42.999Z</time></trkpt><trkpt lat="42.0854102041473" lon="11.927094376546009"><ele>193.66666666666669</ele><time>2026-04-19T07:18:46.999Z</time></trkpt><trkpt lat="42.08544250160905" lon="11.927203454900553"><ele>191.33333333333334</ele><time>2026-04-19T07:18:51.999Z</time></trkpt><trkpt lat="42.085414555036635" lon="11.927297153389206"><ele>189.0</ele><time>2026-04-19T07:18:55.999Z</time></trkpt><trkpt lat="42.08535470198332" lon="11.927376220903637"><ele>189.0</ele><time>2026-04-19T07:18:57.999Z</time></trkpt><trkpt lat="42.08529414885971" lon="11.927449908839382"><ele>189.0</ele><time>2026-04-19T07:18:58.999Z</time></trkpt><trkpt lat="42.08524806405248" lon="11.92753137929475"><ele>189.0</ele><time>2026-04-19T07:19:00.999Z</time></trkpt><trkpt lat="42.08526261429025" lon="11.92764083789047"><ele>189.0</ele><time>2026-04-19T07:19:03.999Z</time></trkpt><trkpt lat="42.08533011244283" lon="11.927623036413975"><ele>189.0</ele><time>2026-04-19T07:19:06.999Z</time></trkpt><trkpt lat="42.085398514439525" lon="11.927644517079212"><ele>189.0</ele><time>2026-04-19T07:19:12Z</time></trkpt><trkpt lat="42.08541968496431" lon="11.92773081244857"><ele>189.0</ele><time>2026-04-19T07:19:19Z</time></trkpt><trkpt lat="42.08547599938126" lon="11.927826609049806"><ele>185.66666666666666</ele><time>2026-04-19T07:19:21Z</time></trkpt><trkpt lat="42.085483930740295" lon="11.927952095772172"><ele>182.33333333333334</ele><time>2026-04-19T07:19:23Z</time></trkpt><trkpt lat="42.08548591799725" lon="11.928079583680187"><ele>179.0</ele><time>2026-04-19T07:19:25Z</time></trkpt><trkpt lat="42.08548612321276" lon="11.928200276251781"><ele>175.66666666666669</ele><time>2026-04-19T07:19:28Z</time></trkpt><trkpt lat="42.08550160463455" lon="11.928296302308974"><ele>172.33333333333334</ele><time>2026-04-19T07:19:30Z</time></trkpt><trkpt lat="42.08552675445722" lon="11.92841160981363"><ele>169.0</ele><time>2026-04-19T07:19:32Z</time></trkpt><trkpt lat="42.08554118476483" lon="11.928515139222583"><ele>167.0</ele><time>2026-04-19T07:19:34Z</time></trkpt><trkpt lat="42.085534283619516" lon="11.92863213150421"><ele>165.0</ele><time>2026-04-19T07:19:36Z</time></trkpt><trkpt lat="42.085539047357855" lon="11.92876447929017"><ele>163.0</ele><time>2026-04-19T07:19:38Z</time></trkpt><trkpt lat="42.08556632957286" lon="11.92886841585119"><ele>161.0</ele><time>2026-04-19T07:19:40Z</time></trkpt><trkpt lat="42.085573357474345" lon="11.928967849419122"><ele>159.0</ele><time>2026-04-19T07:19:45Z</time></trkpt><trkpt lat="42.08558659129401" lon="11.929058207982044"><ele>157.0</ele><time>2026-04-19T07:19:48Z</time></trkpt><trkpt lat="42.08557929699614" lon="11.929146696044644"><ele>155.16666666666669</ele><time>2026-04-19T07:19:50Z</time></trkpt><trkpt lat="42.0856137571952" lon="11.929256806407276"><ele>153.33333333333334</ele><time>2026-04-19T07:19:52Z</time></trkpt><trkpt lat="42.08561801982253" lon="11.929345411342029"><ele>151.5</ele><time>2026-04-19T07:19:53Z</time></trkpt><trkpt lat="42.08562649852444" lon="11.929445124077374"><ele>149.66666666666666</ele><time>2026-04-19T07:19:54Z</time></trkpt><trkpt lat="42.08561945772898" lon="11.929586386935283"><ele>147.83333333333331</ele><time>2026-04-19T07:19:56Z</time></trkpt><trkpt lat="42.08562441020472" lon="11.9296776331573"><ele>146.0</ele><time>2026-04-19T07:19:57Z</time></trkpt><trkpt lat="42.08564156123891" lon="11.92984471972988"><ele>146.0</ele><time>2026-04-19T07:19:59Z</time></trkpt><trkpt lat="42.0856488266624" lon="11.929930230050633"><ele>146.0</ele><time>2026-04-19T07:20:00Z</time></trkpt><trkpt lat="42.08569470349362" lon="11.930053297225605"><ele>146.0</ele><time>2026-04-19T07:20:02Z</time></trkpt><trkpt lat="42.08571004516317" lon="11.930144781026234"><ele>146.0</ele><time>2026-04-19T07:20:03Z</time></trkpt><trkpt lat="42.08572644944047" lon="11.930339387946205"><ele>146.0</ele><time>2026-04-19T07:20:05Z</time></trkpt><trkpt lat="42.085749491746824" lon="11.930435725695796"><ele>143.83333333333331</ele><time>2026-04-19T07:20:06Z</time></trkpt><trkpt lat="42.08575154920385" lon="11.930525766511977"><ele>141.66666666666666</ele><time>2026-04-19T07:20:07Z</time></trkpt><trkpt lat="42.08576804886695" lon="11.930655847454494"><ele>139.5</ele><time>2026-04-19T07:20:09Z</time></trkpt><trkpt lat="42.085764976156625" lon="11.930748934907124"><ele>137.33333333333334</ele><time>2026-04-19T07:20:11Z</time></trkpt><trkpt lat="42.085789363764526" lon="11.930850183581372"><ele>135.16666666666669</ele><time>2026-04-19T07:20:23.999Z</time></trkpt><trkpt lat="42.085774246495234" lon="11.930941354996694"><ele>133.0</ele><time>2026-04-19T07:20:25.999Z</time></trkpt><trkpt lat="42.08577398676966" lon="11.93105308452385"><ele>130.8</ele><time>2026-04-19T07:20:27.999Z</time></trkpt><trkpt lat="42.0858026049663" lon="11.931152578329097"><ele>128.60000000000002</ele><time>2026-04-19T07:20:29.999Z</time></trkpt><trkpt lat="42.085826881073395" lon="11.931282470678932"><ele>126.39999999999999</ele><time>2026-04-19T07:20:31.999Z</time></trkpt><trkpt lat="42.08582331142062" lon="11.931376660503332"><ele>124.19999999999999</ele><time>2026-04-19T07:20:32.999Z</time></trkpt><trkpt lat="42.085846441698195" lon="11.931500303235223"><ele>122.0</ele><time>2026-04-19T07:20:34.999Z</time></trkpt><trkpt lat="42.08586705506693" lon="11.93165398800103"><ele>121.19999999999999</ele><time>2026-04-19T07:20:36.999Z</time></trkpt><trkpt lat="42.08586069546271" lon="11.931749539290577"><ele>120.39999999999999</ele><time>2026-04-19T07:20:37.999Z</time></trkpt><trkpt lat="42.08583672626048" lon="11.931884538334169"><ele>119.60000000000001</ele><time>2026-04-19T07:20:39.999Z</time></trkpt><trkpt lat="42.08584276402552" lon="11.932002135460525"><ele>118.80000000000001</ele><time>2026-04-19T07:20:41.999Z</time></trkpt><trkpt lat="42.085874089355535" lon="11.932123825294244"><ele>118.0</ele><time>2026-04-19T07:20:43.999Z</time></trkpt><trkpt lat="42.08590356835345" lon="11.93225559306748"><ele>118.00000000000001</ele><time>2026-04-19T07:20:45.999Z</time></trkpt><trkpt lat="42.085919042021246" lon="11.932351515523123"><ele>118.0</ele><time>2026-04-19T07:20:51.999Z</time></trkpt><trkpt lat="42.085909415636166" lon="11.932435607419917"><ele>118.0</ele><time>2026-04-19T07:22:54.999Z</time></trkpt><trkpt lat="42.08589982161808" lon="11.9325495741454"><ele>118.0</ele><time>2026-04-19T07:22:58.999Z</time></trkpt><trkpt lat="42.085925382416136" lon="11.932669605622216"><ele>118.00000000000001</ele><time>2026-04-19T07:23:01.999Z</time></trkpt><trkpt lat="42.08591703208807" lon="11.932780312602656"><ele>118.0</ele><time>2026-04-19T07:23:03.999Z</time></trkpt><trkpt lat="42.08592718299867" lon="11.932866218867515"><ele>118.60000000000001</ele><time>2026-04-19T07:31:43.999Z</time></trkpt><trkpt lat="42.08589927262189" lon="11.932978831138762"><ele>119.20000000000002</ele><time>2026-04-19T07:31:45.999Z</time></trkpt><trkpt lat="42.08576111696271" lon="11.933038951069838"><ele>119.8</ele><time>2026-04-19T07:31:49Z</time></trkpt><trkpt lat="42.085690260493216" lon="11.933012914291025"><ele>120.4</ele><time>2026-04-19T07:31:50Z</time></trkpt><trkpt lat="42.08562376612828" lon="11.932980639642283"><ele>121.0</ele><time>2026-04-19T07:31:51Z</time></trkpt><trkpt lat="42.08553786322695" lon="11.93296326999242"><ele>121.0</ele><time>2026-04-19T07:31:53Z</time></trkpt><trkpt lat="42.08545615425275" lon="11.93311924750429"><ele>121.0</ele><time>2026-04-19T07:31:55Z</time></trkpt><trkpt lat="42.08543464668502" lon="11.933224376584562"><ele>121.0</ele><time>2026-04-19T07:31:56Z</time></trkpt><trkpt lat="42.08542398202621" lon="11.933319846180895"><ele>121.0</ele><time>2026-04-19T07:31:57Z</time></trkpt><trkpt lat="42.08542281977046" lon="11.933460336749956"><ele>121.0</ele><time>2026-04-19T07:31:58Z</time></trkpt><trkpt lat="42.08542164541743" lon="11.933616709771654"><ele>122.66666666666667</ele><time>2026-04-19T07:31:59Z</time></trkpt><trkpt lat="42.08541729931351" lon="11.933765045265812"><ele>124.33333333333334</ele><time>2026-04-19T07:32:00Z</time></trkpt><trkpt lat="42.08540871742461" lon="11.9338895280324"><ele>126.0</ele><time>2026-04-19T07:32:01Z</time></trkpt><trkpt lat="42.08540996940423" lon="11.934004695835041"><ele>127.66666666666666</ele><time>2026-04-19T07:32:02Z</time></trkpt><trkpt lat="42.0854015962632" lon="11.934098119490603"><ele>129.33333333333331</ele><time>2026-04-19T07:32:03Z</time></trkpt><trkpt lat="42.08538755222092" lon="11.934200306166616"><ele>131.0</ele><time>2026-04-19T07:32:04Z</time></trkpt><trkpt lat="42.08538088423366" lon="11.934304680218146"><ele>132.57142857142858</ele><time>2026-04-19T07:32:05Z</time></trkpt><trkpt lat="42.08537937621799" lon="11.934407001573758"><ele>134.14285714285717</ele><time>2026-04-19T07:32:06Z</time></trkpt><trkpt lat="42.08536290157218" lon="11.934517183775949"><ele>135.71428571428572</ele><time>2026-04-19T07:32:07Z</time></trkpt><trkpt lat="42.08535834856777" lon="11.934603805691625"><ele>137.28571428571428</ele><time>2026-04-19T07:32:08Z</time></trkpt><trkpt lat="42.08535722593825" lon="11.934696961710987"><ele>138.85714285714283</ele><time>2026-04-19T07:32:09Z</time></trkpt><trkpt lat="42.085360135836616" lon="11.934782822058112"><ele>140.42857142857142</ele><time>2026-04-19T07:32:10Z</time></trkpt><trkpt lat="42.08536533879283" lon="11.934868613054642"><ele>142.0</ele><time>2026-04-19T07:32:11Z</time></trkpt><trkpt lat="42.08537114170132" lon="11.93496206697742"><ele>143.5</ele><time>2026-04-19T07:32:12Z</time></trkpt><trkpt lat="42.085365869736215" lon="11.935083927933618"><ele>145.0</ele><time>2026-04-19T07:32:13Z</time></trkpt><trkpt lat="42.08537040135057" lon="11.935208576787817"><ele>146.5</ele><time>2026-04-19T07:32:14Z</time></trkpt><trkpt lat="42.085373271282506" lon="11.93532580202817"><ele>148.0</ele><time>2026-04-19T07:32:15Z</time></trkpt><trkpt lat="42.085361624907854" lon="11.935428392020196"><ele>149.5</ele><time>2026-04-19T07:32:16Z</time></trkpt><trkpt lat="42.08536615963574" lon="11.935536839010421"><ele>151.0</ele><time>2026-04-19T07:32:17Z</time></trkpt><trkpt lat="42.08535572422408" lon="11.935637111838435"><ele>151.0</ele><time>2026-04-19T07:32:18Z</time></trkpt><trkpt lat="42.085346587348795" lon="11.935748424649923"><ele>151.0</ele><time>2026-04-19T07:32:19Z</time></trkpt><trkpt lat="42.0853391825596" lon="11.93587686429773"><ele>151.0</ele><time>2026-04-19T07:32:20Z</time></trkpt><trkpt lat="42.085333351171016" lon="11.936012244766284"><ele>151.0</ele><time>2026-04-19T07:32:21Z</time></trkpt><trkpt lat="42.08531802947552" lon="11.936138315607204"><ele>151.0</ele><time>2026-04-19T07:32:22Z</time></trkpt><trkpt lat="42.085313212081324" lon="11.936256717651126"><ele>152.16666666666669</ele><time>2026-04-19T07:32:23Z</time></trkpt><trkpt lat="42.0853087234155" lon="11.936372295530736"><ele>153.33333333333334</ele><time>2026-04-19T07:32:24Z</time></trkpt><trkpt lat="42.085296905241776" lon="11.936480846434034"><ele>154.5</ele><time>2026-04-19T07:32:25Z</time></trkpt><trkpt lat="42.085287208247166" lon="11.93661390976595"><ele>155.66666666666666</ele><time>2026-04-19T07:32:26Z</time></trkpt><trkpt lat="42.085276891898644" lon="11.936723747266608"><ele>156.83333333333331</ele><time>2026-04-19T07:32:27Z</time></trkpt><trkpt lat="42.085272947161826" lon="11.936847261433357"><ele>158.0</ele><time>2026-04-19T07:32:28Z</time></trkpt><trkpt lat="42.085271254067784" lon="11.936979886526979"><ele>159.5</ele><time>2026-04-19T07:32:29Z</time></trkpt><trkpt lat="42.0852632069886" lon="11.93710214592251"><ele>161.0</ele><time>2026-04-19T07:32:30Z</time></trkpt><trkpt lat="42.08525247466565" lon="11.93721965470225"><ele>162.5</ele><time>2026-04-19T07:32:31Z</time></trkpt><trkpt lat="42.08523902274796" lon="11.937333334739929"><ele>164.0</ele><time>2026-04-19T07:32:32Z</time></trkpt><trkpt lat="42.08523071307257" lon="11.937431279496895"><ele>165.5</ele><time>2026-04-19T07:32:33Z</time></trkpt><trkpt lat="42.08520574255917" lon="11.937515090644279"><ele>167.0</ele><time>2026-04-19T07:32:34Z</time></trkpt><trkpt lat="42.08517637749981" lon="11.93760368032903"><ele>168.66666666666666</ele><time>2026-04-19T07:32:35Z</time></trkpt><trkpt lat="42.08514188296716" lon="11.937699940759394"><ele>170.33333333333331</ele><time>2026-04-19T07:32:36Z</time></trkpt><trkpt lat="42.08512567173514" lon="11.937796632893079"><ele>172.0</ele><time>2026-04-19T07:32:37Z</time></trkpt><trkpt lat="42.08511483084897" lon="11.937889923082912"><ele>173.66666666666666</ele><time>2026-04-19T07:32:38Z</time></trkpt><trkpt lat="42.08509294848727" lon="11.937993882628128"><ele>175.33333333333334</ele><time>2026-04-19T07:32:39Z</time></trkpt><trkpt lat="42.08508313477577" lon="11.938102096376385"><ele>177.0</ele><time>2026-04-19T07:32:40Z</time></trkpt><trkpt lat="42.085029875215525" lon="11.938244358756736"><ele>176.8</ele><time>2026-04-19T07:32:42Z</time></trkpt><trkpt lat="42.08489826959571" lon="11.938278318173785"><ele>176.6</ele><time>2026-04-19T07:32:44Z</time></trkpt><trkpt lat="42.08482097842337" lon="11.9382849243512"><ele>176.4</ele><time>2026-04-19T07:32:45Z</time></trkpt><trkpt lat="42.08473702836791" lon="11.938296238265"><ele>176.20000000000002</ele><time>2026-04-19T07:32:46Z</time></trkpt><trkpt lat="42.084642101743135" lon="11.93831153139044"><ele>176.0</ele><time>2026-04-19T07:32:47Z</time></trkpt><trkpt lat="42.084544055297954" lon="11.938317814610826"><ele>176.0</ele><time>2026-04-19T07:32:47.999Z</time></trkpt><trkpt lat="42.08445939700736" lon="11.93833338603211"><ele>176.0</ele><time>2026-04-19T07:32:48.999Z</time></trkpt><trkpt lat="42.08438755296698" lon="11.93832964886868"><ele>176.0</ele><time>2026-04-19T07:32:49.999Z</time></trkpt><trkpt lat="42.084319361633426" lon="11.938335917294868"><ele>176.0</ele><time>2026-04-19T07:32:50.999Z</time></trkpt><trkpt lat="42.08425466339213" lon="11.93834683463592"><ele>176.0</ele><time>2026-04-19T07:32:51.999Z</time></trkpt><trkpt lat="42.08414402616151" lon="11.938383574702035"><ele>176.0</ele><time>2026-04-19T07:32:53.999Z</time></trkpt><trkpt lat="42.084080880418746" lon="11.938433738546939"><ele>177.33333333333331</ele><time>2026-04-19T07:32:54.999Z</time></trkpt><trkpt lat="42.08402735489667" lon="11.938487892385625"><ele>178.66666666666666</ele><time>2026-04-19T07:32:55.999Z</time></trkpt><trkpt lat="42.083903897026495" lon="11.938556862100866"><ele>180.0</ele><time>2026-04-19T07:32:57.999Z</time></trkpt><trkpt lat="42.08383751137335" lon="11.9385739047953"><ele>181.33333333333334</ele><time>2026-04-19T07:32:58.999Z</time></trkpt><trkpt lat="42.08376676832567" lon="11.938608930377356"><ele>182.66666666666669</ele><time>2026-04-19T07:32:59.999Z</time></trkpt><trkpt lat="42.08370536598421" lon="11.938639295539932"><ele>184.0</ele><time>2026-04-19T07:33:00.999Z</time></trkpt><trkpt lat="42.08363131499518" lon="11.938678702578033"><ele>184.0</ele><time>2026-04-19T07:33:01.999Z</time></trkpt><trkpt lat="42.08355682182661" lon="11.938711264617684"><ele>184.0</ele><time>2026-04-19T07:33:02.999Z</time></trkpt><trkpt lat="42.083478098697945" lon="11.938747909201279"><ele>184.0</ele><time>2026-04-19T07:33:03.999Z</time></trkpt><trkpt lat="42.083394463401866" lon="11.938810879810136"><ele>184.0</ele><time>2026-04-19T07:33:04.999Z</time></trkpt><trkpt lat="42.08330868808217" lon="11.938862672902072"><ele>184.0</ele><time>2026-04-19T07:33:05.999Z</time></trkpt><trkpt lat="42.083228976169295" lon="11.938910341331106"><ele>184.0</ele><time>2026-04-19T07:33:06.999Z</time></trkpt><trkpt lat="42.08315652891712" lon="11.938959805702893"><ele>183.5</ele><time>2026-04-19T07:33:07.999Z</time></trkpt><trkpt lat="42.08308623799079" lon="11.939003989543435"><ele>183.0</ele><time>2026-04-19T07:33:08.999Z</time></trkpt><trkpt lat="42.08301068694196" lon="11.939055491177701"><ele>182.5</ele><time>2026-04-19T07:33:09.999Z</time></trkpt><trkpt lat="42.082939787754" lon="11.93909730964125"><ele>182.0</ele><time>2026-04-19T07:33:10.999Z</time></trkpt><trkpt lat="42.08286568321662" lon="11.939140773928635"><ele>181.5</ele><time>2026-04-19T07:33:11.999Z</time></trkpt><trkpt lat="42.08278046087944" lon="11.939166611896962"><ele>181.0</ele><time>2026-04-19T07:33:12.999Z</time></trkpt><trkpt lat="42.08269185729694" lon="11.939223551108155"><ele>181.0</ele><time>2026-04-19T07:33:13.999Z</time></trkpt><trkpt lat="42.082616246835954" lon="11.939274570105367"><ele>181.0</ele><time>2026-04-19T07:33:14.999Z</time></trkpt><trkpt lat="42.08254091285853" lon="11.939316614498614"><ele>181.0</ele><time>2026-04-19T07:33:15.999Z</time></trkpt><trkpt lat="42.08245870940891" lon="11.939353449466848"><ele>181.0</ele><time>2026-04-19T07:33:16.999Z</time></trkpt><trkpt lat="42.082385551656984" lon="11.939404335394954"><ele>181.0</ele><time>2026-04-19T07:33:17.999Z</time></trkpt><trkpt lat="42.08230674921875" lon="11.93944094975655"><ele>181.0</ele><time>2026-04-19T07:33:18.999Z</time></trkpt><trkpt lat="42.08220623199916" lon="11.939483418987125"><ele>179.8</ele><time>2026-04-19T07:33:19.999Z</time></trkpt><trkpt lat="42.082106957608936" lon="11.93952891031436"><ele>178.60000000000002</ele><time>2026-04-19T07:33:20.999Z</time></trkpt><trkpt lat="42.082008622392934" lon="11.939555520826975"><ele>177.4</ele><time>2026-04-19T07:33:21.999Z</time></trkpt><trkpt lat="42.081916901941156" lon="11.939586680550118"><ele>176.2</ele><time>2026-04-19T07:33:22.999Z</time></trkpt><trkpt lat="42.08182615101264" lon="11.939637100079842"><ele>175.0</ele><time>2026-04-19T07:33:23.999Z</time></trkpt><trkpt lat="42.08175072273286" lon="11.939665332576718"><ele>175.0</ele><time>2026-04-19T07:33:24.999Z</time></trkpt><trkpt lat="42.081671376026776" lon="11.939719453233621"><ele>175.0</ele><time>2026-04-19T07:33:26.999Z</time></trkpt><trkpt lat="42.08164933321108" lon="11.939814689603207"><ele>175.0</ele><time>2026-04-19T07:33:28.999Z</time></trkpt><trkpt lat="42.08171628286987" lon="11.939942448715108"><ele>175.0</ele><time>2026-04-19T07:33:30.999Z</time></trkpt><trkpt lat="42.081751284514695" lon="11.940038783649337"><ele>175.0</ele><time>2026-04-19T07:33:31.999Z</time></trkpt><trkpt lat="42.08177290864893" lon="11.940135548755354"><ele>175.0</ele><time>2026-04-19T07:33:32.999Z</time></trkpt><trkpt lat="42.081793484391135" lon="11.940224600700754"><ele>175.85714285714286</ele><time>2026-04-19T07:33:33.999Z</time></trkpt><trkpt lat="42.08179550531246" lon="11.940346030224413"><ele>176.71428571428572</ele><time>2026-04-19T07:33:34.999Z</time></trkpt><trkpt lat="42.081777418987826" lon="11.940430663558159"><ele>177.57142857142856</ele><time>2026-04-19T07:33:35.999Z</time></trkpt><trkpt lat="42.08175737156497" lon="11.940526779227138"><ele>178.42857142857144</ele><time>2026-04-19T07:33:36.999Z</time></trkpt><trkpt lat="42.08175608999154" lon="11.940615859737386"><ele>179.28571428571428</ele><time>2026-04-19T07:33:37.999Z</time></trkpt><trkpt lat="42.08175584770636" lon="11.94070535907372"><ele>180.14285714285714</ele><time>2026-04-19T07:33:38.999Z</time></trkpt><trkpt lat="42.08176168188748" lon="11.940790335891302"><ele>181.0</ele><time>2026-04-19T07:33:39.999Z</time></trkpt><trkpt lat="42.08176653458619" lon="11.94092080705634"><ele>181.83333333333334</ele><time>2026-04-19T07:33:40.999Z</time></trkpt><trkpt lat="42.08179084645909" lon="11.94102548457432"><ele>182.66666666666669</ele><time>2026-04-19T07:33:41.999Z</time></trkpt><trkpt lat="42.08181663420537" lon="11.941127777654636"><ele>183.5</ele><time>2026-04-19T07:33:42.999Z</time></trkpt><trkpt lat="42.08185016080136" lon="11.94123725801929"><ele>184.33333333333334</ele><time>2026-04-19T07:33:43.999Z</time></trkpt><trkpt lat="42.081888310755055" lon="11.941344975220915"><ele>185.16666666666666</ele><time>2026-04-19T07:33:44.999Z</time></trkpt><trkpt lat="42.08193421100707" lon="11.941447229960072"><ele>186.0</ele><time>2026-04-19T07:33:45.999Z</time></trkpt><trkpt lat="42.08199568436548" lon="11.94153073741748"><ele>186.0</ele><time>2026-04-19T07:33:46.999Z</time></trkpt><trkpt lat="42.08207085008075" lon="11.941591742669159"><ele>186.0</ele><time>2026-04-19T07:33:47.999Z</time></trkpt><trkpt lat="42.08216695085966" lon="11.94164613128556"><ele>186.0</ele><time>2026-04-19T07:33:48.999Z</time></trkpt><trkpt lat="42.08225558559456" lon="11.94170354257505"><ele>186.0</ele><time>2026-04-19T07:33:49.999Z</time></trkpt><trkpt lat="42.08235515730144" lon="11.941734402326304"><ele>186.0</ele><time>2026-04-19T07:33:50.999Z</time></trkpt><trkpt lat="42.08244459144136" lon="11.941744456254458"><ele>189.16666666666666</ele><time>2026-04-19T07:33:51.999Z</time></trkpt><trkpt lat="42.08254325464439" lon="11.941748652167341"><ele>192.33333333333331</ele><time>2026-04-19T07:33:52.999Z</time></trkpt><trkpt lat="42.08265070876284" lon="11.941758488388606"><ele>195.5</ele><time>2026-04-19T07:33:54Z</time></trkpt><trkpt lat="42.082739795601235" lon="11.941770725080657"><ele>198.66666666666666</ele><time>2026-04-19T07:33:55Z</time></trkpt><trkpt lat="42.082803054672844" lon="11.94182001695778"><ele>201.83333333333331</ele><time>2026-04-19T07:33:56Z</time></trkpt><trkpt lat="42.08285411236975" lon="11.941880429181476"><ele>205.0</ele><time>2026-04-19T07:33:57Z</time></trkpt><trkpt lat="42.08282999894328" lon="11.942022177926958"><ele>205.0</ele><time>2026-04-19T07:33:59Z</time></trkpt><trkpt lat="42.082749280378096" lon="11.942131163744705"><ele>205.0</ele><time>2026-04-19T07:34:01Z</time></trkpt><trkpt lat="42.08263966451411" lon="11.942219895044005"><ele>205.0</ele><time>2026-04-19T07:34:03Z</time></trkpt><trkpt lat="42.08258629711822" lon="11.942388177282126"><ele>205.0</ele><time>2026-04-19T07:34:05Z</time></trkpt><trkpt lat="42.082578700695855" lon="11.942559096028184"><ele>205.83333333333331</ele><time>2026-04-19T07:34:07Z</time></trkpt><trkpt lat="42.082592203312075" lon="11.942662291019653"><ele>206.66666666666666</ele><time>2026-04-19T07:34:08Z</time></trkpt><trkpt lat="42.082585454400046" lon="11.942778094511365"><ele>207.5</ele><time>2026-04-19T07:34:09Z</time></trkpt><trkpt lat="42.08261155938815" lon="11.942884932754266"><ele>208.33333333333331</ele><time>2026-04-19T07:34:10Z</time></trkpt><trkpt lat="42.082615773369234" lon="11.943005548403871"><ele>209.16666666666666</ele><time>2026-04-19T07:34:11Z</time></trkpt><trkpt lat="42.08261520976115" lon="11.943105652520861"><ele>210.0</ele><time>2026-04-19T07:34:12Z</time></trkpt><trkpt lat="42.08263049177532" lon="11.943199307281485"><ele>210.0</ele><time>2026-04-19T07:34:13Z</time></trkpt><trkpt lat="42.082680900608956" lon="11.943266212612485"><ele>210.0</ele><time>2026-04-19T07:34:15Z</time></trkpt><trkpt lat="42.08275459805711" lon="11.943299197726578"><ele>210.0</ele><time>2026-04-19T07:34:18Z</time></trkpt><trkpt lat="42.082777993795816" lon="11.94337952234712"><ele>210.0</ele><time>2026-04-19T07:34:23Z</time></trkpt><trkpt lat="42.082846047717716" lon="11.943460113007921"><ele>210.0</ele><time>2026-04-19T07:34:58.999Z</time></trkpt><trkpt lat="42.082924921850406" lon="11.943505177435501"><ele>210.0</ele><time>2026-04-19T07:35:00.999Z</time></trkpt><trkpt lat="42.083000251097694" lon="11.943581243730518"><ele>210.8</ele><time>2026-04-19T07:35:02.999Z</time></trkpt><trkpt lat="42.08307472742412" lon="11.94365666106327"><ele>211.6</ele><time>2026-04-19T07:35:04.999Z</time></trkpt><trkpt lat="42.0831177928855" lon="11.943775795507323"><ele>212.39999999999998</ele><time>2026-04-19T07:35:06.999Z</time></trkpt><trkpt lat="42.08314668425039" lon="11.943869361899404"><ele>213.2</ele><time>2026-04-19T07:35:07.999Z</time></trkpt><trkpt lat="42.083189284111434" lon="11.944017171585541"><ele>214.0</ele><time>2026-04-19T07:35:09.999Z</time></trkpt><trkpt lat="42.083202246255624" lon="11.94414601733762"><ele>215.66666666666666</ele><time>2026-04-19T07:35:11.999Z</time></trkpt><trkpt lat="42.08320406168412" lon="11.944305132107724"><ele>217.33333333333331</ele><time>2026-04-19T07:35:13.999Z</time></trkpt><trkpt lat="42.08320584740125" lon="11.944393035693983"><ele>219.0</ele><time>2026-04-19T07:35:14.999Z</time></trkpt><trkpt lat="42.08319714488998" lon="11.9444911641132"><ele>220.66666666666669</ele><time>2026-04-19T07:35:15.999Z</time></trkpt><trkpt lat="42.08315876470767" lon="11.944615911813768"><ele>222.33333333333334</ele><time>2026-04-19T07:35:16.999Z</time></trkpt><trkpt lat="42.08312705455458" lon="11.944694119125174"><ele>224.0</ele><time>2026-04-19T07:35:17.999Z</time></trkpt><trkpt lat="42.08306723805862" lon="11.944726216078658"><ele>224.00000000000003</ele><time>2026-04-19T07:35:18.999Z</time></trkpt><trkpt lat="42.08306096077389" lon="11.944829888462266"><ele>224.0</ele><time>2026-04-19T07:35:19.999Z</time></trkpt><trkpt lat="42.08306275996363" lon="11.944938518750314"><ele>224.0</ele><time>2026-04-19T07:35:20.999Z</time></trkpt><trkpt lat="42.08306096413423" lon="11.94503893248495"><ele>224.0</ele><time>2026-04-19T07:35:21.999Z</time></trkpt><trkpt lat="42.08305774005556" lon="11.945151939801255"><ele>224.00000000000003</ele><time>2026-04-19T07:35:22.999Z</time></trkpt><trkpt lat="42.08307739422584" lon="11.945270417071045"><ele>224.0</ele><time>2026-04-19T07:35:23.999Z</time></trkpt><trkpt lat="42.08308681164151" lon="11.945377934956792"><ele>226.2</ele><time>2026-04-19T07:35:24.999Z</time></trkpt><trkpt lat="42.083102426802945" lon="11.94551222340761"><ele>228.39999999999998</ele><time>2026-04-19T07:35:26.999Z</time></trkpt><trkpt lat="42.083198538228686" lon="11.945546916813282"><ele>230.6</ele><time>2026-04-19T07:35:28.999Z</time></trkpt><trkpt lat="42.08330033760349" lon="11.94561498402355"><ele>232.8</ele><time>2026-04-19T07:35:30.999Z</time></trkpt><trkpt lat="42.08337053689931" lon="11.945677827217649"><ele>235.0</ele><time>2026-04-19T07:35:31.999Z</time></trkpt><trkpt lat="42.083438065603325" lon="11.94575166700812"><ele>236.25</ele><time>2026-04-19T07:35:32.999Z</time></trkpt><trkpt lat="42.08355881419759" lon="11.945851678649523"><ele>237.5</ele><time>2026-04-19T07:35:34.999Z</time></trkpt><trkpt lat="42.083653826313295" lon="11.945854282076773"><ele>238.75</ele><time>2026-04-19T07:35:36.999Z</time></trkpt><trkpt lat="42.08380138137589" lon="11.945832586277609"><ele>240.0</ele><time>2026-04-19T07:35:38.999Z</time></trkpt><trkpt lat="42.083971472865244" lon="11.945793771454106"><ele>240.0</ele><time>2026-04-19T07:35:40.999Z</time></trkpt><trkpt lat="42.08404277036534" lon="11.945788944372403"><ele>240.0</ele><time>2026-04-19T07:35:41.999Z</time></trkpt><trkpt lat="42.08410797188342" lon="11.94578823741914"><ele>240.0</ele><time>2026-04-19T07:35:42.999Z</time></trkpt><trkpt lat="42.08421663707766" lon="11.945770888876464"><ele>240.0</ele><time>2026-04-19T07:35:44.999Z</time></trkpt><trkpt lat="42.08428653733643" lon="11.94565992470505"><ele>240.0</ele><time>2026-04-19T07:35:46.999Z</time></trkpt><trkpt lat="42.08436952729243" lon="11.945583415392061"><ele>243.4</ele><time>2026-04-19T07:35:48.999Z</time></trkpt><trkpt lat="42.084441187304236" lon="11.945573587975781"><ele>246.8</ele><time>2026-04-19T07:35:49.999Z</time></trkpt><trkpt lat="42.08454947937747" lon="11.945575764145158"><ele>250.2</ele><time>2026-04-19T07:35:50.999Z</time></trkpt><trkpt lat="42.08464804504306" lon="11.945613647265185"><ele>253.6</ele><time>2026-04-19T07:35:51.999Z</time></trkpt><trkpt lat="42.08475464798778" lon="11.945622440889151"><ele>257.0</ele><time>2026-04-19T07:35:52.999Z</time></trkpt><trkpt lat="42.08485859610382" lon="11.945597748581461"><ele>260.25</ele><time>2026-04-19T07:35:53.999Z</time></trkpt><trkpt lat="42.08495530673535" lon="11.945609312577744"><ele>263.5</ele><time>2026-04-19T07:35:54.999Z</time></trkpt><trkpt lat="42.08513721402566" lon="11.945620127112964"><ele>266.75</ele><time>2026-04-19T07:35:57.999Z</time></trkpt><trkpt lat="42.085205278331344" lon="11.945679047299242"><ele>270.0</ele><time>2026-04-19T07:36:17Z</time></trkpt><trkpt lat="42.085468704039535" lon="11.945740585080387"><ele>270.0</ele><time>2026-04-19T07:36:43Z</time></trkpt><trkpt lat="42.08555731456657" lon="11.945748951939942"><ele>270.0</ele><time>2026-04-19T07:36:45Z</time></trkpt><trkpt lat="42.0857117871651" lon="11.945752862008323"><ele>270.0</ele><time>2026-04-19T07:36:47Z</time></trkpt><trkpt lat="42.085782914730935" lon="11.945777580661412"><ele>270.0</ele><time>2026-04-19T07:36:48Z</time></trkpt><trkpt lat="42.08590877036305" lon="11.94578583847324"><ele>270.0</ele><time>2026-04-19T07:36:49Z</time></trkpt><trkpt lat="42.08599490061382" lon="11.945828756609027"><ele>270.4</ele><time>2026-04-19T07:36:50Z</time></trkpt><trkpt lat="42.0860721666871" lon="11.945853976314615"><ele>270.8</ele><time>2026-04-19T07:36:51Z</time></trkpt><trkpt lat="42.08615793716857" lon="11.945883964851088"><ele>271.2</ele><time>2026-04-19T07:36:52Z</time></trkpt><trkpt lat="42.086239298799924" lon="11.945904838529502"><ele>271.6</ele><time>2026-04-19T07:36:53Z</time></trkpt><trkpt lat="42.08633139436801" lon="11.945912462046918"><ele>272.0</ele><time>2026-04-19T07:36:54Z</time></trkpt><trkpt lat="42.08651438887194" lon="11.94593570054936"><ele>272.1666666666667</ele><time>2026-04-19T07:36:57Z</time></trkpt><trkpt lat="42.086581460397696" lon="11.94596776769514"><ele>272.33333333333337</ele><time>2026-04-19T07:36:58Z</time></trkpt><trkpt lat="42.08666489134894" lon="11.946080241335096"><ele>272.5</ele><time>2026-04-19T07:37:00Z</time></trkpt><trkpt lat="42.08667748560144" lon="11.946186898392645"><ele>272.6666666666667</ele><time>2026-04-19T07:37:01.999Z</time></trkpt><trkpt lat="42.08665827404721" lon="11.946288671051747"><ele>272.8333333333333</ele><time>2026-04-19T07:37:03.999Z</time></trkpt><trkpt lat="42.08666828453751" lon="11.94639710326886"><ele>273.0</ele><time>2026-04-19T07:37:05.999Z</time></trkpt><trkpt lat="42.08669149268923" lon="11.946524054935374"><ele>273.0</ele><time>2026-04-19T07:37:07.999Z</time></trkpt><trkpt lat="42.08672069853287" lon="11.946687493349357"><ele>273.0</ele><time>2026-04-19T07:37:09.999Z</time></trkpt><trkpt lat="42.08674008531449" lon="11.946770430496926"><ele>273.0</ele><time>2026-04-19T07:37:10.999Z</time></trkpt><trkpt lat="42.086752556877364" lon="11.946893339007552"><ele>273.0</ele><time>2026-04-19T07:37:12.999Z</time></trkpt><trkpt lat="42.086781909628016" lon="11.9469744976989"><ele>273.0</ele><time>2026-04-19T07:37:14.999Z</time></trkpt><trkpt lat="42.08686369029203" lon="11.94702775918588"><ele>273.0</ele><time>2026-04-19T07:37:18.999Z</time></trkpt><trkpt lat="42.08695449823218" lon="11.94695188575114"><ele>272.8</ele><time>2026-04-19T07:37:20.999Z</time></trkpt><trkpt lat="42.08705564393624" lon="11.946917009542465"><ele>272.6</ele><time>2026-04-19T07:37:22.999Z</time></trkpt><trkpt lat="42.08717924889827" lon="11.946979537826307"><ele>272.4</ele><time>2026-04-19T07:37:24.999Z</time></trkpt><trkpt lat="42.0872466691295" lon="11.94707419461337"><ele>272.2</ele><time>2026-04-19T07:37:26.999Z</time></trkpt><trkpt lat="42.087314788798494" lon="11.947143026056326"><ele>272.0</ele><time>2026-04-19T07:37:28.999Z</time></trkpt><trkpt lat="42.08748712372064" lon="11.947181659020192"><ele>269.1666666666667</ele><time>2026-04-19T07:37:32.999Z</time></trkpt><trkpt lat="42.08755872674985" lon="11.94717747202726"><ele>266.33333333333337</ele><time>2026-04-19T07:37:34.999Z</time></trkpt><trkpt lat="42.08763531292257" lon="11.9471572256976"><ele>263.5</ele><time>2026-04-19T07:37:36.999Z</time></trkpt><trkpt lat="42.08772131348126" lon="11.94712161207738"><ele>260.6666666666667</ele><time>2026-04-19T07:37:38.999Z</time></trkpt><trkpt lat="42.08781113430871" lon="11.947108943920846"><ele>257.8333333333333</ele><time>2026-04-19T07:37:40.999Z</time></trkpt><trkpt lat="42.08788137071223" lon="11.94701290374433"><ele>255.0</ele><time>2026-04-19T07:37:43.999Z</time></trkpt><trkpt lat="42.08794554766274" lon="11.946962927149235"><ele>255.0</ele><time>2026-04-19T07:37:44.999Z</time></trkpt><trkpt lat="42.08804286339203" lon="11.946947984140154"><ele>255.0</ele><time>2026-04-19T07:37:46.999Z</time></trkpt><trkpt lat="42.088126089675335" lon="11.946898585858225"><ele>255.0</ele><time>2026-04-19T07:37:48.999Z</time></trkpt><trkpt lat="42.088209291564446" lon="11.946881712011784"><ele>255.0</ele><time>2026-04-19T07:37:50.999Z</time></trkpt><trkpt lat="42.088283862996974" lon="11.946867056466191"><ele>255.0</ele><time>2026-04-19T07:37:52.999Z</time></trkpt><trkpt lat="42.08839052093402" lon="11.946886656705148"><ele>255.0</ele><time>2026-04-19T07:37:54.999Z</time></trkpt><trkpt lat="42.08815471965739" lon="11.946919738530466"><ele>255.0</ele><time>2026-04-19T07:38:35Z</time></trkpt><trkpt lat="42.08806432799247" lon="11.946949626033842"><ele>255.0</ele><time>2026-04-19T07:38:37Z</time></trkpt><trkpt lat="42.08796550768759" lon="11.947004721967515"><ele>255.0</ele><time>2026-04-19T07:38:39Z</time></trkpt><trkpt lat="42.08786032258685" lon="11.947073337716985"><ele>255.0</ele><time>2026-04-19T07:38:41Z</time></trkpt><trkpt lat="42.087778060512655" lon="11.947109067333065"><ele>255.0</ele><time>2026-04-19T07:38:43Z</time></trkpt><trkpt lat="42.08771189626232" lon="11.947155846882051"><ele>255.0</ele><time>2026-04-19T07:38:45Z</time></trkpt><trkpt lat="42.087622383596404" lon="11.947184595719099"><ele>255.0</ele><time>2026-04-19T07:38:47Z</time></trkpt><trkpt lat="42.087546212792255" lon="11.947200392882511"><ele>255.0</ele><time>2026-04-19T07:38:49Z</time></trkpt><trkpt lat="42.087463385665686" lon="11.947202972946405"><ele>255.0</ele><time>2026-04-19T07:38:51Z</time></trkpt><trkpt lat="42.08738676012282" lon="11.94719879717299"><ele>257.8333333333333</ele><time>2026-04-19T07:38:53Z</time></trkpt><trkpt lat="42.087309414363325" lon="11.947188856468658"><ele>260.6666666666667</ele><time>2026-04-19T07:38:55Z</time></trkpt><trkpt lat="42.087251206106515" lon="11.947100064401358"><ele>263.5</ele><time>2026-04-19T07:38:59Z</time></trkpt><trkpt lat="42.08713480554364" lon="11.947054886318952"><ele>266.33333333333337</ele><time>2026-04-19T07:39:02Z</time></trkpt><trkpt lat="42.08706602993887" lon="11.946991595302157"><ele>269.1666666666667</ele><time>2026-04-19T07:39:03Z</time></trkpt><trkpt lat="42.08700912178679" lon="11.946954651443392"><ele>272.0</ele><time>2026-04-19T07:39:04Z</time></trkpt><trkpt lat="42.08694343554824" lon="11.946998374959785"><ele>272.0</ele><time>2026-04-19T07:39:05Z</time></trkpt><trkpt lat="42.08683045068191" lon="11.947051935463177"><ele>272.0</ele><time>2026-04-19T07:39:07Z</time></trkpt><trkpt lat="42.08673937006128" lon="11.94701551100921"><ele>272.0</ele><time>2026-04-19T07:39:09Z</time></trkpt><trkpt lat="42.086726353278266" lon="11.946908868890326"><ele>272.0</ele><time>2026-04-19T07:39:10.999Z</time></trkpt><trkpt lat="42.086725616059944" lon="11.94675545728354"><ele>272.0</ele><time>2026-04-19T07:39:12.999Z</time></trkpt><trkpt lat="42.08673701933209" lon="11.946651215220522"><ele>272.2</ele><time>2026-04-19T07:39:13.999Z</time></trkpt><trkpt lat="42.08673122881748" lon="11.946564317625148"><ele>272.4</ele><time>2026-04-19T07:39:14.999Z</time></trkpt><trkpt lat="42.08669958366413" lon="11.946431123279956"><ele>272.6</ele><time>2026-04-19T07:39:16.999Z</time></trkpt><trkpt lat="42.08667196125726" lon="11.94628413148472"><ele>272.8</ele><time>2026-04-19T07:39:18.999Z</time></trkpt><trkpt lat="42.08655773660238" lon="11.946301129598217"><ele>273.0</ele><time>2026-04-19T07:39:21.999Z</time></trkpt><trkpt lat="42.086468026300444" lon="11.946295268636725"><ele>274.2</ele><time>2026-04-19T07:39:23.999Z</time></trkpt><trkpt lat="42.08637197931964" lon="11.946348083172598"><ele>275.4</ele><time>2026-04-19T07:39:25.999Z</time></trkpt><trkpt lat="42.08627976337421" lon="11.946434893117596"><ele>276.59999999999997</ele><time>2026-04-19T07:39:27.999Z</time></trkpt><trkpt lat="42.08621084713029" lon="11.946521920701088"><ele>277.8</ele><time>2026-04-19T07:39:29.999Z</time></trkpt><trkpt lat="42.08616464576921" lon="11.94658308205876"><ele>279.0</ele><time>2026-04-19T07:39:30.999Z</time></trkpt><trkpt lat="42.086066827594784" lon="11.946657686997389"><ele>279.0</ele><time>2026-04-19T07:39:32.999Z</time></trkpt><trkpt lat="42.08600331790665" lon="11.946683583610515"><ele>279.0</ele><time>2026-04-19T07:39:33.999Z</time></trkpt><trkpt lat="42.08593970457495" lon="11.946711072373088"><ele>279.0</ele><time>2026-04-19T07:39:34.999Z</time></trkpt><trkpt lat="42.08587895022288" lon="11.946746567192706"><ele>279.0</ele><time>2026-04-19T07:39:35.999Z</time></trkpt><trkpt lat="42.085763658708814" lon="11.946836795801534"><ele>279.0</ele><time>2026-04-19T07:39:37.999Z</time></trkpt><trkpt lat="42.08568994299143" lon="11.946977201327119"><ele>280.0</ele><time>2026-04-19T07:39:39.999Z</time></trkpt><trkpt lat="42.08564902298144" lon="11.947045530435414"><ele>281.0</ele><time>2026-04-19T07:39:40.999Z</time></trkpt><trkpt lat="42.085558379996115" lon="11.947132370789026"><ele>282.0</ele><time>2026-04-19T07:39:42.999Z</time></trkpt><trkpt lat="42.08548237725754" lon="11.947205231570782"><ele>283.0</ele><time>2026-04-19T07:39:43.999Z</time></trkpt><trkpt lat="42.085392830733944" lon="11.947291372453163"><ele>284.0</ele><time>2026-04-19T07:39:44.999Z</time></trkpt><trkpt lat="42.08531058173055" lon="11.947377881935191"><ele>284.0</ele><time>2026-04-19T07:39:45.999Z</time></trkpt><trkpt lat="42.08524260519291" lon="11.947444791119183"><ele>284.0</ele><time>2026-04-19T07:39:46.999Z</time></trkpt><trkpt lat="42.08518283707592" lon="11.947511170867958"><ele>284.0</ele><time>2026-04-19T07:39:47.999Z</time></trkpt><trkpt lat="42.085134149151095" lon="11.947576918713217"><ele>284.0</ele><time>2026-04-19T07:39:48.999Z</time></trkpt><trkpt lat="42.085067362992575" lon="11.947636148524182"><ele>284.0</ele><time>2026-04-19T07:39:50.999Z</time></trkpt><trkpt lat="42.08498331510542" lon="11.947590827976263"><ele>284.0</ele><time>2026-04-19T07:39:54.999Z</time></trkpt><trkpt lat="42.0849040011933" lon="11.947553532786095"><ele>284.4</ele><time>2026-04-19T07:39:57.999Z</time></trkpt><trkpt lat="42.08483478722276" lon="11.947564569562786"><ele>284.79999999999995</ele><time>2026-04-19T07:39:58.999Z</time></trkpt><trkpt lat="42.08473688766941" lon="11.947569524664027"><ele>285.20000000000005</ele><time>2026-04-19T07:40:00.999Z</time></trkpt><trkpt lat="42.08463228867922" lon="11.947590792846258"><ele>285.6</ele><time>2026-04-19T07:40:02.999Z</time></trkpt><trkpt lat="42.0845680676077" lon="11.947659000106945"><ele>286.0</ele><time>2026-04-19T07:40:04.999Z</time></trkpt><trkpt lat="42.08457125824268" lon="11.947800175724874"><ele>286.0</ele><time>2026-04-19T07:40:07.999Z</time></trkpt><trkpt lat="42.08455832888534" lon="11.947910471847447"><ele>286.0</ele><time>2026-04-19T07:40:09.999Z</time></trkpt><trkpt lat="42.08448231639353" lon="11.94799618714812"><ele>286.0</ele><time>2026-04-19T07:40:12Z</time></trkpt><trkpt lat="42.08441228498013" lon="11.948130203747672"><ele>286.0</ele><time>2026-04-19T07:40:14Z</time></trkpt><trkpt lat="42.08439520832444" lon="11.948242388413485"><ele>286.0</ele><time>2026-04-19T07:40:16Z</time></trkpt><trkpt lat="42.08443956246666" lon="11.948341159210749"><ele>289.0</ele><time>2026-04-19T07:40:18Z</time></trkpt><trkpt lat="42.08452164425467" lon="11.948424131105654"><ele>292.0</ele><time>2026-04-19T07:40:20Z</time></trkpt><trkpt lat="42.084573103406086" lon="11.948478054760695"><ele>295.0</ele><time>2026-04-19T07:40:21Z</time></trkpt><trkpt lat="42.08459101730941" lon="11.948595699952975"><ele>298.0</ele><time>2026-04-19T07:40:23Z</time></trkpt><trkpt lat="42.08458573317893" lon="11.948706478527297"><ele>301.0</ele><time>2026-04-19T07:40:25Z</time></trkpt><trkpt lat="42.08459983924287" lon="11.948817667675117"><ele>304.0</ele><time>2026-04-19T07:40:27Z</time></trkpt><trkpt lat="42.084595177564466" lon="11.94892470112607"><ele>304.0</ele><time>2026-04-19T07:40:29Z</time></trkpt><trkpt lat="42.08458359090077" lon="11.949092099612903"><ele>304.0</ele><time>2026-04-19T07:40:31Z</time></trkpt><trkpt lat="42.08457342106399" lon="11.949192585465173"><ele>304.0</ele><time>2026-04-19T07:40:33Z</time></trkpt><trkpt lat="42.08455173559728" lon="11.949277790301739"><ele>304.0</ele><time>2026-04-19T07:40:35Z</time></trkpt><trkpt lat="42.084565646048304" lon="11.949181352146544"><ele>304.0</ele><time>2026-04-19T07:41:23.999Z</time></trkpt><trkpt lat="42.0846052411974" lon="11.949100356135775"><ele>304.0</ele><time>2026-04-19T07:42:12.999Z</time></trkpt><trkpt lat="42.084621990288476" lon="11.948972944753713"><ele>304.0</ele><time>2026-04-19T07:42:14.999Z</time></trkpt><trkpt lat="42.08461507623868" lon="11.948883367028948"><ele>304.0</ele><time>2026-04-19T07:42:16.999Z</time></trkpt><trkpt lat="42.0846159922054" lon="11.948790230131738"><ele>304.0</ele><time>2026-04-19T07:42:19Z</time></trkpt><trkpt lat="42.084615890907244" lon="11.948680334663546"><ele>304.0</ele><time>2026-04-19T07:42:21Z</time></trkpt><trkpt lat="42.084626907795986" lon="11.948594063790205"><ele>304.0</ele><time>2026-04-19T07:42:23Z</time></trkpt><trkpt lat="42.08459916048655" lon="11.948488211793643"><ele>304.0</ele><time>2026-04-19T07:42:25Z</time></trkpt><trkpt lat="42.084574917720474" lon="11.948399378818088"><ele>304.0</ele><time>2026-04-19T07:42:29Z</time></trkpt><trkpt lat="42.08451988336129" lon="11.948295519556472"><ele>301.0</ele><time>2026-04-19T07:42:31Z</time></trkpt><trkpt lat="42.08451485597793" lon="11.948176292350288"><ele>298.0</ele><time>2026-04-19T07:42:35Z</time></trkpt><trkpt lat="42.084587012435605" lon="11.948030892914575"><ele>295.0</ele><time>2026-04-19T07:42:37Z</time></trkpt><trkpt lat="42.08460835887152" lon="11.947946655345863"><ele>292.0</ele><time>2026-04-19T07:42:39Z</time></trkpt><trkpt lat="42.084611070612" lon="11.9478439228432"><ele>289.0</ele><time>2026-04-19T07:42:43Z</time></trkpt><trkpt lat="42.084675708116954" lon="11.947791419452043"><ele>286.0</ele><time>2026-04-19T07:42:45Z</time></trkpt><trkpt lat="42.084800663119815" lon="11.947752543214037"><ele>286.0</ele><time>2026-04-19T07:42:49Z</time></trkpt><trkpt lat="42.08486121177101" lon="11.94770707674638"><ele>286.0</ele><time>2026-04-19T07:42:51Z</time></trkpt><trkpt lat="42.084944048728204" lon="11.947691870515268"><ele>286.0</ele><time>2026-04-19T07:42:55Z</time></trkpt><trkpt lat="42.08501777305815" lon="11.947632482384803"><ele>286.0</ele><time>2026-04-19T07:42:58Z</time></trkpt><trkpt lat="42.08508303451959" lon="11.947584931089512"><ele>286.0</ele><time>2026-04-19T07:43:00Z</time></trkpt><trkpt lat="42.08515870043078" lon="11.947524777252088"><ele>286.0</ele><time>2026-04-19T07:43:03Z</time></trkpt><trkpt lat="42.08523787675194" lon="11.94745581992909"><ele>285.6</ele><time>2026-04-19T07:43:04Z</time></trkpt><trkpt lat="42.08532274649425" lon="11.947389314153725"><ele>285.20000000000005</ele><time>2026-04-19T07:43:05Z</time></trkpt><trkpt lat="42.08539405325879" lon="11.947330220755786"><ele>284.79999999999995</ele><time>2026-04-19T07:43:06Z</time></trkpt><trkpt lat="42.0854578226985" lon="11.947260578209946"><ele>284.4</ele><time>2026-04-19T07:43:07Z</time></trkpt><trkpt lat="42.085530495710984" lon="11.947168210686812"><ele>284.0</ele><time>2026-04-19T07:43:08Z</time></trkpt><trkpt lat="42.08562885298018" lon="11.94711605920252"><ele>284.0</ele><time>2026-04-19T07:43:09Z</time></trkpt><trkpt lat="42.085684892774715" lon="11.947030358847787"><ele>284.0</ele><time>2026-04-19T07:43:10Z</time></trkpt><trkpt lat="42.085789800622344" lon="11.94693719485299"><ele>284.0</ele><time>2026-04-19T07:43:12Z</time></trkpt><trkpt lat="42.085840567733065" lon="11.946873973587802"><ele>284.0</ele><time>2026-04-19T07:43:12.999Z</time></trkpt><trkpt lat="42.08589358251726" lon="11.946748660738372"><ele>284.0</ele><time>2026-04-19T07:43:14.999Z</time></trkpt><trkpt lat="42.085989886672195" lon="11.946675749028582"><ele>283.1666666666667</ele><time>2026-04-19T07:43:16.999Z</time></trkpt><trkpt lat="42.08605148124206" lon="11.946638438625653"><ele>282.33333333333337</ele><time>2026-04-19T07:43:17.999Z</time></trkpt><trkpt lat="42.08611351249531" lon="11.94659771134646"><ele>281.5</ele><time>2026-04-19T07:43:18.999Z</time></trkpt><trkpt lat="42.08617485710387" lon="11.94655305805034"><ele>280.6666666666667</ele><time>2026-04-19T07:43:19.999Z</time></trkpt><trkpt lat="42.08627450439994" lon="11.946450062779178"><ele>279.8333333333333</ele><time>2026-04-19T07:43:21.999Z</time></trkpt><trkpt lat="42.08632353509653" lon="11.946383543606391"><ele>279.0</ele><time>2026-04-19T07:43:22.999Z</time></trkpt><trkpt lat="42.08642804597491" lon="11.946305879765134"><ele>279.0</ele><time>2026-04-19T07:43:24.999Z</time></trkpt><trkpt lat="42.086515141066954" lon="11.94627484210282"><ele>279.0</ele><time>2026-04-19T07:43:26.999Z</time></trkpt><trkpt lat="42.08658333901265" lon="11.946289464429134"><ele>279.0</ele><time>2026-04-19T07:43:28.999Z</time></trkpt><trkpt lat="42.08666277758556" lon="11.946242616900063"><ele>279.0</ele><time>2026-04-19T07:43:31.999Z</time></trkpt><trkpt lat="42.086643797090005" lon="11.946161116149206"><ele>279.0</ele><time>2026-04-19T07:43:34.999Z</time></trkpt><trkpt lat="42.0866175857652" lon="11.946059032937006"><ele>279.0</ele><time>2026-04-19T07:43:50.999Z</time></trkpt><trkpt lat="42.086629599121956" lon="11.945975618269424"><ele>277.8333333333333</ele><time>2026-04-19T07:43:52.999Z</time></trkpt><trkpt lat="42.08661823209603" lon="11.945833552388725"><ele>276.6666666666667</ele><time>2026-04-19T07:43:54.999Z</time></trkpt><trkpt lat="42.08659424271464" lon="11.945741043086024"><ele>275.5</ele><time>2026-04-19T07:43:55.999Z</time></trkpt><trkpt lat="42.086635269342864" lon="11.945636855960188"><ele>274.33333333333337</ele><time>2026-04-19T07:43:57.999Z</time></trkpt><trkpt lat="42.08663528431566" lon="11.945544830172386"><ele>273.1666666666667</ele><time>2026-04-19T07:43:59.999Z</time></trkpt><trkpt lat="42.08662159274486" lon="11.945460240207428"><ele>272.0</ele><time>2026-04-19T07:44:01.999Z</time></trkpt><trkpt lat="42.08672914124769" lon="11.945435906468456"><ele>271.6</ele><time>2026-04-19T07:49:29Z</time></trkpt><trkpt lat="42.08681538239405" lon="11.945373553820753"><ele>271.2</ele><time>2026-04-19T07:49:39Z</time></trkpt><trkpt lat="42.08698572426867" lon="11.945371367380998"><ele>270.8</ele><time>2026-04-19T07:49:42Z</time></trkpt><trkpt lat="42.087061399446405" lon="11.945351818704653"><ele>270.4</ele><time>2026-04-19T07:49:43Z</time></trkpt><trkpt lat="42.08715175018504" lon="11.945341666211503"><ele>270.0</ele><time>2026-04-19T07:49:44Z</time></trkpt><trkpt lat="42.087256429196884" lon="11.945324074900851"><ele>270.0</ele><time>2026-04-19T07:49:45Z</time></trkpt><trkpt lat="42.087370741676416" lon="11.945305167319738"><ele>270.0</ele><time>2026-04-19T07:49:45.999Z</time></trkpt><trkpt lat="42.08748632010321" lon="11.945289390717015"><ele>270.0</ele><time>2026-04-19T07:49:46.999Z</time></trkpt><trkpt lat="42.08759780558368" lon="11.945261539127483"><ele>270.0</ele><time>2026-04-19T07:49:47.999Z</time></trkpt><trkpt lat="42.0876972161963" lon="11.94523661667361"><ele>270.0</ele><time>2026-04-19T07:49:48.999Z</time></trkpt><trkpt lat="42.087790115718164" lon="11.945198997425853"><ele>269.75</ele><time>2026-04-19T07:49:49.999Z</time></trkpt><trkpt lat="42.087920510019856" lon="11.945114304715187"><ele>269.5</ele><time>2026-04-19T07:49:51.999Z</time></trkpt><trkpt lat="42.08803163265779" lon="11.945075946566586"><ele>269.25</ele><time>2026-04-19T07:49:52.999Z</time></trkpt><trkpt lat="42.08812743102278" lon="11.945021772910692"><ele>269.0</ele><time>2026-04-19T07:49:53.999Z</time></trkpt><trkpt lat="42.088226723291086" lon="11.94498697270158"><ele>270.2</ele><time>2026-04-19T07:49:54.999Z</time></trkpt><trkpt lat="42.08831286773241" lon="11.944945205855237"><ele>271.4</ele><time>2026-04-19T07:49:55.999Z</time></trkpt><trkpt lat="42.08838913493229" lon="11.944896344780267"><ele>272.6</ele><time>2026-04-19T07:49:56.999Z</time></trkpt><trkpt lat="42.08847493951428" lon="11.944850242557552"><ele>273.8</ele><time>2026-04-19T07:49:57.999Z</time></trkpt><trkpt lat="42.08856801085123" lon="11.944809147848185"><ele>275.0</ele><time>2026-04-19T07:49:58.999Z</time></trkpt><trkpt lat="42.08866684020721" lon="11.944787846082983"><ele>275.0</ele><time>2026-04-19T07:49:59.999Z</time></trkpt><trkpt lat="42.088774922823475" lon="11.944798578025399"><ele>275.0</ele><time>2026-04-19T07:50:00.999Z</time></trkpt><trkpt lat="42.0888883405523" lon="11.944783554547115"><ele>275.0</ele><time>2026-04-19T07:50:01.999Z</time></trkpt><trkpt lat="42.088989514679675" lon="11.944745781972887"><ele>275.0</ele><time>2026-04-19T07:50:02.999Z</time></trkpt><trkpt lat="42.08906594757126" lon="11.944714164028056"><ele>275.0</ele><time>2026-04-19T07:50:03.999Z</time></trkpt><trkpt lat="42.08914658016098" lon="11.944689005407582"><ele>275.0</ele><time>2026-04-19T07:50:04.999Z</time></trkpt><trkpt lat="42.089225574403756" lon="11.944670207951287"><ele>275.0</ele><time>2026-04-19T07:50:05.999Z</time></trkpt><trkpt lat="42.08929408055366" lon="11.944648630639481"><ele>275.0</ele><time>2026-04-19T07:50:06.999Z</time></trkpt><trkpt lat="42.08935496744893" lon="11.94461236844172"><ele>275.0</ele><time>2026-04-19T07:50:07.999Z</time></trkpt><trkpt lat="42.0894236016829" lon="11.944566936437583"><ele>275.0</ele><time>2026-04-19T07:50:08.999Z</time></trkpt><trkpt lat="42.08950798800585" lon="11.944510300458502"><ele>275.0</ele><time>2026-04-19T07:50:09.999Z</time></trkpt><trkpt lat="42.0895870706151" lon="11.94444852003313"><ele>275.0</ele><time>2026-04-19T07:50:10.999Z</time></trkpt><trkpt lat="42.08968515919367" lon="11.944378316057639"><ele>275.0</ele><time>2026-04-19T07:50:11.999Z</time></trkpt><trkpt lat="42.08977671902448" lon="11.944315661403829"><ele>275.0</ele><time>2026-04-19T07:50:12.999Z</time></trkpt><trkpt lat="42.089871169154634" lon="11.944263841554672"><ele>275.0</ele><time>2026-04-19T07:50:13.999Z</time></trkpt><trkpt lat="42.08995609120307" lon="11.944212102570239"><ele>275.0</ele><time>2026-04-19T07:50:14.999Z</time></trkpt><trkpt lat="42.09004535878084" lon="11.944190191979182"><ele>274.2</ele><time>2026-04-19T07:50:15.999Z</time></trkpt><trkpt lat="42.09014473704178" lon="11.944198112302661"><ele>273.4</ele><time>2026-04-19T07:50:16.999Z</time></trkpt><trkpt lat="42.090240195284586" lon="11.944195682966429"><ele>272.6</ele><time>2026-04-19T07:50:17.999Z</time></trkpt><trkpt lat="42.090328606198" lon="11.94419261833888"><ele>271.8</ele><time>2026-04-19T07:50:18.999Z</time></trkpt><trkpt lat="42.09040167995636" lon="11.944162896039067"><ele>271.0</ele><time>2026-04-19T07:50:19.999Z</time></trkpt><trkpt lat="42.090514289494415" lon="11.944089911092963"><ele>271.0</ele><time>2026-04-19T07:50:21.999Z</time></trkpt><trkpt lat="42.09057448780384" lon="11.944042504845306"><ele>271.0</ele><time>2026-04-19T07:50:22.999Z</time></trkpt><trkpt lat="42.09064221628363" lon="11.944015637002982"><ele>271.0</ele><time>2026-04-19T07:50:23.999Z</time></trkpt><trkpt lat="42.09072639594746" lon="11.94402966255918"><ele>271.0</ele><time>2026-04-19T07:50:24.999Z</time></trkpt><trkpt lat="42.09080215506326" lon="11.944011585872392"><ele>271.0</ele><time>2026-04-19T07:50:25.999Z</time></trkpt><trkpt lat="42.090878089694016" lon="11.943971198237703"><ele>271.0</ele><time>2026-04-19T07:50:26.999Z</time></trkpt><trkpt lat="42.090939067321585" lon="11.943935917382385"><ele>271.3333333333333</ele><time>2026-04-19T07:50:27.999Z</time></trkpt><trkpt lat="42.09100887721795" lon="11.943928605086196"><ele>271.66666666666663</ele><time>2026-04-19T07:50:28.999Z</time></trkpt><trkpt lat="42.091083966870016" lon="11.94390661492644"><ele>272.0</ele><time>2026-04-19T07:50:29.999Z</time></trkpt><trkpt lat="42.091165570896976" lon="11.943855674266302"><ele>272.3333333333333</ele><time>2026-04-19T07:50:30.999Z</time></trkpt><trkpt lat="42.09124299368879" lon="11.94380798662259"><ele>272.6666666666667</ele><time>2026-04-19T07:50:31.999Z</time></trkpt><trkpt lat="42.091308308389195" lon="11.943735765211242"><ele>273.0</ele><time>2026-04-19T07:50:32.999Z</time></trkpt><trkpt lat="42.091378168979936" lon="11.943628524058784"><ele>273.0</ele><time>2026-04-19T07:50:33.999Z</time></trkpt><trkpt lat="42.0914500111708" lon="11.943536190891104"><ele>273.0</ele><time>2026-04-19T07:50:34.999Z</time></trkpt><trkpt lat="42.091531993986564" lon="11.943437705864726"><ele>273.0</ele><time>2026-04-19T07:50:35.999Z</time></trkpt><trkpt lat="42.09160085782689" lon="11.943369565987139"><ele>273.0</ele><time>2026-04-19T07:50:36.999Z</time></trkpt><trkpt lat="42.09167396130539" lon="11.943307554164932"><ele>273.0</ele><time>2026-04-19T07:50:37.999Z</time></trkpt><trkpt lat="42.09174128639053" lon="11.943251085847761"><ele>274.1666666666667</ele><time>2026-04-19T07:50:38.999Z</time></trkpt><trkpt lat="42.091807914828614" lon="11.9431956736011"><ele>275.3333333333333</ele><time>2026-04-19T07:50:39.999Z</time></trkpt><trkpt lat="42.09187058036724" lon="11.94312919671835"><ele>276.5</ele><time>2026-04-19T07:50:40.999Z</time></trkpt><trkpt lat="42.09193595831762" lon="11.943064746307364"><ele>277.66666666666663</ele><time>2026-04-19T07:50:42Z</time></trkpt><trkpt lat="42.09200963842344" lon="11.943003043335368"><ele>278.8333333333333</ele><time>2026-04-19T07:50:43Z</time></trkpt><trkpt lat="42.092064916849004" lon="11.942924922644647"><ele>280.0</ele><time>2026-04-19T07:50:44Z</time></trkpt><trkpt lat="42.092117735068236" lon="11.942848651244377"><ele>280.0</ele><time>2026-04-19T07:50:45Z</time></trkpt><trkpt lat="42.092181822693874" lon="11.9427753599509"><ele>280.0</ele><time>2026-04-19T07:50:46Z</time></trkpt><trkpt lat="42.09224600691879" lon="11.942724746487489"><ele>280.0</ele><time>2026-04-19T07:50:47Z</time></trkpt><trkpt lat="42.092313270447065" lon="11.942682725230558"><ele>280.0</ele><time>2026-04-19T07:50:48Z</time></trkpt><trkpt lat="42.09234893691185" lon="11.942603747574672"><ele>280.0</ele><time>2026-04-19T07:50:49Z</time></trkpt><trkpt lat="42.09235964782146" lon="11.942516422560015"><ele>280.0</ele><time>2026-04-19T07:50:50Z</time></trkpt><trkpt lat="42.09234193379448" lon="11.942422162924501"><ele>280.0</ele><time>2026-04-19T07:50:51Z</time></trkpt><trkpt lat="42.09241028875921" lon="11.94226667422431"><ele>280.6</ele><time>2026-04-19T07:50:53Z</time></trkpt><trkpt lat="42.092467420212394" lon="11.94218830699817"><ele>281.2</ele><time>2026-04-19T07:50:54Z</time></trkpt><trkpt lat="42.09252593676951" lon="11.942086307872406"><ele>281.8</ele><time>2026-04-19T07:50:55Z</time></trkpt><trkpt lat="42.09257859472842" lon="11.941992843812622"><ele>282.4</ele><time>2026-04-19T07:50:56Z</time></trkpt><trkpt lat="42.09268320293943" lon="11.941896597452624"><ele>283.0</ele><time>2026-04-19T07:50:58Z</time></trkpt><trkpt lat="42.09274779656253" lon="11.941860352684436"><ele>283.0</ele><time>2026-04-19T07:50:59Z</time></trkpt><trkpt lat="42.092805888833006" lon="11.941820918847828"><ele>283.0</ele><time>2026-04-19T07:51:00Z</time></trkpt><trkpt lat="42.09284875078184" lon="11.941734997053327"><ele>283.0</ele><time>2026-04-19T07:51:01Z</time></trkpt><trkpt lat="42.092923824034365" lon="11.941682850258328"><ele>283.0</ele><time>2026-04-19T07:51:02Z</time></trkpt><trkpt lat="42.09299705461977" lon="11.941628636185177"><ele>283.0</ele><time>2026-04-19T07:51:03Z</time></trkpt><trkpt lat="42.09308147412876" lon="11.94158163868212"><ele>283.0</ele><time>2026-04-19T07:51:04Z</time></trkpt><trkpt lat="42.09316409083443" lon="11.941530902579137"><ele>282.8</ele><time>2026-04-19T07:51:05Z</time></trkpt><trkpt lat="42.0932375543245" lon="11.941471695745541"><ele>282.6</ele><time>2026-04-19T07:51:06Z</time></trkpt><trkpt lat="42.0933123173724" lon="11.941384663139106"><ele>282.4</ele><time>2026-04-19T07:51:07Z</time></trkpt><trkpt lat="42.09337877958483" lon="11.941285503752786"><ele>282.2</ele><time>2026-04-19T07:51:08Z</time></trkpt><trkpt lat="42.09344526136059" lon="11.941166947863811"><ele>282.0</ele><time>2026-04-19T07:51:09Z</time></trkpt><trkpt lat="42.09350299008213" lon="11.941063054941457"><ele>279.6</ele><time>2026-04-19T07:51:10Z</time></trkpt><trkpt lat="42.09356342159834" lon="11.940967613544899"><ele>277.2</ele><time>2026-04-19T07:51:11Z</time></trkpt><trkpt lat="42.09362780512635" lon="11.94086816567226"><ele>274.8</ele><time>2026-04-19T07:51:12Z</time></trkpt><trkpt lat="42.09368522919947" lon="11.940774085904705"><ele>272.4</ele><time>2026-04-19T07:51:13Z</time></trkpt><trkpt lat="42.09374741057713" lon="11.940739120686702"><ele>270.0</ele><time>2026-04-19T07:51:14Z</time></trkpt><trkpt lat="42.093852096443435" lon="11.94064511750536"><ele>269.6</ele><time>2026-04-19T07:51:16Z</time></trkpt><trkpt lat="42.093915778666585" lon="11.940590382017056"><ele>269.2</ele><time>2026-04-19T07:51:17Z</time></trkpt><trkpt lat="42.09398368292243" lon="11.94051813893364"><ele>268.8</ele><time>2026-04-19T07:51:18Z</time></trkpt><trkpt lat="42.09404619472301" lon="11.940434829302369"><ele>268.4</ele><time>2026-04-19T07:51:19Z</time></trkpt><trkpt lat="42.09411643633578" lon="11.940342999776718"><ele>268.0</ele><time>2026-04-19T07:51:20Z</time></trkpt><trkpt lat="42.09419340063277" lon="11.94024301082149"><ele>268.2</ele><time>2026-04-19T07:51:21Z</time></trkpt><trkpt lat="42.09425956170502" lon="11.940143216746485"><ele>268.4</ele><time>2026-04-19T07:51:22Z</time></trkpt><trkpt lat="42.094321141001714" lon="11.940046403743592"><ele>268.59999999999997</ele><time>2026-04-19T07:51:23Z</time></trkpt><trkpt lat="42.094391748315644" lon="11.939967068465672"><ele>268.8</ele><time>2026-04-19T07:51:24Z</time></trkpt><trkpt lat="42.09444888018297" lon="11.9399023864492"><ele>269.0</ele><time>2026-04-19T07:51:25Z</time></trkpt><trkpt lat="42.09450357518608" lon="11.939765483805646"><ele>269.0</ele><time>2026-04-19T07:51:27Z</time></trkpt><trkpt lat="42.094503154419975" lon="11.939673925954052"><ele>269.0</ele><time>2026-04-19T07:51:28Z</time></trkpt><trkpt lat="42.0945191564331" lon="11.939572303616151"><ele>269.0</ele><time>2026-04-19T07:51:29Z</time></trkpt><trkpt lat="42.09454191178635" lon="11.93948098171559"><ele>269.0</ele><time>2026-04-19T07:51:30Z</time></trkpt><trkpt lat="42.094578751327454" lon="11.939374910605459"><ele>269.0</ele><time>2026-04-19T07:51:31Z</time></trkpt><trkpt lat="42.094614453154435" lon="11.939262515444534"><ele>269.0</ele><time>2026-04-19T07:51:32Z</time></trkpt><trkpt lat="42.09466020291364" lon="11.939134075283414"><ele>268.0</ele><time>2026-04-19T07:51:34Z</time></trkpt><trkpt lat="42.09480818397572" lon="11.939152899454045"><ele>267.0</ele><time>2026-04-19T07:51:36Z</time></trkpt><trkpt lat="42.0950038546012" lon="11.939122267461524"><ele>266.0</ele><time>2026-04-19T07:51:38Z</time></trkpt><trkpt lat="42.09507349670735" lon="11.939064214793966"><ele>265.0</ele><time>2026-04-19T07:51:39Z</time></trkpt><trkpt lat="42.095136956805945" lon="11.938978680068086"><ele>267.6</ele><time>2026-04-19T07:51:40Z</time></trkpt><trkpt lat="42.0951875865919" lon="11.938895837082658"><ele>270.2</ele><time>2026-04-19T07:51:41Z</time></trkpt><trkpt lat="42.09524704777856" lon="11.938822618977495"><ele>272.8</ele><time>2026-04-19T07:51:42Z</time></trkpt><trkpt lat="42.09533333652933" lon="11.938740058323809"><ele>275.4</ele><time>2026-04-19T07:51:43Z</time></trkpt><trkpt lat="42.095421956576324" lon="11.938672826766204"><ele>278.0</ele><time>2026-04-19T07:51:44Z</time></trkpt><trkpt lat="42.09549330265147" lon="11.938597916348364"><ele>278.0</ele><time>2026-04-19T07:51:45Z</time></trkpt><trkpt lat="42.095565802591764" lon="11.938540967224123"><ele>278.0</ele><time>2026-04-19T07:51:46Z</time></trkpt><trkpt lat="42.09562679381283" lon="11.93849046116581"><ele>278.0</ele><time>2026-04-19T07:51:47Z</time></trkpt><trkpt lat="42.09573801132829" lon="11.938445657109247"><ele>278.0</ele><time>2026-04-19T07:51:49Z</time></trkpt><trkpt lat="42.09580460305058" lon="11.938451338581261"><ele>278.0</ele><time>2026-04-19T07:51:50Z</time></trkpt><trkpt lat="42.09588714884856" lon="11.93845761392453"><ele>278.0</ele><time>2026-04-19T07:51:50.999Z</time></trkpt><trkpt lat="42.09597046239559" lon="11.938460166782418"><ele>278.4</ele><time>2026-04-19T07:51:51.999Z</time></trkpt><trkpt lat="42.0960588164766" lon="11.938462633269324"><ele>278.8</ele><time>2026-04-19T07:51:52.999Z</time></trkpt><trkpt lat="42.096217951131166" lon="11.938431524445972"><ele>279.2</ele><time>2026-04-19T07:51:54.999Z</time></trkpt><trkpt lat="42.09630461890671" lon="11.938389894423942"><ele>279.6</ele><time>2026-04-19T07:51:55.999Z</time></trkpt><trkpt lat="42.09637360022984" lon="11.938320728032593"><ele>280.0</ele><time>2026-04-19T07:51:56.999Z</time></trkpt><trkpt lat="42.09645079931573" lon="11.938262320384728"><ele>281.5</ele><time>2026-04-19T07:51:57.999Z</time></trkpt><trkpt lat="42.09652274766632" lon="11.938220010415925"><ele>283.0</ele><time>2026-04-19T07:51:58.999Z</time></trkpt><trkpt lat="42.096596501151865" lon="11.93817954876469"><ele>284.5</ele><time>2026-04-19T07:51:59.999Z</time></trkpt><trkpt lat="42.09666366555173" lon="11.938155045047896"><ele>286.0</ele><time>2026-04-19T07:52:00.999Z</time></trkpt><trkpt lat="42.09672486566889" lon="11.938124966187619"><ele>287.5</ele><time>2026-04-19T07:52:01.999Z</time></trkpt><trkpt lat="42.096831235350024" lon="11.938054969053224"><ele>289.0</ele><time>2026-04-19T07:52:03.999Z</time></trkpt><trkpt lat="42.09690339389172" lon="11.93799482096299"><ele>289.0</ele><time>2026-04-19T07:52:05.999Z</time></trkpt><trkpt lat="42.097010724807724" lon="11.937942495384677"><ele>289.0</ele><time>2026-04-19T07:52:14.999Z</time></trkpt><trkpt lat="42.097098349101834" lon="11.937921119767424"><ele>289.0</ele><time>2026-04-19T07:52:17.999Z</time></trkpt><trkpt lat="42.097206316747545" lon="11.937871382186477"><ele>289.0</ele><time>2026-04-19T07:53:10Z</time></trkpt><trkpt lat="42.09731835402644" lon="11.937829758244215"><ele>289.0</ele><time>2026-04-19T07:53:12Z</time></trkpt><trkpt lat="42.09740173093051" lon="11.937771752041247"><ele>288.8</ele><time>2026-04-19T07:53:13Z</time></trkpt><trkpt lat="42.09746469051902" lon="11.937662899597797"><ele>288.59999999999997</ele><time>2026-04-19T07:53:14Z</time></trkpt><trkpt lat="42.09748881615466" lon="11.93754568641239"><ele>288.4</ele><time>2026-04-19T07:53:15Z</time></trkpt><trkpt lat="42.09752522930646" lon="11.937399328616866"><ele>288.2</ele><time>2026-04-19T07:53:17Z</time></trkpt><trkpt lat="42.09755646457834" lon="11.937260525767416"><ele>288.0</ele><time>2026-04-19T07:53:19Z</time></trkpt><trkpt lat="42.09763768320229" lon="11.93718262341019"><ele>287.6666666666667</ele><time>2026-04-19T07:53:21Z</time></trkpt><trkpt lat="42.09772460923593" lon="11.937138270757332"><ele>287.3333333333333</ele><time>2026-04-19T07:53:23Z</time></trkpt><trkpt lat="42.097807175920124" lon="11.93706420471999"><ele>287.0</ele><time>2026-04-19T07:53:25Z</time></trkpt><trkpt lat="42.09789675944224" lon="11.93703349115675"><ele>286.66666666666663</ele><time>2026-04-19T07:53:27Z</time></trkpt><trkpt lat="42.09799015879435" lon="11.937014702026364"><ele>286.3333333333333</ele><time>2026-04-19T07:53:29Z</time></trkpt><trkpt lat="42.098051817340476" lon="11.936995474693122"><ele>286.0</ele><time>2026-04-19T07:53:30Z</time></trkpt><trkpt lat="42.09811917849621" lon="11.93698043569487"><ele>285.99999999999994</ele><time>2026-04-19T07:53:31Z</time></trkpt><trkpt lat="42.09818496166466" lon="11.9369891099421"><ele>286.0</ele><time>2026-04-19T07:53:32Z</time></trkpt><trkpt lat="42.098260430604235" lon="11.936997539349246"><ele>286.0</ele><time>2026-04-19T07:53:33Z</time></trkpt><trkpt lat="42.09833120437446" lon="11.936971554166469"><ele>286.0</ele><time>2026-04-19T07:53:34Z</time></trkpt><trkpt lat="42.09840557773484" lon="11.936969051235687"><ele>286.0</ele><time>2026-04-19T07:53:35Z</time></trkpt><trkpt lat="42.098474122874805" lon="11.9369634037714"><ele>285.99999999999994</ele><time>2026-04-19T07:53:36Z</time></trkpt><trkpt lat="42.09854745344118" lon="11.936933376619795"><ele>286.0</ele><time>2026-04-19T07:53:37Z</time></trkpt><trkpt lat="42.09860551619014" lon="11.936895168438491"><ele>286.0</ele><time>2026-04-19T07:53:38Z</time></trkpt><trkpt lat="42.098693357142906" lon="11.936791903214882"><ele>286.0</ele><time>2026-04-19T07:53:40Z</time></trkpt><trkpt lat="42.09877127108166" lon="11.93670448775613"><ele>286.0</ele><time>2026-04-19T07:53:42Z</time></trkpt><trkpt lat="42.0988894684751" lon="11.936701076692572"><ele>286.0</ele><time>2026-04-19T07:53:44Z</time></trkpt><trkpt lat="42.09897184232888" lon="11.936727307733223"><ele>286.0</ele><time>2026-04-19T07:53:45Z</time></trkpt><trkpt lat="42.099045790112996" lon="11.936760025473045"><ele>284.66666666666663</ele><time>2026-04-19T07:53:46Z</time></trkpt><trkpt lat="42.09911722293469" lon="11.936798254901944"><ele>283.3333333333333</ele><time>2026-04-19T07:53:47Z</time></trkpt><trkpt lat="42.09918564925941" lon="11.93682198465807"><ele>282.0</ele><time>2026-04-19T07:53:48Z</time></trkpt><trkpt lat="42.099260873722194" lon="11.936832376849273"><ele>280.6666666666667</ele><time>2026-04-19T07:53:49Z</time></trkpt><trkpt lat="42.099347771342465" lon="11.936869134111502"><ele>279.33333333333337</ele><time>2026-04-19T07:53:50Z</time></trkpt><trkpt lat="42.09942890139882" lon="11.936913945413743"><ele>278.0</ele><time>2026-04-19T07:53:51Z</time></trkpt><trkpt lat="42.09951384542516" lon="11.936914379624795"><ele>278.0</ele><time>2026-04-19T07:53:52Z</time></trkpt><trkpt lat="42.099593822597576" lon="11.936900641379514"><ele>278.0</ele><time>2026-04-19T07:53:53Z</time></trkpt><trkpt lat="42.099681267009046" lon="11.9368887159878"><ele>278.0</ele><time>2026-04-19T07:53:54Z</time></trkpt><trkpt lat="42.099794173173" lon="11.936880962765166"><ele>278.0</ele><time>2026-04-19T07:53:55Z</time></trkpt><trkpt lat="42.09987980072264" lon="11.93688174781968"><ele>278.0</ele><time>2026-04-19T07:53:55.999Z</time></trkpt><trkpt lat="42.09995414207221" lon="11.936872618531421"><ele>278.0</ele><time>2026-04-19T07:53:56.999Z</time></trkpt><trkpt lat="42.100089332816815" lon="11.936902221575082"><ele>278.4</ele><time>2026-04-19T07:53:58.999Z</time></trkpt><trkpt lat="42.10019474875316" lon="11.936953607003078"><ele>278.8</ele><time>2026-04-19T07:53:59.999Z</time></trkpt><trkpt lat="42.10029833314026" lon="11.936983779615082"><ele>279.2</ele><time>2026-04-19T07:54:00.999Z</time></trkpt><trkpt lat="42.10039460371381" lon="11.936988061379727"><ele>279.6</ele><time>2026-04-19T07:54:01.999Z</time></trkpt><trkpt lat="42.10047372674572" lon="11.936967163648475"><ele>280.0</ele><time>2026-04-19T07:54:02.999Z</time></trkpt><trkpt lat="42.10056701212662" lon="11.936916188518667"><ele>280.0</ele><time>2026-04-19T07:54:03.999Z</time></trkpt><trkpt lat="42.100674010913764" lon="11.93687912541573"><ele>280.0</ele><time>2026-04-19T07:54:04.999Z</time></trkpt><trkpt lat="42.100776808339695" lon="11.936838456203164"><ele>280.0</ele><time>2026-04-19T07:54:05.999Z</time></trkpt><trkpt lat="42.10084493950126" lon="11.936830135271688"><ele>280.0</ele><time>2026-04-19T07:54:06.999Z</time></trkpt><trkpt lat="42.100924686844124" lon="11.936809814654097"><ele>280.0</ele><time>2026-04-19T07:54:07.999Z</time></trkpt><trkpt lat="42.101003787087635" lon="11.936805554467501"><ele>280.0</ele><time>2026-04-19T07:54:08.999Z</time></trkpt><trkpt lat="42.101121122934686" lon="11.936861077740863"><ele>281.2</ele><time>2026-04-19T07:54:09.999Z</time></trkpt><trkpt lat="42.10123313230685" lon="11.936878386433019"><ele>282.4</ele><time>2026-04-19T07:54:10.999Z</time></trkpt><trkpt lat="42.10134483174151" lon="11.936873932585394"><ele>283.6</ele><time>2026-04-19T07:54:11.999Z</time></trkpt><trkpt lat="42.10143603740514" lon="11.936870771867115"><ele>284.8</ele><time>2026-04-19T07:54:12.999Z</time></trkpt><trkpt lat="42.101516856877325" lon="11.936863822040614"><ele>286.0</ele><time>2026-04-19T07:54:13.999Z</time></trkpt><trkpt lat="42.101583283592426" lon="11.936828587216738"><ele>287.40000000000003</ele><time>2026-04-19T07:54:14.999Z</time></trkpt><trkpt lat="42.10165400176341" lon="11.936774781771138"><ele>288.8</ele><time>2026-04-19T07:54:15.999Z</time></trkpt><trkpt lat="42.101748163798845" lon="11.936702981797698"><ele>290.20000000000005</ele><time>2026-04-19T07:54:16.999Z</time></trkpt><trkpt lat="42.101832951711145" lon="11.936647294107132"><ele>291.6</ele><time>2026-04-19T07:54:17.999Z</time></trkpt><trkpt lat="42.1019102253797" lon="11.936580578054471"><ele>293.0</ele><time>2026-04-19T07:54:18.999Z</time></trkpt><trkpt lat="42.101963197580694" lon="11.936427920845935"><ele>295.8</ele><time>2026-04-19T07:54:19.999Z</time></trkpt><trkpt lat="42.10200192310816" lon="11.936322134678328"><ele>298.6</ele><time>2026-04-19T07:54:20.999Z</time></trkpt><trkpt lat="42.10205364734708" lon="11.936188411503712"><ele>301.4</ele><time>2026-04-19T07:54:21.999Z</time></trkpt><trkpt lat="42.10209558278505" lon="11.936070429994249"><ele>304.2</ele><time>2026-04-19T07:54:22.999Z</time></trkpt><trkpt lat="42.10214016013697" lon="11.9359568251008"><ele>307.0</ele><time>2026-04-19T07:54:23.999Z</time></trkpt><trkpt lat="42.10219541621045" lon="11.935833140883545"><ele>308.2</ele><time>2026-04-19T07:54:24.999Z</time></trkpt><trkpt lat="42.10226432750516" lon="11.935719408172465"><ele>309.4</ele><time>2026-04-19T07:54:25.999Z</time></trkpt><trkpt lat="42.102328190407434" lon="11.935615423104018"><ele>310.6</ele><time>2026-04-19T07:54:26.999Z</time></trkpt><trkpt lat="42.10238545314262" lon="11.93550836996846"><ele>311.8</ele><time>2026-04-19T07:54:27.999Z</time></trkpt><trkpt lat="42.102438703761116" lon="11.93543137432726"><ele>313.0</ele><time>2026-04-19T07:54:28.999Z</time></trkpt><trkpt lat="42.102497527007166" lon="11.935281409022705"><ele>313.0</ele><time>2026-04-19T07:54:30.999Z</time></trkpt><trkpt lat="42.10256597825157" lon="11.935246186336721"><ele>313.0</ele><time>2026-04-19T07:54:31.999Z</time></trkpt><trkpt lat="42.10264075314119" lon="11.935194317120644"><ele>313.0</ele><time>2026-04-19T07:54:32.999Z</time></trkpt><trkpt lat="42.10273493944226" lon="11.935152373238733"><ele>313.0</ele><time>2026-04-19T07:54:33.999Z</time></trkpt><trkpt lat="42.10279870641666" lon="11.935119665195593"><ele>313.0</ele><time>2026-04-19T07:54:34.999Z</time></trkpt><trkpt lat="42.10286629322035" lon="11.935072830478726"><ele>313.0</ele><time>2026-04-19T07:54:35.999Z</time></trkpt><trkpt lat="42.102936462028225" lon="11.935057105389854"><ele>313.0</ele><time>2026-04-19T07:54:36.999Z</time></trkpt><trkpt lat="42.103020430936596" lon="11.93504640349118"><ele>313.0</ele><time>2026-04-19T07:54:37.999Z</time></trkpt><trkpt lat="42.10314817557503" lon="11.935167147886194"><ele>313.0</ele><time>2026-04-19T07:54:38.999Z</time></trkpt><trkpt lat="42.103229302532256" lon="11.93521169694733"><ele>313.0</ele><time>2026-04-19T07:54:39.999Z</time></trkpt><trkpt lat="42.103318465713016" lon="11.935243781092725"><ele>313.0</ele><time>2026-04-19T07:54:40.999Z</time></trkpt><trkpt lat="42.1034069722972" lon="11.935281100677438"><ele>313.8</ele><time>2026-04-19T07:54:41.999Z</time></trkpt><trkpt lat="42.10347165152756" lon="11.935333245151257"><ele>314.6</ele><time>2026-04-19T07:54:42.999Z</time></trkpt><trkpt lat="42.103536515508665" lon="11.935417246416382"><ele>315.4</ele><time>2026-04-19T07:54:43.999Z</time></trkpt><trkpt lat="42.10359226399453" lon="11.93553831981239"><ele>316.2</ele><time>2026-04-19T07:54:44.999Z</time></trkpt><trkpt lat="42.103656483561004" lon="11.935635301905007"><ele>317.0</ele><time>2026-04-19T07:54:45.999Z</time></trkpt><trkpt lat="42.10373498633709" lon="11.935708615762014"><ele>317.0</ele><time>2026-04-19T07:54:46.999Z</time></trkpt><trkpt lat="42.10379761899381" lon="11.935744445923063"><ele>317.0</ele><time>2026-04-19T07:54:47.999Z</time></trkpt><trkpt lat="42.103871853210094" lon="11.935738090769977"><ele>317.0</ele><time>2026-04-19T07:54:48.999Z</time></trkpt><trkpt lat="42.10395834723369" lon="11.935717259979555"><ele>317.0</ele><time>2026-04-19T07:54:49.999Z</time></trkpt><trkpt lat="42.10405280088342" lon="11.935680945349732"><ele>317.0</ele><time>2026-04-19T07:54:50.999Z</time></trkpt><trkpt lat="42.10415193761743" lon="11.935563356028512"><ele>318.0</ele><time>2026-04-19T07:54:51.999Z</time></trkpt><trkpt lat="42.10425838065934" lon="11.935545053334335"><ele>319.0</ele><time>2026-04-19T07:54:52.999Z</time></trkpt><trkpt lat="42.1043655332896" lon="11.935490606882993"><ele>320.0</ele><time>2026-04-19T07:54:54Z</time></trkpt><trkpt lat="42.10445570439955" lon="11.935436403880995"><ele>321.0</ele><time>2026-04-19T07:54:55Z</time></trkpt><trkpt lat="42.10453833729198" lon="11.93538133990642"><ele>322.0</ele><time>2026-04-19T07:54:56Z</time></trkpt><trkpt lat="42.10459782928736" lon="11.935332968849798"><ele>322.0</ele><time>2026-04-19T07:54:57Z</time></trkpt><trkpt lat="42.10462423694747" lon="11.935211280026643"><ele>322.0</ele><time>2026-04-19T07:54:58Z</time></trkpt><trkpt lat="42.10467364230932" lon="11.935117150125093"><ele>322.0</ele><time>2026-04-19T07:54:59Z</time></trkpt><trkpt lat="42.1047098926026" lon="11.935022705771797"><ele>322.0</ele><time>2026-04-19T07:55:00Z</time></trkpt><trkpt lat="42.10473094074316" lon="11.934889718460534"><ele>322.0</ele><time>2026-04-19T07:55:01Z</time></trkpt><trkpt lat="42.104772640389065" lon="11.934783226390683"><ele>322.0</ele><time>2026-04-19T07:55:02Z</time></trkpt><trkpt lat="42.1047975017024" lon="11.93465327389373"><ele>323.40000000000003</ele><time>2026-04-19T07:55:03Z</time></trkpt><trkpt lat="42.10484989092392" lon="11.934542993801296"><ele>324.8</ele><time>2026-04-19T07:55:04Z</time></trkpt><trkpt lat="42.10489640095202" lon="11.93443175969703"><ele>326.2</ele><time>2026-04-19T07:55:05Z</time></trkpt><trkpt lat="42.10494512412619" lon="11.934312825664856"><ele>327.6</ele><time>2026-04-19T07:55:06Z</time></trkpt><trkpt lat="42.10498962605858" lon="11.934169828283807"><ele>329.0</ele><time>2026-04-19T07:55:07Z</time></trkpt><trkpt lat="42.104969867573644" lon="11.934014657214556"><ele>331.0</ele><time>2026-04-19T07:55:08Z</time></trkpt><trkpt lat="42.10498985977334" lon="11.933921414552763"><ele>333.0</ele><time>2026-04-19T07:55:09Z</time></trkpt><trkpt lat="42.10505428938774" lon="11.933887603344315"><ele>335.0</ele><time>2026-04-19T07:55:10Z</time></trkpt><trkpt lat="42.1051132215591" lon="11.933814634270707"><ele>337.0</ele><time>2026-04-19T07:55:11Z</time></trkpt><trkpt lat="42.10517859384985" lon="11.933756704419926"><ele>339.0</ele><time>2026-04-19T07:55:12Z</time></trkpt><trkpt lat="42.105244389982545" lon="11.933693507838782"><ele>341.0</ele><time>2026-04-19T07:55:13Z</time></trkpt><trkpt lat="42.10533444026122" lon="11.933642842302962"><ele>341.0</ele><time>2026-04-19T07:55:14Z</time></trkpt><trkpt lat="42.10546984042282" lon="11.933661909222067"><ele>341.0</ele><time>2026-04-19T07:55:15Z</time></trkpt><trkpt lat="42.10555219950386" lon="11.933574197009664"><ele>341.0</ele><time>2026-04-19T07:55:16Z</time></trkpt><trkpt lat="42.105628503234136" lon="11.933507419653578"><ele>341.0</ele><time>2026-04-19T07:55:17Z</time></trkpt><trkpt lat="42.10570905769692" lon="11.933462696965861"><ele>341.0</ele><time>2026-04-19T07:55:18Z</time></trkpt><trkpt lat="42.10578242856943" lon="11.933430628530708"><ele>341.33333333333337</ele><time>2026-04-19T07:55:19Z</time></trkpt><trkpt lat="42.10584693242724" lon="11.93340062441788"><ele>341.6666666666667</ele><time>2026-04-19T07:55:20Z</time></trkpt><trkpt lat="42.10588014000326" lon="11.933319062093727"><ele>342.0</ele><time>2026-04-19T07:55:21Z</time></trkpt><trkpt lat="42.105936479711744" lon="11.933255278263877"><ele>342.3333333333333</ele><time>2026-04-19T07:55:22Z</time></trkpt><trkpt lat="42.105994787984244" lon="11.933150614205966"><ele>342.66666666666663</ele><time>2026-04-19T07:55:23Z</time></trkpt><trkpt lat="42.10601924407245" lon="11.933042322219658"><ele>343.0</ele><time>2026-04-19T07:55:24Z</time></trkpt><trkpt lat="42.10603627452279" lon="11.93292841998071"><ele>344.0</ele><time>2026-04-19T07:55:25Z</time></trkpt><trkpt lat="42.10606882201561" lon="11.93281743508915"><ele>345.0</ele><time>2026-04-19T07:55:26Z</time></trkpt><trkpt lat="42.106107982024696" lon="11.932710340490896"><ele>346.0</ele><time>2026-04-19T07:55:27Z</time></trkpt><trkpt lat="42.10614565309658" lon="11.93262372216567"><ele>347.0</ele><time>2026-04-19T07:55:28Z</time></trkpt><trkpt lat="42.106177248288134" lon="11.932532126947024"><ele>348.0</ele><time>2026-04-19T07:55:29Z</time></trkpt><trkpt lat="42.1062185027286" lon="11.93238807571115"><ele>349.0</ele><time>2026-04-19T07:55:31Z</time></trkpt><trkpt lat="42.10620582544858" lon="11.932280173799102"><ele>350.0</ele><time>2026-04-19T07:55:42Z</time></trkpt><trkpt lat="42.106162620931556" lon="11.932183728224139"><ele>351.0</ele><time>2026-04-19T07:55:44Z</time></trkpt><trkpt lat="42.106182255371635" lon="11.932100624976826"><ele>352.0</ele><time>2026-04-19T07:55:46Z</time></trkpt><trkpt lat="42.10608949314203" lon="11.932029698451494"><ele>353.0</ele><time>2026-04-19T07:56:39.999Z</time></trkpt><trkpt lat="42.106021275471356" lon="11.932031946719407"><ele>354.0</ele><time>2026-04-19T07:56:40.999Z</time></trkpt><trkpt lat="42.10595187477032" lon="11.932045805166442"><ele>355.0</ele><time>2026-04-19T07:56:41.999Z</time></trkpt><trkpt lat="42.105869627633496" lon="11.932079864067905"><ele>355.0</ele><time>2026-04-19T07:56:42.999Z</time></trkpt><trkpt lat="42.10578084112315" lon="11.932090766795085"><ele>355.0</ele><time>2026-04-19T07:56:43.999Z</time></trkpt><trkpt lat="42.1056847233895" lon="11.93206607418899"><ele>355.0</ele><time>2026-04-19T07:56:44.999Z</time></trkpt><trkpt lat="42.10556098114282" lon="11.932043779184662"><ele>355.0</ele><time>2026-04-19T07:56:45.999Z</time></trkpt><trkpt lat="42.10545133838984" lon="11.932060227164868"><ele>355.0</ele><time>2026-04-19T07:56:46.999Z</time></trkpt><trkpt lat="42.1053572234819" lon="11.932073195721683"><ele>355.5</ele><time>2026-04-19T07:56:47.999Z</time></trkpt><trkpt lat="42.10526498489901" lon="11.932077876220143"><ele>356.0</ele><time>2026-04-19T07:56:48.999Z</time></trkpt><trkpt lat="42.10517774572473" lon="11.932071367002559"><ele>356.5</ele><time>2026-04-19T07:56:49.999Z</time></trkpt><trkpt lat="42.105100523066376" lon="11.932056771332563"><ele>357.0</ele><time>2026-04-19T07:56:50.999Z</time></trkpt><trkpt lat="42.10502260123081" lon="11.93203771657201"><ele>357.5</ele><time>2026-04-19T07:56:51.999Z</time></trkpt><trkpt lat="42.10494058721562" lon="11.931987829520605"><ele>358.0</ele><time>2026-04-19T07:56:52.999Z</time></trkpt><trkpt lat="42.10486568400291" lon="11.931923542983228"><ele>358.0</ele><time>2026-04-19T07:56:53.999Z</time></trkpt><trkpt lat="42.10478474714251" lon="11.931846093272192"><ele>358.0</ele><time>2026-04-19T07:56:54.999Z</time></trkpt><trkpt lat="42.10470556360762" lon="11.931754096850723"><ele>358.0</ele><time>2026-04-19T07:56:55.999Z</time></trkpt><trkpt lat="42.10462007548066" lon="11.93166330435904"><ele>358.0</ele><time>2026-04-19T07:56:56.999Z</time></trkpt><trkpt lat="42.10454535179783" lon="11.931581460712543"><ele>358.0</ele><time>2026-04-19T07:56:57.999Z</time></trkpt><trkpt lat="42.10448139477609" lon="11.931496811479068"><ele>360.0</ele><time>2026-04-19T07:56:58.999Z</time></trkpt><trkpt lat="42.104417695427585" lon="11.931400006779716"><ele>362.0</ele><time>2026-04-19T07:57:00Z</time></trkpt><trkpt lat="42.10434685333517" lon="11.931286385065995"><ele>364.0</ele><time>2026-04-19T07:57:01Z</time></trkpt><trkpt lat="42.10426607237654" lon="11.931181617446917"><ele>366.0</ele><time>2026-04-19T07:57:02Z</time></trkpt><trkpt lat="42.104191100824174" lon="11.931073783451886"><ele>368.0</ele><time>2026-04-19T07:57:03Z</time></trkpt><trkpt lat="42.10413662962146" lon="11.930973178793922"><ele>369.1666666666667</ele><time>2026-04-19T07:57:04Z</time></trkpt><trkpt lat="42.10408846592765" lon="11.930874975609012"><ele>370.33333333333337</ele><time>2026-04-19T07:57:05Z</time></trkpt><trkpt lat="42.104059293458306" lon="11.930773366637952"><ele>371.5</ele><time>2026-04-19T07:57:06Z</time></trkpt><trkpt lat="42.10404943899521" lon="11.930671237942674"><ele>372.6666666666667</ele><time>2026-04-19T07:57:07Z</time></trkpt><trkpt lat="42.1040642417273" lon="11.930569150997062"><ele>373.8333333333333</ele><time>2026-04-19T07:57:08Z</time></trkpt><trkpt lat="42.10408586995815" lon="11.930466305483293"><ele>375.0</ele><time>2026-04-19T07:57:09Z</time></trkpt><trkpt lat="42.10412303182117" lon="11.93036162309788"><ele>375.0</ele><time>2026-04-19T07:57:10Z</time></trkpt><trkpt lat="42.10419051361775" lon="11.930282720236542"><ele>375.0</ele><time>2026-04-19T07:57:11Z</time></trkpt><trkpt lat="42.104277875994306" lon="11.930199359182923"><ele>375.0</ele><time>2026-04-19T07:57:12Z</time></trkpt><trkpt lat="42.104348567831835" lon="11.930090280884574"><ele>375.0</ele><time>2026-04-19T07:57:13Z</time></trkpt><trkpt lat="42.10439386536616" lon="11.929952513307978"><ele>375.0</ele><time>2026-04-19T07:57:14Z</time></trkpt><trkpt lat="42.10446277448455" lon="11.929853526949012"><ele>374.2</ele><time>2026-04-19T07:57:15Z</time></trkpt><trkpt lat="42.10453781816542" lon="11.929777603334228"><ele>373.4</ele><time>2026-04-19T07:57:16Z</time></trkpt><trkpt lat="42.10458471547783" lon="11.929667147500796"><ele>372.6</ele><time>2026-04-19T07:57:17Z</time></trkpt><trkpt lat="42.104617271285015" lon="11.929551381635076"><ele>371.8</ele><time>2026-04-19T07:57:18Z</time></trkpt><trkpt lat="42.10463544083362" lon="11.929442138791691"><ele>371.0</ele><time>2026-04-19T07:57:19Z</time></trkpt><trkpt lat="42.10464108778644" lon="11.92931788380142"><ele>369.5</ele><time>2026-04-19T07:57:20Z</time></trkpt><trkpt lat="42.10465503360705" lon="11.929193720343587"><ele>368.0</ele><time>2026-04-19T07:57:21Z</time></trkpt><trkpt lat="42.10466311328968" lon="11.929090395654846"><ele>366.5</ele><time>2026-04-19T07:57:22Z</time></trkpt><trkpt lat="42.10465418728391" lon="11.928971858892995"><ele>365.0</ele><time>2026-04-19T07:57:23Z</time></trkpt><trkpt lat="42.10461983162073" lon="11.928850971476715"><ele>363.5</ele><time>2026-04-19T07:57:24Z</time></trkpt><trkpt lat="42.10457786485728" lon="11.92875524178724"><ele>362.0</ele><time>2026-04-19T07:57:25Z</time></trkpt><trkpt lat="42.10454204209973" lon="11.928650033520844"><ele>362.0</ele><time>2026-04-19T07:57:26Z</time></trkpt><trkpt lat="42.104508203854934" lon="11.928543981382605"><ele>362.0</ele><time>2026-04-19T07:57:27Z</time></trkpt><trkpt lat="42.10447804008493" lon="11.928439494515562"><ele>362.0</ele><time>2026-04-19T07:57:28Z</time></trkpt><trkpt lat="42.10444938363818" lon="11.928325074252367"><ele>362.0</ele><time>2026-04-19T07:57:29Z</time></trkpt><trkpt lat="42.10441194438009" lon="11.928212641268136"><ele>362.0</ele><time>2026-04-19T07:57:30Z</time></trkpt><trkpt lat="42.10436853602385" lon="11.928109083499692"><ele>362.0</ele><time>2026-04-19T07:57:31Z</time></trkpt><trkpt lat="42.104327744321516" lon="11.928013703178953"><ele>361.83333333333337</ele><time>2026-04-19T07:57:32Z</time></trkpt><trkpt lat="42.104286387502114" lon="11.927918311569748"><ele>361.6666666666667</ele><time>2026-04-19T07:57:33Z</time></trkpt><trkpt lat="42.10424805140249" lon="11.92781820882434"><ele>361.5</ele><time>2026-04-19T07:57:34Z</time></trkpt><trkpt lat="42.10422333601791" lon="11.927704824285454"><ele>361.3333333333333</ele><time>2026-04-19T07:57:35Z</time></trkpt><trkpt lat="42.104197878000164" lon="11.927580786807981"><ele>361.16666666666663</ele><time>2026-04-19T07:57:36Z</time></trkpt><trkpt lat="42.10417205186833" lon="11.927456696620311"><ele>361.0</ele><time>2026-04-19T07:57:37Z</time></trkpt><trkpt lat="42.104148967408115" lon="11.927333852100821"><ele>361.0</ele><time>2026-04-19T07:57:38Z</time></trkpt><trkpt lat="42.10412649476589" lon="11.927203741989322"><ele>361.0</ele><time>2026-04-19T07:57:39Z</time></trkpt><trkpt lat="42.10411583574061" lon="11.92707146626463"><ele>361.0</ele><time>2026-04-19T07:57:40Z</time></trkpt><trkpt lat="42.104099489041744" lon="11.926925159191658"><ele>361.0</ele><time>2026-04-19T07:57:41Z</time></trkpt><trkpt lat="42.10408847693707" lon="11.926783963758263"><ele>361.0</ele><time>2026-04-19T07:57:42Z</time></trkpt><trkpt lat="42.10407329035458" lon="11.926643883715826"><ele>361.4</ele><time>2026-04-19T07:57:43Z</time></trkpt><trkpt lat="42.10406870215617" lon="11.92650545753413"><ele>361.8</ele><time>2026-04-19T07:57:44Z</time></trkpt><trkpt lat="42.10406245445055" lon="11.926356085419332"><ele>362.2</ele><time>2026-04-19T07:57:45Z</time></trkpt><trkpt lat="42.10409670533788" lon="11.926210545855527"><ele>362.59999999999997</ele><time>2026-04-19T07:57:46Z</time></trkpt><trkpt lat="42.10409207004724" lon="11.926066735849256"><ele>363.0</ele><time>2026-04-19T07:57:47Z</time></trkpt><trkpt lat="42.10408672980268" lon="11.925920717273387"><ele>363.4</ele><time>2026-04-19T07:57:48Z</time></trkpt><trkpt lat="42.10408142090599" lon="11.925782733043443"><ele>363.79999999999995</ele><time>2026-04-19T07:57:49Z</time></trkpt><trkpt lat="42.10407576916255" lon="11.925635838022613"><ele>364.2</ele><time>2026-04-19T07:57:50Z</time></trkpt><trkpt lat="42.10405470618691" lon="11.925516660082808"><ele>364.6</ele><time>2026-04-19T07:57:51Z</time></trkpt><trkpt lat="42.10405345791599" lon="11.92538483520275"><ele>365.0</ele><time>2026-04-19T07:57:52Z</time></trkpt><trkpt lat="42.10406176027169" lon="11.925271731152844"><ele>362.1666666666667</ele><time>2026-04-19T07:57:53Z</time></trkpt><trkpt lat="42.10405769464641" lon="11.925166061085234"><ele>359.33333333333337</ele><time>2026-04-19T07:57:54Z</time></trkpt><trkpt lat="42.10404087301419" lon="11.92506900182537"><ele>356.5</ele><time>2026-04-19T07:57:55Z</time></trkpt><trkpt lat="42.104045400701665" lon="11.924961250411467"><ele>353.6666666666667</ele><time>2026-04-19T07:57:56Z</time></trkpt><trkpt lat="42.104045571311445" lon="11.92486151072997"><ele>350.8333333333333</ele><time>2026-04-19T07:57:57Z</time></trkpt><trkpt lat="42.104038799019804" lon="11.924751161684146"><ele>348.0</ele><time>2026-04-19T07:57:58Z</time></trkpt><trkpt lat="42.10402235485029" lon="11.924637874752008"><ele>347.8333333333333</ele><time>2026-04-19T07:57:59Z</time></trkpt><trkpt lat="42.10401497337243" lon="11.924522190558013"><ele>347.6666666666667</ele><time>2026-04-19T07:58:00Z</time></trkpt><trkpt lat="42.104005195055024" lon="11.924395441363917"><ele>347.5</ele><time>2026-04-19T07:58:01Z</time></trkpt><trkpt lat="42.1040046111846" lon="11.92427292766844"><ele>347.33333333333337</ele><time>2026-04-19T07:58:02Z</time></trkpt><trkpt lat="42.104019534454515" lon="11.924153209666688"><ele>347.1666666666667</ele><time>2026-04-19T07:58:03Z</time></trkpt><trkpt lat="42.104023433280425" lon="11.924037103412264"><ele>347.0</ele><time>2026-04-19T07:58:04Z</time></trkpt><trkpt lat="42.104024274373806" lon="11.923915475197786"><ele>346.6</ele><time>2026-04-19T07:58:05Z</time></trkpt><trkpt lat="42.10402068061893" lon="11.923778508443744"><ele>346.20000000000005</ele><time>2026-04-19T07:58:05.999Z</time></trkpt><trkpt lat="42.10400916563807" lon="11.923644212698608"><ele>345.8</ele><time>2026-04-19T07:58:06.999Z</time></trkpt><trkpt lat="42.10398270083553" lon="11.923522620321453"><ele>345.4</ele><time>2026-04-19T07:58:07.999Z</time></trkpt><trkpt lat="42.103976685635566" lon="11.923395212648128"><ele>345.0</ele><time>2026-04-19T07:58:08.999Z</time></trkpt><trkpt lat="42.10397126174237" lon="11.923277124206423"><ele>344.8</ele><time>2026-04-19T07:58:09.999Z</time></trkpt><trkpt lat="42.10395829590317" lon="11.923153641577835"><ele>344.6</ele><time>2026-04-19T07:58:10.999Z</time></trkpt><trkpt lat="42.10393782592029" lon="11.923025943753316"><ele>344.4</ele><time>2026-04-19T07:58:11.999Z</time></trkpt><trkpt lat="42.10391436152485" lon="11.922895202312944"><ele>344.2</ele><time>2026-04-19T07:58:12.999Z</time></trkpt><trkpt lat="42.10389112681603" lon="11.922752236306565"><ele>344.0</ele><time>2026-04-19T07:58:13.999Z</time></trkpt><trkpt lat="42.1038832687884" lon="11.92263493056454"><ele>344.0</ele><time>2026-04-19T07:58:14.999Z</time></trkpt><trkpt lat="42.10386860270007" lon="11.922505592402375"><ele>344.0</ele><time>2026-04-19T07:58:15.999Z</time></trkpt><trkpt lat="42.10385199589229" lon="11.922389884717408"><ele>344.0</ele><time>2026-04-19T07:58:16.999Z</time></trkpt><trkpt lat="42.10382841976087" lon="11.922238933041772"><ele>344.0</ele><time>2026-04-19T07:58:18.999Z</time></trkpt><trkpt lat="42.103829315117366" lon="11.922137605557614"><ele>344.0</ele><time>2026-04-19T07:58:20.999Z</time></trkpt><trkpt lat="42.10382464372293" lon="11.92200942207852"><ele>344.0</ele><time>2026-04-19T07:58:22.999Z</time></trkpt><trkpt lat="42.10382390332327" lon="11.921911095318134"><ele>344.0</ele><time>2026-04-19T07:58:24.999Z</time></trkpt><trkpt lat="42.10381781875496" lon="11.921801242089892"><ele>344.0</ele><time>2026-04-19T07:58:26.999Z</time></trkpt><trkpt lat="42.10380055779026" lon="11.92165797309407"><ele>344.0</ele><time>2026-04-19T07:58:28.999Z</time></trkpt><trkpt lat="42.10378209521985" lon="11.921518075922608"><ele>344.0</ele><time>2026-04-19T07:58:30.999Z</time></trkpt><trkpt lat="42.103761593646425" lon="11.921334367441625"><ele>343.5</ele><time>2026-04-19T07:58:32.999Z</time></trkpt><trkpt lat="42.10375129135449" lon="11.921225901118227"><ele>343.0</ele><time>2026-04-19T07:58:33.999Z</time></trkpt><trkpt lat="42.10374039872857" lon="11.921113375747845"><ele>342.5</ele><time>2026-04-19T07:58:34.999Z</time></trkpt><trkpt lat="42.10373013483081" lon="11.921007345411914"><ele>342.0</ele><time>2026-04-19T07:58:35.999Z</time></trkpt><trkpt lat="42.10372068772628" lon="11.92090975292454"><ele>341.5</ele><time>2026-04-19T07:58:36.999Z</time></trkpt><trkpt lat="42.10371003061885" lon="11.920799660614708"><ele>341.0</ele><time>2026-04-19T07:58:37.999Z</time></trkpt><trkpt lat="42.10370310921808" lon="11.92069433771843"><ele>340.4</ele><time>2026-04-19T07:58:38.999Z</time></trkpt><trkpt lat="42.103701281838674" lon="11.920595409048797"><ele>339.8</ele><time>2026-04-19T07:58:39.999Z</time></trkpt><trkpt lat="42.10370820737715" lon="11.920434487694918"><ele>339.2</ele><time>2026-04-19T07:58:41.999Z</time></trkpt><trkpt lat="42.103717343736456" lon="11.920285478624725"><ele>338.59999999999997</ele><time>2026-04-19T07:58:43.999Z</time></trkpt><trkpt lat="42.103723521140125" lon="11.920161209826333"><ele>338.0</ele><time>2026-04-19T07:58:45.999Z</time></trkpt><trkpt lat="42.103727283257925" lon="11.920026646310202"><ele>337.5</ele><time>2026-04-19T07:58:47.999Z</time></trkpt><trkpt lat="42.103731329762674" lon="11.919887379179066"><ele>337.0</ele><time>2026-04-19T07:58:49.999Z</time></trkpt><trkpt lat="42.10375184575899" lon="11.919792505724065"><ele>336.5</ele><time>2026-04-19T07:58:52.999Z</time></trkpt><trkpt lat="42.10401190903531" lon="11.919763067921064"><ele>336.0</ele><time>2026-04-19T07:58:53.999Z</time></trkpt><trkpt lat="42.10407773007199" lon="11.919734221202516"><ele>337.0</ele><time>2026-04-19T07:58:54.999Z</time></trkpt><trkpt lat="42.104187758581254" lon="11.919712903675128"><ele>338.0</ele><time>2026-04-19T07:58:56.999Z</time></trkpt><trkpt lat="42.10425940771426" lon="11.919693928147332"><ele>339.0</ele><time>2026-04-19T07:58:57.999Z</time></trkpt><trkpt lat="42.10433104840196" lon="11.919680790285135"><ele>340.0</ele><time>2026-04-19T07:58:58.999Z</time></trkpt><trkpt lat="42.10440158231173" lon="11.919636889594356"><ele>341.0</ele><time>2026-04-19T07:58:59.999Z</time></trkpt><trkpt lat="42.104472703169385" lon="11.919597573769977"><ele>342.0</ele><time>2026-04-19T07:59:00.999Z</time></trkpt><trkpt lat="42.10454038331425" lon="11.919559099497482"><ele>341.99999999999994</ele><time>2026-04-19T07:59:01.999Z</time></trkpt><trkpt lat="42.104599941451426" lon="11.91952738942116"><ele>342.0</ele><time>2026-04-19T07:59:02.999Z</time></trkpt><trkpt lat="42.10466116260868" lon="11.919479576833687"><ele>342.0</ele><time>2026-04-19T07:59:03.999Z</time></trkpt><trkpt lat="42.10472749639128" lon="11.919463006650009"><ele>342.0</ele><time>2026-04-19T07:59:04.999Z</time></trkpt><trkpt lat="42.1048068365075" lon="11.919457194074788"><ele>342.0</ele><time>2026-04-19T07:59:06Z</time></trkpt><trkpt lat="42.10487411522619" lon="11.919443623432473"><ele>341.99999999999994</ele><time>2026-04-19T07:59:07Z</time></trkpt><trkpt lat="42.1049620059188" lon="11.919430602590687"><ele>342.0</ele><time>2026-04-19T07:59:08Z</time></trkpt><trkpt lat="42.10502632219856" lon="11.919392791688772"><ele>340.8</ele><time>2026-04-19T07:59:09Z</time></trkpt><trkpt lat="42.10510044077694" lon="11.919374788239622"><ele>339.6</ele><time>2026-04-19T07:59:10Z</time></trkpt><trkpt lat="42.10519736339192" lon="11.919303247542873"><ele>338.40000000000003</ele><time>2026-04-19T07:59:12Z</time></trkpt><trkpt lat="42.10523815030303" lon="11.919206837593457"><ele>337.20000000000005</ele><time>2026-04-19T07:59:14Z</time></trkpt><trkpt lat="42.10518679015793" lon="11.918973695009889"><ele>336.0</ele><time>2026-04-19T07:59:16Z</time></trkpt><trkpt lat="42.10518404112732" lon="11.918881583958122"><ele>335.6</ele><time>2026-04-19T07:59:17Z</time></trkpt><trkpt lat="42.105166407423916" lon="11.918781184109319"><ele>335.20000000000005</ele><time>2026-04-19T07:59:18Z</time></trkpt><trkpt lat="42.10519056740339" lon="11.91861072273626"><ele>334.79999999999995</ele><time>2026-04-19T07:59:20Z</time></trkpt><trkpt lat="42.10531017913322" lon="11.918572918782601"><ele>334.4</ele><time>2026-04-19T07:59:22Z</time></trkpt><trkpt lat="42.10537329217756" lon="11.918510635860384"><ele>334.0</ele><time>2026-04-19T07:59:23Z</time></trkpt><trkpt lat="42.105437782197" lon="11.918475146479341"><ele>334.0</ele><time>2026-04-19T07:59:24Z</time></trkpt><trkpt lat="42.105501824774734" lon="11.918404753579175"><ele>334.0</ele><time>2026-04-19T07:59:25Z</time></trkpt><trkpt lat="42.105578393931104" lon="11.91830846040125"><ele>334.0</ele><time>2026-04-19T07:59:27Z</time></trkpt><trkpt lat="42.10555496359306" lon="11.91815983253729"><ele>334.0</ele><time>2026-04-19T07:59:29Z</time></trkpt><trkpt lat="42.1054989727518" lon="11.918083051489631"><ele>334.0</ele><time>2026-04-19T07:59:31Z</time></trkpt><trkpt lat="42.10553472704478" lon="11.918002252376546"><ele>332.2</ele><time>2026-04-19T07:59:33Z</time></trkpt><trkpt lat="42.105545358825744" lon="11.917867241835143"><ele>330.4</ele><time>2026-04-19T07:59:36Z</time></trkpt><trkpt lat="42.10553349532453" lon="11.917733795652264"><ele>328.6</ele><time>2026-04-19T07:59:37Z</time></trkpt><trkpt lat="42.10550898644554" lon="11.917651838139337"><ele>326.8</ele><time>2026-04-19T07:59:38Z</time></trkpt><trkpt lat="42.10545593212366" lon="11.917504628323409"><ele>325.0</ele><time>2026-04-19T07:59:39Z</time></trkpt><trkpt lat="42.105420755355055" lon="11.917385481001535"><ele>323.0</ele><time>2026-04-19T07:59:40Z</time></trkpt><trkpt lat="42.10547017072727" lon="11.917473151366186"><ele>321.0</ele><time>2026-04-19T07:59:41Z</time></trkpt><trkpt lat="42.105454029429744" lon="11.917326465824662"><ele>319.0</ele><time>2026-04-19T07:59:44Z</time></trkpt><trkpt lat="42.10545799674909" lon="11.91716998866067"><ele>317.0</ele><time>2026-04-19T07:59:46Z</time></trkpt><trkpt lat="42.105452721281075" lon="11.91702056363732"><ele>315.0</ele><time>2026-04-19T07:59:48Z</time></trkpt><trkpt lat="42.105440442383696" lon="11.916905174809562"><ele>315.0</ele><time>2026-04-19T07:59:49Z</time></trkpt><trkpt lat="42.105470097154075" lon="11.916755811563212"><ele>315.0</ele><time>2026-04-19T07:59:51Z</time></trkpt><trkpt lat="42.10548683685332" lon="11.91663807467132"><ele>315.0</ele><time>2026-04-19T07:59:53Z</time></trkpt><trkpt lat="42.10550363329103" lon="11.916540951035513"><ele>315.0</ele><time>2026-04-19T07:59:56Z</time></trkpt><trkpt lat="42.10551161855356" lon="11.91642063141816"><ele>315.0</ele><time>2026-04-19T07:59:58Z</time></trkpt><trkpt lat="42.10548795561546" lon="11.916336499859261"><ele>315.0</ele><time>2026-04-19T08:00:00Z</time></trkpt><trkpt lat="42.10550084251591" lon="11.91622941508541"><ele>312.4</ele><time>2026-04-19T08:00:03Z</time></trkpt><trkpt lat="42.10552571398953" lon="11.91612069269874"><ele>309.8</ele><time>2026-04-19T08:00:05Z</time></trkpt><trkpt lat="42.10555523009686" lon="11.915937643794601"><ele>307.2</ele><time>2026-04-19T08:00:07Z</time></trkpt><trkpt lat="42.105599099440695" lon="11.915844659529448"><ele>304.6</ele><time>2026-04-19T08:00:09Z</time></trkpt><trkpt lat="42.105610696871615" lon="11.915712768124914"><ele>302.0</ele><time>2026-04-19T08:00:11.999Z</time></trkpt><trkpt lat="42.105589489514834" lon="11.915625951754791"><ele>300.5714285714286</ele><time>2026-04-19T08:00:14.999Z</time></trkpt><trkpt lat="42.10555528505316" lon="11.915554633503909"><ele>299.14285714285717</ele><time>2026-04-19T08:00:15.999Z</time></trkpt><trkpt lat="42.10552442790205" lon="11.915465641048392"><ele>297.7142857142857</ele><time>2026-04-19T08:00:17.999Z</time></trkpt><trkpt lat="42.105480047124345" lon="11.91539636799747"><ele>296.28571428571433</ele><time>2026-04-19T08:00:19.999Z</time></trkpt><trkpt lat="42.105507980927705" lon="11.915310331195256"><ele>294.8571428571429</ele><time>2026-04-19T08:00:24.999Z</time></trkpt><trkpt lat="42.10550767689959" lon="11.91518788429487"><ele>293.42857142857144</ele><time>2026-04-19T08:00:26.999Z</time></trkpt><trkpt lat="42.10552070946112" lon="11.915099438172229"><ele>292.0</ele><time>2026-04-19T08:00:28.999Z</time></trkpt><trkpt lat="42.105503426116464" lon="11.914974436334942"><ele>290.5</ele><time>2026-04-19T08:00:31.999Z</time></trkpt><trkpt lat="42.10559835460093" lon="11.914879745696213"><ele>289.0</ele><time>2026-04-19T08:00:35.999Z</time></trkpt><trkpt lat="42.10566927511356" lon="11.914806320412685"><ele>287.5</ele><time>2026-04-19T08:00:38.999Z</time></trkpt><trkpt lat="42.10576438445857" lon="11.914822106994368"><ele>286.0</ele><time>2026-04-19T08:00:40.999Z</time></trkpt><trkpt lat="42.10581725419343" lon="11.914870884322166"><ele>284.5</ele><time>2026-04-19T08:00:41.999Z</time></trkpt><trkpt lat="42.10588866158557" lon="11.914925184375436"><ele>283.0</ele><time>2026-04-19T08:00:42.999Z</time></trkpt><trkpt lat="42.105945789005574" lon="11.914972532615986"><ele>281.2</ele><time>2026-04-19T08:00:43.999Z</time></trkpt><trkpt lat="42.1060071190888" lon="11.915052527443153"><ele>279.4</ele><time>2026-04-19T08:00:44.999Z</time></trkpt><trkpt lat="42.10601732784624" lon="11.91516814260951"><ele>277.59999999999997</ele><time>2026-04-19T08:00:46.999Z</time></trkpt><trkpt lat="42.10608597054243" lon="11.91527792191042"><ele>275.8</ele><time>2026-04-19T08:00:48.999Z</time></trkpt><trkpt lat="42.1061446909484" lon="11.91543532339271"><ele>274.0</ele><time>2026-04-19T08:00:50.999Z</time></trkpt><trkpt lat="42.106181394997456" lon="11.915515775457703"><ele>274.0</ele><time>2026-04-19T08:00:52.999Z</time></trkpt><trkpt lat="42.106267377071994" lon="11.915551223033564"><ele>274.0</ele><time>2026-04-19T08:00:55.999Z</time></trkpt><trkpt lat="42.106348894593374" lon="11.915396385408716"><ele>274.0</ele><time>2026-04-19T08:00:58.999Z</time></trkpt><trkpt lat="42.106403442043316" lon="11.915262099324538"><ele>274.0</ele><time>2026-04-19T08:01:00.999Z</time></trkpt><trkpt lat="42.106486452131364" lon="11.915170137359931"><ele>272.59999999999997</ele><time>2026-04-19T08:01:02.999Z</time></trkpt><trkpt lat="42.106571671513834" lon="11.915044043037494"><ele>271.2</ele><time>2026-04-19T08:01:04.999Z</time></trkpt><trkpt lat="42.10659272359125" lon="11.91492860087041"><ele>269.79999999999995</ele><time>2026-04-19T08:01:05.999Z</time></trkpt><trkpt lat="42.106610381731876" lon="11.91484128690101"><ele>268.4</ele><time>2026-04-19T08:01:06.999Z</time></trkpt><trkpt lat="42.1066329018254" lon="11.914719414885614"><ele>267.0</ele><time>2026-04-19T08:01:07.999Z</time></trkpt><trkpt lat="42.106643851745034" lon="11.914614565713634"><ele>267.0</ele><time>2026-04-19T08:01:09.999Z</time></trkpt><trkpt lat="42.10660007285386" lon="11.914506666770421"><ele>267.0</ele><time>2026-04-19T08:01:13Z</time></trkpt><trkpt lat="42.1065431853887" lon="11.914417182423666"><ele>267.0</ele><time>2026-04-19T08:01:16Z</time></trkpt><trkpt lat="42.106548418026485" lon="11.914297621540863"><ele>267.0</ele><time>2026-04-19T08:01:19Z</time></trkpt><trkpt lat="42.10653077583896" lon="11.914212637324479"><ele>267.0</ele><time>2026-04-19T08:01:21Z</time></trkpt><trkpt lat="42.10650470923516" lon="11.914103703281159"><ele>267.0</ele><time>2026-04-19T08:01:23Z</time></trkpt><trkpt lat="42.10646656175391" lon="11.914023631431018"><ele>265.2</ele><time>2026-04-19T08:01:25Z</time></trkpt><trkpt lat="42.10643427492115" lon="11.913906352495312"><ele>263.4</ele><time>2026-04-19T08:01:27Z</time></trkpt><trkpt lat="42.106429789433726" lon="11.913789214414267"><ele>261.6</ele><time>2026-04-19T08:01:31Z</time></trkpt><trkpt lat="42.10637056735108" lon="11.913688372787835"><ele>259.8</ele><time>2026-04-19T08:01:34Z</time></trkpt><trkpt lat="42.10630756372459" lon="11.913535462902136"><ele>258.0</ele><time>2026-04-19T08:01:36Z</time></trkpt><trkpt lat="42.10626163452838" lon="11.913466556900163"><ele>257.99999999999994</ele><time>2026-04-19T08:01:37Z</time></trkpt><trkpt lat="42.106194427392474" lon="11.913414553364069"><ele>258.0</ele><time>2026-04-19T08:01:38Z</time></trkpt><trkpt lat="42.10614596591892" lon="11.913351190513382"><ele>258.0</ele><time>2026-04-19T08:01:39Z</time></trkpt><trkpt lat="42.106075567740206" lon="11.913295103302751"><ele>258.0</ele><time>2026-04-19T08:01:40Z</time></trkpt><trkpt lat="42.106029487019924" lon="11.91322680742069"><ele>258.0</ele><time>2026-04-19T08:01:41Z</time></trkpt><trkpt lat="42.10596772421471" lon="11.913174263556472"><ele>257.99999999999994</ele><time>2026-04-19T08:01:42Z</time></trkpt><trkpt lat="42.10590176588501" lon="11.913117647549342"><ele>258.0</ele><time>2026-04-19T08:01:43Z</time></trkpt><trkpt lat="42.10585659680559" lon="11.9130428286652"><ele>257.5</ele><time>2026-04-19T08:01:44Z</time></trkpt><trkpt lat="42.10579217514174" lon="11.912984222371502"><ele>257.0</ele><time>2026-04-19T08:01:45Z</time></trkpt><trkpt lat="42.10572975481731" lon="11.912880067743343"><ele>256.5</ele><time>2026-04-19T08:01:47Z</time></trkpt><trkpt lat="42.10567862051132" lon="11.91282180374497"><ele>256.0</ele><time>2026-04-19T08:01:49Z</time></trkpt><trkpt lat="42.105640409373585" lon="11.91270806862919"><ele>255.5</ele><time>2026-04-19T08:01:52Z</time></trkpt><trkpt lat="42.10557753996588" lon="11.912584737318088"><ele>255.0</ele><time>2026-04-19T08:01:54Z</time></trkpt><trkpt lat="42.1054959107695" lon="11.912512096531943"><ele>253.2</ele><time>2026-04-19T08:01:56Z</time></trkpt><trkpt lat="42.105413710792234" lon="11.912384688121232"><ele>251.4</ele><time>2026-04-19T08:01:58Z</time></trkpt><trkpt lat="42.10534080948714" lon="11.912300412185775"><ele>249.60000000000002</ele><time>2026-04-19T08:02:00Z</time></trkpt><trkpt lat="42.105281643610795" lon="11.912223499807112"><ele>247.8</ele><time>2026-04-19T08:02:02Z</time></trkpt><trkpt lat="42.10521206598335" lon="11.912139858271894"><ele>246.0</ele><time>2026-04-19T08:02:04Z</time></trkpt><trkpt lat="42.105149614210546" lon="11.91208522494941"><ele>246.0</ele><time>2026-04-19T08:02:06Z</time></trkpt><trkpt lat="42.10507934087106" lon="11.912027732828156"><ele>246.0</ele><time>2026-04-19T08:02:08Z</time></trkpt><trkpt lat="42.10502469909372" lon="11.911981023474167"><ele>246.0</ele><time>2026-04-19T08:02:11Z</time></trkpt><trkpt lat="42.10496278636888" lon="11.911939203675372"><ele>246.0</ele><time>2026-04-19T08:02:16.999Z</time></trkpt><trkpt lat="42.104884240665854" lon="11.911863618122775"><ele>246.0</ele><time>2026-04-19T08:02:19.999Z</time></trkpt><trkpt lat="42.104890475473766" lon="11.911775521230204"><ele>246.0</ele><time>2026-04-19T08:02:25.999Z</time></trkpt><trkpt lat="42.104837168158745" lon="11.91167354312467"><ele>244.16666666666666</ele><time>2026-04-19T08:02:28.999Z</time></trkpt><trkpt lat="42.10479196639659" lon="11.911591357277555"><ele>242.33333333333331</ele><time>2026-04-19T08:02:30.999Z</time></trkpt><trkpt lat="42.10476218172667" lon="11.911493867002475"><ele>240.5</ele><time>2026-04-19T08:02:32.999Z</time></trkpt><trkpt lat="42.10469493828699" lon="11.9113984629707"><ele>238.66666666666666</ele><time>2026-04-19T08:02:34.999Z</time></trkpt><trkpt lat="42.10464226561677" lon="11.911326919210056"><ele>236.83333333333331</ele><time>2026-04-19T08:02:36.999Z</time></trkpt><trkpt lat="42.104582761082085" lon="11.91127558702159"><ele>235.0</ele><time>2026-04-19T08:02:38.999Z</time></trkpt><trkpt lat="42.10452176398664" lon="11.911188751502772"><ele>235.0</ele><time>2026-04-19T08:02:40.999Z</time></trkpt><trkpt lat="42.10442882001435" lon="11.911063111437912"><ele>235.0</ele><time>2026-04-19T08:02:42.999Z</time></trkpt><trkpt lat="42.104364707016344" lon="11.910964864126823"><ele>235.0</ele><time>2026-04-19T08:02:44.999Z</time></trkpt><trkpt lat="42.10432728005396" lon="11.910893400978518"><ele>235.0</ele><time>2026-04-19T08:02:46.999Z</time></trkpt><trkpt lat="42.10433608854435" lon="11.910802378379277"><ele>235.0</ele><time>2026-04-19T08:02:48.999Z</time></trkpt><trkpt lat="42.10440582473625" lon="11.910661228902187"><ele>234.66666666666666</ele><time>2026-04-19T08:02:50.999Z</time></trkpt><trkpt lat="42.104435829935575" lon="11.910579566342037"><ele>234.33333333333331</ele><time>2026-04-19T08:02:51.999Z</time></trkpt><trkpt lat="42.10449227038391" lon="11.910461902966386"><ele>234.0</ele><time>2026-04-19T08:02:53.999Z</time></trkpt><trkpt lat="42.10456029459289" lon="11.910454172785917"><ele>233.66666666666669</ele><time>2026-04-19T08:02:54.999Z</time></trkpt><trkpt lat="42.10464002653874" lon="11.910435800624576"><ele>233.33333333333334</ele><time>2026-04-19T08:02:56.999Z</time></trkpt><trkpt lat="42.10471197569998" lon="11.910417452000152"><ele>233.0</ele><time>2026-04-19T08:02:58.999Z</time></trkpt><trkpt lat="42.10481400284979" lon="11.91040977134516"><ele>233.0</ele><time>2026-04-19T08:03:00.999Z</time></trkpt><trkpt lat="42.10488686451196" lon="11.910310935597003"><ele>233.0</ele><time>2026-04-19T08:03:02.999Z</time></trkpt><trkpt lat="42.10497400793475" lon="11.91025836104244"><ele>233.0</ele><time>2026-04-19T08:03:04.999Z</time></trkpt><trkpt lat="42.10510397505413" lon="11.910217200948098"><ele>233.0</ele><time>2026-04-19T08:03:06.999Z</time></trkpt><trkpt lat="42.105167427306654" lon="11.910203068720689"><ele>233.0</ele><time>2026-04-19T08:03:08.999Z</time></trkpt><trkpt lat="42.10522171911345" lon="11.910127355671246"><ele>232.60000000000002</ele><time>2026-04-19T08:03:13.999Z</time></trkpt><trkpt lat="42.10527591451149" lon="11.910055289351837"><ele>232.20000000000002</ele><time>2026-04-19T08:03:16.999Z</time></trkpt><trkpt lat="42.10531866283501" lon="11.90994202399871"><ele>231.8</ele><time>2026-04-19T08:03:19Z</time></trkpt><trkpt lat="42.10537531269837" lon="11.909750242816656"><ele>231.4</ele><time>2026-04-19T08:03:21Z</time></trkpt><trkpt lat="42.1053901394153" lon="11.909646875387882"><ele>231.0</ele><time>2026-04-19T08:03:22Z</time></trkpt><trkpt lat="42.10542556649797" lon="11.909543604819765"><ele>231.0</ele><time>2026-04-19T08:03:23Z</time></trkpt><trkpt lat="42.10544973076695" lon="11.909449128631142"><ele>231.0</ele><time>2026-04-19T08:03:24Z</time></trkpt><trkpt lat="42.10547401307359" lon="11.909344717674642"><ele>231.0</ele><time>2026-04-19T08:03:25Z</time></trkpt><trkpt lat="42.10550619748733" lon="11.909259278275385"><ele>231.0</ele><time>2026-04-19T08:03:26Z</time></trkpt><trkpt lat="42.1055593723616" lon="11.909145863055276"><ele>231.0</ele><time>2026-04-19T08:03:28Z</time></trkpt><trkpt lat="42.10564169280138" lon="11.909041467042677"><ele>231.0</ele><time>2026-04-19T08:03:30Z</time></trkpt><trkpt lat="42.10569265695262" lon="11.908955507596813"><ele>230.83333333333334</ele><time>2026-04-19T08:03:32Z</time></trkpt><trkpt lat="42.10575768669388" lon="11.908892008575759"><ele>230.66666666666669</ele><time>2026-04-19T08:03:35Z</time></trkpt><trkpt lat="42.10583927579517" lon="11.908817105929476"><ele>230.5</ele><time>2026-04-19T08:03:38Z</time></trkpt><trkpt lat="42.10589856463628" lon="11.908747890082703"><ele>230.33333333333334</ele><time>2026-04-19T08:03:40Z</time></trkpt><trkpt lat="42.10591330203711" lon="11.90866330285191"><ele>230.16666666666669</ele><time>2026-04-19T08:03:42Z</time></trkpt><trkpt lat="42.105965377397666" lon="11.90852905813409"><ele>230.0</ele><time>2026-04-19T08:03:44Z</time></trkpt><trkpt lat="42.10598904627145" lon="11.908407622742942"><ele>230.0</ele><time>2026-04-19T08:03:46Z</time></trkpt><trkpt lat="42.106028036485256" lon="11.908284051629352"><ele>230.0</ele><time>2026-04-19T08:03:48Z</time></trkpt><trkpt lat="42.10607240824659" lon="11.908130518276113"><ele>230.0</ele><time>2026-04-19T08:03:50Z</time></trkpt><trkpt lat="42.10609290830635" lon="11.907997755319794"><ele>230.0</ele><time>2026-04-19T08:03:52Z</time></trkpt><trkpt lat="42.10609541094066" lon="11.907882732164042"><ele>230.0</ele><time>2026-04-19T08:03:54Z</time></trkpt><trkpt lat="42.10607423789295" lon="11.907766258349072"><ele>230.00000000000003</ele><time>2026-04-19T08:03:56Z</time></trkpt><trkpt lat="42.10606079535454" lon="11.907674457623717"><ele>230.0</ele><time>2026-04-19T08:03:58Z</time></trkpt><trkpt lat="42.10605360963995" lon="11.90758401018347"><ele>230.0</ele><time>2026-04-19T08:04:00Z</time></trkpt><trkpt lat="42.10601929241479" lon="11.907462982192076"><ele>230.0</ele><time>2026-04-19T08:04:03Z</time></trkpt><trkpt lat="42.10600527983382" lon="11.907326452422396"><ele>230.00000000000003</ele><time>2026-04-19T08:04:05Z</time></trkpt><trkpt lat="42.10600008606698" lon="11.907219197064457"><ele>230.0</ele><time>2026-04-19T08:04:07Z</time></trkpt><trkpt lat="42.105978109826175" lon="11.907047170928141"><ele>230.4</ele><time>2026-04-19T08:04:09Z</time></trkpt><trkpt lat="42.105978411133876" lon="11.906951520471027"><ele>230.8</ele><time>2026-04-19T08:04:10Z</time></trkpt><trkpt lat="42.10597631861313" lon="11.906857521951757"><ele>231.2</ele><time>2026-04-19T08:04:11Z</time></trkpt><trkpt lat="42.105970269776506" lon="11.906735990325775"><ele>231.6</ele><time>2026-04-19T08:04:13Z</time></trkpt><trkpt lat="42.105978617940096" lon="11.90656705895192"><ele>232.0</ele><time>2026-04-19T08:04:15Z</time></trkpt><trkpt lat="42.10599104924919" lon="11.906439880178604"><ele>232.99999999999997</ele><time>2026-04-19T08:04:17Z</time></trkpt><trkpt lat="42.10601359948544" lon="11.906345710150017"><ele>234.0</ele><time>2026-04-19T08:04:19Z</time></trkpt><trkpt lat="42.10604093896376" lon="11.906239786256071"><ele>235.0</ele><time>2026-04-19T08:04:21.999Z</time></trkpt><trkpt lat="42.106123515347164" lon="11.906196372863297"><ele>236.0</ele><time>2026-04-19T08:04:24.999Z</time></trkpt><trkpt lat="42.106187422830914" lon="11.90614401342161"><ele>236.99999999999997</ele><time>2026-04-19T08:04:27.999Z</time></trkpt><trkpt lat="42.10625235430704" lon="11.906085308177339"><ele>238.0</ele><time>2026-04-19T08:04:30.999Z</time></trkpt><trkpt lat="42.106320788088475" lon="11.906004243252408"><ele>237.99999999999997</ele><time>2026-04-19T08:04:32.999Z</time></trkpt><trkpt lat="42.106368701015136" lon="11.905945805481663"><ele>238.0</ele><time>2026-04-19T08:04:33.999Z</time></trkpt><trkpt lat="42.10643549436208" lon="11.905852743518206"><ele>238.0</ele><time>2026-04-19T08:04:35.999Z</time></trkpt><trkpt lat="42.10649665680791" lon="11.905810413089847"><ele>238.0</ele><time>2026-04-19T08:04:37.999Z</time></trkpt><trkpt lat="42.10658944237484" lon="11.905798245750335"><ele>237.99999999999997</ele><time>2026-04-19T08:04:39.999Z</time></trkpt><trkpt lat="42.10668905029494" lon="11.90579335652183"><ele>238.0</ele><time>2026-04-19T08:04:41.999Z</time></trkpt><trkpt lat="42.106773476147076" lon="11.90584852111041"><ele>244.0</ele><time>2026-04-19T08:04:43.999Z</time></trkpt><trkpt lat="42.10684707179779" lon="11.905955990425975"><ele>250.0</ele><time>2026-04-19T08:04:45.999Z</time></trkpt><trkpt lat="42.10688742355211" lon="11.90605284179974"><ele>256.0</ele><time>2026-04-19T08:04:47.999Z</time></trkpt><trkpt lat="42.10696665876422" lon="11.906096946406867"><ele>262.0</ele><time>2026-04-19T08:04:49.999Z</time></trkpt><trkpt lat="42.10705412762262" lon="11.90611736178605"><ele>268.0</ele><time>2026-04-19T08:04:51.999Z</time></trkpt><trkpt lat="42.10714025713337" lon="11.906108357345568"><ele>268.0</ele><time>2026-04-19T08:04:53.999Z</time></trkpt><trkpt lat="42.10721375403653" lon="11.906079374690659"><ele>268.0</ele><time>2026-04-19T08:04:55.999Z</time></trkpt><trkpt lat="42.10732565469964" lon="11.906100367978965"><ele>268.0</ele><time>2026-04-19T08:04:57.999Z</time></trkpt><trkpt lat="42.107421091134746" lon="11.906110818122567"><ele>268.0</ele><time>2026-04-19T08:04:59.999Z</time></trkpt><trkpt lat="42.1074885615945" lon="11.906095337356241"><ele>268.0</ele><time>2026-04-19T08:05:01.999Z</time></trkpt><trkpt lat="42.10756884598612" lon="11.906161639193805"><ele>268.0</ele><time>2026-04-19T08:05:03.999Z</time></trkpt><trkpt lat="42.10766175039668" lon="11.906283762308304"><ele>269.66666666666663</ele><time>2026-04-19T08:05:05.999Z</time></trkpt><trkpt lat="42.10772875408041" lon="11.906361284756331"><ele>271.3333333333333</ele><time>2026-04-19T08:05:06.999Z</time></trkpt><trkpt lat="42.107797181593966" lon="11.906436855922424"><ele>273.0</ele><time>2026-04-19T08:05:07.999Z</time></trkpt><trkpt lat="42.107847722098796" lon="11.906492082000318"><ele>274.6666666666667</ele><time>2026-04-19T08:05:08.999Z</time></trkpt><trkpt lat="42.10792916948801" lon="11.906548972165135"><ele>276.33333333333337</ele><time>2026-04-19T08:05:10.999Z</time></trkpt><trkpt lat="42.10798780323957" lon="11.906602374176915"><ele>278.0</ele><time>2026-04-19T08:05:12.999Z</time></trkpt><trkpt lat="42.10807591142741" lon="11.906654992349665"><ele>278.6666666666667</ele><time>2026-04-19T08:05:14.999Z</time></trkpt><trkpt lat="42.10813306335151" lon="11.906772174727342"><ele>279.33333333333337</ele><time>2026-04-19T08:05:17.999Z</time></trkpt><trkpt lat="42.10814192101242" lon="11.906881906077855"><ele>280.0</ele><time>2026-04-19T08:05:19.999Z</time></trkpt><trkpt lat="42.10814985132808" lon="11.906995623649914"><ele>280.6666666666667</ele><time>2026-04-19T08:05:21.999Z</time></trkpt><trkpt lat="42.10815900723008" lon="11.907083523122912"><ele>281.3333333333333</ele><time>2026-04-19T08:05:22.999Z</time></trkpt><trkpt lat="42.10819475907064" lon="11.907226169935297"><ele>282.0</ele><time>2026-04-19T08:05:25Z</time></trkpt><trkpt lat="42.10822095492381" lon="11.907358114821117"><ele>282.2</ele><time>2026-04-19T08:05:27Z</time></trkpt><trkpt lat="42.10825884063194" lon="11.907459430210295"><ele>282.4</ele><time>2026-04-19T08:05:29Z</time></trkpt><trkpt lat="42.10829162124648" lon="11.907574036077753"><ele>282.6</ele><time>2026-04-19T08:05:31Z</time></trkpt><trkpt lat="42.10835036326417" lon="11.907705910328792"><ele>282.8</ele><time>2026-04-19T08:05:33Z</time></trkpt><trkpt lat="42.108408198482046" lon="11.907837315751376"><ele>283.0</ele><time>2026-04-19T08:05:35Z</time></trkpt><trkpt lat="42.10844358784092" lon="11.907962422613515"><ele>285.0</ele><time>2026-04-19T08:05:37Z</time></trkpt><trkpt lat="42.108540948176824" lon="11.908050101180951"><ele>287.0</ele><time>2026-04-19T08:05:39Z</time></trkpt><trkpt lat="42.10864313557723" lon="11.908097971972012"><ele>289.0</ele><time>2026-04-19T08:05:41Z</time></trkpt><trkpt lat="42.1087101806518" lon="11.908140795845602"><ele>291.0</ele><time>2026-04-19T08:05:43Z</time></trkpt><trkpt lat="42.108782502525976" lon="11.908223821520611"><ele>293.0</ele><time>2026-04-19T08:05:45Z</time></trkpt><trkpt lat="42.10886900256477" lon="11.908306789495077"><ele>293.0</ele><time>2026-04-19T08:05:47Z</time></trkpt><trkpt lat="42.10894980321315" lon="11.90838911213564"><ele>293.0</ele><time>2026-04-19T08:05:49Z</time></trkpt><trkpt lat="42.109047659779804" lon="11.908487245818309"><ele>293.0</ele><time>2026-04-19T08:05:51Z</time></trkpt><trkpt lat="42.1091492306449" lon="11.908558944817708"><ele>293.0</ele><time>2026-04-19T08:05:53Z</time></trkpt><trkpt lat="42.109231489513434" lon="11.90860645533788"><ele>293.0</ele><time>2026-04-19T08:05:55Z</time></trkpt><trkpt lat="42.10929563424379" lon="11.908678324591534"><ele>295.0</ele><time>2026-04-19T08:05:57Z</time></trkpt><trkpt lat="42.1093540210195" lon="11.908723904450461"><ele>297.0</ele><time>2026-04-19T08:05:58Z</time></trkpt><trkpt lat="42.10940526852743" lon="11.908774186147614"><ele>299.0</ele><time>2026-04-19T08:05:59Z</time></trkpt><trkpt lat="42.109482270799234" lon="11.908868587358217"><ele>301.0</ele><time>2026-04-19T08:06:01Z</time></trkpt><trkpt lat="42.1095454866944" lon="11.908917587898333"><ele>303.0</ele><time>2026-04-19T08:06:03Z</time></trkpt><trkpt lat="42.109586088084555" lon="11.909017543909778"><ele>305.0</ele><time>2026-04-19T08:06:06Z</time></trkpt><trkpt lat="42.10962810482458" lon="11.909082454334442"><ele>305.0</ele><time>2026-04-19T08:06:09Z</time></trkpt><trkpt lat="42.10973030027406" lon="11.909052659330134"><ele>305.0</ele><time>2026-04-19T08:10:55.999Z</time></trkpt><trkpt lat="42.109843113346194" lon="11.90903986113178"><ele>305.0</ele><time>2026-04-19T08:10:57.999Z</time></trkpt><trkpt lat="42.10995631068356" lon="11.909035572406898"><ele>305.0</ele><time>2026-04-19T08:10:59.999Z</time></trkpt><trkpt lat="42.110068630628" lon="11.90901318336199"><ele>305.0</ele><time>2026-04-19T08:11:01.999Z</time></trkpt><trkpt lat="42.11012131342598" lon="11.908914655341121"><ele>305.1666666666667</ele><time>2026-04-19T08:11:03.999Z</time></trkpt><trkpt lat="42.11014423293504" lon="11.908818138701431"><ele>305.33333333333337</ele><time>2026-04-19T08:11:04.999Z</time></trkpt><trkpt lat="42.11017322620563" lon="11.90872184330965"><ele>305.5</ele><time>2026-04-19T08:11:05.999Z</time></trkpt><trkpt lat="42.110221040712986" lon="11.908658366766558"><ele>305.6666666666667</ele><time>2026-04-19T08:11:06.999Z</time></trkpt><trkpt lat="42.110271646915514" lon="11.908601170450645"><ele>305.8333333333333</ele><time>2026-04-19T08:11:07.999Z</time></trkpt><trkpt lat="42.11036362350254" lon="11.908507348893718"><ele>306.0</ele><time>2026-04-19T08:11:09.999Z</time></trkpt><trkpt lat="42.11048883944964" lon="11.908494905280538"><ele>306.0</ele><time>2026-04-19T08:11:11.999Z</time></trkpt><trkpt lat="42.11059016873234" lon="11.90845944413255"><ele>306.0</ele><time>2026-04-19T08:11:13.999Z</time></trkpt><trkpt lat="42.110666182343046" lon="11.90833858875567"><ele>306.0</ele><time>2026-04-19T08:11:15.999Z</time></trkpt><trkpt lat="42.110716963307624" lon="11.908195548844594"><ele>306.0</ele><time>2026-04-19T08:11:17.999Z</time></trkpt><trkpt lat="42.110732030513645" lon="11.908111925443698"><ele>306.0</ele><time>2026-04-19T08:11:18.999Z</time></trkpt><trkpt lat="42.11075557341558" lon="11.907974232014283"><ele>303.0</ele><time>2026-04-19T08:11:20.999Z</time></trkpt><trkpt lat="42.1108208404155" lon="11.907821763327949"><ele>300.0</ele><time>2026-04-19T08:11:22.999Z</time></trkpt><trkpt lat="42.11084803598069" lon="11.907729301971466"><ele>297.0</ele><time>2026-04-19T08:11:23.999Z</time></trkpt><trkpt lat="42.11087870388595" lon="11.907639035393352"><ele>294.0</ele><time>2026-04-19T08:11:24.999Z</time></trkpt><trkpt lat="42.11090509967201" lon="11.907549801154627"><ele>291.0</ele><time>2026-04-19T08:11:25.999Z</time></trkpt><trkpt lat="42.11091199051205" lon="11.907460604900454"><ele>288.0</ele><time>2026-04-19T08:11:26.999Z</time></trkpt><trkpt lat="42.11092028997711" lon="11.907370462675878"><ele>286.1666666666667</ele><time>2026-04-19T08:11:27.999Z</time></trkpt><trkpt lat="42.110938546778385" lon="11.907284717933496"><ele>284.3333333333333</ele><time>2026-04-19T08:11:28.999Z</time></trkpt><trkpt lat="42.11095763393215" lon="11.907194421680579"><ele>282.5</ele><time>2026-04-19T08:11:29.999Z</time></trkpt><trkpt lat="42.110984049826506" lon="11.907114350990312"><ele>280.66666666666663</ele><time>2026-04-19T08:11:30.999Z</time></trkpt><trkpt lat="42.11105935342457" lon="11.906977762114774"><ele>278.8333333333333</ele><time>2026-04-19T08:11:32.999Z</time></trkpt><trkpt lat="42.11108559397215" lon="11.906890960262771"><ele>277.0</ele><time>2026-04-19T08:11:33.999Z</time></trkpt><trkpt lat="42.11110352791348" lon="11.906809026148807"><ele>274.2</ele><time>2026-04-19T08:11:34.999Z</time></trkpt><trkpt lat="42.11111631001344" lon="11.906714133924796"><ele>271.4</ele><time>2026-04-19T08:11:35.999Z</time></trkpt><trkpt lat="42.11111576893528" lon="11.906596851560863"><ele>268.6</ele><time>2026-04-19T08:11:36.999Z</time></trkpt><trkpt lat="42.11111904987901" lon="11.906412677574215"><ele>265.8</ele><time>2026-04-19T08:11:38.999Z</time></trkpt><trkpt lat="42.11110240951038" lon="11.906303422115956"><ele>263.0</ele><time>2026-04-19T08:11:39.999Z</time></trkpt><trkpt lat="42.11108737145044" lon="11.906111795163255"><ele>263.0</ele><time>2026-04-19T08:11:42Z</time></trkpt><trkpt lat="42.11107305252735" lon="11.905995266044046"><ele>263.0</ele><time>2026-04-19T08:11:43Z</time></trkpt><trkpt lat="42.111069887892846" lon="11.905887149420561"><ele>263.0</ele><time>2026-04-19T08:11:44Z</time></trkpt><trkpt lat="42.11106771801909" lon="11.905782287910556"><ele>263.0</ele><time>2026-04-19T08:11:45Z</time></trkpt><trkpt lat="42.11106163876341" lon="11.905669000894314"><ele>263.0</ele><time>2026-04-19T08:11:46Z</time></trkpt><trkpt lat="42.11105187739906" lon="11.90556883402525"><ele>263.0</ele><time>2026-04-19T08:11:47Z</time></trkpt><trkpt lat="42.11104142008397" lon="11.905465323214374"><ele>261.5</ele><time>2026-04-19T08:11:48Z</time></trkpt><trkpt lat="42.11102285809609" lon="11.905375392358076"><ele>260.0</ele><time>2026-04-19T08:11:49Z</time></trkpt><trkpt lat="42.110997253136084" lon="11.90529610659016"><ele>258.5</ele><time>2026-04-19T08:11:50Z</time></trkpt><trkpt lat="42.1109595557045" lon="11.905213373442962"><ele>257.0</ele><time>2026-04-19T08:11:51Z</time></trkpt><trkpt lat="42.11091427651471" lon="11.905126741346832"><ele>255.50000000000003</ele><time>2026-04-19T08:11:52Z</time></trkpt><trkpt lat="42.11085262742988" lon="11.905060904003264"><ele>254.0</ele><time>2026-04-19T08:11:53Z</time></trkpt><trkpt lat="42.110752042994356" lon="11.90505575306766"><ele>252.2</ele><time>2026-04-19T08:11:55Z</time></trkpt><trkpt lat="42.11065670325779" lon="11.905142651892016"><ele>250.39999999999998</ele><time>2026-04-19T08:11:57Z</time></trkpt><trkpt lat="42.110604383791234" lon="11.905239431542027"><ele>248.6</ele><time>2026-04-19T08:11:58Z</time></trkpt><trkpt lat="42.110517753074525" lon="11.905344125878289"><ele>246.8</ele><time>2026-04-19T08:11:59Z</time></trkpt><trkpt lat="42.11043216964128" lon="11.905441021866867"><ele>245.0</ele><time>2026-04-19T08:12:00Z</time></trkpt><trkpt lat="42.11034632433722" lon="11.905518163824746"><ele>245.0</ele><time>2026-04-19T08:12:01Z</time></trkpt><trkpt lat="42.110266928658326" lon="11.905559606350982"><ele>245.0</ele><time>2026-04-19T08:12:02Z</time></trkpt><trkpt lat="42.11019380395494" lon="11.905594024620179"><ele>245.0</ele><time>2026-04-19T08:12:03Z</time></trkpt><trkpt lat="42.11006689518466" lon="11.905598932520729"><ele>245.0</ele><time>2026-04-19T08:12:05Z</time></trkpt><trkpt lat="42.110004631315945" lon="11.905561740694868"><ele>245.0</ele><time>2026-04-19T08:12:06Z</time></trkpt><trkpt lat="42.10993683486655" lon="11.905456622612247"><ele>245.00000000000003</ele><time>2026-04-19T08:12:07Z</time></trkpt><trkpt lat="42.10988827129268" lon="11.905392607079024"><ele>245.0</ele><time>2026-04-19T08:12:08Z</time></trkpt><trkpt lat="42.10985119638535" lon="11.905322593938163"><ele>245.0</ele><time>2026-04-19T08:12:09Z</time></trkpt><trkpt lat="42.10979109308147" lon="11.90522421653415"><ele>245.0</ele><time>2026-04-19T08:12:11Z</time></trkpt><trkpt lat="42.10973019245033" lon="11.905181814813572"><ele>245.00000000000003</ele><time>2026-04-19T08:12:12Z</time></trkpt><trkpt lat="42.10959224962825" lon="11.905109663776608"><ele>245.0</ele><time>2026-04-19T08:12:14Z</time></trkpt><trkpt lat="42.109508414611156" lon="11.905073265265255"><ele>243.57142857142856</ele><time>2026-04-19T08:12:15Z</time></trkpt><trkpt lat="42.109438743007956" lon="11.905010028803535"><ele>242.14285714285714</ele><time>2026-04-19T08:12:16Z</time></trkpt><trkpt lat="42.10937149043761" lon="11.90495459610853"><ele>240.71428571428572</ele><time>2026-04-19T08:12:17Z</time></trkpt><trkpt lat="42.10931564761198" lon="11.904898394419629"><ele>239.28571428571428</ele><time>2026-04-19T08:12:18Z</time></trkpt><trkpt lat="42.109255438486905" lon="11.904860995966763"><ele>237.85714285714283</ele><time>2026-04-19T08:12:19Z</time></trkpt><trkpt lat="42.109189979402075" lon="11.904831014161664"><ele>236.42857142857142</ele><time>2026-04-19T08:12:20Z</time></trkpt><trkpt lat="42.10911836726061" lon="11.904795095360022"><ele>235.0</ele><time>2026-04-19T08:12:21Z</time></trkpt><trkpt lat="42.10902428045269" lon="11.90471193056098"><ele>234.99999999999997</ele><time>2026-04-19T08:12:23Z</time></trkpt><trkpt lat="42.10896237981719" lon="11.904652092312292"><ele>235.0</ele><time>2026-04-19T08:12:24Z</time></trkpt><trkpt lat="42.10892331786167" lon="11.90458129910462"><ele>235.0</ele><time>2026-04-19T08:12:25Z</time></trkpt><trkpt lat="42.10883691568251" lon="11.904461530038468"><ele>235.0</ele><time>2026-04-19T08:12:27Z</time></trkpt><trkpt lat="42.10878348910943" lon="11.904399666188061"><ele>234.99999999999997</ele><time>2026-04-19T08:12:28Z</time></trkpt><trkpt lat="42.108753147840055" lon="11.904324083427488"><ele>235.0</ele><time>2026-04-19T08:12:29Z</time></trkpt><trkpt lat="42.108718788369515" lon="11.904244114390686"><ele>232.0</ele><time>2026-04-19T08:12:30Z</time></trkpt><trkpt lat="42.10867052718458" lon="11.904179055015712"><ele>229.0</ele><time>2026-04-19T08:12:31Z</time></trkpt><trkpt lat="42.10862436778633" lon="11.90411779181463"><ele>226.0</ele><time>2026-04-19T08:12:32Z</time></trkpt><trkpt lat="42.10855223491582" lon="11.903996639444662"><ele>223.0</ele><time>2026-04-19T08:12:34Z</time></trkpt><trkpt lat="42.1084586423373" lon="11.903885509250516"><ele>220.0</ele><time>2026-04-19T08:12:36Z</time></trkpt><trkpt lat="42.10839787929137" lon="11.9037397906749"><ele>220.0</ele><time>2026-04-19T08:12:38Z</time></trkpt><trkpt lat="42.108309863065095" lon="11.903616668163975"><ele>220.0</ele><time>2026-04-19T08:12:40Z</time></trkpt><trkpt lat="42.10821535135096" lon="11.903581612506262"><ele>220.0</ele><time>2026-04-19T08:12:42Z</time></trkpt><trkpt lat="42.10804521239094" lon="11.903548493276515"><ele>220.0</ele><time>2026-04-19T08:12:44Z</time></trkpt><trkpt lat="42.10796265101394" lon="11.903552483261114"><ele>220.16666666666666</ele><time>2026-04-19T08:12:45Z</time></trkpt><trkpt lat="42.10788907080171" lon="11.903567916744716"><ele>220.33333333333331</ele><time>2026-04-19T08:12:45.999Z</time></trkpt><trkpt lat="42.10781819826569" lon="11.903588999332424"><ele>220.5</ele><time>2026-04-19T08:12:46.999Z</time></trkpt><trkpt lat="42.107741241129304" lon="11.903635295702328"><ele>220.66666666666669</ele><time>2026-04-19T08:12:47.999Z</time></trkpt><trkpt lat="42.107643971753696" lon="11.903727592537598"><ele>220.83333333333334</ele><time>2026-04-19T08:12:49.999Z</time></trkpt><trkpt lat="42.10754925373922" lon="11.90375178694284"><ele>221.0</ele><time>2026-04-19T08:12:51.999Z</time></trkpt><trkpt lat="42.10746469444441" lon="11.903627835730743"><ele>221.00000000000003</ele><time>2026-04-19T08:12:53.999Z</time></trkpt><trkpt lat="42.10744364646576" lon="11.903545477100836"><ele>221.0</ele><time>2026-04-19T08:12:54.999Z</time></trkpt><trkpt lat="42.10742084788646" lon="11.903455508522754"><ele>221.0</ele><time>2026-04-19T08:12:55.999Z</time></trkpt><trkpt lat="42.10733838282055" lon="11.903367421131462"><ele>221.0</ele><time>2026-04-19T08:12:57.999Z</time></trkpt><trkpt lat="42.107273094742325" lon="11.903358568852605"><ele>221.00000000000003</ele><time>2026-04-19T08:12:58.999Z</time></trkpt><trkpt lat="42.10721379849262" lon="11.903197560833373"><ele>221.0</ele><time>2026-04-19T08:13:00.999Z</time></trkpt><trkpt lat="42.10719805994427" lon="11.90311344480113"><ele>218.16666666666669</ele><time>2026-04-19T08:13:01.999Z</time></trkpt><trkpt lat="42.10716270914036" lon="11.90304152553009"><ele>215.33333333333334</ele><time>2026-04-19T08:13:02.999Z</time></trkpt><trkpt lat="42.10710280420077" lon="11.902965700660559"><ele>212.5</ele><time>2026-04-19T08:13:03.999Z</time></trkpt><trkpt lat="42.10704834214778" lon="11.902880773630896"><ele>209.66666666666669</ele><time>2026-04-19T08:13:04.999Z</time></trkpt><trkpt lat="42.10700001140185" lon="11.90280719704197"><ele>206.83333333333334</ele><time>2026-04-19T08:13:05.999Z</time></trkpt><trkpt lat="42.10693522366648" lon="11.902710954336124"><ele>204.0</ele><time>2026-04-19T08:13:06.999Z</time></trkpt><trkpt lat="42.106892743071704" lon="11.90263623018297"><ele>202.16666666666666</ele><time>2026-04-19T08:13:07.999Z</time></trkpt><trkpt lat="42.10684231978539" lon="11.902572168085076"><ele>200.33333333333331</ele><time>2026-04-19T08:13:08.999Z</time></trkpt><trkpt lat="42.10679168825607" lon="11.902478997566686"><ele>198.5</ele><time>2026-04-19T08:13:09.999Z</time></trkpt><trkpt lat="42.10675152389179" lon="11.902385395327595"><ele>196.66666666666666</ele><time>2026-04-19T08:13:10.999Z</time></trkpt><trkpt lat="42.10670209021628" lon="11.902309951900339"><ele>194.83333333333331</ele><time>2026-04-19T08:13:11.999Z</time></trkpt><trkpt lat="42.10662727304994" lon="11.902212130613428"><ele>193.0</ele><time>2026-04-19T08:13:13.999Z</time></trkpt><trkpt lat="42.10649825513623" lon="11.902182815221366"><ele>192.14285714285717</ele><time>2026-04-19T08:13:15.999Z</time></trkpt><trkpt lat="42.106431843453386" lon="11.902197459683482"><ele>191.28571428571428</ele><time>2026-04-19T08:13:16.999Z</time></trkpt><trkpt lat="42.10636782490935" lon="11.902224322364344"><ele>190.42857142857144</ele><time>2026-04-19T08:13:17.999Z</time></trkpt><trkpt lat="42.10630702912291" lon="11.902271137586585"><ele>189.57142857142858</ele><time>2026-04-19T08:13:18.999Z</time></trkpt><trkpt lat="42.10625547736015" lon="11.902330582296678"><ele>188.71428571428572</ele><time>2026-04-19T08:13:19.999Z</time></trkpt><trkpt lat="42.10620123736957" lon="11.902382437473527"><ele>187.85714285714286</ele><time>2026-04-19T08:13:20.999Z</time></trkpt><trkpt lat="42.106145142789494" lon="11.902437954341611"><ele>187.0</ele><time>2026-04-19T08:13:21.999Z</time></trkpt><trkpt lat="42.106092188915405" lon="11.902493280294111"><ele>187.0</ele><time>2026-04-19T08:13:22.999Z</time></trkpt><trkpt lat="42.1060366925555" lon="11.902553682426884"><ele>187.0</ele><time>2026-04-19T08:13:23.999Z</time></trkpt><trkpt lat="42.10597327866541" lon="11.90260305318082"><ele>187.0</ele><time>2026-04-19T08:13:24.999Z</time></trkpt><trkpt lat="42.10590528704666" lon="11.90258989084107"><ele>187.0</ele><time>2026-04-19T08:13:25.999Z</time></trkpt><trkpt lat="42.10583858145251" lon="11.90258548764101"><ele>187.0</ele><time>2026-04-19T08:13:26.999Z</time></trkpt><trkpt lat="42.10577743474502" lon="11.902542720644993"><ele>187.0</ele><time>2026-04-19T08:13:27.999Z</time></trkpt><trkpt lat="42.10571842484712" lon="11.902488331155501"><ele>187.0</ele><time>2026-04-19T08:13:28.999Z</time></trkpt><trkpt lat="42.10568371133027" lon="11.902404233688502"><ele>188.0</ele><time>2026-04-19T08:13:29.999Z</time></trkpt><trkpt lat="42.10564555734646" lon="11.902303944064299"><ele>189.0</ele><time>2026-04-19T08:13:30.999Z</time></trkpt><trkpt lat="42.1056082536042" lon="11.902205012901959"><ele>190.0</ele><time>2026-04-19T08:13:31.999Z</time></trkpt><trkpt lat="42.10555949471908" lon="11.90212018044196"><ele>191.0</ele><time>2026-04-19T08:13:32.999Z</time></trkpt><trkpt lat="42.10552634699954" lon="11.902041741852967"><ele>191.99999999999997</ele><time>2026-04-19T08:13:33.999Z</time></trkpt><trkpt lat="42.10547515525693" lon="11.901895834520701"><ele>193.0</ele><time>2026-04-19T08:13:35.999Z</time></trkpt><trkpt lat="42.10541214321945" lon="11.901770884474193"><ele>190.16666666666666</ele><time>2026-04-19T08:13:37.999Z</time></trkpt><trkpt lat="42.105333955206646" lon="11.901658011224784"><ele>187.33333333333331</ele><time>2026-04-19T08:13:39.999Z</time></trkpt><trkpt lat="42.10527801032756" lon="11.901573003690729"><ele>184.5</ele><time>2026-04-19T08:13:41.999Z</time></trkpt><trkpt lat="42.105340473688806" lon="11.901496120866721"><ele>181.66666666666666</ele><time>2026-04-19T08:13:45.999Z</time></trkpt><trkpt lat="42.105407461807054" lon="11.901433806920245"><ele>178.83333333333331</ele><time>2026-04-19T08:13:48Z</time></trkpt><trkpt lat="42.10539833851022" lon="11.901343112820618"><ele>176.0</ele><time>2026-04-19T08:13:49Z</time></trkpt><trkpt lat="42.105358594164606" lon="11.901225408597108"><ele>176.0</ele><time>2026-04-19T08:13:50Z</time></trkpt><trkpt lat="42.105256711100694" lon="11.901142980560742"><ele>176.0</ele><time>2026-04-19T08:13:52Z</time></trkpt><trkpt lat="42.10516195293529" lon="11.901069851603419"><ele>176.0</ele><time>2026-04-19T08:13:54Z</time></trkpt><trkpt lat="42.105067691798304" lon="11.900962809105849"><ele>176.0</ele><time>2026-04-19T08:13:56Z</time></trkpt><trkpt lat="42.10500226057776" lon="11.900902113323381"><ele>176.0</ele><time>2026-04-19T08:13:57Z</time></trkpt><trkpt lat="42.10494430629073" lon="11.900850807624158"><ele>172.4</ele><time>2026-04-19T08:13:58Z</time></trkpt><trkpt lat="42.104881017415735" lon="11.90081145027165"><ele>168.8</ele><time>2026-04-19T08:13:59Z</time></trkpt><trkpt lat="42.104769026011425" lon="11.90075559287854"><ele>165.20000000000002</ele><time>2026-04-19T08:14:00Z</time></trkpt><trkpt lat="42.10465025502979" lon="11.900752828372992"><ele>161.60000000000002</ele><time>2026-04-19T08:14:01Z</time></trkpt><trkpt lat="42.10455948229648" lon="11.900737213921298"><ele>158.0</ele><time>2026-04-19T08:14:02Z</time></trkpt><trkpt lat="42.10445535069375" lon="11.900760772207196"><ele>158.0</ele><time>2026-04-19T08:14:03Z</time></trkpt><trkpt lat="42.10434641714501" lon="11.900768298854"><ele>158.0</ele><time>2026-04-19T08:14:04Z</time></trkpt><trkpt lat="42.104226985942546" lon="11.900790407741173"><ele>158.0</ele><time>2026-04-19T08:14:05Z</time></trkpt><trkpt lat="42.1041296351045" lon="11.900806125370298"><ele>158.0</ele><time>2026-04-19T08:14:06Z</time></trkpt><trkpt lat="42.10404106228314" lon="11.900831698543476"><ele>158.0</ele><time>2026-04-19T08:14:07Z</time></trkpt><trkpt lat="42.10396643075184" lon="11.900851156339273"><ele>158.0</ele><time>2026-04-19T08:14:08Z</time></trkpt><trkpt lat="42.10390344398971" lon="11.900872370007274"><ele>158.0</ele><time>2026-04-19T08:14:09Z</time></trkpt><trkpt lat="42.103813150266106" lon="11.900896199693145"><ele>158.0</ele><time>2026-04-19T08:14:11Z</time></trkpt><trkpt lat="42.103719440996564" lon="11.900971729943002"><ele>158.0</ele><time>2026-04-19T08:14:13Z</time></trkpt><trkpt lat="42.1036046341339" lon="11.901048444981585"><ele>158.0</ele><time>2026-04-19T08:14:15Z</time></trkpt><trkpt lat="42.103489100086776" lon="11.901062437888129"><ele>158.0</ele><time>2026-04-19T08:14:17Z</time></trkpt><trkpt lat="42.103400159575486" lon="11.900978470023908"><ele>158.0</ele><time>2026-04-19T08:14:19Z</time></trkpt><trkpt lat="42.10333101586773" lon="11.900924049503022"><ele>158.0</ele><time>2026-04-19T08:14:21Z</time></trkpt><trkpt lat="42.103260466252806" lon="11.900868292193723"><ele>158.0</ele><time>2026-04-19T08:14:23Z</time></trkpt><trkpt lat="42.103174881325195" lon="11.900769358264597"><ele>158.0</ele><time>2026-04-19T08:14:25Z</time></trkpt><trkpt lat="42.10314962928656" lon="11.900679093203419"><ele>160.8</ele><time>2026-04-19T08:14:26Z</time></trkpt><trkpt lat="42.10311061100029" lon="11.900548983566923"><ele>163.60000000000002</ele><time>2026-04-19T08:14:27Z</time></trkpt><trkpt lat="42.10306264158887" lon="11.900445893422038"><ele>166.39999999999998</ele><time>2026-04-19T08:14:28Z</time></trkpt><trkpt lat="42.10300512693817" lon="11.900336668478866"><ele>169.2</ele><time>2026-04-19T08:14:29Z</time></trkpt><trkpt lat="42.10295352225559" lon="11.9002583286626"><ele>172.0</ele><time>2026-04-19T08:14:31Z</time></trkpt><trkpt lat="42.10291476264061" lon="11.900161971054336"><ele>169.2</ele><time>2026-04-19T08:16:00Z</time></trkpt><trkpt lat="42.10287347618838" lon="11.89998072853742"><ele>166.39999999999998</ele><time>2026-04-19T08:16:02Z</time></trkpt><trkpt lat="42.102871453973684" lon="11.899894196330896"><ele>163.60000000000002</ele><time>2026-04-19T08:16:03Z</time></trkpt><trkpt lat="42.10281589188395" lon="11.8997650437311"><ele>160.8</ele><time>2026-04-19T08:16:05Z</time></trkpt><trkpt lat="42.10277748055981" lon="11.899627793860352"><ele>158.0</ele><time>2026-04-19T08:16:07Z</time></trkpt><trkpt lat="42.102746841572696" lon="11.89951323062197"><ele>158.0</ele><time>2026-04-19T08:16:09Z</time></trkpt><trkpt lat="42.10265247457454" lon="11.8993884296411"><ele>158.0</ele><time>2026-04-19T08:16:11Z</time></trkpt><trkpt lat="42.102570660727885" lon="11.899318094908393"><ele>158.0</ele><time>2026-04-19T08:16:12Z</time></trkpt><trkpt lat="42.10251566334918" lon="11.899238149633833"><ele>158.0</ele><time>2026-04-19T08:16:13Z</time></trkpt><trkpt lat="42.10246899271624" lon="11.899143419791283"><ele>158.0</ele><time>2026-04-19T08:16:14Z</time></trkpt><trkpt lat="42.10241990460265" lon="11.899055088397779"><ele>158.5</ele><time>2026-04-19T08:16:15Z</time></trkpt><trkpt lat="42.102363070585966" lon="11.898988658208935"><ele>159.0</ele><time>2026-04-19T08:16:16Z</time></trkpt><trkpt lat="42.102297876239575" lon="11.898926266133609"><ele>159.5</ele><time>2026-04-19T08:16:17Z</time></trkpt><trkpt lat="42.102237794770275" lon="11.898870183200438"><ele>160.0</ele><time>2026-04-19T08:16:18Z</time></trkpt><trkpt lat="42.10212075141226" lon="11.898826038377445"><ele>160.5</ele><time>2026-04-19T08:16:20Z</time></trkpt><trkpt lat="42.102042861564705" lon="11.898813696986553"><ele>161.0</ele><time>2026-04-19T08:16:21Z</time></trkpt><trkpt lat="42.10198004047427" lon="11.89880417941152"><ele>161.0</ele><time>2026-04-19T08:16:22Z</time></trkpt><trkpt lat="42.101920793444435" lon="11.898747223636702"><ele>161.0</ele><time>2026-04-19T08:16:23Z</time></trkpt><trkpt lat="42.10183614989166" lon="11.898638219853682"><ele>161.0</ele><time>2026-04-19T08:16:25Z</time></trkpt><trkpt lat="42.10177676949898" lon="11.898517874514074"><ele>161.0</ele><time>2026-04-19T08:16:27Z</time></trkpt><trkpt lat="42.10169264391006" lon="11.898399280750555"><ele>161.0</ele><time>2026-04-19T08:16:29Z</time></trkpt><trkpt lat="42.10158153456305" lon="11.898291584173618"><ele>160.0</ele><time>2026-04-19T08:16:31Z</time></trkpt><trkpt lat="42.10151681478107" lon="11.898242563928243"><ele>159.0</ele><time>2026-04-19T08:16:32Z</time></trkpt><trkpt lat="42.1014379984062" lon="11.898207548309099"><ele>158.0</ele><time>2026-04-19T08:16:33Z</time></trkpt><trkpt lat="42.10136306123287" lon="11.898164325087077"><ele>157.0</ele><time>2026-04-19T08:16:34Z</time></trkpt><trkpt lat="42.10129792744874" lon="11.898141193515533"><ele>156.0</ele><time>2026-04-19T08:16:35Z</time></trkpt><trkpt lat="42.10119117618941" lon="11.898060260595654"><ele>155.0</ele><time>2026-04-19T08:16:37Z</time></trkpt><trkpt lat="42.10113893684928" lon="11.898005501681608"><ele>155.0</ele><time>2026-04-19T08:16:38Z</time></trkpt><trkpt lat="42.10107912152017" lon="11.897927231037297"><ele>155.0</ele><time>2026-04-19T08:16:39Z</time></trkpt><trkpt lat="42.101032078735855" lon="11.897846654854119"><ele>155.0</ele><time>2026-04-19T08:16:40Z</time></trkpt><trkpt lat="42.10101003969567" lon="11.897690483620513"><ele>155.0</ele><time>2026-04-19T08:16:42Z</time></trkpt><trkpt lat="42.100989530079104" lon="11.897601766741023"><ele>155.0</ele><time>2026-04-19T08:16:43Z</time></trkpt><trkpt lat="42.1009563981373" lon="11.897497601165114"><ele>155.0</ele><time>2026-04-19T08:16:44Z</time></trkpt><trkpt lat="42.1009094245568" lon="11.89739823515355"><ele>154.75</ele><time>2026-04-19T08:16:45Z</time></trkpt><trkpt lat="42.10084602111844" lon="11.897303686353904"><ele>154.5</ele><time>2026-04-19T08:16:46Z</time></trkpt><trkpt lat="42.100765181391786" lon="11.897214108860613"><ele>154.25</ele><time>2026-04-19T08:16:47Z</time></trkpt><trkpt lat="42.100685194932765" lon="11.897092105542262"><ele>154.0</ele><time>2026-04-19T08:16:48Z</time></trkpt><trkpt lat="42.10055381351366" lon="11.89699400297058"><ele>154.0</ele><time>2026-04-19T08:16:49Z</time></trkpt><trkpt lat="42.100442841744226" lon="11.896927780704514"><ele>154.0</ele><time>2026-04-19T08:16:50Z</time></trkpt><trkpt lat="42.100347983828335" lon="11.89686921412902"><ele>154.0</ele><time>2026-04-19T08:16:50.999Z</time></trkpt><trkpt lat="42.10026627128624" lon="11.896807961016258"><ele>154.0</ele><time>2026-04-19T08:16:51.999Z</time></trkpt><trkpt lat="42.100187967791975" lon="11.89673833091562"><ele>154.0</ele><time>2026-04-19T08:16:52.999Z</time></trkpt><trkpt lat="42.100112803511365" lon="11.89667536296043"><ele>153.42857142857142</ele><time>2026-04-19T08:16:53.999Z</time></trkpt><trkpt lat="42.10005436441234" lon="11.896631165721008"><ele>152.85714285714286</ele><time>2026-04-19T08:16:54.999Z</time></trkpt><trkpt lat="42.099999726495845" lon="11.896586431103948"><ele>152.28571428571428</ele><time>2026-04-19T08:16:55.999Z</time></trkpt><trkpt lat="42.099934111633324" lon="11.896531823086379"><ele>151.71428571428572</ele><time>2026-04-19T08:16:56.999Z</time></trkpt><trkpt lat="42.09987203194615" lon="11.896462798502728"><ele>151.14285714285714</ele><time>2026-04-19T08:16:57.999Z</time></trkpt><trkpt lat="42.09982436745585" lon="11.896395615156713"><ele>150.57142857142856</ele><time>2026-04-19T08:16:58.999Z</time></trkpt><trkpt lat="42.09977201599103" lon="11.896342077407077"><ele>150.0</ele><time>2026-04-19T08:16:59.999Z</time></trkpt><trkpt lat="42.09972659164389" lon="11.896282435961425"><ele>150.0</ele><time>2026-04-19T08:17:00.999Z</time></trkpt><trkpt lat="42.099690436691546" lon="11.896208418136231"><ele>150.0</ele><time>2026-04-19T08:17:01.999Z</time></trkpt><trkpt lat="42.09962274037607" lon="11.896096740698129"><ele>150.0</ele><time>2026-04-19T08:17:03.999Z</time></trkpt><trkpt lat="42.09954844005781" lon="11.895979394259276"><ele>150.0</ele><time>2026-04-19T08:17:05.999Z</time></trkpt><trkpt lat="42.09944087314507" lon="11.8959296116722"><ele>150.0</ele><time>2026-04-19T08:17:07.999Z</time></trkpt><trkpt lat="42.09936226844287" lon="11.895968403931283"><ele>150.0</ele><time>2026-04-19T08:17:08.999Z</time></trkpt><trkpt lat="42.09929158468064" lon="11.896005265512384"><ele>150.0</ele><time>2026-04-19T08:17:09.999Z</time></trkpt><trkpt lat="42.09921833229482" lon="11.896039420420399"><ele>150.0</ele><time>2026-04-19T08:17:10.999Z</time></trkpt><trkpt lat="42.09909013296241" lon="11.896043722867738"><ele>150.0</ele><time>2026-04-19T08:17:12.999Z</time></trkpt><trkpt lat="42.099027499289825" lon="11.895992351401974"><ele>150.0</ele><time>2026-04-19T08:17:13.999Z</time></trkpt><trkpt lat="42.09896975521416" lon="11.895938863620147"><ele>150.0</ele><time>2026-04-19T08:17:14.999Z</time></trkpt><trkpt lat="42.098924876999305" lon="11.895799855618673"><ele>148.0</ele><time>2026-04-19T08:17:16.999Z</time></trkpt><trkpt lat="42.09889996690966" lon="11.895716910368886"><ele>146.0</ele><time>2026-04-19T08:17:17.999Z</time></trkpt><trkpt lat="42.09887037519072" lon="11.895631411589566"><ele>144.0</ele><time>2026-04-19T08:17:18.999Z</time></trkpt><trkpt lat="42.09883907116749" lon="11.89554837217648"><ele>142.0</ele><time>2026-04-19T08:17:19.999Z</time></trkpt><trkpt lat="42.09878674608028" lon="11.895445028170679"><ele>140.0</ele><time>2026-04-19T08:17:20.999Z</time></trkpt><trkpt lat="42.09874077730767" lon="11.895339131220414"><ele>138.0</ele><time>2026-04-19T08:17:21.999Z</time></trkpt><trkpt lat="42.09868017221384" lon="11.8952337556927"><ele>138.0</ele><time>2026-04-19T08:17:22.999Z</time></trkpt><trkpt lat="42.09861151629673" lon="11.895135439744651"><ele>138.0</ele><time>2026-04-19T08:17:23.999Z</time></trkpt><trkpt lat="42.09852403978596" lon="11.895052670071538"><ele>138.0</ele><time>2026-04-19T08:17:24.999Z</time></trkpt><trkpt lat="42.09844910118283" lon="11.89499632011386"><ele>138.0</ele><time>2026-04-19T08:17:25.999Z</time></trkpt><trkpt lat="42.098363230762786" lon="11.894961260296126"><ele>138.0</ele><time>2026-04-19T08:17:26.999Z</time></trkpt><trkpt lat="42.09826327751591" lon="11.894928269751954"><ele>137.4</ele><time>2026-04-19T08:17:27.999Z</time></trkpt><trkpt lat="42.09815912882317" lon="11.894892434079207"><ele>136.8</ele><time>2026-04-19T08:17:28.999Z</time></trkpt><trkpt lat="42.098063867213284" lon="11.894840851136886"><ele>136.2</ele><time>2026-04-19T08:17:29.999Z</time></trkpt><trkpt lat="42.09798689308422" lon="11.894808982623182"><ele>135.6</ele><time>2026-04-19T08:17:30.999Z</time></trkpt><trkpt lat="42.097903875938044" lon="11.894763949220156"><ele>135.0</ele><time>2026-04-19T08:17:31.999Z</time></trkpt><trkpt lat="42.09781717947487" lon="11.894721495543678"><ele>135.0</ele><time>2026-04-19T08:17:32.999Z</time></trkpt><trkpt lat="42.09773043184327" lon="11.894660407564073"><ele>135.0</ele><time>2026-04-19T08:17:33.999Z</time></trkpt><trkpt lat="42.09765606283675" lon="11.894607310637749"><ele>135.0</ele><time>2026-04-19T08:17:34.999Z</time></trkpt><trkpt lat="42.09758938153039" lon="11.894560236746733"><ele>135.0</ele><time>2026-04-19T08:17:35.999Z</time></trkpt><trkpt lat="42.09752322941066" lon="11.894524823891592"><ele>135.0</ele><time>2026-04-19T08:17:36.999Z</time></trkpt><trkpt lat="42.09742350377557" lon="11.894441159494884"><ele>135.0</ele><time>2026-04-19T08:17:38.999Z</time></trkpt><trkpt lat="42.09736857624742" lon="11.894371279966194"><ele>134.57142857142856</ele><time>2026-04-19T08:17:39.999Z</time></trkpt><trkpt lat="42.09732773892821" lon="11.894283935159761"><ele>134.14285714285714</ele><time>2026-04-19T08:17:40.999Z</time></trkpt><trkpt lat="42.09729606772208" lon="11.894199294336953"><ele>133.71428571428572</ele><time>2026-04-19T08:17:41.999Z</time></trkpt><trkpt lat="42.09725387587976" lon="11.894133760687637"><ele>133.28571428571428</ele><time>2026-04-19T08:17:42.999Z</time></trkpt><trkpt lat="42.09720305715434" lon="11.894076725718868"><ele>132.85714285714286</ele><time>2026-04-19T08:17:43.999Z</time></trkpt><trkpt lat="42.09715104108314" lon="11.894004711785012"><ele>132.42857142857142</ele><time>2026-04-19T08:17:44.999Z</time></trkpt><trkpt lat="42.09710535755553" lon="11.89392761047723"><ele>132.0</ele><time>2026-04-19T08:17:45.999Z</time></trkpt><trkpt lat="42.096991432256246" lon="11.893829928573863"><ele>132.0</ele><time>2026-04-19T08:17:47.999Z</time></trkpt><trkpt lat="42.09695433400402" lon="11.893714545030987"><ele>132.0</ele><time>2026-04-19T08:17:48.999Z</time></trkpt><trkpt lat="42.096914580250605" lon="11.893636913147892"><ele>132.0</ele><time>2026-04-19T08:17:49.999Z</time></trkpt><trkpt lat="42.09686563558294" lon="11.893562808449124"><ele>132.0</ele><time>2026-04-19T08:17:50.999Z</time></trkpt><trkpt lat="42.09681010867413" lon="11.893496097330884"><ele>132.0</ele><time>2026-04-19T08:17:51.999Z</time></trkpt><trkpt lat="42.09674731849681" lon="11.893422651826743"><ele>132.0</ele><time>2026-04-19T08:17:52.999Z</time></trkpt><trkpt lat="42.096694687140314" lon="11.893339536811952"><ele>131.0</ele><time>2026-04-19T08:17:53.999Z</time></trkpt><trkpt lat="42.09661091171193" lon="11.893257252420455"><ele>130.0</ele><time>2026-04-19T08:17:55.999Z</time></trkpt><trkpt lat="42.09655308517717" lon="11.893216163925382"><ele>129.0</ele><time>2026-04-19T08:17:56.999Z</time></trkpt><trkpt lat="42.09644319945555" lon="11.893170671817057"><ele>128.0</ele><time>2026-04-19T08:17:58.999Z</time></trkpt><trkpt lat="42.096374664483356" lon="11.893139712551903"><ele>127.0</ele><time>2026-04-19T08:18:00Z</time></trkpt><trkpt lat="42.09629116858362" lon="11.893131114652654"><ele>126.0</ele><time>2026-04-19T08:18:01Z</time></trkpt><trkpt lat="42.0961996309342" lon="11.89310800932509"><ele>128.8</ele><time>2026-04-19T08:18:02Z</time></trkpt><trkpt lat="42.09613099045406" lon="11.893077452116176"><ele>131.6</ele><time>2026-04-19T08:18:03Z</time></trkpt><trkpt lat="42.096048154359316" lon="11.892960934231002"><ele>134.4</ele><time>2026-04-19T08:18:05Z</time></trkpt><trkpt lat="42.09603916576593" lon="11.89281938143953"><ele>137.2</ele><time>2026-04-19T08:18:07Z</time></trkpt><trkpt lat="42.09600561127823" lon="11.892694686319484"><ele>140.0</ele><time>2026-04-19T08:18:09Z</time></trkpt><trkpt lat="42.095963332749186" lon="11.892604543330334"><ele>138.0</ele><time>2026-04-19T08:18:13Z</time></trkpt><trkpt lat="42.09589448506546" lon="11.892555215547608"><ele>136.0</ele><time>2026-04-19T08:18:16Z</time></trkpt><trkpt lat="42.09585037412162" lon="11.892469722043362"><ele>134.0</ele><time>2026-04-19T08:18:18Z</time></trkpt><trkpt lat="42.095757631439035" lon="11.892366393726364"><ele>132.0</ele><time>2026-04-19T08:18:20Z</time></trkpt><trkpt lat="42.095666100409986" lon="11.892325630497778"><ele>130.0</ele><time>2026-04-19T08:18:21Z</time></trkpt><trkpt lat="42.095591217215315" lon="11.892272294330944"><ele>133.2857142857143</ele><time>2026-04-19T08:18:22Z</time></trkpt><trkpt lat="42.09553445370749" lon="11.892218434242182"><ele>136.57142857142858</ele><time>2026-04-19T08:18:23Z</time></trkpt><trkpt lat="42.09549552420455" lon="11.892124612675385"><ele>139.85714285714286</ele><time>2026-04-19T08:18:24Z</time></trkpt><trkpt lat="42.09545399215338" lon="11.892046988419468"><ele>143.14285714285717</ele><time>2026-04-19T08:18:25Z</time></trkpt><trkpt lat="42.09538828192655" lon="11.891978291685371"><ele>146.42857142857144</ele><time>2026-04-19T08:18:26Z</time></trkpt><trkpt lat="42.095333931015034" lon="11.891910751269885"><ele>149.71428571428572</ele><time>2026-04-19T08:18:27Z</time></trkpt><trkpt lat="42.09528580031519" lon="11.891847658419728"><ele>153.0</ele><time>2026-04-19T08:18:28Z</time></trkpt><trkpt lat="42.095226797132185" lon="11.891798434814634"><ele>152.5</ele><time>2026-04-19T08:18:29Z</time></trkpt><trkpt lat="42.095124312536996" lon="11.89174783378364"><ele>152.0</ele><time>2026-04-19T08:18:31Z</time></trkpt><trkpt lat="42.095011329956094" lon="11.89169558184319"><ele>151.5</ele><time>2026-04-19T08:18:33Z</time></trkpt><trkpt lat="42.09487830423239" lon="11.891645603126003"><ele>151.0</ele><time>2026-04-19T08:18:35Z</time></trkpt><trkpt lat="42.094767708767286" lon="11.891617589680902"><ele>151.0</ele><time>2026-04-19T08:18:37Z</time></trkpt><trkpt lat="42.09468570776755" lon="11.891560285097038"><ele>151.0</ele><time>2026-04-19T08:18:39Z</time></trkpt><trkpt lat="42.09457969276234" lon="11.891265123249209"><ele>151.0</ele><time>2026-04-19T08:18:48Z</time></trkpt><trkpt lat="42.0944836621255" lon="11.891172920219969"><ele>151.00000000000003</ele><time>2026-04-19T08:18:50Z</time></trkpt><trkpt lat="42.09441484878654" lon="11.891129601234148"><ele>151.0</ele><time>2026-04-19T08:18:51Z</time></trkpt><trkpt lat="42.094342951675955" lon="11.891092545385618"><ele>151.0</ele><time>2026-04-19T08:18:52Z</time></trkpt><trkpt lat="42.09426526604867" lon="11.891065238862364"><ele>151.0</ele><time>2026-04-19T08:18:53Z</time></trkpt><trkpt lat="42.09419831522827" lon="11.891025799390453"><ele>151.0</ele><time>2026-04-19T08:18:54Z</time></trkpt><trkpt lat="42.094139777832446" lon="11.890983268699262"><ele>151.00000000000003</ele><time>2026-04-19T08:18:55Z</time></trkpt><trkpt lat="42.09407692158043" lon="11.89093176692975"><ele>151.0</ele><time>2026-04-19T08:18:56Z</time></trkpt><trkpt lat="42.094019132546684" lon="11.890869359715365"><ele>150.8</ele><time>2026-04-19T08:18:57Z</time></trkpt><trkpt lat="42.093962927366704" lon="11.890807497820752"><ele>150.6</ele><time>2026-04-19T08:18:58Z</time></trkpt><trkpt lat="42.093896329084174" lon="11.890713961518333"><ele>150.4</ele><time>2026-04-19T08:18:59.999Z</time></trkpt><trkpt lat="42.09383376012537" lon="11.890632764573738"><ele>150.2</ele><time>2026-04-19T08:19:01.999Z</time></trkpt><trkpt lat="42.093774430268425" lon="11.890567185963224"><ele>150.0</ele><time>2026-04-19T08:19:03.999Z</time></trkpt><trkpt lat="42.093677709362986" lon="11.890473236913284"><ele>150.0</ele><time>2026-04-19T08:19:05.999Z</time></trkpt><trkpt lat="42.09361940018177" lon="11.890418449700578"><ele>150.0</ele><time>2026-04-19T08:19:06.999Z</time></trkpt><trkpt lat="42.093515402049775" lon="11.890356472617455"><ele>150.0</ele><time>2026-04-19T08:19:08.999Z</time></trkpt><trkpt lat="42.09344324713079" lon="11.89029682217039"><ele>150.0</ele><time>2026-04-19T08:19:10.999Z</time></trkpt><trkpt lat="42.09334862366009" lon="11.890202771841329"><ele>150.0</ele><time>2026-04-19T08:19:12.999Z</time></trkpt><trkpt lat="42.09323164702781" lon="11.890111556503555"><ele>148.4</ele><time>2026-04-19T08:19:14.999Z</time></trkpt><trkpt lat="42.093105258137044" lon="11.890043185266737"><ele>146.8</ele><time>2026-04-19T08:19:16.999Z</time></trkpt><trkpt lat="42.09304257198147" lon="11.890001688791102"><ele>145.2</ele><time>2026-04-19T08:19:17.999Z</time></trkpt><trkpt lat="42.09294717924451" lon="11.889950195425463"><ele>143.6</ele><time>2026-04-19T08:19:19.999Z</time></trkpt><trkpt lat="42.09283078407585" lon="11.889970497259513"><ele>142.0</ele><time>2026-04-19T08:19:21.999Z</time></trkpt><trkpt lat="42.092729842971615" lon="11.890057543000903"><ele>144.5</ele><time>2026-04-19T08:19:23.999Z</time></trkpt><trkpt lat="42.092625729206574" lon="11.890118412130551"><ele>147.0</ele><time>2026-04-19T08:19:25.999Z</time></trkpt><trkpt lat="42.09252846084188" lon="11.890155389544146"><ele>149.5</ele><time>2026-04-19T08:19:27.999Z</time></trkpt><trkpt lat="42.092463832387935" lon="11.890160682200877"><ele>152.0</ele><time>2026-04-19T08:19:28.999Z</time></trkpt><trkpt lat="42.092394515127665" lon="11.890133299391984"><ele>154.5</ele><time>2026-04-19T08:19:29.999Z</time></trkpt><trkpt lat="42.0923260238977" lon="11.890130732135244"><ele>157.0</ele><time>2026-04-19T08:19:30.999Z</time></trkpt><trkpt lat="42.09225198684228" lon="11.89011237794471"><ele>155.83333333333334</ele><time>2026-04-19T08:19:31.999Z</time></trkpt><trkpt lat="42.092180288279586" lon="11.890089324714253"><ele>154.66666666666669</ele><time>2026-04-19T08:19:32.999Z</time></trkpt><trkpt lat="42.092110940117294" lon="11.890060219721736"><ele>153.5</ele><time>2026-04-19T08:19:33.999Z</time></trkpt><trkpt lat="42.09204770254192" lon="11.890020007915094"><ele>152.33333333333334</ele><time>2026-04-19T08:19:34.999Z</time></trkpt><trkpt lat="42.09196003378996" lon="11.889984115645687"><ele>151.16666666666666</ele><time>2026-04-19T08:19:36.999Z</time></trkpt><trkpt lat="42.09187415030702" lon="11.889946606780885"><ele>150.0</ele><time>2026-04-19T08:19:38.999Z</time></trkpt><trkpt lat="42.09179510225626" lon="11.88988979483851"><ele>150.0</ele><time>2026-04-19T08:19:40.999Z</time></trkpt><trkpt lat="42.09180708998647" lon="11.889801816494842"><ele>150.0</ele><time>2026-04-19T08:19:42.999Z</time></trkpt><trkpt lat="42.09185220202187" lon="11.889670720303583"><ele>150.0</ele><time>2026-04-19T08:19:44.999Z</time></trkpt><trkpt lat="42.09181913705375" lon="11.889503938090638"><ele>150.0</ele><time>2026-04-19T08:19:46.999Z</time></trkpt><trkpt lat="42.09178061301142" lon="11.889341097931538"><ele>150.0</ele><time>2026-04-19T08:19:48.999Z</time></trkpt><trkpt lat="42.09175250434648" lon="11.889244385334703"><ele>149.0</ele><time>2026-04-19T08:19:49.999Z</time></trkpt><trkpt lat="42.09170821851243" lon="11.889163947123047"><ele>148.0</ele><time>2026-04-19T08:19:50.999Z</time></trkpt><trkpt lat="42.09167959992493" lon="11.88906382418727"><ele>147.0</ele><time>2026-04-19T08:19:51.999Z</time></trkpt><trkpt lat="42.09166248279115" lon="11.888976537759941"><ele>146.0</ele><time>2026-04-19T08:19:52.999Z</time></trkpt><trkpt lat="42.09165469439455" lon="11.888876956185449"><ele>145.0</ele><time>2026-04-19T08:19:53.999Z</time></trkpt><trkpt lat="42.09162715859923" lon="11.888759123145142"><ele>144.0</ele><time>2026-04-19T08:19:54.999Z</time></trkpt><trkpt lat="42.09158197010269" lon="11.888635972415168"><ele>146.0</ele><time>2026-04-19T08:19:55.999Z</time></trkpt><trkpt lat="42.09154880471944" lon="11.88853213158337"><ele>148.0</ele><time>2026-04-19T08:19:56.999Z</time></trkpt><trkpt lat="42.09150899600553" lon="11.888441799116531"><ele>150.0</ele><time>2026-04-19T08:19:57.999Z</time></trkpt><trkpt lat="42.091455000118046" lon="11.888354901709729"><ele>152.0</ele><time>2026-04-19T08:19:58.999Z</time></trkpt><trkpt lat="42.09140020437565" lon="11.888280205462706"><ele>154.0</ele><time>2026-04-19T08:19:59.999Z</time></trkpt><trkpt lat="42.0913448947341" lon="11.888222216233125"><ele>156.0</ele><time>2026-04-19T08:20:00.999Z</time></trkpt><trkpt lat="42.09128831117508" lon="11.888178054936695"><ele>156.0</ele><time>2026-04-19T08:20:01.999Z</time></trkpt><trkpt lat="42.09122604649246" lon="11.888129619808016"><ele>156.0</ele><time>2026-04-19T08:20:02.999Z</time></trkpt><trkpt lat="42.09116606720564" lon="11.888077093187942"><ele>156.0</ele><time>2026-04-19T08:20:03.999Z</time></trkpt><trkpt lat="42.09111250339742" lon="11.888029719477567"><ele>156.0</ele><time>2026-04-19T08:20:04.999Z</time></trkpt><trkpt lat="42.09103226941583" lon="11.887981427657303"><ele>156.0</ele><time>2026-04-19T08:20:07Z</time></trkpt><trkpt lat="42.090959170229105" lon="11.887982815074974"><ele>156.0</ele><time>2026-04-19T08:20:10Z</time></trkpt><trkpt lat="42.09091119003007" lon="11.887905466689729"><ele>156.0</ele><time>2026-04-19T08:20:21Z</time></trkpt><trkpt lat="42.0908595650757" lon="11.887806598601262"><ele>156.0</ele><time>2026-04-19T08:20:24Z</time></trkpt><trkpt lat="42.0908705789617" lon="11.88769768386703"><ele>156.0</ele><time>2026-04-19T08:20:28Z</time></trkpt><trkpt lat="42.090844741386356" lon="11.88760994496627"><ele>156.0</ele><time>2026-04-19T08:20:31Z</time></trkpt><trkpt lat="42.090791004197754" lon="11.887518261536602"><ele>156.0</ele><time>2026-04-19T08:20:33Z</time></trkpt><trkpt lat="42.09074823661976" lon="11.887442103796854"><ele>156.0</ele><time>2026-04-19T08:20:35Z</time></trkpt><trkpt lat="42.09071449367765" lon="11.88736980372792"><ele>156.0</ele><time>2026-04-19T08:20:38Z</time></trkpt><trkpt lat="42.090668249554604" lon="11.88726327188225"><ele>153.5</ele><time>2026-04-19T08:20:42Z</time></trkpt><trkpt lat="42.09061887255091" lon="11.887152667843079"><ele>151.0</ele><time>2026-04-19T08:20:45Z</time></trkpt><trkpt lat="42.090589584954316" lon="11.887075662643223"><ele>148.5</ele><time>2026-04-19T08:20:47Z</time></trkpt><trkpt lat="42.090549114659076" lon="11.886997777638012"><ele>146.0</ele><time>2026-04-19T08:20:50Z</time></trkpt><trkpt lat="42.09052855126779" lon="11.886915091361185"><ele>143.5</ele><time>2026-04-19T08:20:54Z</time></trkpt><trkpt lat="42.09048775302159" lon="11.88680340545666"><ele>141.0</ele><time>2026-04-19T08:20:57Z</time></trkpt><trkpt lat="42.09044585726537" lon="11.886713841913815"><ele>136.2</ele><time>2026-04-19T08:20:59Z</time></trkpt><trkpt lat="42.09045148371799" lon="11.886573452380778"><ele>131.39999999999998</ele><time>2026-04-19T08:21:03Z</time></trkpt><trkpt lat="42.09040273919515" lon="11.886479182581468"><ele>126.6</ele><time>2026-04-19T08:21:04Z</time></trkpt><trkpt lat="42.09035082381579" lon="11.88637348247313"><ele>121.8</ele><time>2026-04-19T08:21:05Z</time></trkpt><trkpt lat="42.09028841225422" lon="11.886264932353422"><ele>117.0</ele><time>2026-04-19T08:21:06Z</time></trkpt><trkpt lat="42.09024149251726" lon="11.886167673089636"><ele>117.0</ele><time>2026-04-19T08:21:07Z</time></trkpt><trkpt lat="42.09019487364757" lon="11.886089660027887"><ele>117.00000000000001</ele><time>2026-04-19T08:21:07.999Z</time></trkpt><trkpt lat="42.09015401690996" lon="11.886017120148306"><ele>117.0</ele><time>2026-04-19T08:21:08.999Z</time></trkpt><trkpt lat="42.09011618539335" lon="11.885933936502848"><ele>117.0</ele><time>2026-04-19T08:21:09.999Z</time></trkpt><trkpt lat="42.090092501525184" lon="11.885852850841621"><ele>117.00000000000001</ele><time>2026-04-19T08:21:10.999Z</time></trkpt><trkpt lat="42.090069969954406" lon="11.885761451357492"><ele>117.0</ele><time>2026-04-19T08:21:11.999Z</time></trkpt><trkpt lat="42.090037895731804" lon="11.885680721972287"><ele>117.0</ele><time>2026-04-19T08:21:12.999Z</time></trkpt><trkpt lat="42.09000980521041" lon="11.885601178893866"><ele>115.5</ele><time>2026-04-19T08:21:13.999Z</time></trkpt><trkpt lat="42.08994319426981" lon="11.88547599240107"><ele>114.0</ele><time>2026-04-19T08:21:15.999Z</time></trkpt><trkpt lat="42.08983099635294" lon="11.885273507550986"><ele>112.5</ele><time>2026-04-19T08:22:52Z</time></trkpt><trkpt lat="42.08970286359151" lon="11.88518281084082"><ele>111.0</ele><time>2026-04-19T08:22:54Z</time></trkpt><trkpt lat="42.08963544447316" lon="11.885147555411033"><ele>111.0</ele><time>2026-04-19T08:22:55Z</time></trkpt><trkpt lat="42.08956319608168" lon="11.885119799491775"><ele>111.0</ele><time>2026-04-19T08:22:56Z</time></trkpt><trkpt lat="42.089448551440704" lon="11.885091648677587"><ele>111.0</ele><time>2026-04-19T08:22:58Z</time></trkpt><trkpt lat="42.08933616150107" lon="11.885043705198667"><ele>111.0</ele><time>2026-04-19T08:23:00Z</time></trkpt><trkpt lat="42.08927287181477" lon="11.88499742547661"><ele>111.0</ele><time>2026-04-19T08:23:01Z</time></trkpt><trkpt lat="42.08916678612617" lon="11.884916731200066"><ele>112.0</ele><time>2026-04-19T08:23:03Z</time></trkpt><trkpt lat="42.089067151262064" lon="11.88478868643715"><ele>113.0</ele><time>2026-04-19T08:23:05Z</time></trkpt><trkpt lat="42.08901421179117" lon="11.88469525655533"><ele>114.0</ele><time>2026-04-19T08:23:06Z</time></trkpt><trkpt lat="42.08893543989769" lon="11.884586641027575"><ele>115.0</ele><time>2026-04-19T08:23:07Z</time></trkpt><trkpt lat="42.08884675668989" lon="11.884486432117514"><ele>115.0</ele><time>2026-04-19T08:23:08Z</time></trkpt><trkpt lat="42.08874197799891" lon="11.884384811521736"><ele>115.0</ele><time>2026-04-19T08:23:09Z</time></trkpt><trkpt lat="42.08862602435859" lon="11.884291286131335"><ele>115.0</ele><time>2026-04-19T08:23:10Z</time></trkpt><trkpt lat="42.08852014409594" lon="11.884217710465338"><ele>115.0</ele><time>2026-04-19T08:23:11Z</time></trkpt><trkpt lat="42.08841947981452" lon="11.884144503728127"><ele>113.6</ele><time>2026-04-19T08:23:12Z</time></trkpt><trkpt lat="42.08831885073628" lon="11.884081663583698"><ele>112.2</ele><time>2026-04-19T08:23:13Z</time></trkpt><trkpt lat="42.08822035675837" lon="11.884020962590789"><ele>110.80000000000001</ele><time>2026-04-19T08:23:14Z</time></trkpt><trkpt lat="42.08812244334523" lon="11.883961417138108"><ele>109.4</ele><time>2026-04-19T08:23:15Z</time></trkpt><trkpt lat="42.088031331106805" lon="11.883903992531142"><ele>108.0</ele><time>2026-04-19T08:23:15.999Z</time></trkpt><trkpt lat="42.08793304599374" lon="11.883882790456857"><ele>108.0</ele><time>2026-04-19T08:23:16.999Z</time></trkpt><trkpt lat="42.0878249063899" lon="11.883892000735601"><ele>108.00000000000001</ele><time>2026-04-19T08:23:17.999Z</time></trkpt><trkpt lat="42.08771966954707" lon="11.883896125208532"><ele>108.00000000000001</ele><time>2026-04-19T08:23:18.999Z</time></trkpt><trkpt lat="42.08761865762662" lon="11.883889110665514"><ele>108.0</ele><time>2026-04-19T08:23:19.999Z</time></trkpt><trkpt lat="42.087516221622124" lon="11.883861180140272"><ele>108.0</ele><time>2026-04-19T08:23:20.999Z</time></trkpt><trkpt lat="42.08741698019125" lon="11.88381825501726"><ele>107.80000000000001</ele><time>2026-04-19T08:23:21.999Z</time></trkpt><trkpt lat="42.087322816645255" lon="11.883783145000562"><ele>107.60000000000001</ele><time>2026-04-19T08:23:22.999Z</time></trkpt><trkpt lat="42.08722555209866" lon="11.883759222448093"><ele>107.39999999999999</ele><time>2026-04-19T08:23:23.999Z</time></trkpt><trkpt lat="42.08711644308452" lon="11.883761455008777"><ele>107.19999999999999</ele><time>2026-04-19T08:23:24.999Z</time></trkpt><trkpt lat="42.08700267866927" lon="11.883778066070247"><ele>107.0</ele><time>2026-04-19T08:23:25.999Z</time></trkpt><trkpt lat="42.086900386661895" lon="11.883786084275737"><ele>107.0</ele><time>2026-04-19T08:23:26.999Z</time></trkpt><trkpt lat="42.08679556746437" lon="11.88378142107422"><ele>106.99999999999999</ele><time>2026-04-19T08:23:27.999Z</time></trkpt><trkpt lat="42.086682419278006" lon="11.883761757716412"><ele>106.99999999999999</ele><time>2026-04-19T08:23:28.999Z</time></trkpt><trkpt lat="42.08657288238289" lon="11.883729826392884"><ele>107.0</ele><time>2026-04-19T08:23:29.999Z</time></trkpt><trkpt lat="42.08647040866187" lon="11.883709078636285"><ele>107.0</ele><time>2026-04-19T08:23:30.999Z</time></trkpt><trkpt lat="42.08637049249951" lon="11.883679755207954"><ele>106.39999999999999</ele><time>2026-04-19T08:23:31.999Z</time></trkpt><trkpt lat="42.08626096549867" lon="11.88364943107561"><ele>105.79999999999998</ele><time>2026-04-19T08:23:32.999Z</time></trkpt><trkpt lat="42.0861574473654" lon="11.883632598723445"><ele>105.2</ele><time>2026-04-19T08:23:33.999Z</time></trkpt><trkpt lat="42.08605995392818" lon="11.88365848482041"><ele>104.6</ele><time>2026-04-19T08:23:34.999Z</time></trkpt><trkpt lat="42.08596945033934" lon="11.883700147671611"><ele>104.0</ele><time>2026-04-19T08:23:35.999Z</time></trkpt><trkpt lat="42.08587877327057" lon="11.883747740005337"><ele>104.0</ele><time>2026-04-19T08:23:36.999Z</time></trkpt><trkpt lat="42.085790817121335" lon="11.883810678940572"><ele>104.0</ele><time>2026-04-19T08:23:37.999Z</time></trkpt><trkpt lat="42.08569314544624" lon="11.883787324737979"><ele>104.0</ele><time>2026-04-19T08:23:38.999Z</time></trkpt><trkpt lat="42.08560118451558" lon="11.883738560025344"><ele>104.0</ele><time>2026-04-19T08:23:39.999Z</time></trkpt><trkpt lat="42.085500940940655" lon="11.883686478595097"><ele>104.0</ele><time>2026-04-19T08:23:40.999Z</time></trkpt><trkpt lat="42.085403001299575" lon="11.883668121775626"><ele>103.33333333333333</ele><time>2026-04-19T08:23:41.999Z</time></trkpt><trkpt lat="42.08531002850675" lon="11.883692408878865"><ele>102.66666666666666</ele><time>2026-04-19T08:23:42.999Z</time></trkpt><trkpt lat="42.085220237427315" lon="11.883738099114558"><ele>102.0</ele><time>2026-04-19T08:23:43.999Z</time></trkpt><trkpt lat="42.08515318351943" lon="11.883770378811906"><ele>101.33333333333334</ele><time>2026-04-19T08:23:44.999Z</time></trkpt><trkpt lat="42.08504837339126" lon="11.883745461387987"><ele>100.66666666666667</ele><time>2026-04-19T08:23:46.999Z</time></trkpt><trkpt lat="42.08500563297402" lon="11.883681371047668"><ele>100.0</ele><time>2026-04-19T08:23:47.999Z</time></trkpt><trkpt lat="42.084929196714356" lon="11.883608731108174"><ele>99.00000000000001</ele><time>2026-04-19T08:23:49.999Z</time></trkpt><trkpt lat="42.084839791327276" lon="11.883500589563072"><ele>98.0</ele><time>2026-04-19T08:23:51.999Z</time></trkpt><trkpt lat="42.08480525772981" lon="11.88342397693781"><ele>97.0</ele><time>2026-04-19T08:23:52.999Z</time></trkpt><trkpt lat="42.084774170434" lon="11.883348004150776"><ele>96.0</ele><time>2026-04-19T08:23:53.999Z</time></trkpt><trkpt lat="42.084713994724346" lon="11.883252292344476"><ele>95.0</ele><time>2026-04-19T08:23:55.999Z</time></trkpt><trkpt lat="42.08470330459324" lon="11.883156638923586"><ele>94.0</ele><time>2026-04-19T08:23:59.999Z</time></trkpt><trkpt lat="42.08473617354375" lon="11.883062476486526"><ele>93.33333333333333</ele><time>2026-04-19T08:24:03.999Z</time></trkpt><trkpt lat="42.08478170043308" lon="11.882981903170315"><ele>92.66666666666666</ele><time>2026-04-19T08:24:05.999Z</time></trkpt><trkpt lat="42.08483699666843" lon="11.882902890155565"><ele>92.0</ele><time>2026-04-19T08:24:07.999Z</time></trkpt><trkpt lat="42.08484023286632" lon="11.88278059211961"><ele>91.33333333333333</ele><time>2026-04-19T08:24:09.999Z</time></trkpt><trkpt lat="42.084844600479386" lon="11.882649317284306"><ele>90.66666666666667</ele><time>2026-04-19T08:24:11.999Z</time></trkpt><trkpt lat="42.084865699497705" lon="11.882517370144113"><ele>90.0</ele><time>2026-04-19T08:24:13.999Z</time></trkpt><trkpt lat="42.08492130701811" lon="11.882374045378894"><ele>90.2</ele><time>2026-04-19T08:24:15.999Z</time></trkpt><trkpt lat="42.084977936823854" lon="11.882263446153202"><ele>90.4</ele><time>2026-04-19T08:24:18Z</time></trkpt><trkpt lat="42.085021510206154" lon="11.882175802117649"><ele>90.6</ele><time>2026-04-19T08:24:19Z</time></trkpt><trkpt lat="42.085055001142756" lon="11.882056459126414"><ele>90.8</ele><time>2026-04-19T08:24:20Z</time></trkpt><trkpt lat="42.08507696273377" lon="11.881917971458721"><ele>91.0</ele><time>2026-04-19T08:24:21Z</time></trkpt><trkpt lat="42.085098539818155" lon="11.881760142877416"><ele>91.14285714285714</ele><time>2026-04-19T08:24:22Z</time></trkpt><trkpt lat="42.08512497076387" lon="11.881638125388246"><ele>91.28571428571428</ele><time>2026-04-19T08:24:23Z</time></trkpt><trkpt lat="42.0851499160713" lon="11.881541837452758"><ele>91.42857142857143</ele><time>2026-04-19T08:24:24Z</time></trkpt><trkpt lat="42.08517174491906" lon="11.881449985127617"><ele>91.57142857142857</ele><time>2026-04-19T08:24:25Z</time></trkpt><trkpt lat="42.08517838478276" lon="11.881356549827528"><ele>91.71428571428571</ele><time>2026-04-19T08:24:26Z</time></trkpt><trkpt lat="42.08517945896379" lon="11.881267471686101"><ele>91.85714285714286</ele><time>2026-04-19T08:24:27Z</time></trkpt><trkpt lat="42.0851694940781" lon="11.881175334452312"><ele>92.0</ele><time>2026-04-19T08:24:28Z</time></trkpt><trkpt lat="42.085178941388335" lon="11.881077798628809"><ele>92.0</ele><time>2026-04-19T08:24:29Z</time></trkpt><trkpt lat="42.08523280314038" lon="11.880932962394331"><ele>92.0</ele><time>2026-04-19T08:24:31Z</time></trkpt><trkpt lat="42.08526901798498" lon="11.880857152352506"><ele>92.0</ele><time>2026-04-19T08:24:32Z</time></trkpt><trkpt lat="42.08531963780593" lon="11.880778730809539"><ele>92.0</ele><time>2026-04-19T08:24:33Z</time></trkpt><trkpt lat="42.0853647965678" lon="11.88066454703532"><ele>92.0</ele><time>2026-04-19T08:24:34Z</time></trkpt><trkpt lat="42.08540536742407" lon="11.880552753429575"><ele>93.75</ele><time>2026-04-19T08:24:35Z</time></trkpt><trkpt lat="42.085445565480875" lon="11.880402640229034"><ele>95.5</ele><time>2026-04-19T08:24:36Z</time></trkpt><trkpt lat="42.085546446916425" lon="11.880266492052037"><ele>97.25</ele><time>2026-04-19T08:24:38Z</time></trkpt><trkpt lat="42.08562044874885" lon="11.880177969319334"><ele>99.0</ele><time>2026-04-19T08:24:39Z</time></trkpt><trkpt lat="42.08570709723813" lon="11.88010283196673"><ele>101.83333333333333</ele><time>2026-04-19T08:24:40Z</time></trkpt><trkpt lat="42.08579617751583" lon="11.880003447872078"><ele>104.66666666666666</ele><time>2026-04-19T08:24:41Z</time></trkpt><trkpt lat="42.08586193914298" lon="11.879905117613298"><ele>107.5</ele><time>2026-04-19T08:24:42Z</time></trkpt><trkpt lat="42.08589636014463" lon="11.879823603792277"><ele>110.33333333333333</ele><time>2026-04-19T08:24:43Z</time></trkpt><trkpt lat="42.08590208799522" lon="11.879713224873719"><ele>113.16666666666666</ele><time>2026-04-19T08:24:44Z</time></trkpt><trkpt lat="42.085893453948124" lon="11.879603473188334"><ele>116.0</ele><time>2026-04-19T08:24:45Z</time></trkpt><trkpt lat="42.085885388229" lon="11.87947155596016"><ele>115.99999999999999</ele><time>2026-04-19T08:24:46Z</time></trkpt><trkpt lat="42.08587127583972" lon="11.879352929167021"><ele>116.0</ele><time>2026-04-19T08:24:47Z</time></trkpt><trkpt lat="42.085853277011175" lon="11.879240886680124"><ele>116.0</ele><time>2026-04-19T08:24:48Z</time></trkpt><trkpt lat="42.085847550327664" lon="11.879126544709827"><ele>116.0</ele><time>2026-04-19T08:24:49Z</time></trkpt><trkpt lat="42.085860245589316" lon="11.879002155810547"><ele>115.99999999999999</ele><time>2026-04-19T08:24:50Z</time></trkpt><trkpt lat="42.08588738734186" lon="11.878876790745108"><ele>116.0</ele><time>2026-04-19T08:24:51Z</time></trkpt><trkpt lat="42.08591675681721" lon="11.878763184476426"><ele>118.19999999999999</ele><time>2026-04-19T08:24:52Z</time></trkpt><trkpt lat="42.085948509605004" lon="11.878647754544222"><ele>120.39999999999999</ele><time>2026-04-19T08:24:53Z</time></trkpt><trkpt lat="42.0859915130351" lon="11.878542944541511"><ele>122.6</ele><time>2026-04-19T08:24:54Z</time></trkpt><trkpt lat="42.08602507498684" lon="11.878444857796296"><ele>124.8</ele><time>2026-04-19T08:24:55Z</time></trkpt><trkpt lat="42.08606661613362" lon="11.87834481031133"><ele>127.0</ele><time>2026-04-19T08:24:56Z</time></trkpt><trkpt lat="42.08612145625262" lon="11.87819737785617"><ele>128.5</ele><time>2026-04-19T08:24:58Z</time></trkpt><trkpt lat="42.08614687521174" lon="11.878117186716965"><ele>130.0</ele><time>2026-04-19T08:24:59Z</time></trkpt><trkpt lat="42.08619106546405" lon="11.878030319087896"><ele>131.5</ele><time>2026-04-19T08:25:00Z</time></trkpt><trkpt lat="42.08625732570295" lon="11.877949885196378"><ele>133.0</ele><time>2026-04-19T08:25:01Z</time></trkpt><trkpt lat="42.08632334220656" lon="11.877853660448467"><ele>134.5</ele><time>2026-04-19T08:25:02Z</time></trkpt><trkpt lat="42.086381735590045" lon="11.877765634043893"><ele>136.0</ele><time>2026-04-19T08:25:03Z</time></trkpt><trkpt lat="42.08645117156116" lon="11.877676396091825"><ele>136.0</ele><time>2026-04-19T08:25:04Z</time></trkpt><trkpt lat="42.086519273806914" lon="11.877616163266051"><ele>136.0</ele><time>2026-04-19T08:25:05Z</time></trkpt><trkpt lat="42.086579980708166" lon="11.87757123100122"><ele>136.0</ele><time>2026-04-19T08:25:06Z</time></trkpt><trkpt lat="42.08666919166665" lon="11.87747541626886"><ele>136.0</ele><time>2026-04-19T08:25:08Z</time></trkpt><trkpt lat="42.08670985560686" lon="11.877389488807577"><ele>136.0</ele><time>2026-04-19T08:25:09Z</time></trkpt><trkpt lat="42.08676879932343" lon="11.877314551522247"><ele>136.0</ele><time>2026-04-19T08:25:10Z</time></trkpt><trkpt lat="42.086842572203665" lon="11.877253168372055"><ele>138.5</ele><time>2026-04-19T08:25:11Z</time></trkpt><trkpt lat="42.08691552269479" lon="11.877191199586472"><ele>141.0</ele><time>2026-04-19T08:25:12Z</time></trkpt><trkpt lat="42.08697772211375" lon="11.877136755536938"><ele>143.5</ele><time>2026-04-19T08:25:13Z</time></trkpt><trkpt lat="42.087021094615714" lon="11.87703493888013"><ele>146.0</ele><time>2026-04-19T08:25:14Z</time></trkpt><trkpt lat="42.087041882512956" lon="11.87694355474553"><ele>148.5</ele><time>2026-04-19T08:25:15Z</time></trkpt><trkpt lat="42.08707828297003" lon="11.876833148018019"><ele>151.0</ele><time>2026-04-19T08:25:16Z</time></trkpt><trkpt lat="42.087096503319906" lon="11.876723329033034"><ele>152.5</ele><time>2026-04-19T08:25:17Z</time></trkpt><trkpt lat="42.08711110003377" lon="11.876627611375001"><ele>154.0</ele><time>2026-04-19T08:25:18Z</time></trkpt><trkpt lat="42.08712253618367" lon="11.876533151202096"><ele>155.5</ele><time>2026-04-19T08:25:19Z</time></trkpt><trkpt lat="42.087151780151316" lon="11.87641886302861"><ele>157.0</ele><time>2026-04-19T08:25:19.999Z</time></trkpt><trkpt lat="42.087201118084785" lon="11.87631479298619"><ele>158.5</ele><time>2026-04-19T08:25:20.999Z</time></trkpt><trkpt lat="42.08726499194476" lon="11.876211416089875"><ele>160.0</ele><time>2026-04-19T08:25:21.999Z</time></trkpt><trkpt lat="42.0873391145176" lon="11.876152599485748"><ele>160.0</ele><time>2026-04-19T08:25:22.999Z</time></trkpt><trkpt lat="42.087360353563845" lon="11.87605426534125"><ele>160.0</ele><time>2026-04-19T08:25:23.999Z</time></trkpt><trkpt lat="42.08738800909471" lon="11.875943602923963"><ele>160.0</ele><time>2026-04-19T08:25:24.999Z</time></trkpt><trkpt lat="42.08744150991211" lon="11.875861599167372"><ele>160.0</ele><time>2026-04-19T08:25:25.999Z</time></trkpt><trkpt lat="42.087513911184075" lon="11.875755237063938"><ele>160.0</ele><time>2026-04-19T08:25:26.999Z</time></trkpt><trkpt lat="42.08756235683573" lon="11.875676251348505"><ele>160.0</ele><time>2026-04-19T08:25:27.999Z</time></trkpt><trkpt lat="42.08758602564813" lon="11.875593526164717"><ele>161.83333333333334</ele><time>2026-04-19T08:25:28.999Z</time></trkpt><trkpt lat="42.0875939559549" lon="11.87549610666342"><ele>163.66666666666669</ele><time>2026-04-19T08:25:29.999Z</time></trkpt><trkpt lat="42.087619381628876" lon="11.87541216587489"><ele>165.5</ele><time>2026-04-19T08:25:30.999Z</time></trkpt><trkpt lat="42.08765658384762" lon="11.87532096053276"><ele>167.33333333333334</ele><time>2026-04-19T08:25:31.999Z</time></trkpt><trkpt lat="42.087688107383215" lon="11.87524535974514"><ele>169.16666666666666</ele><time>2026-04-19T08:25:32.999Z</time></trkpt><trkpt lat="42.087748612352804" lon="11.875167631331179"><ele>171.0</ele><time>2026-04-19T08:25:33.999Z</time></trkpt><trkpt lat="42.0878375738906" lon="11.875094340007905"><ele>172.0</ele><time>2026-04-19T08:25:34.999Z</time></trkpt><trkpt lat="42.08793077401116" lon="11.875044135054116"><ele>173.0</ele><time>2026-04-19T08:25:35.999Z</time></trkpt><trkpt lat="42.08800883021477" lon="11.874973791451815"><ele>174.0</ele><time>2026-04-19T08:25:36.999Z</time></trkpt><trkpt lat="42.08809846473088" lon="11.874909483666292"><ele>175.0</ele><time>2026-04-19T08:25:37.999Z</time></trkpt><trkpt lat="42.08819438954648" lon="11.8748486985654"><ele>176.0</ele><time>2026-04-19T08:25:38.999Z</time></trkpt><trkpt lat="42.08829172709374" lon="11.874766732672098"><ele>176.0</ele><time>2026-04-19T08:25:39.999Z</time></trkpt><trkpt lat="42.088371016805105" lon="11.874675776509203"><ele>176.0</ele><time>2026-04-19T08:25:40.999Z</time></trkpt><trkpt lat="42.088455658244946" lon="11.87456793622173"><ele>176.0</ele><time>2026-04-19T08:25:41.999Z</time></trkpt><trkpt lat="42.08852944321169" lon="11.874469751774852"><ele>176.0</ele><time>2026-04-19T08:25:42.999Z</time></trkpt><trkpt lat="42.08860150714828" lon="11.874377228728246"><ele>176.0</ele><time>2026-04-19T08:25:43.999Z</time></trkpt><trkpt lat="42.08866713575916" lon="11.874275389052519"><ele>178.66666666666666</ele><time>2026-04-19T08:25:44.999Z</time></trkpt><trkpt lat="42.088712461830724" lon="11.874174299081393"><ele>181.33333333333331</ele><time>2026-04-19T08:25:45.999Z</time></trkpt><trkpt lat="42.08878617816052" lon="11.874094247009364"><ele>184.0</ele><time>2026-04-19T08:25:46.999Z</time></trkpt><trkpt lat="42.08887229443133" lon="11.874041440722431"><ele>186.66666666666666</ele><time>2026-04-19T08:25:47.999Z</time></trkpt><trkpt lat="42.08894933565188" lon="11.873988547885316"><ele>189.33333333333334</ele><time>2026-04-19T08:25:48.999Z</time></trkpt><trkpt lat="42.08902687987355" lon="11.873940110272898"><ele>192.0</ele><time>2026-04-19T08:25:49.999Z</time></trkpt><trkpt lat="42.089091068292575" lon="11.873873585263734"><ele>191.39999999999998</ele><time>2026-04-19T08:25:50.999Z</time></trkpt><trkpt lat="42.08913184158607" lon="11.873752922308821"><ele>190.79999999999998</ele><time>2026-04-19T08:25:51.999Z</time></trkpt><trkpt lat="42.08917582817814" lon="11.873633722954096"><ele>190.2</ele><time>2026-04-19T08:25:52.999Z</time></trkpt><trkpt lat="42.08921722868268" lon="11.8734865773592"><ele>189.6</ele><time>2026-04-19T08:25:53.999Z</time></trkpt><trkpt lat="42.089274859724284" lon="11.873367109300977"><ele>189.0</ele><time>2026-04-19T08:25:54.999Z</time></trkpt><trkpt lat="42.08934634437032" lon="11.873259509111147"><ele>191.79999999999998</ele><time>2026-04-19T08:25:55.999Z</time></trkpt><trkpt lat="42.08940895749691" lon="11.873154370332987"><ele>194.6</ele><time>2026-04-19T08:25:56.999Z</time></trkpt><trkpt lat="42.08946929806697" lon="11.873051618531386"><ele>197.4</ele><time>2026-04-19T08:25:57.999Z</time></trkpt><trkpt lat="42.08951803978054" lon="11.872912604988304"><ele>200.2</ele><time>2026-04-19T08:25:58.999Z</time></trkpt><trkpt lat="42.08956488121879" lon="11.872780338750678"><ele>203.0</ele><time>2026-04-19T08:25:59.999Z</time></trkpt><trkpt lat="42.089618268058494" lon="11.872644173155747"><ele>205.66666666666669</ele><time>2026-04-19T08:26:00.999Z</time></trkpt><trkpt lat="42.08965995869354" lon="11.872526714664021"><ele>208.33333333333334</ele><time>2026-04-19T08:26:01.999Z</time></trkpt><trkpt lat="42.08970655394791" lon="11.872431849947057"><ele>211.0</ele><time>2026-04-19T08:26:02.999Z</time></trkpt><trkpt lat="42.08979177998993" lon="11.872365195910598"><ele>213.66666666666669</ele><time>2026-04-19T08:26:03.999Z</time></trkpt><trkpt lat="42.08983541822927" lon="11.87229335090698"><ele>216.33333333333334</ele><time>2026-04-19T08:26:04.999Z</time></trkpt><trkpt lat="42.08988461040862" lon="11.872233226559405"><ele>219.0</ele><time>2026-04-19T08:26:06.999Z</time></trkpt><trkpt lat="42.08978148619157" lon="11.872035267442277"><ele>219.0</ele><time>2026-04-19T08:26:54Z</time></trkpt><trkpt lat="42.0897283542249" lon="11.871971555609349"><ele>218.99999999999997</ele><time>2026-04-19T08:26:55Z</time></trkpt><trkpt lat="42.08966908813824" lon="11.871890134976098"><ele>218.99999999999997</ele><time>2026-04-19T08:26:57Z</time></trkpt><trkpt lat="42.089734013062944" lon="11.871835248379544"><ele>219.0</ele><time>2026-04-19T08:26:59Z</time></trkpt><trkpt lat="42.08981582149351" lon="11.871771195077248"><ele>219.0</ele><time>2026-04-19T08:27:01Z</time></trkpt><trkpt lat="42.08987403121557" lon="11.871613265872295"><ele>219.39999999999998</ele><time>2026-04-19T08:27:03Z</time></trkpt><trkpt lat="42.08990642036433" lon="11.871530687830699"><ele>219.79999999999998</ele><time>2026-04-19T08:27:04Z</time></trkpt><trkpt lat="42.08994419328526" lon="11.871364597051633"><ele>220.20000000000002</ele><time>2026-04-19T08:27:06Z</time></trkpt><trkpt lat="42.089958575295064" lon="11.871273831693557"><ele>220.60000000000002</ele><time>2026-04-19T08:27:07Z</time></trkpt><trkpt lat="42.089968379234875" lon="11.871183944572778"><ele>221.0</ele><time>2026-04-19T08:27:08Z</time></trkpt><trkpt lat="42.08999174360418" lon="11.871028601360834"><ele>221.00000000000003</ele><time>2026-04-19T08:27:10Z</time></trkpt><trkpt lat="42.0900326766995" lon="11.870944583731633"><ele>221.0</ele><time>2026-04-19T08:27:12Z</time></trkpt><trkpt lat="42.09007445530175" lon="11.870853552486638"><ele>221.0</ele><time>2026-04-19T08:27:14Z</time></trkpt><trkpt lat="42.09009819831753" lon="11.87075983275521"><ele>221.0</ele><time>2026-04-19T08:27:17Z</time></trkpt><trkpt lat="42.09015113959359" lon="11.870651751323432"><ele>221.00000000000003</ele><time>2026-04-19T08:27:20Z</time></trkpt><trkpt lat="42.09018196163915" lon="11.870568481890299"><ele>221.0</ele><time>2026-04-19T08:27:22Z</time></trkpt><trkpt lat="42.090211663264846" lon="11.87045193900422"><ele>221.16666666666669</ele><time>2026-04-19T08:27:24.999Z</time></trkpt><trkpt lat="42.09023475628312" lon="11.870360811313848"><ele>221.33333333333334</ele><time>2026-04-19T08:27:25.999Z</time></trkpt><trkpt lat="42.090258110635084" lon="11.870275638873721"><ele>221.5</ele><time>2026-04-19T08:27:26.999Z</time></trkpt><trkpt lat="42.090291246091645" lon="11.870142248185632"><ele>221.66666666666669</ele><time>2026-04-19T08:27:28.999Z</time></trkpt><trkpt lat="42.09032334334726" lon="11.87004477528201"><ele>221.83333333333334</ele><time>2026-04-19T08:27:29.999Z</time></trkpt><trkpt lat="42.09034081405683" lon="11.869948907822193"><ele>222.0</ele><time>2026-04-19T08:27:30.999Z</time></trkpt><trkpt lat="42.09036081382489" lon="11.869867846986491"><ele>219.8</ele><time>2026-04-19T08:27:31.999Z</time></trkpt><trkpt lat="42.09038977409119" lon="11.86978997966796"><ele>217.6</ele><time>2026-04-19T08:27:32.999Z</time></trkpt><trkpt lat="42.09043555529264" lon="11.869632550510847"><ele>215.4</ele><time>2026-04-19T08:27:34.999Z</time></trkpt><trkpt lat="42.09045844864449" lon="11.869548183568888"><ele>213.20000000000002</ele><time>2026-04-19T08:27:35.999Z</time></trkpt><trkpt lat="42.09047677605933" lon="11.86937770580796"><ele>211.0</ele><time>2026-04-19T08:27:37.999Z</time></trkpt><trkpt lat="42.09048907065403" lon="11.869283584421183"><ele>208.33333333333331</ele><time>2026-04-19T08:27:38.999Z</time></trkpt><trkpt lat="42.090479829172644" lon="11.869161115760418"><ele>205.66666666666666</ele><time>2026-04-19T08:27:40.999Z</time></trkpt><trkpt lat="42.090480349741185" lon="11.86905850564775"><ele>203.0</ele><time>2026-04-19T08:27:42.999Z</time></trkpt><trkpt lat="42.09051238325551" lon="11.86896312387943"><ele>200.33333333333331</ele><time>2026-04-19T08:27:44.999Z</time></trkpt><trkpt lat="42.09059664566781" lon="11.868883092885774"><ele>197.66666666666666</ele><time>2026-04-19T08:27:47.999Z</time></trkpt><trkpt lat="42.09063359800849" lon="11.868794956378169"><ele>195.0</ele><time>2026-04-19T08:27:49.999Z</time></trkpt><trkpt lat="42.09064499164825" lon="11.868707785267226"><ele>195.0</ele><time>2026-04-19T08:27:51.999Z</time></trkpt><trkpt lat="42.09066086704879" lon="11.868617885846678"><ele>195.0</ele><time>2026-04-19T08:27:53.999Z</time></trkpt><trkpt lat="42.09069687913824" lon="11.868525123065409"><ele>195.0</ele><time>2026-04-19T08:27:55.999Z</time></trkpt><trkpt lat="42.09071607941939" lon="11.868369103811322"><ele>195.0</ele><time>2026-04-19T08:27:58.999Z</time></trkpt><trkpt lat="42.09074873272405" lon="11.868257250533107"><ele>195.0</ele><time>2026-04-19T08:28:00.999Z</time></trkpt><trkpt lat="42.090760117795" lon="11.868097331609265"><ele>189.0</ele><time>2026-04-19T08:28:02.999Z</time></trkpt><trkpt lat="42.09077072351225" lon="11.868009653243659"><ele>183.0</ele><time>2026-04-19T08:28:03.999Z</time></trkpt><trkpt lat="42.0907792727736" lon="11.867884032589021"><ele>177.0</ele><time>2026-04-19T08:28:05.999Z</time></trkpt><trkpt lat="42.090786349019425" lon="11.867727548050867"><ele>171.0</ele><time>2026-04-19T08:28:07.999Z</time></trkpt><trkpt lat="42.090795639935344" lon="11.867590479679736"><ele>165.0</ele><time>2026-04-19T08:28:09.999Z</time></trkpt><trkpt lat="42.09080177275115" lon="11.867485526831384"><ele>160.6</ele><time>2026-04-19T08:28:11.999Z</time></trkpt><trkpt lat="42.09081329500199" lon="11.867386193128391"><ele>156.2</ele><time>2026-04-19T08:28:13.999Z</time></trkpt><trkpt lat="42.09083597973151" lon="11.867273529330584"><ele>151.8</ele><time>2026-04-19T08:28:15.999Z</time></trkpt><trkpt lat="42.090850720286284" lon="11.86713463692986"><ele>147.4</ele><time>2026-04-19T08:28:17.999Z</time></trkpt><trkpt lat="42.090875683499796" lon="11.866996126999895"><ele>143.0</ele><time>2026-04-19T08:28:19.999Z</time></trkpt><trkpt lat="42.09089524639849" lon="11.866857071806093"><ele>139.83333333333331</ele><time>2026-04-19T08:28:21.999Z</time></trkpt><trkpt lat="42.09090652690889" lon="11.866747619301945"><ele>136.66666666666666</ele><time>2026-04-19T08:28:23.999Z</time></trkpt><trkpt lat="42.09095459651949" lon="11.866646319014833"><ele>133.5</ele><time>2026-04-19T08:28:26.999Z</time></trkpt><trkpt lat="42.091000617387714" lon="11.866552820834242"><ele>130.33333333333334</ele><time>2026-04-19T08:28:30Z</time></trkpt><trkpt lat="42.091043772925424" lon="11.86648052542769"><ele>127.16666666666667</ele><time>2026-04-19T08:28:34Z</time></trkpt><trkpt lat="42.09108200171174" lon="11.866389110127768"><ele>124.0</ele><time>2026-04-19T08:28:38Z</time></trkpt><trkpt lat="42.091075296554195" lon="11.866283688274946"><ele>124.0</ele><time>2026-04-19T08:28:41Z</time></trkpt><trkpt lat="42.09103570590017" lon="11.866207864316197"><ele>124.0</ele><time>2026-04-19T08:28:45Z</time></trkpt><trkpt lat="42.09083278943052" lon="11.866118202571634"><ele>124.0</ele><time>2026-04-19T08:30:09.999Z</time></trkpt><trkpt lat="42.09074071162299" lon="11.866034343352101"><ele>124.0</ele><time>2026-04-19T08:30:11.999Z</time></trkpt><trkpt lat="42.090632079701145" lon="11.865935046714036"><ele>122.0</ele><time>2026-04-19T08:30:13.999Z</time></trkpt><trkpt lat="42.09053930919468" lon="11.865865175509747"><ele>120.0</ele><time>2026-04-19T08:30:15.999Z</time></trkpt><trkpt lat="42.0904102913193" lon="11.865806338160796"><ele>118.0</ele><time>2026-04-19T08:30:17.999Z</time></trkpt><trkpt lat="42.09031978710502" lon="11.865767213159812"><ele>116.0</ele><time>2026-04-19T08:30:18.999Z</time></trkpt><trkpt lat="42.09026571590936" lon="11.865717260082516"><ele>114.0</ele><time>2026-04-19T08:30:19.999Z</time></trkpt><trkpt lat="42.090209658570494" lon="11.865653567245129"><ele>114.0</ele><time>2026-04-19T08:30:20.999Z</time></trkpt><trkpt lat="42.09015255044672" lon="11.8655842811399"><ele>114.0</ele><time>2026-04-19T08:30:21.999Z</time></trkpt><trkpt lat="42.09008154986429" lon="11.865522610673992"><ele>114.0</ele><time>2026-04-19T08:30:22.999Z</time></trkpt><trkpt lat="42.09001489151791" lon="11.865479147296364"><ele>114.0</ele><time>2026-04-19T08:30:23.999Z</time></trkpt><trkpt lat="42.089944207461464" lon="11.86543459092045"><ele>114.0</ele><time>2026-04-19T08:30:24.999Z</time></trkpt><trkpt lat="42.089873978972065" lon="11.865401245017765"><ele>114.0</ele><time>2026-04-19T08:30:25.999Z</time></trkpt><trkpt lat="42.08980072022464" lon="11.86537113978898"><ele>113.42857142857142</ele><time>2026-04-19T08:30:26.999Z</time></trkpt><trkpt lat="42.089727028829465" lon="11.865335495487779"><ele>112.85714285714285</ele><time>2026-04-19T08:30:27.999Z</time></trkpt><trkpt lat="42.08965189712415" lon="11.865322185909625"><ele>112.28571428571428</ele><time>2026-04-19T08:30:28.999Z</time></trkpt><trkpt lat="42.08958844588244" lon="11.865311572117527"><ele>111.71428571428571</ele><time>2026-04-19T08:30:29.999Z</time></trkpt><trkpt lat="42.08951391731996" lon="11.865324995408152"><ele>111.14285714285714</ele><time>2026-04-19T08:30:30.999Z</time></trkpt><trkpt lat="42.08943995891136" lon="11.865367778571096"><ele>110.57142857142856</ele><time>2026-04-19T08:30:31.999Z</time></trkpt><trkpt lat="42.0893827005167" lon="11.865415964324805"><ele>110.0</ele><time>2026-04-19T08:30:32.999Z</time></trkpt><trkpt lat="42.08932135289376" lon="11.86547070893714"><ele>109.99999999999999</ele><time>2026-04-19T08:30:33.999Z</time></trkpt><trkpt lat="42.08924589378103" lon="11.86551561509716"><ele>110.0</ele><time>2026-04-19T08:30:34.999Z</time></trkpt><trkpt lat="42.08916591578613" lon="11.865521347980453"><ele>110.0</ele><time>2026-04-19T08:30:36Z</time></trkpt><trkpt lat="42.08908993750945" lon="11.865571663330497"><ele>110.0</ele><time>2026-04-19T08:30:37Z</time></trkpt><trkpt lat="42.08901707866725" lon="11.86559585377691"><ele>109.99999999999999</ele><time>2026-04-19T08:30:38Z</time></trkpt><trkpt lat="42.08894280780305" lon="11.86562529818789"><ele>110.0</ele><time>2026-04-19T08:30:39Z</time></trkpt><trkpt lat="42.08887691257604" lon="11.865678116831496"><ele>109.8</ele><time>2026-04-19T08:30:40Z</time></trkpt><trkpt lat="42.08876455291141" lon="11.865744210128597"><ele>109.6</ele><time>2026-04-19T08:30:42Z</time></trkpt><trkpt lat="42.08870757041214" lon="11.865783037962123"><ele>109.4</ele><time>2026-04-19T08:30:43Z</time></trkpt><trkpt lat="42.0886261342328" lon="11.865857870622442"><ele>109.2</ele><time>2026-04-19T08:30:45Z</time></trkpt><trkpt lat="42.08851395293974" lon="11.865901338828646"><ele>109.0</ele><time>2026-04-19T08:30:47Z</time></trkpt><trkpt lat="42.08840376963778" lon="11.865939802962332"><ele>109.4</ele><time>2026-04-19T08:30:49Z</time></trkpt><trkpt lat="42.08830383303652" lon="11.866019541422519"><ele>109.80000000000001</ele><time>2026-04-19T08:30:51Z</time></trkpt><trkpt lat="42.08824688775962" lon="11.866061820323381"><ele>110.19999999999999</ele><time>2026-04-19T08:30:52Z</time></trkpt><trkpt lat="42.0881683443711" lon="11.866087285784069"><ele>110.6</ele><time>2026-04-19T08:30:53Z</time></trkpt><trkpt lat="42.088060056501746" lon="11.866065352615525"><ele>111.0</ele><time>2026-04-19T08:30:54Z</time></trkpt><trkpt lat="42.087954185973715" lon="11.866068709491019"><ele>111.0</ele><time>2026-04-19T08:30:55Z</time></trkpt><trkpt lat="42.087861863377185" lon="11.86606758119138"><ele>111.0</ele><time>2026-04-19T08:30:56Z</time></trkpt><trkpt lat="42.08777779440425" lon="11.866055775114885"><ele>111.0</ele><time>2026-04-19T08:30:57Z</time></trkpt><trkpt lat="42.08769716609159" lon="11.866039149876169"><ele>111.0</ele><time>2026-04-19T08:30:58Z</time></trkpt><trkpt lat="42.087633670686884" lon="11.866072981180594"><ele>111.0</ele><time>2026-04-19T08:30:59Z</time></trkpt><trkpt lat="42.08753075930745" lon="11.866150180179353"><ele>111.0</ele><time>2026-04-19T08:31:01Z</time></trkpt><trkpt lat="42.087409118395975" lon="11.86620541142414"><ele>109.6</ele><time>2026-04-19T08:31:03Z</time></trkpt><trkpt lat="42.08734735807781" lon="11.866232343790047"><ele>108.19999999999999</ele><time>2026-04-19T08:31:04Z</time></trkpt><trkpt lat="42.08719361370808" lon="11.866220218275364"><ele>106.80000000000001</ele><time>2026-04-19T08:31:06Z</time></trkpt><trkpt lat="42.08711301525742" lon="11.866212743815739"><ele>105.4</ele><time>2026-04-19T08:31:07Z</time></trkpt><trkpt lat="42.087039730922065" lon="11.86622340822483"><ele>104.0</ele><time>2026-04-19T08:31:08Z</time></trkpt><trkpt lat="42.08693120493958" lon="11.866252556358194"><ele>103.99999999999999</ele><time>2026-04-19T08:31:10Z</time></trkpt><trkpt lat="42.08684995692284" lon="11.866331052194427"><ele>104.0</ele><time>2026-04-19T08:31:12Z</time></trkpt><trkpt lat="42.086777476895946" lon="11.866381396828638"><ele>104.0</ele><time>2026-04-19T08:31:14Z</time></trkpt><trkpt lat="42.08671649118138" lon="11.866481623765104"><ele>104.0</ele><time>2026-04-19T08:31:17Z</time></trkpt><trkpt lat="42.08664664627529" lon="11.8665051778772"><ele>103.99999999999999</ele><time>2026-04-19T08:31:20Z</time></trkpt><trkpt lat="42.086584585357166" lon="11.866543025205345"><ele>104.0</ele><time>2026-04-19T08:31:22Z</time></trkpt><trkpt lat="42.08652264951488" lon="11.866478497213015"><ele>104.80000000000001</ele><time>2026-04-19T08:31:27Z</time></trkpt><trkpt lat="42.08644442711802" lon="11.866410705101673"><ele>105.60000000000001</ele><time>2026-04-19T08:31:31Z</time></trkpt><trkpt lat="42.08640361372046" lon="11.866313729893202"><ele>106.4</ele><time>2026-04-19T08:31:34Z</time></trkpt><trkpt lat="42.08627026323509" lon="11.866213819691287"><ele>107.2</ele><time>2026-04-19T08:31:35.999Z</time></trkpt><trkpt lat="42.086179154736406" lon="11.866159128133111"><ele>108.0</ele><time>2026-04-19T08:31:36.999Z</time></trkpt><trkpt lat="42.086090322787065" lon="11.866129466683919"><ele>108.0</ele><time>2026-04-19T08:31:38.999Z</time></trkpt><trkpt lat="42.08601213884394" lon="11.86607444087061"><ele>108.0</ele><time>2026-04-19T08:31:40.999Z</time></trkpt><trkpt lat="42.08597724759352" lon="11.865978520609874"><ele>108.0</ele><time>2026-04-19T08:31:42.999Z</time></trkpt><trkpt lat="42.085921126194584" lon="11.865897044923114"><ele>108.0</ele><time>2026-04-19T08:31:46.999Z</time></trkpt><trkpt lat="42.08588200674831" lon="11.865828075647647"><ele>108.0</ele><time>2026-04-19T08:31:48.999Z</time></trkpt><trkpt lat="42.08584916449734" lon="11.865748181761212"><ele>108.0</ele><time>2026-04-19T08:31:51.999Z</time></trkpt><trkpt lat="42.08596268744459" lon="11.865697621473627"><ele>106.66666666666667</ele><time>2026-04-19T08:32:38.999Z</time></trkpt><trkpt lat="42.08604084287218" lon="11.865710371242054"><ele>105.33333333333334</ele><time>2026-04-19T08:32:39.999Z</time></trkpt><trkpt lat="42.08612099848418" lon="11.865713839999168"><ele>104.0</ele><time>2026-04-19T08:32:40.999Z</time></trkpt><trkpt lat="42.08618974825702" lon="11.865748008586902"><ele>102.66666666666667</ele><time>2026-04-19T08:32:43Z</time></trkpt><trkpt lat="42.08626553964035" lon="11.865780529715982"><ele>101.33333333333334</ele><time>2026-04-19T08:32:46Z</time></trkpt><trkpt lat="42.08634129888016" lon="11.865765362921785"><ele>100.0</ele><time>2026-04-19T08:32:48Z</time></trkpt><trkpt lat="42.086415337504285" lon="11.865713166181934"><ele>100.00000000000001</ele><time>2026-04-19T08:32:50Z</time></trkpt><trkpt lat="42.08648022734098" lon="11.865647186903496"><ele>100.0</ele><time>2026-04-19T08:32:52Z</time></trkpt><trkpt lat="42.08656387188602" lon="11.86557256716152"><ele>100.0</ele><time>2026-04-19T08:32:54Z</time></trkpt><trkpt lat="42.08664529790749" lon="11.865500099927548"><ele>100.0</ele><time>2026-04-19T08:32:57Z</time></trkpt><trkpt lat="42.08670250882899" lon="11.865461135569848"><ele>100.00000000000001</ele><time>2026-04-19T08:32:59Z</time></trkpt><trkpt lat="42.086745630585966" lon="11.865378388134719"><ele>100.0</ele><time>2026-04-19T08:33:03Z</time></trkpt><trkpt lat="42.08679149622638" lon="11.865283827821758"><ele>101.33333333333334</ele><time>2026-04-19T08:33:06Z</time></trkpt><trkpt lat="42.086807745273" lon="11.865136230434198"><ele>102.66666666666667</ele><time>2026-04-19T08:33:08Z</time></trkpt><trkpt lat="42.08678264164134" lon="11.865047654578555"><ele>104.0</ele><time>2026-04-19T08:33:10Z</time></trkpt><trkpt lat="42.08672633357563" lon="11.864993388045926"><ele>105.33333333333334</ele><time>2026-04-19T08:33:15Z</time></trkpt><trkpt lat="42.08668009262352" lon="11.864924274438845"><ele>106.66666666666667</ele><time>2026-04-19T08:33:20Z</time></trkpt><trkpt lat="42.08662738380451" lon="11.86480915778129"><ele>108.0</ele><time>2026-04-19T08:33:23Z</time></trkpt><trkpt lat="42.086595003867494" lon="11.864726531764031"><ele>108.5</ele><time>2026-04-19T08:33:25Z</time></trkpt><trkpt lat="42.086584242201944" lon="11.864631373409196"><ele>109.0</ele><time>2026-04-19T08:33:27Z</time></trkpt><trkpt lat="42.08658487286077" lon="11.86453912582059"><ele>109.5</ele><time>2026-04-19T08:33:31Z</time></trkpt><trkpt lat="42.08657082303785" lon="11.8644386950435"><ele>110.0</ele><time>2026-04-19T08:35:06Z</time></trkpt><trkpt lat="42.08654596258213" lon="11.864324107578087"><ele>110.5</ele><time>2026-04-19T08:35:10Z</time></trkpt><trkpt lat="42.08654407831216" lon="11.86423759176564"><ele>111.0</ele><time>2026-04-19T08:35:12Z</time></trkpt><trkpt lat="42.086547367370024" lon="11.864105915848564"><ele>116.0</ele><time>2026-04-19T08:35:15Z</time></trkpt><trkpt lat="42.08662424138539" lon="11.864078447650341"><ele>121.0</ele><time>2026-04-19T08:35:17Z</time></trkpt><trkpt lat="42.086704729077546" lon="11.864001492091267"><ele>126.0</ele><time>2026-04-19T08:35:19Z</time></trkpt><trkpt lat="42.08676116140842" lon="11.863918146729686"><ele>131.0</ele><time>2026-04-19T08:35:21Z</time></trkpt><trkpt lat="42.086840354882206" lon="11.863894846602712"><ele>136.0</ele><time>2026-04-19T08:35:22Z</time></trkpt><trkpt lat="42.08693084764853" lon="11.863827338716538"><ele>141.0</ele><time>2026-04-19T08:35:24Z</time></trkpt><trkpt lat="42.08703329903262" lon="11.863769704473295"><ele>141.0</ele><time>2026-04-19T08:35:26Z</time></trkpt><trkpt lat="42.087130553974255" lon="11.863745113463164"><ele>141.0</ele><time>2026-04-19T08:35:28Z</time></trkpt><trkpt lat="42.08727286059733" lon="11.863760999101347"><ele>141.0</ele><time>2026-04-19T08:35:56.999Z</time></trkpt><trkpt lat="42.087182782977855" lon="11.863738495585766"><ele>141.0</ele><time>2026-04-19T08:46:38.999Z</time></trkpt><trkpt lat="42.087152683056054" lon="11.863662843015453"><ele>141.0</ele><time>2026-04-19T08:46:53.999Z</time></trkpt><trkpt lat="42.08710608313683" lon="11.86359826129714"><ele>141.0</ele><time>2026-04-19T08:46:55.999Z</time></trkpt><trkpt lat="42.08706058887106" lon="11.863523230924942"><ele>141.0</ele><time>2026-04-19T08:46:57.999Z</time></trkpt><trkpt lat="42.087029683856436" lon="11.863388034870551"><ele>141.0</ele><time>2026-04-19T08:46:59.999Z</time></trkpt><trkpt lat="42.087023742125304" lon="11.86330185454924"><ele>141.0</ele><time>2026-04-19T08:47:00.999Z</time></trkpt><trkpt lat="42.087006784936875" lon="11.863174501758875"><ele>141.0</ele><time>2026-04-19T08:47:02.999Z</time></trkpt><trkpt lat="42.08700255236109" lon="11.863049535090287"><ele>141.0</ele><time>2026-04-19T08:47:04.999Z</time></trkpt><trkpt lat="42.08697670431509" lon="11.862892750546857"><ele>142.0</ele><time>2026-04-19T08:47:06.999Z</time></trkpt><trkpt lat="42.08700149338909" lon="11.862775645912434"><ele>143.0</ele><time>2026-04-19T08:47:08.999Z</time></trkpt><trkpt lat="42.08695760882365" lon="11.862658824937165"><ele>144.0</ele><time>2026-04-19T08:47:10.999Z</time></trkpt><trkpt lat="42.08691728422091" lon="11.86256837553655"><ele>145.0</ele><time>2026-04-19T08:47:12.999Z</time></trkpt><trkpt lat="42.08688171595206" lon="11.862468143073375"><ele>146.0</ele><time>2026-04-19T08:47:14.999Z</time></trkpt><trkpt lat="42.08692968181923" lon="11.862343069623751"><ele>146.8</ele><time>2026-04-19T08:47:17.999Z</time></trkpt><trkpt lat="42.087013855147475" lon="11.86227579105655"><ele>147.6</ele><time>2026-04-19T08:47:19.999Z</time></trkpt><trkpt lat="42.08712247653389" lon="11.86218204550879"><ele>148.4</ele><time>2026-04-19T08:47:21.999Z</time></trkpt><trkpt lat="42.08717567845807" lon="11.86212200109416"><ele>149.2</ele><time>2026-04-19T08:47:22.999Z</time></trkpt><trkpt lat="42.087235888241416" lon="11.862044284656129"><ele>150.0</ele><time>2026-04-19T08:47:24Z</time></trkpt><trkpt lat="42.087298165226244" lon="11.861978909665492"><ele>150.0</ele><time>2026-04-19T08:47:25Z</time></trkpt><trkpt lat="42.087389069525294" lon="11.86186314398322"><ele>150.0</ele><time>2026-04-19T08:47:27Z</time></trkpt><trkpt lat="42.08747969868167" lon="11.861770713038615"><ele>150.0</ele><time>2026-04-19T08:47:29Z</time></trkpt><trkpt lat="42.08756578835128" lon="11.861698149037519"><ele>150.0</ele><time>2026-04-19T08:47:31Z</time></trkpt><trkpt lat="42.08763753317047" lon="11.861614687698184"><ele>150.0</ele><time>2026-04-19T08:47:33Z</time></trkpt><trkpt lat="42.087690476787124" lon="11.861541404617537"><ele>152.8</ele><time>2026-04-19T08:47:36Z</time></trkpt><trkpt lat="42.08780050903416" lon="11.861521749278415"><ele>155.6</ele><time>2026-04-19T08:47:47Z</time></trkpt><trkpt lat="42.087883324664205" lon="11.861514402794823"><ele>158.39999999999998</ele><time>2026-04-19T08:47:49Z</time></trkpt><trkpt lat="42.087993316433895" lon="11.86143337283107"><ele>161.2</ele><time>2026-04-19T08:47:53Z</time></trkpt><trkpt lat="42.088106784114004" lon="11.861393750529574"><ele>164.0</ele><time>2026-04-19T08:47:55Z</time></trkpt><trkpt lat="42.08816981291283" lon="11.861342566811278"><ele>164.0</ele><time>2026-04-19T08:47:57Z</time></trkpt><trkpt lat="42.08823364653393" lon="11.861295516069587"><ele>164.0</ele><time>2026-04-19T08:47:59Z</time></trkpt><trkpt lat="42.08828787261954" lon="11.861195288741635"><ele>164.0</ele><time>2026-04-19T08:48:01Z</time></trkpt><trkpt lat="42.08834363876428" lon="11.861083703602034"><ele>164.0</ele><time>2026-04-19T08:48:03Z</time></trkpt><trkpt lat="42.0884067750688" lon="11.860963343779815"><ele>164.0</ele><time>2026-04-19T08:48:05Z</time></trkpt><trkpt lat="42.08845589382036" lon="11.86088580803946"><ele>166.42857142857142</ele><time>2026-04-19T08:48:07Z</time></trkpt><trkpt lat="42.08850472329554" lon="11.860815392549066"><ele>168.85714285714286</ele><time>2026-04-19T08:48:09Z</time></trkpt><trkpt lat="42.088580478825925" lon="11.860812072625253"><ele>171.28571428571428</ele><time>2026-04-19T08:48:11Z</time></trkpt><trkpt lat="42.08864183869312" lon="11.860769887432879"><ele>173.71428571428572</ele><time>2026-04-19T08:48:13Z</time></trkpt><trkpt lat="42.088683360280605" lon="11.860666360713056"><ele>176.14285714285714</ele><time>2026-04-19T08:48:15Z</time></trkpt><trkpt lat="42.08872313787436" lon="11.860592862457919"><ele>178.57142857142856</ele><time>2026-04-19T08:48:31Z</time></trkpt><trkpt lat="42.088658776486525" lon="11.860590698708233"><ele>181.0</ele><time>2026-04-19T08:48:52.999Z</time></trkpt><trkpt lat="42.08865132478202" lon="11.860477195769148"><ele>181.0</ele><time>2026-04-19T08:49:10.999Z</time></trkpt><trkpt lat="42.08869184405548" lon="11.860401230929488"><ele>181.0</ele><time>2026-04-19T08:49:53Z</time></trkpt><trkpt lat="42.08877680457347" lon="11.860339084033313"><ele>181.0</ele><time>2026-04-19T08:50:01Z</time></trkpt><trkpt lat="42.088843396644315" lon="11.86032979107277"><ele>181.0</ele><time>2026-04-19T08:50:02Z</time></trkpt><trkpt lat="42.08893031141548" lon="11.860318423627996"><ele>181.0</ele><time>2026-04-19T08:50:03Z</time></trkpt><trkpt lat="42.08902718096908" lon="11.860293319529458"><ele>181.0</ele><time>2026-04-19T08:50:04Z</time></trkpt><trkpt lat="42.08912037351886" lon="11.860283725949706"><ele>181.33333333333334</ele><time>2026-04-19T08:50:05Z</time></trkpt><trkpt lat="42.089199300172595" lon="11.860266626737374"><ele>181.66666666666669</ele><time>2026-04-19T08:50:06Z</time></trkpt><trkpt lat="42.089275692908785" lon="11.860242886865823"><ele>182.0</ele><time>2026-04-19T08:50:07Z</time></trkpt><trkpt lat="42.08938993653421" lon="11.860178038982829"><ele>182.33333333333334</ele><time>2026-04-19T08:50:09Z</time></trkpt><trkpt lat="42.08944727755719" lon="11.86013063032347"><ele>182.66666666666666</ele><time>2026-04-19T08:50:10Z</time></trkpt><trkpt lat="42.08950829706067" lon="11.860072531437181"><ele>183.0</ele><time>2026-04-19T08:50:11Z</time></trkpt><trkpt lat="42.08957139544539" lon="11.86000786954539"><ele>184.0</ele><time>2026-04-19T08:50:12Z</time></trkpt><trkpt lat="42.08965646911873" lon="11.859942551529455"><ele>185.0</ele><time>2026-04-19T08:50:13Z</time></trkpt><trkpt lat="42.0897356432356" lon="11.859874434313376"><ele>186.0</ele><time>2026-04-19T08:50:14Z</time></trkpt><trkpt lat="42.089805557011715" lon="11.859805926762043"><ele>187.0</ele><time>2026-04-19T08:50:15Z</time></trkpt><trkpt lat="42.08986286913539" lon="11.859749190862837"><ele>188.0</ele><time>2026-04-19T08:50:16Z</time></trkpt><trkpt lat="42.08991204833557" lon="11.859668184518938"><ele>189.0</ele><time>2026-04-19T08:50:18Z</time></trkpt><trkpt lat="42.089972078656466" lon="11.859605226172574"><ele>189.0</ele><time>2026-04-19T08:50:21Z</time></trkpt><trkpt lat="42.09003766202464" lon="11.859530162419404"><ele>189.0</ele><time>2026-04-19T08:50:23Z</time></trkpt><trkpt lat="42.090085103566324" lon="11.859465668569385"><ele>189.0</ele><time>2026-04-19T08:50:24Z</time></trkpt><trkpt lat="42.090173480530346" lon="11.859387783622905"><ele>189.0</ele><time>2026-04-19T08:50:26Z</time></trkpt><trkpt lat="42.090223239140194" lon="11.859326459722643"><ele>189.0</ele><time>2026-04-19T08:50:27Z</time></trkpt><trkpt lat="42.09024938320046" lon="11.85922840709297"><ele>189.0</ele><time>2026-04-19T08:50:28Z</time></trkpt><trkpt lat="42.09025585147942" lon="11.859109875218644"><ele>193.16666666666666</ele><time>2026-04-19T08:50:29Z</time></trkpt><trkpt lat="42.090259943172285" lon="11.858998647635369"><ele>197.33333333333331</ele><time>2026-04-19T08:50:30Z</time></trkpt><trkpt lat="42.0902871400328" lon="11.858890961871497"><ele>201.5</ele><time>2026-04-19T08:50:32Z</time></trkpt><trkpt lat="42.090336177769224" lon="11.858967565197572"><ele>205.66666666666666</ele><time>2026-04-19T08:50:33Z</time></trkpt><trkpt lat="42.090374735506636" lon="11.85888961611286"><ele>209.83333333333331</ele><time>2026-04-19T08:50:36Z</time></trkpt><trkpt lat="42.09040385364512" lon="11.858708398330705"><ele>214.0</ele><time>2026-04-19T08:50:38Z</time></trkpt><trkpt lat="42.09042072829103" lon="11.8585732997349"><ele>217.6</ele><time>2026-04-19T08:50:40Z</time></trkpt><trkpt lat="42.09043298411733" lon="11.858431833632604"><ele>221.2</ele><time>2026-04-19T08:50:41.999Z</time></trkpt><trkpt lat="42.090510201729664" lon="11.858361999325645"><ele>224.79999999999998</ele><time>2026-04-19T08:50:44.999Z</time></trkpt><trkpt lat="42.09055693795597" lon="11.858295711249616"><ele>228.39999999999998</ele><time>2026-04-19T08:50:46.999Z</time></trkpt><trkpt lat="42.09063157512692" lon="11.858203881346524"><ele>232.0</ele><time>2026-04-19T08:50:48.999Z</time></trkpt><trkpt lat="42.09066878072645" lon="11.858040163811795"><ele>226.2</ele><time>2026-04-19T08:50:50.999Z</time></trkpt><trkpt lat="42.09076325376637" lon="11.857934623340359"><ele>220.39999999999998</ele><time>2026-04-19T08:50:52.999Z</time></trkpt><trkpt lat="42.09081853175406" lon="11.857872095763858"><ele>214.60000000000002</ele><time>2026-04-19T08:50:53.999Z</time></trkpt><trkpt lat="42.09089658120476" lon="11.857815333102176"><ele>208.8</ele><time>2026-04-19T08:50:54.999Z</time></trkpt><trkpt lat="42.09101445449208" lon="11.857735830033473"><ele>203.0</ele><time>2026-04-19T08:50:56.999Z</time></trkpt><trkpt lat="42.091059582118405" lon="11.857669304257884"><ele>207.00000000000003</ele><time>2026-04-19T08:50:57.999Z</time></trkpt><trkpt lat="42.091104995981695" lon="11.857595020208985"><ele>211.0</ele><time>2026-04-19T08:50:58.999Z</time></trkpt><trkpt lat="42.091163052704005" lon="11.857545248588327"><ele>215.0</ele><time>2026-04-19T08:50:59.999Z</time></trkpt><trkpt lat="42.09123321137879" lon="11.857493754766168"><ele>219.0</ele><time>2026-04-19T08:51:00.999Z</time></trkpt><trkpt lat="42.09129262452232" lon="11.857427218646812"><ele>223.00000000000003</ele><time>2026-04-19T08:51:01.999Z</time></trkpt><trkpt lat="42.091339582757804" lon="11.857343648067552"><ele>227.0</ele><time>2026-04-19T08:51:02.999Z</time></trkpt><trkpt lat="42.09142410380688" lon="11.857273526075176"><ele>227.0</ele><time>2026-04-19T08:51:03.999Z</time></trkpt><trkpt lat="42.09147429441283" lon="11.85720674267059"><ele>227.0</ele><time>2026-04-19T08:51:04.999Z</time></trkpt><trkpt lat="42.091528507275655" lon="11.85715402484977"><ele>227.0</ele><time>2026-04-19T08:51:05.999Z</time></trkpt><trkpt lat="42.091563421203055" lon="11.857001108705537"><ele>227.0</ele><time>2026-04-19T08:51:07.999Z</time></trkpt><trkpt lat="42.09158739067956" lon="11.856877698662817"><ele>227.0</ele><time>2026-04-19T08:51:09.999Z</time></trkpt><trkpt lat="42.09155452963712" lon="11.856748241374655"><ele>224.6</ele><time>2026-04-19T08:51:11.999Z</time></trkpt><trkpt lat="42.09153215274276" lon="11.856627874701179"><ele>222.2</ele><time>2026-04-19T08:51:14.999Z</time></trkpt><trkpt lat="42.09156840897081" lon="11.856553822124303"><ele>219.8</ele><time>2026-04-19T08:51:15.999Z</time></trkpt><trkpt lat="42.09161146002057" lon="11.856462809592424"><ele>217.4</ele><time>2026-04-19T08:51:16.999Z</time></trkpt><trkpt lat="42.09168375947232" lon="11.856326525832289"><ele>215.0</ele><time>2026-04-19T08:51:18.999Z</time></trkpt><trkpt lat="42.09173638291507" lon="11.856223143652205"><ele>215.00000000000003</ele><time>2026-04-19T08:51:20.999Z</time></trkpt><trkpt lat="42.09177060869455" lon="11.856124509952455"><ele>215.0</ele><time>2026-04-19T08:51:23.999Z</time></trkpt><trkpt lat="42.091808909652066" lon="11.856038731552244"><ele>215.0</ele><time>2026-04-19T08:51:25.999Z</time></trkpt><trkpt lat="42.091849549687325" lon="11.855970837081292"><ele>215.0</ele><time>2026-04-19T08:51:27.999Z</time></trkpt><trkpt lat="42.091929925978455" lon="11.855870951109367"><ele>215.00000000000003</ele><time>2026-04-19T08:51:30.999Z</time></trkpt><trkpt lat="42.09199666196426" lon="11.85575449607268"><ele>215.0</ele><time>2026-04-19T08:51:32.999Z</time></trkpt><trkpt lat="42.09205148234056" lon="11.855809879525685"><ele>215.50000000000003</ele><time>2026-04-19T08:51:37Z</time></trkpt><trkpt lat="42.09212582962597" lon="11.855726371421577"><ele>216.0</ele><time>2026-04-19T08:51:39Z</time></trkpt><trkpt lat="42.09220189152726" lon="11.855699658209874"><ele>216.5</ele><time>2026-04-19T08:51:46Z</time></trkpt><trkpt lat="42.0922625634064" lon="11.855638989402339"><ele>217.0</ele><time>2026-04-19T08:52:00Z</time></trkpt><trkpt lat="42.0923233074932" lon="11.855577113329618"><ele>217.50000000000003</ele><time>2026-04-19T08:52:03Z</time></trkpt><trkpt lat="42.09238631435014" lon="11.855612417228372"><ele>218.0</ele><time>2026-04-19T08:52:09Z</time></trkpt><trkpt lat="42.09244049185505" lon="11.855662752790517"><ele>218.0</ele><time>2026-04-19T08:52:11Z</time></trkpt><trkpt lat="42.09252099635154" lon="11.85570079901354"><ele>218.0</ele><time>2026-04-19T08:52:13Z</time></trkpt><trkpt lat="42.09259513397524" lon="11.855710241167271"><ele>218.0</ele><time>2026-04-19T08:52:38Z</time></trkpt><trkpt lat="42.09267484260204" lon="11.855714963585921"><ele>218.0</ele><time>2026-04-19T08:52:40Z</time></trkpt><trkpt lat="42.09284877128023" lon="11.855687038377969"><ele>218.0</ele><time>2026-04-19T08:52:42Z</time></trkpt><trkpt lat="42.09296206525457" lon="11.85569200965068"><ele>218.00000000000003</ele><time>2026-04-19T08:52:44Z</time></trkpt><trkpt lat="42.09302781893451" lon="11.855680541503489"><ele>218.0</ele><time>2026-04-19T08:52:45Z</time></trkpt><trkpt lat="42.09314022402858" lon="11.855634444983894"><ele>218.0</ele><time>2026-04-19T08:52:46.999Z</time></trkpt><trkpt lat="42.093207591647925" lon="11.855590662271224"><ele>218.0</ele><time>2026-04-19T08:52:47.999Z</time></trkpt><trkpt lat="42.093268718692826" lon="11.855502126221676"><ele>218.00000000000003</ele><time>2026-04-19T08:52:49.999Z</time></trkpt><trkpt lat="42.09329699642043" lon="11.855416594192597"><ele>218.0</ele><time>2026-04-19T08:52:50.999Z</time></trkpt><trkpt lat="42.093336820403024" lon="11.855336006488702"><ele>217.28571428571428</ele><time>2026-04-19T08:52:51.999Z</time></trkpt><trkpt lat="42.09336538616343" lon="11.855241087700179"><ele>216.57142857142858</ele><time>2026-04-19T08:52:52.999Z</time></trkpt><trkpt lat="42.09340636398451" lon="11.85516469524119"><ele>215.85714285714283</ele><time>2026-04-19T08:52:53.999Z</time></trkpt><trkpt lat="42.093443493683154" lon="11.855084868010755"><ele>215.14285714285714</ele><time>2026-04-19T08:52:54.999Z</time></trkpt><trkpt lat="42.093475942604535" lon="11.855008656089348"><ele>214.42857142857142</ele><time>2026-04-19T08:52:55.999Z</time></trkpt><trkpt lat="42.093511536812265" lon="11.854933452745975"><ele>213.7142857142857</ele><time>2026-04-19T08:52:56.999Z</time></trkpt><trkpt lat="42.093556838582224" lon="11.854848305085468"><ele>213.0</ele><time>2026-04-19T08:52:57.999Z</time></trkpt><trkpt lat="42.09357833822882" lon="11.854753069284454"><ele>218.0</ele><time>2026-04-19T08:52:58.999Z</time></trkpt><trkpt lat="42.09361244996152" lon="11.854679218379045"><ele>223.0</ele><time>2026-04-19T08:52:59.999Z</time></trkpt><trkpt lat="42.093695228116154" lon="11.854562147887199"><ele>228.0</ele><time>2026-04-19T08:53:01.999Z</time></trkpt><trkpt lat="42.09379491034693" lon="11.854568432277718"><ele>233.0</ele><time>2026-04-19T08:53:05.999Z</time></trkpt><trkpt lat="42.094007864362965" lon="11.854538448609086"><ele>233.0</ele><time>2026-04-19T08:53:10.999Z</time></trkpt><trkpt lat="42.09408231094504" lon="11.85446038048643"><ele>233.0</ele><time>2026-04-19T08:53:12.999Z</time></trkpt><trkpt lat="42.0942052985914" lon="11.854417885961029"><ele>233.0</ele><time>2026-04-19T08:53:14.999Z</time></trkpt><trkpt lat="42.09427443656316" lon="11.854387012510184"><ele>233.0</ele><time>2026-04-19T08:53:15.999Z</time></trkpt><trkpt lat="42.09434727477598" lon="11.85434184288271"><ele>233.0</ele><time>2026-04-19T08:53:16.999Z</time></trkpt><trkpt lat="42.094435086629424" lon="11.854343547950107"><ele>233.25</ele><time>2026-04-19T08:53:17.999Z</time></trkpt><trkpt lat="42.09451988682552" lon="11.854320397397135"><ele>233.5</ele><time>2026-04-19T08:53:18.999Z</time></trkpt><trkpt lat="42.09458081535146" lon="11.854283863642816"><ele>233.75</ele><time>2026-04-19T08:53:19.999Z</time></trkpt><trkpt lat="42.09463520134393" lon="11.854197980716812"><ele>234.0</ele><time>2026-04-19T08:53:21.999Z</time></trkpt><trkpt lat="42.09484748240123" lon="11.853988672608864"><ele>234.0</ele><time>2026-04-19T08:53:28.999Z</time></trkpt><trkpt lat="42.09485553825643" lon="11.853899350759594"><ele>233.99999999999997</ele><time>2026-04-19T08:53:29.999Z</time></trkpt><trkpt lat="42.09491536170498" lon="11.853825377610193"><ele>233.99999999999997</ele><time>2026-04-19T08:53:31.999Z</time></trkpt><trkpt lat="42.094973291132334" lon="11.853706396578312"><ele>234.0</ele><time>2026-04-19T08:53:33.999Z</time></trkpt><trkpt lat="42.09506103677089" lon="11.853607838998613"><ele>234.0</ele><time>2026-04-19T08:53:35.999Z</time></trkpt><trkpt lat="42.09514021464081" lon="11.853497365255485"><ele>231.6</ele><time>2026-04-19T08:53:37.999Z</time></trkpt><trkpt lat="42.095245881008694" lon="11.853391967368431"><ele>229.2</ele><time>2026-04-19T08:53:40.999Z</time></trkpt><trkpt lat="42.09519282562005" lon="11.853253963138147"><ele>226.79999999999998</ele><time>2026-04-19T08:53:43Z</time></trkpt><trkpt lat="42.095150916450976" lon="11.853144806166416"><ele>224.39999999999998</ele><time>2026-04-19T08:53:45Z</time></trkpt><trkpt lat="42.09509336093445" lon="11.853102850673492"><ele>222.0</ele><time>2026-04-19T08:53:46Z</time></trkpt><trkpt lat="42.09503377370028" lon="11.853070567943483"><ele>222.0</ele><time>2026-04-19T08:53:48Z</time></trkpt><trkpt lat="42.095036499989554" lon="11.852981146827682"><ele>222.0</ele><time>2026-04-19T08:53:53Z</time></trkpt><trkpt lat="42.095020321090836" lon="11.852881150838686"><ele>222.0</ele><time>2026-04-19T08:53:57Z</time></trkpt><trkpt lat="42.09499365666955" lon="11.852761716596712"><ele>222.0</ele><time>2026-04-19T08:54:01Z</time></trkpt><trkpt lat="42.095008052656766" lon="11.852638266530597"><ele>222.0</ele><time>2026-04-19T08:54:03Z</time></trkpt><trkpt lat="42.09502128400291" lon="11.852540381990387"><ele>222.0</ele><time>2026-04-19T08:54:06Z</time></trkpt><trkpt lat="42.09498564178212" lon="11.852456795014641"><ele>222.66666666666666</ele><time>2026-04-19T08:54:07Z</time></trkpt><trkpt lat="42.094953011361646" lon="11.852382105490182"><ele>223.33333333333331</ele><time>2026-04-19T08:54:08Z</time></trkpt><trkpt lat="42.09491136840547" lon="11.852300142834403"><ele>224.0</ele><time>2026-04-19T08:54:09Z</time></trkpt><trkpt lat="42.0948829426635" lon="11.852219773197206"><ele>224.66666666666666</ele><time>2026-04-19T08:54:10Z</time></trkpt><trkpt lat="42.094843696530745" lon="11.85212904326981"><ele>225.33333333333331</ele><time>2026-04-19T08:54:11Z</time></trkpt><trkpt lat="42.094808128599276" lon="11.852018545152232"><ele>226.0</ele><time>2026-04-19T08:54:12Z</time></trkpt><trkpt lat="42.09473747211373" lon="11.85193154796621"><ele>229.33333333333331</ele><time>2026-04-19T08:54:14Z</time></trkpt><trkpt lat="42.094669800159885" lon="11.851845415811011"><ele>232.66666666666666</ele><time>2026-04-19T08:54:16Z</time></trkpt><trkpt lat="42.09463386948407" lon="11.85176794990504"><ele>236.0</ele><time>2026-04-19T08:54:18Z</time></trkpt><trkpt lat="42.09455301328791" lon="11.851744964744507"><ele>239.33333333333331</ele><time>2026-04-19T08:54:20Z</time></trkpt><trkpt lat="42.09444007658647" lon="11.85171320994496"><ele>242.66666666666666</ele><time>2026-04-19T08:54:22Z</time></trkpt><trkpt lat="42.09437473708635" lon="11.851699049427646"><ele>246.0</ele><time>2026-04-19T08:54:23Z</time></trkpt><trkpt lat="42.09427565821558" lon="11.85163723815659"><ele>246.0</ele><time>2026-04-19T08:54:25Z</time></trkpt><trkpt lat="42.094204044278854" lon="11.851627154715239"><ele>246.0</ele><time>2026-04-19T08:54:27Z</time></trkpt><trkpt lat="42.09427005762199" lon="11.851646962211277"><ele>246.0</ele><time>2026-04-19T08:54:29Z</time></trkpt><trkpt lat="42.09419381485828" lon="11.851726197947608"><ele>246.0</ele><time>2026-04-19T08:54:49Z</time></trkpt><trkpt lat="42.09409676093333" lon="11.851719595181718"><ele>246.0</ele><time>2026-04-19T08:54:52Z</time></trkpt><trkpt lat="42.09400791031533" lon="11.851772082617037"><ele>246.0</ele><time>2026-04-19T08:54:53.999Z</time></trkpt><trkpt lat="42.09394603611101" lon="11.851820968307104"><ele>249.5</ele><time>2026-04-19T08:54:56.999Z</time></trkpt><trkpt lat="42.09389832587412" lon="11.851880534927941"><ele>253.0</ele><time>2026-04-19T08:54:58.999Z</time></trkpt><trkpt lat="42.093844225585855" lon="11.851943609347819"><ele>256.5</ele><time>2026-04-19T08:55:00.999Z</time></trkpt><trkpt lat="42.093793973678004" lon="11.852033374419142"><ele>260.0</ele><time>2026-04-19T08:55:02.999Z</time></trkpt><trkpt lat="42.093737310914555" lon="11.852084835501328"><ele>263.5</ele><time>2026-04-19T08:55:03.999Z</time></trkpt><trkpt lat="42.09365663588847" lon="11.852129628675689"><ele>267.0</ele><time>2026-04-19T08:55:05.999Z</time></trkpt><trkpt lat="42.09359282099509" lon="11.852201643109115"><ele>267.0</ele><time>2026-04-19T08:55:07.999Z</time></trkpt><trkpt lat="42.09351876933871" lon="11.852292576966029"><ele>267.0</ele><time>2026-04-19T08:55:09.999Z</time></trkpt><trkpt lat="42.093467283607076" lon="11.852365950274937"><ele>267.0</ele><time>2026-04-19T08:55:11.999Z</time></trkpt><trkpt lat="42.09346565262468" lon="11.852274466738399"><ele>267.0</ele><time>2026-04-19T08:55:17.999Z</time></trkpt><trkpt lat="42.093312439011434" lon="11.852155117466921"><ele>267.0</ele><time>2026-04-19T08:56:25Z</time></trkpt><trkpt lat="42.09319581540297" lon="11.852140750424336"><ele>270.1666666666667</ele><time>2026-04-19T08:56:27Z</time></trkpt><trkpt lat="42.093131446033006" lon="11.852158786421578"><ele>273.3333333333333</ele><time>2026-04-19T08:56:29Z</time></trkpt><trkpt lat="42.0930641803804" lon="11.8521803875057"><ele>276.5</ele><time>2026-04-19T08:56:31Z</time></trkpt><trkpt lat="42.09296500839219" lon="11.852169701415482"><ele>279.66666666666663</ele><time>2026-04-19T08:56:34Z</time></trkpt><trkpt lat="42.092866931164245" lon="11.852161176515438"><ele>282.8333333333333</ele><time>2026-04-19T08:56:39Z</time></trkpt><trkpt lat="42.09281495298442" lon="11.852107180343785"><ele>286.0</ele><time>2026-04-19T08:56:40Z</time></trkpt><trkpt lat="42.092743604875636" lon="11.85207576362912"><ele>286.0</ele><time>2026-04-19T08:56:41Z</time></trkpt><trkpt lat="42.092662898902006" lon="11.852041234564581"><ele>286.0</ele><time>2026-04-19T08:56:46Z</time></trkpt><trkpt lat="42.092640210205225" lon="11.851951802406683"><ele>286.0</ele><time>2026-04-19T08:56:49Z</time></trkpt><trkpt lat="42.09257359507683" lon="11.851856499527692"><ele>286.0</ele><time>2026-04-19T08:56:52Z</time></trkpt><trkpt lat="42.09256062095129" lon="11.851765915626086"><ele>286.0</ele><time>2026-04-19T08:56:54Z</time></trkpt><trkpt lat="42.09250572544512" lon="11.851723582578627"><ele>286.0</ele><time>2026-04-19T08:56:55.999Z</time></trkpt><trkpt lat="42.09246425312035" lon="11.851619064248647"><ele>288.0</ele><time>2026-04-19T08:57:00.999Z</time></trkpt><trkpt lat="42.092410557319766" lon="11.85153680821264"><ele>290.0</ele><time>2026-04-19T08:57:02.999Z</time></trkpt><trkpt lat="42.09235480766432" lon="11.851494826978918"><ele>292.0</ele><time>2026-04-19T08:57:03.999Z</time></trkpt><trkpt lat="42.09226414401395" lon="11.851460637565904"><ele>294.0</ele><time>2026-04-19T08:57:05.999Z</time></trkpt><trkpt lat="42.09211854437008" lon="11.851520492046465"><ele>296.0</ele><time>2026-04-19T08:57:07.999Z</time></trkpt><trkpt lat="42.09204935411105" lon="11.85155544961037"><ele>296.0</ele><time>2026-04-19T08:57:09.999Z</time></trkpt><trkpt lat="42.09199557671829" lon="11.851604697410709"><ele>296.0</ele><time>2026-04-19T08:57:16.999Z</time></trkpt><trkpt lat="42.0920319661782" lon="11.851743736174786"><ele>296.0</ele><time>2026-04-19T08:57:57Z</time></trkpt><trkpt lat="42.092021512713494" lon="11.851853982431003"><ele>296.0</ele><time>2026-04-19T08:57:58Z</time></trkpt><trkpt lat="42.09201729149927" lon="11.85194777772567"><ele>296.0</ele><time>2026-04-19T08:57:59Z</time></trkpt><trkpt lat="42.091968071450914" lon="11.852002979592102"><ele>296.0</ele><time>2026-04-19T08:58:01Z</time></trkpt><trkpt lat="42.09190220188101" lon="11.852087957645505"><ele>298.0</ele><time>2026-04-19T08:58:03Z</time></trkpt><trkpt lat="42.091801514591424" lon="11.852157053619727"><ele>300.0</ele><time>2026-04-19T08:58:06Z</time></trkpt><trkpt lat="42.09173323717137" lon="11.852266540647433"><ele>302.0</ele><time>2026-04-19T08:58:08Z</time></trkpt><trkpt lat="42.091697581803494" lon="11.85241634967438"><ele>304.0</ele><time>2026-04-19T08:58:10Z</time></trkpt><trkpt lat="42.09167236531441" lon="11.852527901822985"><ele>306.0</ele><time>2026-04-19T08:58:12Z</time></trkpt><trkpt lat="42.09157708625775" lon="11.852551310840191"><ele>306.0</ele><time>2026-04-19T08:58:15Z</time></trkpt><trkpt lat="42.091520139975245" lon="11.852493532946562"><ele>306.0</ele><time>2026-04-19T08:58:17Z</time></trkpt><trkpt lat="42.09144480511157" lon="11.852555429391465"><ele>306.0</ele><time>2026-04-19T08:58:19Z</time></trkpt><trkpt lat="42.091358894988126" lon="11.852580583310383"><ele>306.0</ele><time>2026-04-19T08:58:22Z</time></trkpt><trkpt lat="42.091297717787626" lon="11.852625998608628"><ele>306.0</ele><time>2026-04-19T08:58:24Z</time></trkpt><trkpt lat="42.091212852781354" lon="11.852645641071398"><ele>306.0</ele><time>2026-04-19T08:58:26Z</time></trkpt><trkpt lat="42.090846565044934" lon="11.85283689079363"><ele>308.8333333333333</ele><time>2026-04-19T08:58:29Z</time></trkpt><trkpt lat="42.090755749437584" lon="11.852920576149018"><ele>311.6666666666667</ele><time>2026-04-19T08:58:31Z</time></trkpt><trkpt lat="42.09068780577418" lon="11.852987007131684"><ele>314.5</ele><time>2026-04-19T08:58:32Z</time></trkpt><trkpt lat="42.090631731575385" lon="11.8530437372038"><ele>317.33333333333337</ele><time>2026-04-19T08:58:33Z</time></trkpt><trkpt lat="42.09057054874686" lon="11.853081345323305"><ele>320.1666666666667</ele><time>2026-04-19T08:58:34Z</time></trkpt><trkpt lat="42.090467403544636" lon="11.853094742194584"><ele>323.0</ele><time>2026-04-19T08:58:36Z</time></trkpt><trkpt lat="42.090410884051146" lon="11.853043207535219"><ele>323.0</ele><time>2026-04-19T08:58:37Z</time></trkpt><trkpt lat="42.090318235515454" lon="11.853000179469419"><ele>323.0</ele><time>2026-04-19T08:58:39Z</time></trkpt><trkpt lat="42.090195523165534" lon="11.852954192050062"><ele>323.0</ele><time>2026-04-19T08:58:41Z</time></trkpt><trkpt lat="42.09012663009957" lon="11.852944222627741"><ele>323.0</ele><time>2026-04-19T08:58:42Z</time></trkpt><trkpt lat="42.09001257713522" lon="11.852896507599494"><ele>323.0</ele><time>2026-04-19T08:58:44Z</time></trkpt><trkpt lat="42.08990184680015" lon="11.852878559923951"><ele>318.79999999999995</ele><time>2026-04-19T08:58:46Z</time></trkpt><trkpt lat="42.089784649453385" lon="11.852867588784147"><ele>314.59999999999997</ele><time>2026-04-19T08:58:48Z</time></trkpt><trkpt lat="42.0896672931443" lon="11.85285707275199"><ele>310.4</ele><time>2026-04-19T08:58:50Z</time></trkpt><trkpt lat="42.08960389603488" lon="11.85284003474434"><ele>306.2</ele><time>2026-04-19T08:58:51Z</time></trkpt><trkpt lat="42.08949513551592" lon="11.85279177765016"><ele>302.0</ele><time>2026-04-19T08:58:53Z</time></trkpt><trkpt lat="42.08939883342927" lon="11.852715811782824"><ele>302.0</ele><time>2026-04-19T08:58:55Z</time></trkpt><trkpt lat="42.089335040186796" lon="11.852671048596397"><ele>302.0</ele><time>2026-04-19T08:58:57Z</time></trkpt><trkpt lat="42.08925067788625" lon="11.852594145999662"><ele>302.0</ele><time>2026-04-19T08:59:31.999Z</time></trkpt><trkpt lat="42.08918796402751" lon="11.85247588247544"><ele>302.0</ele><time>2026-04-19T08:59:33.999Z</time></trkpt><trkpt lat="42.08913017709765" lon="11.85242447525242"><ele>302.0</ele><time>2026-04-19T08:59:34.999Z</time></trkpt><trkpt lat="42.08905194863" lon="11.852374087737386"><ele>302.0</ele><time>2026-04-19T08:59:35.999Z</time></trkpt><trkpt lat="42.088977400959116" lon="11.852246084771973"><ele>299.1666666666667</ele><time>2026-04-19T08:59:36.999Z</time></trkpt><trkpt lat="42.08890024012028" lon="11.852176773040384"><ele>296.33333333333337</ele><time>2026-04-19T08:59:37.999Z</time></trkpt><trkpt lat="42.08882802127896" lon="11.852111692205588"><ele>293.5</ele><time>2026-04-19T08:59:38.999Z</time></trkpt><trkpt lat="42.08874642712724" lon="11.85206059702004"><ele>290.6666666666667</ele><time>2026-04-19T08:59:39.999Z</time></trkpt><trkpt lat="42.088682885483756" lon="11.85199088003024"><ele>287.8333333333333</ele><time>2026-04-19T08:59:40.999Z</time></trkpt><trkpt lat="42.08862382162519" lon="11.851915947844082"><ele>285.0</ele><time>2026-04-19T08:59:41.999Z</time></trkpt><trkpt lat="42.0885804038554" lon="11.851821735300954"><ele>285.5</ele><time>2026-04-19T08:59:42.999Z</time></trkpt><trkpt lat="42.088518225151866" lon="11.851743724846251"><ele>286.0</ele><time>2026-04-19T08:59:43.999Z</time></trkpt><trkpt lat="42.08845386049008" lon="11.85167442467359"><ele>286.5</ele><time>2026-04-19T08:59:44.999Z</time></trkpt><trkpt lat="42.08838275396759" lon="11.851611242530062"><ele>287.0</ele><time>2026-04-19T08:59:45.999Z</time></trkpt><trkpt lat="42.08831246700285" lon="11.851557978743601"><ele>287.5</ele><time>2026-04-19T08:59:46.999Z</time></trkpt><trkpt lat="42.08823003262678" lon="11.851511437723175"><ele>288.0</ele><time>2026-04-19T08:59:47.999Z</time></trkpt><trkpt lat="42.08814023712193" lon="11.851477862299703"><ele>286.2</ele><time>2026-04-19T08:59:48.999Z</time></trkpt><trkpt lat="42.08805663717814" lon="11.851455971559645"><ele>284.4</ele><time>2026-04-19T08:59:49.999Z</time></trkpt><trkpt lat="42.08796637402732" lon="11.851444502933923"><ele>282.59999999999997</ele><time>2026-04-19T08:59:50.999Z</time></trkpt><trkpt lat="42.08786842091772" lon="11.851449773528497"><ele>280.8</ele><time>2026-04-19T08:59:51.999Z</time></trkpt><trkpt lat="42.0877798524683" lon="11.851460689118266"><ele>279.0</ele><time>2026-04-19T08:59:52.999Z</time></trkpt><trkpt lat="42.08768586652068" lon="11.85148476540745"><ele>279.0</ele><time>2026-04-19T08:59:53.999Z</time></trkpt><trkpt lat="42.08758829142983" lon="11.85153685060138"><ele>279.0</ele><time>2026-04-19T08:59:54.999Z</time></trkpt><trkpt lat="42.08748601847768" lon="11.851578429941032"><ele>279.0</ele><time>2026-04-19T08:59:55.999Z</time></trkpt><trkpt lat="42.08737925035207" lon="11.851610701728012"><ele>279.0</ele><time>2026-04-19T08:59:56.999Z</time></trkpt><trkpt lat="42.08727693889634" lon="11.851681056760869"><ele>279.0</ele><time>2026-04-19T08:59:57.999Z</time></trkpt><trkpt lat="42.08717204327411" lon="11.851736626888554"><ele>277.4</ele><time>2026-04-19T08:59:58.999Z</time></trkpt><trkpt lat="42.08707326690483" lon="11.851786733601205"><ele>275.79999999999995</ele><time>2026-04-19T09:00:00Z</time></trkpt><trkpt lat="42.08696614361982" lon="11.851815559791607"><ele>274.20000000000005</ele><time>2026-04-19T09:00:01Z</time></trkpt><trkpt lat="42.086871632519184" lon="11.851881760087933"><ele>272.6</ele><time>2026-04-19T09:00:02Z</time></trkpt><trkpt lat="42.08675511996913" lon="11.851910636474525"><ele>271.0</ele><time>2026-04-19T09:00:03Z</time></trkpt><trkpt lat="42.086643744970374" lon="11.851955025733178"><ele>266.75</ele><time>2026-04-19T09:00:04Z</time></trkpt><trkpt lat="42.08653068352824" lon="11.852006638098327"><ele>262.5</ele><time>2026-04-19T09:00:05Z</time></trkpt><trkpt lat="42.08642626009926" lon="11.852078666840141"><ele>258.25</ele><time>2026-04-19T09:00:06Z</time></trkpt><trkpt lat="42.08631879900967" lon="11.852117218761705"><ele>254.0</ele><time>2026-04-19T09:00:07Z</time></trkpt><trkpt lat="42.08620126609435" lon="11.85217618244974"><ele>254.0</ele><time>2026-04-19T09:00:08Z</time></trkpt><trkpt lat="42.08608390859154" lon="11.85223304930793"><ele>254.0</ele><time>2026-04-19T09:00:09Z</time></trkpt><trkpt lat="42.08596654094013" lon="11.852277955702325"><ele>254.0</ele><time>2026-04-19T09:00:10Z</time></trkpt><trkpt lat="42.08583142594719" lon="11.852337545575487"><ele>254.0</ele><time>2026-04-19T09:00:11Z</time></trkpt><trkpt lat="42.08571610432836" lon="11.852398176763076"><ele>253.0</ele><time>2026-04-19T09:00:12Z</time></trkpt><trkpt lat="42.08561387844183" lon="11.852471641934482"><ele>252.0</ele><time>2026-04-19T09:00:13Z</time></trkpt><trkpt lat="42.08551471150976" lon="11.852555904601749"><ele>251.0</ele><time>2026-04-19T09:00:14Z</time></trkpt><trkpt lat="42.08542071844386" lon="11.852636450043885"><ele>250.0</ele><time>2026-04-19T09:00:15Z</time></trkpt><trkpt lat="42.08532500369427" lon="11.852710562367646"><ele>249.0</ele><time>2026-04-19T09:00:16Z</time></trkpt><trkpt lat="42.08522812635022" lon="11.852752491297027"><ele>248.0</ele><time>2026-04-19T09:00:17Z</time></trkpt><trkpt lat="42.085130746713425" lon="11.852730141751236"><ele>247.0</ele><time>2026-04-19T09:00:18Z</time></trkpt><trkpt lat="42.085045734813555" lon="11.85268355094039"><ele>246.0</ele><time>2026-04-19T09:00:19Z</time></trkpt><trkpt lat="42.08495099475207" lon="11.852637120348348"><ele>245.0</ele><time>2026-04-19T09:00:20Z</time></trkpt><trkpt lat="42.08484245156395" lon="11.85258921854765"><ele>243.25</ele><time>2026-04-19T09:00:21Z</time></trkpt><trkpt lat="42.08474389313474" lon="11.852531963574435"><ele>241.5</ele><time>2026-04-19T09:00:22Z</time></trkpt><trkpt lat="42.08464310931108" lon="11.852462586553298"><ele>239.75</ele><time>2026-04-19T09:00:23Z</time></trkpt><trkpt lat="42.08453694534284" lon="11.852387208297268"><ele>238.0</ele><time>2026-04-19T09:00:24Z</time></trkpt><trkpt lat="42.08443190545589" lon="11.852311954269615"><ele>238.0</ele><time>2026-04-19T09:00:25Z</time></trkpt><trkpt lat="42.08431174461522" lon="11.852261455012039"><ele>238.0</ele><time>2026-04-19T09:00:26Z</time></trkpt><trkpt lat="42.08419653816605" lon="11.8522010935246"><ele>238.0</ele><time>2026-04-19T09:00:27Z</time></trkpt><trkpt lat="42.08407473971746" lon="11.852120905889294"><ele>238.0</ele><time>2026-04-19T09:00:28Z</time></trkpt><trkpt lat="42.083955200060785" lon="11.852043185543131"><ele>236.75</ele><time>2026-04-19T09:00:29Z</time></trkpt><trkpt lat="42.08384658877624" lon="11.851946514297271"><ele>235.5</ele><time>2026-04-19T09:00:30Z</time></trkpt><trkpt lat="42.08374820316636" lon="11.851832652382885"><ele>234.25</ele><time>2026-04-19T09:00:31Z</time></trkpt><trkpt lat="42.08363913097553" lon="11.851745878443642"><ele>233.0</ele><time>2026-04-19T09:00:32Z</time></trkpt><trkpt lat="42.083539945468516" lon="11.851654793545999"><ele>233.0</ele><time>2026-04-19T09:00:33Z</time></trkpt><trkpt lat="42.08343430764914" lon="11.851576558392265"><ele>233.0</ele><time>2026-04-19T09:00:34Z</time></trkpt><trkpt lat="42.08333095437417" lon="11.851505253910302"><ele>233.0</ele><time>2026-04-19T09:00:35Z</time></trkpt><trkpt lat="42.08322135283202" lon="11.851428468160258"><ele>233.0</ele><time>2026-04-19T09:00:36Z</time></trkpt><trkpt lat="42.08311181343671" lon="11.851369877130047"><ele>231.0</ele><time>2026-04-19T09:00:37Z</time></trkpt><trkpt lat="42.08300033084334" lon="11.851314951477175"><ele>229.0</ele><time>2026-04-19T09:00:38Z</time></trkpt><trkpt lat="42.08288759905134" lon="11.851269835463073"><ele>227.0</ele><time>2026-04-19T09:00:39Z</time></trkpt><trkpt lat="42.08277047951443" lon="11.85123955403261"><ele>225.0</ele><time>2026-04-19T09:00:40Z</time></trkpt><trkpt lat="42.082654323072504" lon="11.85120628029156"><ele>225.0</ele><time>2026-04-19T09:00:41Z</time></trkpt><trkpt lat="42.08254182311372" lon="11.851179558494763"><ele>225.0</ele><time>2026-04-19T09:00:42Z</time></trkpt><trkpt lat="42.08244276786747" lon="11.851144739046708"><ele>225.0</ele><time>2026-04-19T09:00:43Z</time></trkpt><trkpt lat="42.082351636989216" lon="11.851112182816793"><ele>225.0</ele><time>2026-04-19T09:00:44Z</time></trkpt><trkpt lat="42.08226749144048" lon="11.851084650498747"><ele>225.0</ele><time>2026-04-19T09:00:45Z</time></trkpt><trkpt lat="42.08218861618161" lon="11.851063386496149"><ele>222.5</ele><time>2026-04-19T09:00:46Z</time></trkpt><trkpt lat="42.08211865571208" lon="11.851046534695007"><ele>220.0</ele><time>2026-04-19T09:00:47Z</time></trkpt><trkpt lat="42.08201294851818" lon="11.851023068712147"><ele>217.5</ele><time>2026-04-19T09:00:49Z</time></trkpt><trkpt lat="42.08211194747429" lon="11.851291116428541"><ele>215.0</ele><time>2026-04-19T09:00:54Z</time></trkpt><trkpt lat="42.082243673961585" lon="11.851353549441509"><ele>215.0</ele><time>2026-04-19T09:00:55Z</time></trkpt><trkpt lat="42.082359976284486" lon="11.851445319536932"><ele>215.0</ele><time>2026-04-19T09:00:56Z</time></trkpt><trkpt lat="42.08245710492796" lon="11.851544891893674"><ele>215.0</ele><time>2026-04-19T09:00:57Z</time></trkpt><trkpt lat="42.0825571715605" lon="11.851658337474118"><ele>215.0</ele><time>2026-04-19T09:00:58Z</time></trkpt><trkpt lat="42.082624292436336" lon="11.851778637449021"><ele>215.75</ele><time>2026-04-19T09:00:59Z</time></trkpt><trkpt lat="42.08270292726849" lon="11.851903395774224"><ele>216.5</ele><time>2026-04-19T09:00:59.999Z</time></trkpt><trkpt lat="42.08275513472612" lon="11.852036295617232"><ele>217.25</ele><time>2026-04-19T09:01:00.999Z</time></trkpt><trkpt lat="42.082812638333316" lon="11.852156114017484"><ele>218.0</ele><time>2026-04-19T09:01:01.999Z</time></trkpt><trkpt lat="42.08288268135701" lon="11.852278692945529"><ele>218.0</ele><time>2026-04-19T09:01:02.999Z</time></trkpt><trkpt lat="42.08295546733165" lon="11.852409411626462"><ele>218.0</ele><time>2026-04-19T09:01:03.999Z</time></trkpt><trkpt lat="42.083024853444954" lon="11.852552777372406"><ele>218.0</ele><time>2026-04-19T09:01:04.999Z</time></trkpt><trkpt lat="42.08308364633837" lon="11.85266435272992"><ele>218.0</ele><time>2026-04-19T09:01:05.999Z</time></trkpt><trkpt lat="42.08315087696927" lon="11.852793943345752"><ele>218.8</ele><time>2026-04-19T09:01:06.999Z</time></trkpt><trkpt lat="42.0832057273435" lon="11.852905750400318"><ele>219.60000000000002</ele><time>2026-04-19T09:01:07.999Z</time></trkpt><trkpt lat="42.08325453850641" lon="11.852997754693737"><ele>220.39999999999998</ele><time>2026-04-19T09:01:08.999Z</time></trkpt><trkpt lat="42.08328721867698" lon="11.853142708090575"><ele>221.2</ele><time>2026-04-19T09:01:10.999Z</time></trkpt><trkpt lat="42.083262249239525" lon="11.853301618702451"><ele>222.0</ele><time>2026-04-19T09:01:12.999Z</time></trkpt><trkpt lat="42.08325178031075" lon="11.853401799139991"><ele>222.71428571428572</ele><time>2026-04-19T09:01:14.999Z</time></trkpt><trkpt lat="42.08328773385315" lon="11.853508974935568"><ele>223.42857142857144</ele><time>2026-04-19T09:01:16.999Z</time></trkpt><trkpt lat="42.08328313437585" lon="11.853593852948388"><ele>224.14285714285717</ele><time>2026-04-19T09:01:17.999Z</time></trkpt><trkpt lat="42.08324824162543" lon="11.85368247075893"><ele>224.85714285714286</ele><time>2026-04-19T09:01:18.999Z</time></trkpt><trkpt lat="42.0832205974922" lon="11.853762203399162"><ele>225.5714285714286</ele><time>2026-04-19T09:01:19.999Z</time></trkpt><trkpt lat="42.08320302931217" lon="11.853844439378305"><ele>226.2857142857143</ele><time>2026-04-19T09:01:20.999Z</time></trkpt><trkpt lat="42.083172489987646" lon="11.85396020539015"><ele>227.0</ele><time>2026-04-19T09:01:22.999Z</time></trkpt><trkpt lat="42.08313641257077" lon="11.854052710901396"><ele>225.00000000000003</ele><time>2026-04-19T09:01:25.999Z</time></trkpt><trkpt lat="42.083062393018984" lon="11.854028654988003"><ele>223.0</ele><time>2026-04-19T09:01:29.999Z</time></trkpt><trkpt lat="42.082997128440894" lon="11.854005002943278"><ele>221.0</ele><time>2026-04-19T09:02:16Z</time></trkpt><trkpt lat="42.08290569812092" lon="11.853938026133266"><ele>219.0</ele><time>2026-04-19T09:02:18Z</time></trkpt><trkpt lat="42.08280690995121" lon="11.853867229502479"><ele>217.00000000000003</ele><time>2026-04-19T09:02:20Z</time></trkpt><trkpt lat="42.082756713519785" lon="11.853814920889992"><ele>215.0</ele><time>2026-04-19T09:02:21Z</time></trkpt><trkpt lat="42.08270331930439" lon="11.853762489129979"><ele>215.00000000000003</ele><time>2026-04-19T09:02:22Z</time></trkpt><trkpt lat="42.08264758933135" lon="11.853706012173227"><ele>215.0</ele><time>2026-04-19T09:02:23Z</time></trkpt><trkpt lat="42.08259157183721" lon="11.853656609324261"><ele>215.0</ele><time>2026-04-19T09:02:24Z</time></trkpt><trkpt lat="42.08253203028958" lon="11.853599219877871"><ele>215.0</ele><time>2026-04-19T09:02:25Z</time></trkpt><trkpt lat="42.08245124370669" lon="11.853553818880481"><ele>215.00000000000003</ele><time>2026-04-19T09:02:26Z</time></trkpt><trkpt lat="42.08234866255497" lon="11.853516505519803"><ele>215.0</ele><time>2026-04-19T09:02:27Z</time></trkpt><trkpt lat="42.08224028680757" lon="11.853489000947087"><ele>214.8</ele><time>2026-04-19T09:02:28Z</time></trkpt><trkpt lat="42.08214426930624" lon="11.853464499832285"><ele>214.6</ele><time>2026-04-19T09:02:29Z</time></trkpt><trkpt lat="42.08203852194465" lon="11.853431946659766"><ele>214.39999999999998</ele><time>2026-04-19T09:02:30Z</time></trkpt><trkpt lat="42.08194134148419" lon="11.85339611681073"><ele>214.2</ele><time>2026-04-19T09:02:31Z</time></trkpt><trkpt lat="42.0818431261003" lon="11.853383110114379"><ele>214.0</ele><time>2026-04-19T09:02:32Z</time></trkpt><trkpt lat="42.08175468651089" lon="11.8533729689333"><ele>215.79999999999998</ele><time>2026-04-19T09:02:33Z</time></trkpt><trkpt lat="42.08167150302319" lon="11.853374847406055"><ele>217.59999999999997</ele><time>2026-04-19T09:02:34Z</time></trkpt><trkpt lat="42.081572723956924" lon="11.853384795718618"><ele>219.4</ele><time>2026-04-19T09:02:35Z</time></trkpt><trkpt lat="42.08145470559833" lon="11.853386571026974"><ele>221.2</ele><time>2026-04-19T09:02:36Z</time></trkpt><trkpt lat="42.08133687071823" lon="11.853405483401028"><ele>223.0</ele><time>2026-04-19T09:02:37Z</time></trkpt><trkpt lat="42.08122644100625" lon="11.853421115988171"><ele>223.0</ele><time>2026-04-19T09:02:38Z</time></trkpt><trkpt lat="42.08112989655694" lon="11.853436770749989"><ele>223.0</ele><time>2026-04-19T09:02:39Z</time></trkpt><trkpt lat="42.08105035583482" lon="11.853463476477994"><ele>223.0</ele><time>2026-04-19T09:02:40Z</time></trkpt><trkpt lat="42.08096823425259" lon="11.853522664530407"><ele>223.0</ele><time>2026-04-19T09:02:41Z</time></trkpt><trkpt lat="42.08087406112238" lon="11.853578415924948"><ele>223.0</ele><time>2026-04-19T09:02:42Z</time></trkpt><trkpt lat="42.080770782258206" lon="11.853607289364575"><ele>222.60000000000002</ele><time>2026-04-19T09:02:43Z</time></trkpt><trkpt lat="42.08065578731828" lon="11.853608178971943"><ele>222.20000000000002</ele><time>2026-04-19T09:02:44Z</time></trkpt><trkpt lat="42.08054847766781" lon="11.853611343068177"><ele>221.8</ele><time>2026-04-19T09:02:45Z</time></trkpt><trkpt lat="42.08045669575194" lon="11.853617788434573"><ele>221.4</ele><time>2026-04-19T09:02:46Z</time></trkpt><trkpt lat="42.0803717187291" lon="11.853622404299701"><ele>221.0</ele><time>2026-04-19T09:02:47Z</time></trkpt><trkpt lat="42.08027810278028" lon="11.853611529919101"><ele>221.0</ele><time>2026-04-19T09:02:48Z</time></trkpt><trkpt lat="42.080175968415816" lon="11.853629086883249"><ele>221.00000000000003</ele><time>2026-04-19T09:02:49Z</time></trkpt><trkpt lat="42.080074361891334" lon="11.85366511064945"><ele>221.00000000000003</ele><time>2026-04-19T09:02:50Z</time></trkpt><trkpt lat="42.07998183240684" lon="11.853686474844086"><ele>221.0</ele><time>2026-04-19T09:02:51Z</time></trkpt><trkpt lat="42.079889421509606" lon="11.853669620573672"><ele>221.0</ele><time>2026-04-19T09:02:52Z</time></trkpt><trkpt lat="42.0798059926367" lon="11.853613575539311"><ele>221.20000000000002</ele><time>2026-04-19T09:02:53Z</time></trkpt><trkpt lat="42.07972162249666" lon="11.853560811191306"><ele>221.40000000000003</ele><time>2026-04-19T09:02:54Z</time></trkpt><trkpt lat="42.07963613989398" lon="11.853503231329363"><ele>221.6</ele><time>2026-04-19T09:02:55Z</time></trkpt><trkpt lat="42.079542502158795" lon="11.853443504777564"><ele>221.8</ele><time>2026-04-19T09:02:56Z</time></trkpt><trkpt lat="42.07944618167578" lon="11.85338280914379"><ele>222.0</ele><time>2026-04-19T09:02:57Z</time></trkpt><trkpt lat="42.07935366560325" lon="11.853309445352872"><ele>222.0</ele><time>2026-04-19T09:02:58Z</time></trkpt><trkpt lat="42.0792674630565" lon="11.853235606786196"><ele>222.0</ele><time>2026-04-19T09:02:59Z</time></trkpt><trkpt lat="42.07917862972563" lon="11.853174050324576"><ele>222.0</ele><time>2026-04-19T09:03:00Z</time></trkpt><trkpt lat="42.07909961576641" lon="11.853126322479142"><ele>222.0</ele><time>2026-04-19T09:03:01Z</time></trkpt><trkpt lat="42.079019532698894" lon="11.85307334393872"><ele>222.0</ele><time>2026-04-19T09:03:02Z</time></trkpt><trkpt lat="42.078939640204894" lon="11.853021746116045"><ele>220.0</ele><time>2026-04-19T09:03:03Z</time></trkpt><trkpt lat="42.07887057269902" lon="11.852918228625537"><ele>218.0</ele><time>2026-04-19T09:03:04Z</time></trkpt><trkpt lat="42.07880972223649" lon="11.852812567268074"><ele>216.0</ele><time>2026-04-19T09:03:05Z</time></trkpt><trkpt lat="42.07875850118806" lon="11.852727101746257"><ele>214.0</ele><time>2026-04-19T09:03:05.999Z</time></trkpt><trkpt lat="42.07868713717746" lon="11.852637375581176"><ele>212.0</ele><time>2026-04-19T09:03:06.999Z</time></trkpt><trkpt lat="42.07860681342474" lon="11.85256509656738"><ele>212.0</ele><time>2026-04-19T09:03:07.999Z</time></trkpt><trkpt lat="42.078525325072604" lon="11.85250650351156"><ele>212.0</ele><time>2026-04-19T09:03:08.999Z</time></trkpt><trkpt lat="42.078435104325116" lon="11.852448615917838"><ele>212.0</ele><time>2026-04-19T09:03:09.999Z</time></trkpt><trkpt lat="42.07834756780548" lon="11.852382138302435"><ele>212.0</ele><time>2026-04-19T09:03:10.999Z</time></trkpt><trkpt lat="42.07826677334355" lon="11.85233294681417"><ele>212.0</ele><time>2026-04-19T09:03:11.999Z</time></trkpt><trkpt lat="42.078184698190945" lon="11.852287003317146"><ele>208.66666666666669</ele><time>2026-04-19T09:03:12.999Z</time></trkpt><trkpt lat="42.078104499664846" lon="11.852224954856773"><ele>205.33333333333334</ele><time>2026-04-19T09:03:13.999Z</time></trkpt><trkpt lat="42.078041404708635" lon="11.852144370040437"><ele>202.0</ele><time>2026-04-19T09:03:14.999Z</time></trkpt><trkpt lat="42.07797973977886" lon="11.85205089048688"><ele>198.66666666666669</ele><time>2026-04-19T09:03:15.999Z</time></trkpt><trkpt lat="42.077918375612875" lon="11.851973309545128"><ele>195.33333333333334</ele><time>2026-04-19T09:03:16.999Z</time></trkpt><trkpt lat="42.07785763746364" lon="11.851906950159536"><ele>192.0</ele><time>2026-04-19T09:03:17.999Z</time></trkpt><trkpt lat="42.07779867403717" lon="11.851837423461694"><ele>193.5</ele><time>2026-04-19T09:03:18.999Z</time></trkpt><trkpt lat="42.077740212855645" lon="11.851760297188322"><ele>195.0</ele><time>2026-04-19T09:03:19.999Z</time></trkpt><trkpt lat="42.077695679838335" lon="11.851665082013048"><ele>196.5</ele><time>2026-04-19T09:03:20.999Z</time></trkpt><trkpt lat="42.0776758993343" lon="11.851549868106032"><ele>198.0</ele><time>2026-04-19T09:03:21.999Z</time></trkpt><trkpt lat="42.0776454375077" lon="11.851438585907989"><ele>199.5</ele><time>2026-04-19T09:03:22.999Z</time></trkpt><trkpt lat="42.0775845223208" lon="11.851369546201274"><ele>201.0</ele><time>2026-04-19T09:03:23.999Z</time></trkpt><trkpt lat="42.077523677686095" lon="11.85133653025734"><ele>198.8</ele><time>2026-04-19T09:03:24.999Z</time></trkpt><trkpt lat="42.07738828795719" lon="11.851297216877828"><ele>196.60000000000002</ele><time>2026-04-19T09:03:26.999Z</time></trkpt><trkpt lat="42.0773139525247" lon="11.851254116361652"><ele>194.4</ele><time>2026-04-19T09:03:27.999Z</time></trkpt><trkpt lat="42.07724498233636" lon="11.851193460932539"><ele>192.2</ele><time>2026-04-19T09:03:28.999Z</time></trkpt><trkpt lat="42.077181253464246" lon="11.851111362513812"><ele>190.0</ele><time>2026-04-19T09:03:29.999Z</time></trkpt><trkpt lat="42.077125080933264" lon="11.851048141931456"><ele>190.0</ele><time>2026-04-19T09:03:30.999Z</time></trkpt><trkpt lat="42.077056065830604" lon="11.851016006861625"><ele>190.0</ele><time>2026-04-19T09:03:31.999Z</time></trkpt><trkpt lat="42.07698563071125" lon="11.851023583118764"><ele>190.0</ele><time>2026-04-19T09:03:32.999Z</time></trkpt><trkpt lat="42.07689074034965" lon="11.851026898836478"><ele>190.0</ele><time>2026-04-19T09:03:33.999Z</time></trkpt><trkpt lat="42.07680472033877" lon="11.851038508286331"><ele>190.0</ele><time>2026-04-19T09:03:34.999Z</time></trkpt><trkpt lat="42.076726531879096" lon="11.851064400065306"><ele>190.0</ele><time>2026-04-19T09:03:35.999Z</time></trkpt><trkpt lat="42.076650130745925" lon="11.851072332350247"><ele>190.66666666666669</ele><time>2026-04-19T09:03:36.999Z</time></trkpt><trkpt lat="42.07656525946082" lon="11.851033614729658"><ele>191.33333333333334</ele><time>2026-04-19T09:03:37.999Z</time></trkpt><trkpt lat="42.07647660123512" lon="11.850993210659842"><ele>192.0</ele><time>2026-04-19T09:03:38.999Z</time></trkpt><trkpt lat="42.07639438047477" lon="11.850940287228854"><ele>192.66666666666669</ele><time>2026-04-19T09:03:39.999Z</time></trkpt><trkpt lat="42.0763084953954" lon="11.850901891796438"><ele>193.33333333333334</ele><time>2026-04-19T09:03:40.999Z</time></trkpt><trkpt lat="42.07624220559464" lon="11.850854686496374"><ele>194.0</ele><time>2026-04-19T09:03:41.999Z</time></trkpt><trkpt lat="42.07616982394792" lon="11.850826682361298"><ele>194.00000000000003</ele><time>2026-04-19T09:03:42.999Z</time></trkpt><trkpt lat="42.07610568701579" lon="11.850818969198238"><ele>194.0</ele><time>2026-04-19T09:03:43.999Z</time></trkpt><trkpt lat="42.07602800641269" lon="11.850829150425701"><ele>194.0</ele><time>2026-04-19T09:03:44.999Z</time></trkpt><trkpt lat="42.075947462631134" lon="11.850844593163716"><ele>194.0</ele><time>2026-04-19T09:03:45.999Z</time></trkpt><trkpt lat="42.07588145328919" lon="11.850810294290225"><ele>194.00000000000003</ele><time>2026-04-19T09:03:46.999Z</time></trkpt><trkpt lat="42.0758192167599" lon="11.85076202418421"><ele>194.0</ele><time>2026-04-19T09:03:47.999Z</time></trkpt><trkpt lat="42.07574536932331" lon="11.85070804407012"><ele>191.66666666666669</ele><time>2026-04-19T09:03:48.999Z</time></trkpt><trkpt lat="42.07567115751198" lon="11.850658826727091"><ele>189.33333333333334</ele><time>2026-04-19T09:03:49.999Z</time></trkpt><trkpt lat="42.075595772255255" lon="11.850613987287852"><ele>187.0</ele><time>2026-04-19T09:03:50.999Z</time></trkpt><trkpt lat="42.07553954927498" lon="11.850558301210866"><ele>184.66666666666669</ele><time>2026-04-19T09:03:51.999Z</time></trkpt><trkpt lat="42.075484909502336" lon="11.850490207319766"><ele>182.33333333333334</ele><time>2026-04-19T09:03:52.999Z</time></trkpt><trkpt lat="42.07543691971964" lon="11.850412537712511"><ele>180.0</ele><time>2026-04-19T09:03:53.999Z</time></trkpt><trkpt lat="42.075373335299524" lon="11.850358114883559"><ele>180.0</ele><time>2026-04-19T09:03:54.999Z</time></trkpt><trkpt lat="42.07529200092669" lon="11.850334485132924"><ele>180.0</ele><time>2026-04-19T09:03:55.999Z</time></trkpt><trkpt lat="42.07520584460239" lon="11.850312785887654"><ele>180.0</ele><time>2026-04-19T09:03:56.999Z</time></trkpt><trkpt lat="42.07512907013663" lon="11.850287046593564"><ele>180.0</ele><time>2026-04-19T09:03:57.999Z</time></trkpt><trkpt lat="42.07504618503047" lon="11.85026312299678"><ele>180.0</ele><time>2026-04-19T09:03:58.999Z</time></trkpt><trkpt lat="42.074969023885146" lon="11.850247603706737"><ele>180.0</ele><time>2026-04-19T09:03:59.999Z</time></trkpt><trkpt lat="42.07489994375216" lon="11.850214524056224"><ele>179.2</ele><time>2026-04-19T09:04:00.999Z</time></trkpt><trkpt lat="42.074823176690494" lon="11.850151421679527"><ele>178.4</ele><time>2026-04-19T09:04:01.999Z</time></trkpt><trkpt lat="42.074742104209044" lon="11.850073883599627"><ele>177.60000000000002</ele><time>2026-04-19T09:04:02.999Z</time></trkpt><trkpt lat="42.07467766132379" lon="11.849984172440497"><ele>176.8</ele><time>2026-04-19T09:04:03.999Z</time></trkpt><trkpt lat="42.07460676603039" lon="11.849910777047706"><ele>176.0</ele><time>2026-04-19T09:04:04.999Z</time></trkpt><trkpt lat="42.0745286384981" lon="11.849873592462174"><ele>176.0</ele><time>2026-04-19T09:04:05.999Z</time></trkpt><trkpt lat="42.07443622482532" lon="11.849840343125788"><ele>176.0</ele><time>2026-04-19T09:04:06.999Z</time></trkpt><trkpt lat="42.07435505262017" lon="11.8498140451593"><ele>176.0</ele><time>2026-04-19T09:04:07.999Z</time></trkpt><trkpt lat="42.074280207121134" lon="11.84974069974735"><ele>176.0</ele><time>2026-04-19T09:04:08.999Z</time></trkpt><trkpt lat="42.07420133390177" lon="11.849655230903291"><ele>176.0</ele><time>2026-04-19T09:04:09.999Z</time></trkpt><trkpt lat="42.07414646694379" lon="11.849563624221018"><ele>176.0</ele><time>2026-04-19T09:04:10.999Z</time></trkpt><trkpt lat="42.074123113099574" lon="11.84946368156788"><ele>176.0</ele><time>2026-04-19T09:04:12Z</time></trkpt><trkpt lat="42.074122149717454" lon="11.84936457934305"><ele>176.0</ele><time>2026-04-19T09:04:13Z</time></trkpt><trkpt lat="42.074090203091195" lon="11.849291304728254"><ele>176.0</ele><time>2026-04-19T09:04:14Z</time></trkpt><trkpt lat="42.074041474013306" lon="11.849233948436847"><ele>176.0</ele><time>2026-04-19T09:04:15Z</time></trkpt><trkpt lat="42.07398554743186" lon="11.849194580956825"><ele>176.0</ele><time>2026-04-19T09:04:16Z</time></trkpt><trkpt lat="42.07391201719343" lon="11.84917068711931"><ele>176.0</ele><time>2026-04-19T09:04:17Z</time></trkpt><trkpt lat="42.073842528168306" lon="11.849182654182613"><ele>174.60000000000002</ele><time>2026-04-19T09:04:18Z</time></trkpt><trkpt lat="42.073743357235465" lon="11.849311728435316"><ele>173.2</ele><time>2026-04-19T09:04:20Z</time></trkpt><trkpt lat="42.073680573694055" lon="11.84936146006258"><ele>171.8</ele><time>2026-04-19T09:04:21Z</time></trkpt><trkpt lat="42.07360926881843" lon="11.849367679722388"><ele>170.39999999999998</ele><time>2026-04-19T09:04:22Z</time></trkpt><trkpt lat="42.073537610887456" lon="11.849344230972248"><ele>169.0</ele><time>2026-04-19T09:04:23Z</time></trkpt><trkpt lat="42.07348889779853" lon="11.849225113153608"><ele>169.0</ele><time>2026-04-19T09:04:24Z</time></trkpt><trkpt lat="42.07344912846052" lon="11.84913672806851"><ele>169.0</ele><time>2026-04-19T09:04:25Z</time></trkpt><trkpt lat="42.07339573361664" lon="11.849062771220515"><ele>169.0</ele><time>2026-04-19T09:04:26Z</time></trkpt><trkpt lat="42.073327947495365" lon="11.849032335551911"><ele>169.0</ele><time>2026-04-19T09:04:27Z</time></trkpt><trkpt lat="42.073194839146915" lon="11.849046361395981"><ele>169.0</ele><time>2026-04-19T09:04:29Z</time></trkpt><trkpt lat="42.07313809182936" lon="11.848999341273757"><ele>169.0</ele><time>2026-04-19T09:04:30Z</time></trkpt><trkpt lat="42.07308335904768" lon="11.848947143574884"><ele>166.16666666666669</ele><time>2026-04-19T09:04:31Z</time></trkpt><trkpt lat="42.07302513514571" lon="11.848886530861305"><ele>163.33333333333334</ele><time>2026-04-19T09:04:32Z</time></trkpt><trkpt lat="42.07298936483458" lon="11.848786552034134"><ele>160.5</ele><time>2026-04-19T09:04:33Z</time></trkpt><trkpt lat="42.07298575371247" lon="11.848682677349226"><ele>157.66666666666666</ele><time>2026-04-19T09:04:34Z</time></trkpt><trkpt lat="42.072955294528704" lon="11.848583309489594"><ele>154.83333333333331</ele><time>2026-04-19T09:04:35Z</time></trkpt><trkpt lat="42.07291229035567" lon="11.848480216366175"><ele>152.0</ele><time>2026-04-19T09:04:36Z</time></trkpt><trkpt lat="42.07285870484398" lon="11.848380007830235"><ele>152.0</ele><time>2026-04-19T09:04:37Z</time></trkpt><trkpt lat="42.072804600917365" lon="11.848279782714883"><ele>152.0</ele><time>2026-04-19T09:04:38Z</time></trkpt><trkpt lat="42.072750220866034" lon="11.8481886721738"><ele>152.0</ele><time>2026-04-19T09:04:39Z</time></trkpt><trkpt lat="42.072711099802945" lon="11.848096842640908"><ele>152.0</ele><time>2026-04-19T09:04:40Z</time></trkpt><trkpt lat="42.07266721665374" lon="11.848002172609938"><ele>152.0</ele><time>2026-04-19T09:04:41Z</time></trkpt><trkpt lat="42.0726183188125" lon="11.847920266737997"><ele>152.0</ele><time>2026-04-19T09:04:42Z</time></trkpt><trkpt lat="42.072574889188" lon="11.847832865743777"><ele>152.0</ele><time>2026-04-19T09:04:43Z</time></trkpt><trkpt lat="42.07254731935685" lon="11.847737055549157"><ele>152.0</ele><time>2026-04-19T09:04:44Z</time></trkpt><trkpt lat="42.07251584769771" lon="11.847629174547649"><ele>152.0</ele><time>2026-04-19T09:04:45Z</time></trkpt><trkpt lat="42.072462939076914" lon="11.847545020984978"><ele>152.0</ele><time>2026-04-19T09:04:46Z</time></trkpt><trkpt lat="42.07239938660054" lon="11.847484576712494"><ele>152.0</ele><time>2026-04-19T09:04:47Z</time></trkpt><trkpt lat="42.07234595892345" lon="11.847420161114702"><ele>152.0</ele><time>2026-04-19T09:04:48Z</time></trkpt><trkpt lat="42.072298342513676" lon="11.847335526075117"><ele>150.16666666666666</ele><time>2026-04-19T09:04:49Z</time></trkpt><trkpt lat="42.072252053523286" lon="11.847259638168456"><ele>148.33333333333331</ele><time>2026-04-19T09:04:50Z</time></trkpt><trkpt lat="42.072189486606945" lon="11.847208200426577"><ele>146.5</ele><time>2026-04-19T09:04:51Z</time></trkpt><trkpt lat="42.07211122505207" lon="11.847160350366815"><ele>144.66666666666666</ele><time>2026-04-19T09:04:52Z</time></trkpt><trkpt lat="42.07201102351649" lon="11.847118060957467"><ele>142.83333333333334</ele><time>2026-04-19T09:04:53Z</time></trkpt><trkpt lat="42.0719182939837" lon="11.847072583964389"><ele>141.0</ele><time>2026-04-19T09:04:54Z</time></trkpt><trkpt lat="42.07184565456142" lon="11.847040315191554"><ele>141.0</ele><time>2026-04-19T09:04:55Z</time></trkpt><trkpt lat="42.0717399065547" lon="11.846961635750262"><ele>141.0</ele><time>2026-04-19T09:04:57Z</time></trkpt><trkpt lat="42.071711430051934" lon="11.846879473895488"><ele>141.0</ele><time>2026-04-19T09:04:58Z</time></trkpt><trkpt lat="42.07169144253765" lon="11.846791478824464"><ele>141.0</ele><time>2026-04-19T09:04:59Z</time></trkpt><trkpt lat="42.07174699682454" lon="11.846658091821942"><ele>141.0</ele><time>2026-04-19T09:05:01Z</time></trkpt><trkpt lat="42.07181466733149" lon="11.84662382414813"><ele>141.0</ele><time>2026-04-19T09:05:02Z</time></trkpt><trkpt lat="42.071885798710085" lon="11.84650149119465"><ele>141.66666666666666</ele><time>2026-04-19T09:05:04Z</time></trkpt><trkpt lat="42.07186436150061" lon="11.846359800044706"><ele>142.33333333333334</ele><time>2026-04-19T09:05:06Z</time></trkpt><trkpt lat="42.071813025668" lon="11.84630461236313"><ele>143.0</ele><time>2026-04-19T09:05:07Z</time></trkpt><trkpt lat="42.07174808256629" lon="11.846241956276653"><ele>143.66666666666669</ele><time>2026-04-19T09:05:08Z</time></trkpt><trkpt lat="42.071699321515844" lon="11.8461422748322"><ele>144.33333333333334</ele><time>2026-04-19T09:05:09Z</time></trkpt><trkpt lat="42.07167870324679" lon="11.846037541101841"><ele>145.0</ele><time>2026-04-19T09:05:10Z</time></trkpt><trkpt lat="42.071665798485654" lon="11.845940569753974"><ele>143.5</ele><time>2026-04-19T09:05:11Z</time></trkpt><trkpt lat="42.07163200546097" lon="11.845862286477196"><ele>142.0</ele><time>2026-04-19T09:05:12Z</time></trkpt><trkpt lat="42.07159950799303" lon="11.845789101882575"><ele>140.5</ele><time>2026-04-19T09:05:13Z</time></trkpt><trkpt lat="42.071579984860264" lon="11.845701649429135"><ele>139.0</ele><time>2026-04-19T09:05:14Z</time></trkpt><trkpt lat="42.071575845678716" lon="11.845542648497018"><ele>137.5</ele><time>2026-04-19T09:05:16Z</time></trkpt><trkpt lat="42.071589286337264" lon="11.84541065212627"><ele>136.0</ele><time>2026-04-19T09:05:18Z</time></trkpt><trkpt lat="42.07149400647745" lon="11.845266826436982"><ele>134.57142857142856</ele><time>2026-04-19T09:05:20Z</time></trkpt><trkpt lat="42.07143524710065" lon="11.845194380146777"><ele>133.14285714285714</ele><time>2026-04-19T09:05:21Z</time></trkpt><trkpt lat="42.07137377673358" lon="11.845106653682466"><ele>131.71428571428572</ele><time>2026-04-19T09:05:22Z</time></trkpt><trkpt lat="42.07131809500625" lon="11.845043299619439"><ele>130.28571428571428</ele><time>2026-04-19T09:05:23Z</time></trkpt><trkpt lat="42.07125616650565" lon="11.84501485045954"><ele>128.85714285714286</ele><time>2026-04-19T09:05:24Z</time></trkpt><trkpt lat="42.071184599242926" lon="11.84499362292724"><ele>127.42857142857143</ele><time>2026-04-19T09:05:25Z</time></trkpt><trkpt lat="42.07113273687731" lon="11.844941015501476"><ele>126.0</ele><time>2026-04-19T09:05:26Z</time></trkpt><trkpt lat="42.07110849195051" lon="11.844844710863024"><ele>126.0</ele><time>2026-04-19T09:05:27Z</time></trkpt><trkpt lat="42.07110437949482" lon="11.844752325511209"><ele>126.0</ele><time>2026-04-19T09:05:27.999Z</time></trkpt><trkpt lat="42.07106345807625" lon="11.844645768177898"><ele>126.0</ele><time>2026-04-19T09:05:28.999Z</time></trkpt><trkpt lat="42.071022782315936" lon="11.844532247202844"><ele>126.0</ele><time>2026-04-19T09:05:29.999Z</time></trkpt><trkpt lat="42.07098019984903" lon="11.844428609393862"><ele>126.0</ele><time>2026-04-19T09:05:30.999Z</time></trkpt><trkpt lat="42.07093995880096" lon="11.844358399101882"><ele>126.0</ele><time>2026-04-19T09:05:31.999Z</time></trkpt><trkpt lat="42.07090585660966" lon="11.844267103875486"><ele>126.0</ele><time>2026-04-19T09:05:32.999Z</time></trkpt><trkpt lat="42.070894236501665" lon="11.8441721703096"><ele>126.0</ele><time>2026-04-19T09:05:33.999Z</time></trkpt><trkpt lat="42.070882832545784" lon="11.84407893720995"><ele>126.0</ele><time>2026-04-19T09:05:34.999Z</time></trkpt><trkpt lat="42.07086667033746" lon="11.843983888555686"><ele>126.0</ele><time>2026-04-19T09:05:35.999Z</time></trkpt><trkpt lat="42.07086538509773" lon="11.843889130952913"><ele>126.0</ele><time>2026-04-19T09:05:36.999Z</time></trkpt><trkpt lat="42.070883145451155" lon="11.84379661018052"><ele>126.0</ele><time>2026-04-19T09:05:37.999Z</time></trkpt><trkpt lat="42.070903858811235" lon="11.84365143486208"><ele>126.0</ele><time>2026-04-19T09:05:39.999Z</time></trkpt><trkpt lat="42.07084630013085" lon="11.843552302027305"><ele>126.0</ele><time>2026-04-19T09:05:41.999Z</time></trkpt><trkpt lat="42.07072178433785" lon="11.84348075394373"><ele>126.0</ele><time>2026-04-19T09:05:43.999Z</time></trkpt><trkpt lat="42.070646517286015" lon="11.84342765136974"><ele>126.0</ele><time>2026-04-19T09:05:44.999Z</time></trkpt><trkpt lat="42.07059877806924" lon="11.84333517251054"><ele>126.0</ele><time>2026-04-19T09:05:45.999Z</time></trkpt><trkpt lat="42.070540371048345" lon="11.84324291579313"><ele>124.83333333333333</ele><time>2026-04-19T09:05:46.999Z</time></trkpt><trkpt lat="42.07050516066829" lon="11.843160147023845"><ele>123.66666666666666</ele><time>2026-04-19T09:05:47.999Z</time></trkpt><trkpt lat="42.07044806197376" lon="11.843089349229187"><ele>122.5</ele><time>2026-04-19T09:05:48.999Z</time></trkpt><trkpt lat="42.070383502717576" lon="11.843024048546791"><ele>121.33333333333333</ele><time>2026-04-19T09:05:49.999Z</time></trkpt><trkpt lat="42.07032585500057" lon="11.842970134704107"><ele>120.16666666666666</ele><time>2026-04-19T09:05:50.999Z</time></trkpt><trkpt lat="42.07026149675991" lon="11.842945939535785"><ele>119.0</ele><time>2026-04-19T09:05:51.999Z</time></trkpt><trkpt lat="42.07015581737453" lon="11.842900608223992"><ele>119.0</ele><time>2026-04-19T09:05:53.999Z</time></trkpt><trkpt lat="42.07010457641354" lon="11.842828991778038"><ele>119.0</ele><time>2026-04-19T09:05:54.999Z</time></trkpt><trkpt lat="42.07006925341482" lon="11.842701484965701"><ele>119.0</ele><time>2026-04-19T09:05:55.999Z</time></trkpt><trkpt lat="42.07003669111246" lon="11.842590621738928"><ele>119.0</ele><time>2026-04-19T09:05:56.999Z</time></trkpt><trkpt lat="42.070011162276465" lon="11.842467950310978"><ele>119.0</ele><time>2026-04-19T09:05:57.999Z</time></trkpt><trkpt lat="42.06999740036759" lon="11.842332252601484"><ele>116.2</ele><time>2026-04-19T09:05:58.999Z</time></trkpt><trkpt lat="42.069973861367885" lon="11.842229463857425"><ele>113.4</ele><time>2026-04-19T09:05:59.999Z</time></trkpt><trkpt lat="42.06990515077092" lon="11.842106040289327"><ele>110.6</ele><time>2026-04-19T09:06:01.999Z</time></trkpt><trkpt lat="42.069797276148414" lon="11.842010832137342"><ele>107.8</ele><time>2026-04-19T09:06:03.999Z</time></trkpt><trkpt lat="42.06974029680036" lon="11.841946945058769"><ele>105.0</ele><time>2026-04-19T09:06:04.999Z</time></trkpt><trkpt lat="42.06970936945613" lon="11.841822727964363"><ele>102.16666666666667</ele><time>2026-04-19T09:06:05.999Z</time></trkpt><trkpt lat="42.069641876318094" lon="11.841789738665268"><ele>99.33333333333333</ele><time>2026-04-19T09:06:06.999Z</time></trkpt><trkpt lat="42.06957880775205" lon="11.841698078131795"><ele>96.5</ele><time>2026-04-19T09:06:08.999Z</time></trkpt><trkpt lat="42.069522976743265" lon="11.841645929850642"><ele>93.66666666666666</ele><time>2026-04-19T09:06:10.999Z</time></trkpt><trkpt lat="42.06944671347608" lon="11.841645667742817"><ele>90.83333333333333</ele><time>2026-04-19T09:06:12.999Z</time></trkpt><trkpt lat="42.06937879419487" lon="11.841582265719879"><ele>88.0</ele><time>2026-04-19T09:06:15.999Z</time></trkpt><trkpt lat="42.069298723911366" lon="11.841552646105596"><ele>88.0</ele><time>2026-04-19T09:06:18Z</time></trkpt><trkpt lat="42.06923435674603" lon="11.841540454983662"><ele>88.0</ele><time>2026-04-19T09:06:20Z</time></trkpt><trkpt lat="42.069178609649065" lon="11.8416268522437"><ele>88.0</ele><time>2026-04-19T09:07:43.999Z</time></trkpt><trkpt lat="42.06911720174296" lon="11.8416858071926"><ele>88.0</ele><time>2026-04-19T09:07:45.999Z</time></trkpt><trkpt lat="42.06905303482574" lon="11.841757078634883"><ele>88.0</ele><time>2026-04-19T09:07:47.999Z</time></trkpt><trkpt lat="42.06898223229865" lon="11.841817709472672"><ele>88.0</ele><time>2026-04-19T09:07:49.999Z</time></trkpt><trkpt lat="42.06891421351808" lon="11.841832113011558"><ele>83.80000000000001</ele><time>2026-04-19T09:07:51.999Z</time></trkpt><trkpt lat="42.06882568820362" lon="11.841807438152642"><ele>79.60000000000001</ele><time>2026-04-19T09:07:55.999Z</time></trkpt><trkpt lat="42.06874243371671" lon="11.841745574332407"><ele>75.4</ele><time>2026-04-19T09:07:57.999Z</time></trkpt><trkpt lat="42.06865585661636" lon="11.841668624175805"><ele>71.2</ele><time>2026-04-19T09:07:59.999Z</time></trkpt><trkpt lat="42.068542785828775" lon="11.841677860622655"><ele>67.0</ele><time>2026-04-19T09:08:01.999Z</time></trkpt><trkpt lat="42.068473064241985" lon="11.841649588794645"><ele>66.16666666666666</ele><time>2026-04-19T09:08:03.999Z</time></trkpt><trkpt lat="42.06840813902193" lon="11.84165096882152"><ele>65.33333333333333</ele><time>2026-04-19T09:08:05.999Z</time></trkpt><trkpt lat="42.06830300803068" lon="11.841579798045302"><ele>64.5</ele><time>2026-04-19T09:08:07.999Z</time></trkpt><trkpt lat="42.06820468852736" lon="11.841581508387616"><ele>63.66666666666667</ele><time>2026-04-19T09:08:09.999Z</time></trkpt><trkpt lat="42.068140555480454" lon="11.84159167799825"><ele>62.833333333333336</ele><time>2026-04-19T09:08:10.999Z</time></trkpt><trkpt lat="42.06807568338837" lon="11.84148737467256"><ele>62.0</ele><time>2026-04-19T09:08:12.999Z</time></trkpt><trkpt lat="42.06804361235986" lon="11.841356146819258"><ele>57.50000000000001</ele><time>2026-04-19T09:08:14.999Z</time></trkpt><trkpt lat="42.06803769202786" lon="11.841226543167831"><ele>53.0</ele><time>2026-04-19T09:08:16.999Z</time></trkpt><trkpt lat="42.06804406674418" lon="11.841131286922794"><ele>48.5</ele><time>2026-04-19T09:08:18.999Z</time></trkpt><trkpt lat="42.06802532606092" lon="11.841042649290928"><ele>44.0</ele><time>2026-04-19T09:08:22.999Z</time></trkpt><trkpt lat="42.06793625549836" lon="11.840989456960703"><ele>39.5</ele><time>2026-04-19T09:08:27Z</time></trkpt><trkpt lat="42.06786232880718" lon="11.841059562137698"><ele>35.0</ele><time>2026-04-19T09:08:29Z</time></trkpt><trkpt lat="42.067787846823116" lon="11.841115187335877"><ele>35.0</ele><time>2026-04-19T09:08:31Z</time></trkpt><trkpt lat="42.06772289317177" lon="11.841042644305965"><ele>35.0</ele><time>2026-04-19T09:08:34Z</time></trkpt><trkpt lat="42.067715668224636" lon="11.840950421420125"><ele>35.0</ele><time>2026-04-19T09:08:36Z</time></trkpt><trkpt lat="42.067670591109795" lon="11.840869790065886"><ele>35.0</ele><time>2026-04-19T09:08:38Z</time></trkpt><trkpt lat="42.067634914584886" lon="11.840952153633529"><ele>35.0</ele><time>2026-04-19T09:08:45Z</time></trkpt><trkpt lat="42.06762022828213" lon="11.841102239127295"><ele>35.0</ele><time>2026-04-19T09:08:47Z</time></trkpt><trkpt lat="42.06762536208166" lon="11.841209119209596"><ele>35.0</ele><time>2026-04-19T09:08:48Z</time></trkpt><trkpt lat="42.06762478722361" lon="11.841313909329207"><ele>35.0</ele><time>2026-04-19T09:08:49Z</time></trkpt><trkpt lat="42.06763851984399" lon="11.84147393390865"><ele>35.0</ele><time>2026-04-19T09:08:51Z</time></trkpt><trkpt lat="42.06766690572267" lon="11.841613365790304"><ele>35.0</ele><time>2026-04-19T09:08:53Z</time></trkpt><trkpt lat="42.06770292684669" lon="11.84188028955186"><ele>35.2</ele><time>2026-04-19T09:08:58Z</time></trkpt><trkpt lat="42.067679430823176" lon="11.84198928885804"><ele>35.4</ele><time>2026-04-19T09:08:59Z</time></trkpt><trkpt lat="42.06763156608129" lon="11.84217903510457"><ele>35.6</ele><time>2026-04-19T09:09:00Z</time></trkpt><trkpt lat="42.06759009536336" lon="11.842299762369146"><ele>35.8</ele><time>2026-04-19T09:09:01Z</time></trkpt><trkpt lat="42.06759196108714" lon="11.8424444134059"><ele>36.0</ele><time>2026-04-19T09:09:02Z</time></trkpt><trkpt lat="42.06759584350191" lon="11.842584530068303"><ele>35.6</ele><time>2026-04-19T09:09:03Z</time></trkpt><trkpt lat="42.06761578624702" lon="11.842722111327522"><ele>35.2</ele><time>2026-04-19T09:09:04Z</time></trkpt><trkpt lat="42.06762919314058" lon="11.842839122467508"><ele>34.8</ele><time>2026-04-19T09:09:05Z</time></trkpt><trkpt lat="42.06764240861232" lon="11.842992437592834"><ele>34.4</ele><time>2026-04-19T09:09:07Z</time></trkpt><trkpt lat="42.06763882348776" lon="11.843116475654671"><ele>34.0</ele><time>2026-04-19T09:09:09Z</time></trkpt><trkpt lat="42.06764710269953" lon="11.843256505891333"><ele>34.0</ele><time>2026-04-19T09:09:11Z</time></trkpt><trkpt lat="42.06766164296354" lon="11.843374092640047"><ele>34.0</ele><time>2026-04-19T09:09:13Z</time></trkpt><trkpt lat="42.0676859094293" lon="11.843504577492773"><ele>34.0</ele><time>2026-04-19T09:09:15Z</time></trkpt><trkpt lat="42.06772913382771" lon="11.843626142534138"><ele>34.0</ele><time>2026-04-19T09:09:17Z</time></trkpt><trkpt lat="42.06777349523808" lon="11.843735225156353"><ele>34.0</ele><time>2026-04-19T09:09:19Z</time></trkpt><trkpt lat="42.06782516661716" lon="11.843878710106742"><ele>34.2</ele><time>2026-04-19T09:09:21Z</time></trkpt><trkpt lat="42.06784696542961" lon="11.844012218484579"><ele>34.4</ele><time>2026-04-19T09:09:23Z</time></trkpt><trkpt lat="42.067856258240305" lon="11.844159252356874"><ele>34.6</ele><time>2026-04-19T09:09:25Z</time></trkpt><trkpt lat="42.067869889527245" lon="11.844326891117849"><ele>34.8</ele><time>2026-04-19T09:09:27Z</time></trkpt><trkpt lat="42.067870476139355" lon="11.844423615231007"><ele>35.0</ele><time>2026-04-19T09:09:28Z</time></trkpt><trkpt lat="42.06786287959841" lon="11.844516626986211"><ele>35.166666666666664</ele><time>2026-04-19T09:09:29Z</time></trkpt><trkpt lat="42.06785760265519" lon="11.844612711813504"><ele>35.33333333333333</ele><time>2026-04-19T09:09:30Z</time></trkpt><trkpt lat="42.0678561130438" lon="11.844711784650414"><ele>35.5</ele><time>2026-04-19T09:09:31Z</time></trkpt><trkpt lat="42.067847717626606" lon="11.844825450426221"><ele>35.666666666666664</ele><time>2026-04-19T09:09:32Z</time></trkpt><trkpt lat="42.067836967544984" lon="11.844938416674418"><ele>35.833333333333336</ele><time>2026-04-19T09:09:33Z</time></trkpt><trkpt lat="42.067822943397616" lon="11.845041274837351"><ele>36.0</ele><time>2026-04-19T09:09:34Z</time></trkpt><trkpt lat="42.06781365880835" lon="11.84515796020963"><ele>36.2</ele><time>2026-04-19T09:09:35Z</time></trkpt><trkpt lat="42.06780276189709" lon="11.845287603180378"><ele>36.400000000000006</ele><time>2026-04-19T09:09:36Z</time></trkpt><trkpt lat="42.067795427228575" lon="11.845435958901133"><ele>36.6</ele><time>2026-04-19T09:09:37Z</time></trkpt><trkpt lat="42.067796899861214" lon="11.84560798267713"><ele>36.800000000000004</ele><time>2026-04-19T09:09:38Z</time></trkpt><trkpt lat="42.0678130621901" lon="11.84574568839405"><ele>37.0</ele><time>2026-04-19T09:09:39Z</time></trkpt><trkpt lat="42.06783957335822" lon="11.845866421252065"><ele>37.5</ele><time>2026-04-19T09:09:39.999Z</time></trkpt><trkpt lat="42.0678816390295" lon="11.845967346146177"><ele>38.0</ele><time>2026-04-19T09:09:40.999Z</time></trkpt><trkpt lat="42.06793332065494" lon="11.846066591482671"><ele>38.5</ele><time>2026-04-19T09:09:41.999Z</time></trkpt><trkpt lat="42.06799239499365" lon="11.846156195052323"><ele>39.0</ele><time>2026-04-19T09:09:42.999Z</time></trkpt><trkpt lat="42.0680476383273" lon="11.846235561166962"><ele>39.5</ele><time>2026-04-19T09:09:43.999Z</time></trkpt><trkpt lat="42.06807398440254" lon="11.846359486681104"><ele>40.0</ele><time>2026-04-19T09:09:44.999Z</time></trkpt><trkpt lat="42.068112893939976" lon="11.846503249655596"><ele>40.0</ele><time>2026-04-19T09:09:45.999Z</time></trkpt><trkpt lat="42.06813329865383" lon="11.846632435001725"><ele>40.0</ele><time>2026-04-19T09:09:46.999Z</time></trkpt><trkpt lat="42.068133645676376" lon="11.846758123138894"><ele>40.0</ele><time>2026-04-19T09:09:47.999Z</time></trkpt><trkpt lat="42.06815630017431" lon="11.846896015255364"><ele>40.0</ele><time>2026-04-19T09:09:48.999Z</time></trkpt><trkpt lat="42.06817934929006" lon="11.847006150726076"><ele>40.0</ele><time>2026-04-19T09:09:49.999Z</time></trkpt><trkpt lat="42.06821848428263" lon="11.84712575841679"><ele>40.4</ele><time>2026-04-19T09:09:50.999Z</time></trkpt><trkpt lat="42.06828018188275" lon="11.847228107762925"><ele>40.8</ele><time>2026-04-19T09:09:51.999Z</time></trkpt><trkpt lat="42.068345774663634" lon="11.847329374769503"><ele>41.2</ele><time>2026-04-19T09:09:52.999Z</time></trkpt><trkpt lat="42.06840026189565" lon="11.847442697698348"><ele>41.6</ele><time>2026-04-19T09:09:53.999Z</time></trkpt><trkpt lat="42.068457341990886" lon="11.847554162266736"><ele>42.0</ele><time>2026-04-19T09:09:54.999Z</time></trkpt><trkpt lat="42.068515724766634" lon="11.847656786717733"><ele>42.0</ele><time>2026-04-19T09:09:55.999Z</time></trkpt><trkpt lat="42.0685679297675" lon="11.847758268461718"><ele>42.0</ele><time>2026-04-19T09:09:56.999Z</time></trkpt><trkpt lat="42.06860146058606" lon="11.847869493913368"><ele>42.0</ele><time>2026-04-19T09:09:57.999Z</time></trkpt><trkpt lat="42.06864766180001" lon="11.84797666214563"><ele>42.0</ele><time>2026-04-19T09:09:58.999Z</time></trkpt><trkpt lat="42.06868785445777" lon="11.848083460144881"><ele>42.0</ele><time>2026-04-19T09:09:59.999Z</time></trkpt><trkpt lat="42.0687233416529" lon="11.848213281178449"><ele>42.0</ele><time>2026-04-19T09:10:00.999Z</time></trkpt><trkpt lat="42.068755021423165" lon="11.848347562451975"><ele>42.0</ele><time>2026-04-19T09:10:01.999Z</time></trkpt><trkpt lat="42.068783275274264" lon="11.848460924732747"><ele>42.0</ele><time>2026-04-19T09:10:02.999Z</time></trkpt><trkpt lat="42.068819954328816" lon="11.848610551093236"><ele>42.0</ele><time>2026-04-19T09:10:03.999Z</time></trkpt><trkpt lat="42.06886441409415" lon="11.84874003597091"><ele>42.0</ele><time>2026-04-19T09:10:04.999Z</time></trkpt><trkpt lat="42.068936849621295" lon="11.848833113296637"><ele>43.0</ele><time>2026-04-19T09:10:05.999Z</time></trkpt><trkpt lat="42.06899949266991" lon="11.848940458717545"><ele>44.0</ele><time>2026-04-19T09:10:06.999Z</time></trkpt><trkpt lat="42.069068256381236" lon="11.849046893157515"><ele>45.0</ele><time>2026-04-19T09:10:07.999Z</time></trkpt><trkpt lat="42.06913271498927" lon="11.849135657218898"><ele>46.0</ele><time>2026-04-19T09:10:08.999Z</time></trkpt><trkpt lat="42.06918774417358" lon="11.849235553521636"><ele>47.0</ele><time>2026-04-19T09:10:09.999Z</time></trkpt><trkpt lat="42.06924531738179" lon="11.849331741091747"><ele>47.2</ele><time>2026-04-19T09:10:10.999Z</time></trkpt><trkpt lat="42.06931636218433" lon="11.849420434219489"><ele>47.400000000000006</ele><time>2026-04-19T09:10:11.999Z</time></trkpt><trkpt lat="42.069394606919964" lon="11.84950905592492"><ele>47.599999999999994</ele><time>2026-04-19T09:10:12.999Z</time></trkpt><trkpt lat="42.06946459842745" lon="11.849585095284418"><ele>47.8</ele><time>2026-04-19T09:10:13.999Z</time></trkpt><trkpt lat="42.06953000091761" lon="11.849664233043818"><ele>48.0</ele><time>2026-04-19T09:10:14.999Z</time></trkpt><trkpt lat="42.06959325927948" lon="11.849753483480802"><ele>48.0</ele><time>2026-04-19T09:10:15.999Z</time></trkpt><trkpt lat="42.0696477428632" lon="11.8498276995734"><ele>48.0</ele><time>2026-04-19T09:10:16.999Z</time></trkpt><trkpt lat="42.06970118208654" lon="11.849912563308576"><ele>48.0</ele><time>2026-04-19T09:10:17.999Z</time></trkpt><trkpt lat="42.069758446484954" lon="11.850009023089568"><ele>48.0</ele><time>2026-04-19T09:10:18.999Z</time></trkpt><trkpt lat="42.069813869243966" lon="11.850111061503435"><ele>48.0</ele><time>2026-04-19T09:10:19.999Z</time></trkpt><trkpt lat="42.0698768462878" lon="11.850210801363705"><ele>48.0</ele><time>2026-04-19T09:10:20.999Z</time></trkpt><trkpt lat="42.06994354325006" lon="11.850325927216746"><ele>48.8</ele><time>2026-04-19T09:10:21.999Z</time></trkpt><trkpt lat="42.07002202144888" lon="11.850464171869257"><ele>49.599999999999994</ele><time>2026-04-19T09:10:22.999Z</time></trkpt><trkpt lat="42.070084250270384" lon="11.850562743756896"><ele>50.400000000000006</ele><time>2026-04-19T09:10:23.999Z</time></trkpt><trkpt lat="42.070159376714464" lon="11.850652946914527"><ele>51.2</ele><time>2026-04-19T09:10:24.999Z</time></trkpt><trkpt lat="42.070238020830125" lon="11.850730271508374"><ele>52.0</ele><time>2026-04-19T09:10:25.999Z</time></trkpt><trkpt lat="42.070329186408834" lon="11.850824951690637"><ele>52.0</ele><time>2026-04-19T09:10:26.999Z</time></trkpt><trkpt lat="42.07040420042354" lon="11.8509121030206"><ele>52.0</ele><time>2026-04-19T09:10:27.999Z</time></trkpt><trkpt lat="42.07047276443247" lon="11.850981770216313"><ele>52.0</ele><time>2026-04-19T09:10:28.999Z</time></trkpt><trkpt lat="42.070558911428606" lon="11.851106326710592"><ele>52.0</ele><time>2026-04-19T09:10:31Z</time></trkpt><trkpt lat="42.070609788526596" lon="11.851192408505277"><ele>52.0</ele><time>2026-04-19T09:10:32Z</time></trkpt><trkpt lat="42.070649540784466" lon="11.85127967908997"><ele>51.99999999999999</ele><time>2026-04-19T09:10:33Z</time></trkpt><trkpt lat="42.07070247123419" lon="11.851385650100527"><ele>52.0</ele><time>2026-04-19T09:10:34Z</time></trkpt><trkpt lat="42.07073355461715" lon="11.851485730671756"><ele>52.0</ele><time>2026-04-19T09:10:35Z</time></trkpt><trkpt lat="42.07077938986094" lon="11.851553482656414"><ele>52.0</ele><time>2026-04-19T09:10:36Z</time></trkpt><trkpt lat="42.070847754926206" lon="11.851598449155864"><ele>51.99999999999999</ele><time>2026-04-19T09:10:37Z</time></trkpt><trkpt lat="42.070934318234116" lon="11.851720217617705"><ele>52.0</ele><time>2026-04-19T09:10:39Z</time></trkpt><trkpt lat="42.070958255516636" lon="11.851809531577938"><ele>52.0</ele><time>2026-04-19T09:10:40Z</time></trkpt><trkpt lat="42.07097339110574" lon="11.85190039490457"><ele>52.0</ele><time>2026-04-19T09:10:41Z</time></trkpt><trkpt lat="42.07098560741288" lon="11.851998790783645"><ele>52.0</ele><time>2026-04-19T09:10:42Z</time></trkpt><trkpt lat="42.071013371547814" lon="11.85209233461092"><ele>52.0</ele><time>2026-04-19T09:10:43Z</time></trkpt><trkpt lat="42.07103284138781" lon="11.8521837242287"><ele>52.0</ele><time>2026-04-19T09:10:44Z</time></trkpt><trkpt lat="42.071048650064746" lon="11.85228772210332"><ele>52.0</ele><time>2026-04-19T09:10:45Z</time></trkpt><trkpt lat="42.07106376062902" lon="11.852379372472779"><ele>52.0</ele><time>2026-04-19T09:10:46Z</time></trkpt><trkpt lat="42.07104486656678" lon="11.85247892355727"><ele>51.99999999999999</ele><time>2026-04-19T09:10:47Z</time></trkpt><trkpt lat="42.07102896493639" lon="11.852606029122654"><ele>52.0</ele><time>2026-04-19T09:10:48Z</time></trkpt><trkpt lat="42.07103821353457" lon="11.852709921933682"><ele>52.0</ele><time>2026-04-19T09:10:49Z</time></trkpt><trkpt lat="42.071058094117475" lon="11.852821483205185"><ele>52.0</ele><time>2026-04-19T09:10:50Z</time></trkpt><trkpt lat="42.07110266227073" lon="11.852914494424232"><ele>51.99999999999999</ele><time>2026-04-19T09:10:51Z</time></trkpt><trkpt lat="42.07116209663967" lon="11.853013007191386"><ele>52.0</ele><time>2026-04-19T09:10:52Z</time></trkpt><trkpt lat="42.071204342944206" lon="11.853116233731942"><ele>52.666666666666664</ele><time>2026-04-19T09:10:53Z</time></trkpt><trkpt lat="42.07124731116476" lon="11.853216345005139"><ele>53.33333333333333</ele><time>2026-04-19T09:10:54Z</time></trkpt><trkpt lat="42.071300772760345" lon="11.853307120948651"><ele>54.0</ele><time>2026-04-19T09:10:55Z</time></trkpt><trkpt lat="42.07136144878225" lon="11.853394916656619"><ele>54.66666666666667</ele><time>2026-04-19T09:10:56Z</time></trkpt><trkpt lat="42.071421155808764" lon="11.85348971124815"><ele>55.333333333333336</ele><time>2026-04-19T09:10:57Z</time></trkpt><trkpt lat="42.071479226284346" lon="11.853585325142118"><ele>56.0</ele><time>2026-04-19T09:10:58Z</time></trkpt><trkpt lat="42.0714932291779" lon="11.853704350841822"><ele>56.199999999999996</ele><time>2026-04-19T09:10:59Z</time></trkpt><trkpt lat="42.071497075819224" lon="11.853824018565605"><ele>56.39999999999999</ele><time>2026-04-19T09:11:00Z</time></trkpt><trkpt lat="42.071537362078466" lon="11.853919393888741"><ele>56.6</ele><time>2026-04-19T09:11:01Z</time></trkpt><trkpt lat="42.071602396643335" lon="11.854016186058958"><ele>56.8</ele><time>2026-04-19T09:11:02Z</time></trkpt><trkpt lat="42.07168691760606" lon="11.854108306473176"><ele>57.0</ele><time>2026-04-19T09:11:03Z</time></trkpt><trkpt lat="42.07178982164964" lon="11.854212736489766"><ele>56.5</ele><time>2026-04-19T09:11:04Z</time></trkpt><trkpt lat="42.071900290647456" lon="11.85434276378234"><ele>56.0</ele><time>2026-04-19T09:11:05Z</time></trkpt><trkpt lat="42.07197680662611" lon="11.8544558564474"><ele>55.5</ele><time>2026-04-19T09:11:06Z</time></trkpt><trkpt lat="42.0720315490858" lon="11.85457919988063"><ele>55.0</ele><time>2026-04-19T09:11:07Z</time></trkpt><trkpt lat="42.0720946905033" lon="11.854695988357332"><ele>54.99999999999999</ele><time>2026-04-19T09:11:08Z</time></trkpt><trkpt lat="42.07214591265075" lon="11.854806371907069"><ele>55.0</ele><time>2026-04-19T09:11:09Z</time></trkpt><trkpt lat="42.07219356904398" lon="11.854897033391925"><ele>55.0</ele><time>2026-04-19T09:11:10Z</time></trkpt><trkpt lat="42.07224167791397" lon="11.85500776439382"><ele>55.0</ele><time>2026-04-19T09:11:11Z</time></trkpt><trkpt lat="42.072273104256276" lon="11.855103591291963"><ele>54.99999999999999</ele><time>2026-04-19T09:11:12Z</time></trkpt><trkpt lat="42.0723126443591" lon="11.855193049455151"><ele>55.0</ele><time>2026-04-19T09:11:13Z</time></trkpt><trkpt lat="42.072363949756934" lon="11.855274466007359"><ele>55.33333333333333</ele><time>2026-04-19T09:11:14Z</time></trkpt><trkpt lat="42.0724176761029" lon="11.855360411263515"><ele>55.666666666666664</ele><time>2026-04-19T09:11:15Z</time></trkpt><trkpt lat="42.07247662347379" lon="11.855435787874185"><ele>56.0</ele><time>2026-04-19T09:11:16Z</time></trkpt><trkpt lat="42.072531158510564" lon="11.855517541625396"><ele>56.33333333333333</ele><time>2026-04-19T09:11:17Z</time></trkpt><trkpt lat="42.07257822195027" lon="11.855597709424128"><ele>56.666666666666664</ele><time>2026-04-19T09:11:18Z</time></trkpt><trkpt lat="42.0726256117088" lon="11.85567978509652"><ele>57.0</ele><time>2026-04-19T09:11:19Z</time></trkpt><trkpt lat="42.07268094408138" lon="11.855741990705244"><ele>57.0</ele><time>2026-04-19T09:11:20Z</time></trkpt><trkpt lat="42.07273889534639" lon="11.855786930942308"><ele>57.0</ele><time>2026-04-19T09:11:21Z</time></trkpt><trkpt lat="42.07286853858606" lon="11.85583012235762"><ele>57.0</ele><time>2026-04-19T09:11:23Z</time></trkpt><trkpt lat="42.07295675343244" lon="11.855899460627704"><ele>57.0</ele><time>2026-04-19T09:11:25Z</time></trkpt><trkpt lat="42.072995653077875" lon="11.855978242677727"><ele>57.0</ele><time>2026-04-19T09:11:26Z</time></trkpt><trkpt lat="42.0730486041608" lon="11.85608833822636"><ele>57.5</ele><time>2026-04-19T09:11:28Z</time></trkpt><trkpt lat="42.07309425429502" lon="11.856147635432707"><ele>58.0</ele><time>2026-04-19T09:11:29Z</time></trkpt><trkpt lat="42.07316660695295" lon="11.856242076848506"><ele>58.5</ele><time>2026-04-19T09:11:31Z</time></trkpt><trkpt lat="42.07323854875144" lon="11.856318391521313"><ele>59.0</ele><time>2026-04-19T09:11:33Z</time></trkpt><trkpt lat="42.07330114111252" lon="11.856384126386471"><ele>59.5</ele><time>2026-04-19T09:11:35Z</time></trkpt><trkpt lat="42.07336216948821" lon="11.856484671966141"><ele>60.0</ele><time>2026-04-19T09:11:37Z</time></trkpt><trkpt lat="42.07344206994167" lon="11.856539494620385"><ele>60.166666666666664</ele><time>2026-04-19T09:11:39Z</time></trkpt><trkpt lat="42.07353317725934" lon="11.856580567665482"><ele>60.33333333333333</ele><time>2026-04-19T09:11:41Z</time></trkpt><trkpt lat="42.073644415028355" lon="11.856591835135537"><ele>60.5</ele><time>2026-04-19T09:11:42.999Z</time></trkpt><trkpt lat="42.07370701580359" lon="11.856617726507725"><ele>60.666666666666664</ele><time>2026-04-19T09:11:43.999Z</time></trkpt><trkpt lat="42.07377548085671" lon="11.856630890600647"><ele>60.83333333333333</ele><time>2026-04-19T09:11:44.999Z</time></trkpt><trkpt lat="42.0738474571373" lon="11.856652051607032"><ele>61.0</ele><time>2026-04-19T09:11:45.999Z</time></trkpt><trkpt lat="42.073941581853134" lon="11.856670255426428"><ele>60.99999999999999</ele><time>2026-04-19T09:11:46.999Z</time></trkpt><trkpt lat="42.074025677761426" lon="11.856684493524238"><ele>61.0</ele><time>2026-04-19T09:11:47.999Z</time></trkpt><trkpt lat="42.0741178446472" lon="11.856697365456775"><ele>61.0</ele><time>2026-04-19T09:11:48.999Z</time></trkpt><trkpt lat="42.07420150157068" lon="11.856694763375794"><ele>61.0</ele><time>2026-04-19T09:11:49.999Z</time></trkpt><trkpt lat="42.07428747913775" lon="11.856705578128501"><ele>60.99999999999999</ele><time>2026-04-19T09:11:50.999Z</time></trkpt><trkpt lat="42.07437226840085" lon="11.856726582954789"><ele>61.0</ele><time>2026-04-19T09:11:51.999Z</time></trkpt><trkpt lat="42.07445697415346" lon="11.856755518541767"><ele>61.83333333333333</ele><time>2026-04-19T09:11:52.999Z</time></trkpt><trkpt lat="42.07454500562003" lon="11.856783477685052"><ele>62.666666666666664</ele><time>2026-04-19T09:11:53.999Z</time></trkpt><trkpt lat="42.07462567154312" lon="11.856783138971773"><ele>63.5</ele><time>2026-04-19T09:11:54.999Z</time></trkpt><trkpt lat="42.07470851825416" lon="11.856800114316474"><ele>64.33333333333333</ele><time>2026-04-19T09:11:55.999Z</time></trkpt><trkpt lat="42.07479374441896" lon="11.85683918416145"><ele>65.16666666666667</ele><time>2026-04-19T09:11:56.999Z</time></trkpt><trkpt lat="42.07487079509763" lon="11.856895095294723"><ele>66.0</ele><time>2026-04-19T09:11:57.999Z</time></trkpt><trkpt lat="42.074939170425225" lon="11.856940934259525"><ele>67.0</ele><time>2026-04-19T09:11:58.999Z</time></trkpt><trkpt lat="42.07500907505069" lon="11.856962644748752"><ele>68.0</ele><time>2026-04-19T09:11:59.999Z</time></trkpt><trkpt lat="42.07508941967413" lon="11.856990574692098"><ele>69.0</ele><time>2026-04-19T09:12:00.999Z</time></trkpt><trkpt lat="42.07517902845764" lon="11.857027871887134"><ele>70.0</ele><time>2026-04-19T09:12:01.999Z</time></trkpt><trkpt lat="42.075264196197224" lon="11.857059165888334"><ele>71.0</ele><time>2026-04-19T09:12:02.999Z</time></trkpt><trkpt lat="42.07536535969458" lon="11.857076404991451"><ele>72.0</ele><time>2026-04-19T09:12:03.999Z</time></trkpt><trkpt lat="42.07544434794248" lon="11.857075369797732"><ele>72.0</ele><time>2026-04-19T09:12:04.999Z</time></trkpt><trkpt lat="42.075507340705094" lon="11.857092281782434"><ele>72.0</ele><time>2026-04-19T09:12:05.999Z</time></trkpt><trkpt lat="42.075582495690234" lon="11.857147527385294"><ele>72.0</ele><time>2026-04-19T09:12:06.999Z</time></trkpt><trkpt lat="42.07562685039402" lon="11.857216947072269"><ele>72.0</ele><time>2026-04-19T09:12:07.999Z</time></trkpt><trkpt lat="42.07568400196459" lon="11.857296259406615"><ele>72.0</ele><time>2026-04-19T09:12:08.999Z</time></trkpt><trkpt lat="42.07571372076951" lon="11.857389244131076"><ele>72.0</ele><time>2026-04-19T09:12:09.999Z</time></trkpt><trkpt lat="42.07575769768589" lon="11.857472324839332"><ele>71.5</ele><time>2026-04-19T09:12:10.999Z</time></trkpt><trkpt lat="42.07584418143822" lon="11.857533102889045"><ele>71.0</ele><time>2026-04-19T09:12:12.999Z</time></trkpt><trkpt lat="42.07590740316106" lon="11.857529580512619"><ele>70.5</ele><time>2026-04-19T09:12:14.999Z</time></trkpt><trkpt lat="42.07597788579965" lon="11.857478796231371"><ele>70.0</ele><time>2026-04-19T09:12:16.999Z</time></trkpt><trkpt lat="42.07603681308037" lon="11.857528588530053"><ele>69.5</ele><time>2026-04-19T09:12:18.999Z</time></trkpt><trkpt lat="42.07608808277218" lon="11.857644413973924"><ele>69.0</ele><time>2026-04-19T09:12:20.999Z</time></trkpt><trkpt lat="42.076117291105724" lon="11.857738757631816"><ele>70.4</ele><time>2026-04-19T09:12:21.999Z</time></trkpt><trkpt lat="42.076143300284215" lon="11.857866287733211"><ele>71.80000000000001</ele><time>2026-04-19T09:12:22.999Z</time></trkpt><trkpt lat="42.07616555834782" lon="11.857985717684647"><ele>73.19999999999999</ele><time>2026-04-19T09:12:23.999Z</time></trkpt><trkpt lat="42.076171533377575" lon="11.858088676217905"><ele>74.6</ele><time>2026-04-19T09:12:24.999Z</time></trkpt><trkpt lat="42.0761672950908" lon="11.858220154727254"><ele>76.0</ele><time>2026-04-19T09:12:25.999Z</time></trkpt><trkpt lat="42.076141362116935" lon="11.85834904565692"><ele>77.83333333333333</ele><time>2026-04-19T09:12:26.999Z</time></trkpt><trkpt lat="42.07613267088324" lon="11.858455589752147"><ele>79.66666666666666</ele><time>2026-04-19T09:12:27.999Z</time></trkpt><trkpt lat="42.07615138805097" lon="11.858542208669187"><ele>81.5</ele><time>2026-04-19T09:12:28.999Z</time></trkpt><trkpt lat="42.07621098569345" lon="11.858626734338047"><ele>83.33333333333333</ele><time>2026-04-19T09:12:29.999Z</time></trkpt><trkpt lat="42.076311226581055" lon="11.858689171898941"><ele>85.16666666666667</ele><time>2026-04-19T09:12:30.999Z</time></trkpt><trkpt lat="42.07638777710133" lon="11.858702904594152"><ele>87.0</ele><time>2026-04-19T09:12:31.999Z</time></trkpt><trkpt lat="42.07647931279284" lon="11.858735752992859"><ele>87.0</ele><time>2026-04-19T09:12:32.999Z</time></trkpt><trkpt lat="42.07659653098006" lon="11.858784463155642"><ele>87.0</ele><time>2026-04-19T09:12:33.999Z</time></trkpt><trkpt lat="42.07667925944646" lon="11.858842560795448"><ele>87.0</ele><time>2026-04-19T09:12:34.999Z</time></trkpt><trkpt lat="42.07676077932567" lon="11.858899834910737"><ele>87.0</ele><time>2026-04-19T09:12:36Z</time></trkpt><trkpt lat="42.07685537963333" lon="11.85896343476869"><ele>87.0</ele><time>2026-04-19T09:12:37Z</time></trkpt><trkpt lat="42.07695705442255" lon="11.85900860044313"><ele>83.6</ele><time>2026-04-19T09:12:38Z</time></trkpt><trkpt lat="42.07705783431933" lon="11.859043363528404"><ele>80.19999999999999</ele><time>2026-04-19T09:12:39Z</time></trkpt><trkpt lat="42.07716661536747" lon="11.859060927425446"><ele>76.8</ele><time>2026-04-19T09:12:40Z</time></trkpt><trkpt lat="42.077270222986726" lon="11.859053308515506"><ele>73.4</ele><time>2026-04-19T09:12:41Z</time></trkpt><trkpt lat="42.07735593571643" lon="11.859037789099231"><ele>70.0</ele><time>2026-04-19T09:12:42Z</time></trkpt><trkpt lat="42.07742388545324" lon="11.859029587312516"><ele>70.0</ele><time>2026-04-19T09:12:44Z</time></trkpt><trkpt lat="42.07748542991242" lon="11.859075926171302"><ele>70.0</ele><time>2026-04-19T09:12:46Z</time></trkpt><trkpt lat="42.077452969874095" lon="11.85917294737658"><ele>70.0</ele><time>2026-04-19T09:12:47Z</time></trkpt><trkpt lat="42.07742580284457" lon="11.85925630024911"><ele>70.0</ele><time>2026-04-19T09:12:48Z</time></trkpt><trkpt lat="42.07743363090209" lon="11.859411067780938"><ele>70.0</ele><time>2026-04-19T09:12:50Z</time></trkpt><trkpt lat="42.07746581517558" lon="11.859486363800038"><ele>70.0</ele><time>2026-04-19T09:12:51Z</time></trkpt><trkpt lat="42.07750918462704" lon="11.859552903710888"><ele>70.33333333333333</ele><time>2026-04-19T09:12:52Z</time></trkpt><trkpt lat="42.07756382031179" lon="11.85963441842357"><ele>70.66666666666666</ele><time>2026-04-19T09:12:53Z</time></trkpt><trkpt lat="42.07762105522065" lon="11.859699287961696"><ele>71.0</ele><time>2026-04-19T09:12:54Z</time></trkpt><trkpt lat="42.07768109673669" lon="11.85975916879417"><ele>71.33333333333333</ele><time>2026-04-19T09:12:55Z</time></trkpt><trkpt lat="42.07773783318057" lon="11.859836887115117"><ele>71.66666666666667</ele><time>2026-04-19T09:12:56Z</time></trkpt><trkpt lat="42.07778675444509" lon="11.859927935256081"><ele>72.0</ele><time>2026-04-19T09:12:57Z</time></trkpt><trkpt lat="42.07782601961394" lon="11.860008609555075"><ele>73.0</ele><time>2026-04-19T09:12:58Z</time></trkpt><trkpt lat="42.07785315280609" lon="11.860137336770075"><ele>74.0</ele><time>2026-04-19T09:12:59Z</time></trkpt><trkpt lat="42.07789743554435" lon="11.860268666811589"><ele>75.0</ele><time>2026-04-19T09:13:00Z</time></trkpt><trkpt lat="42.077949483021975" lon="11.860384610992867"><ele>76.0</ele><time>2026-04-19T09:13:01Z</time></trkpt><trkpt lat="42.07801819996728" lon="11.86048660709912"><ele>77.0</ele><time>2026-04-19T09:13:02Z</time></trkpt><trkpt lat="42.078090696285315" lon="11.860564596004808"><ele>77.0</ele><time>2026-04-19T09:13:03Z</time></trkpt><trkpt lat="42.078164293755414" lon="11.860653557659916"><ele>77.0</ele><time>2026-04-19T09:13:04Z</time></trkpt><trkpt lat="42.078234347460196" lon="11.86068111497066"><ele>77.0</ele><time>2026-04-19T09:13:05Z</time></trkpt><trkpt lat="42.07830381179586" lon="11.860644741004027"><ele>77.0</ele><time>2026-04-19T09:13:06Z</time></trkpt><trkpt lat="42.07837364869038" lon="11.860640385717703"><ele>77.0</ele><time>2026-04-19T09:13:07Z</time></trkpt><trkpt lat="42.07844636832585" lon="11.860638331799743"><ele>77.0</ele><time>2026-04-19T09:13:08Z</time></trkpt><trkpt lat="42.078572520372326" lon="11.860651895695904"><ele>76.6</ele><time>2026-04-19T09:13:10Z</time></trkpt><trkpt lat="42.078627849427406" lon="11.86055226397864"><ele>76.2</ele><time>2026-04-19T09:13:12Z</time></trkpt><trkpt lat="42.07867164039331" lon="11.86046861124096"><ele>75.8</ele><time>2026-04-19T09:13:13Z</time></trkpt><trkpt lat="42.07873874386054" lon="11.860411160935131"><ele>75.4</ele><time>2026-04-19T09:13:14Z</time></trkpt><trkpt lat="42.078825013249315" lon="11.860270154805411"><ele>75.0</ele><time>2026-04-19T09:13:15Z</time></trkpt><trkpt lat="42.078885352996984" lon="11.860200419143396"><ele>75.0</ele><time>2026-04-19T09:13:16Z</time></trkpt><trkpt lat="42.078954748373214" lon="11.860185940480866"><ele>75.0</ele><time>2026-04-19T09:13:17Z</time></trkpt><trkpt lat="42.07903513914471" lon="11.860218303895056"><ele>75.0</ele><time>2026-04-19T09:13:18Z</time></trkpt><trkpt lat="42.07912798658898" lon="11.860216184527655"><ele>75.0</ele><time>2026-04-19T09:13:20Z</time></trkpt><trkpt lat="42.079238948596384" lon="11.860161446319644"><ele>75.0</ele><time>2026-04-19T09:13:22Z</time></trkpt><trkpt lat="42.079303450710285" lon="11.860142157620286"><ele>75.0</ele><time>2026-04-19T09:13:23Z</time></trkpt><trkpt lat="42.079368024279205" lon="11.860126266155943"><ele>76.6</ele><time>2026-04-19T09:13:24Z</time></trkpt><trkpt lat="42.07946532023728" lon="11.860135297656587"><ele>78.2</ele><time>2026-04-19T09:13:25Z</time></trkpt><trkpt lat="42.07955931587372" lon="11.860147823744235"><ele>79.80000000000001</ele><time>2026-04-19T09:13:26Z</time></trkpt><trkpt lat="42.07965313034264" lon="11.8601374906264"><ele>81.4</ele><time>2026-04-19T09:13:27Z</time></trkpt><trkpt lat="42.079745123419556" lon="11.86016687437985"><ele>83.0</ele><time>2026-04-19T09:13:28Z</time></trkpt><trkpt lat="42.079831810557565" lon="11.86017057784361"><ele>83.0</ele><time>2026-04-19T09:13:29Z</time></trkpt><trkpt lat="42.079906572362795" lon="11.860171916144049"><ele>83.0</ele><time>2026-04-19T09:13:30Z</time></trkpt><trkpt lat="42.07997407557959" lon="11.860133668202051"><ele>83.0</ele><time>2026-04-19T09:13:31Z</time></trkpt><trkpt lat="42.08003378835439" lon="11.860092641535667"><ele>83.0</ele><time>2026-04-19T09:13:32Z</time></trkpt><trkpt lat="42.080156866526494" lon="11.860063125655842"><ele>83.0</ele><time>2026-04-19T09:13:34Z</time></trkpt><trkpt lat="42.080248505355726" lon="11.860090715369772"><ele>83.0</ele><time>2026-04-19T09:13:35Z</time></trkpt><trkpt lat="42.080335401633945" lon="11.860146535875241"><ele>84.5</ele><time>2026-04-19T09:13:36Z</time></trkpt><trkpt lat="42.08040687887293" lon="11.860193293888063"><ele>86.0</ele><time>2026-04-19T09:13:37Z</time></trkpt><trkpt lat="42.08048754042868" lon="11.860213342714935"><ele>87.5</ele><time>2026-04-19T09:13:38Z</time></trkpt><trkpt lat="42.08061475385278" lon="11.860141804744304"><ele>89.0</ele><time>2026-04-19T09:13:40Z</time></trkpt><trkpt lat="42.08081230530932" lon="11.860120510788576"><ele>91.0</ele><time>2026-04-19T09:13:43Z</time></trkpt><trkpt lat="42.080959727027036" lon="11.860157683712972"><ele>93.0</ele><time>2026-04-19T09:13:44.999Z</time></trkpt><trkpt lat="42.08103229501908" lon="11.8601876312888"><ele>95.0</ele><time>2026-04-19T09:13:45.999Z</time></trkpt><trkpt lat="42.08111418145547" lon="11.860194169630892"><ele>97.0</ele><time>2026-04-19T09:13:46.999Z</time></trkpt><trkpt lat="42.081210099233516" lon="11.860214888793124"><ele>99.0</ele><time>2026-04-19T09:13:47.999Z</time></trkpt><trkpt lat="42.081314481168484" lon="11.860254433114845"><ele>99.0</ele><time>2026-04-19T09:13:48.999Z</time></trkpt><trkpt lat="42.081451076169216" lon="11.860258180082674"><ele>99.0</ele><time>2026-04-19T09:13:49.999Z</time></trkpt><trkpt lat="42.08153762676443" lon="11.860266444384763"><ele>99.0</ele><time>2026-04-19T09:13:50.999Z</time></trkpt><trkpt lat="42.08165019904148" lon="11.860282051024027"><ele>99.0</ele><time>2026-04-19T09:13:51.999Z</time></trkpt><trkpt lat="42.08175809440539" lon="11.860429118847666"><ele>100.6</ele><time>2026-04-19T09:13:53.999Z</time></trkpt><trkpt lat="42.08177842106162" lon="11.860568397953582"><ele>102.2</ele><time>2026-04-19T09:13:54.999Z</time></trkpt><trkpt lat="42.081843158567" lon="11.860661839167495"><ele>103.79999999999998</ele><time>2026-04-19T09:13:55.999Z</time></trkpt><trkpt lat="42.081924632135554" lon="11.860780174565278"><ele>105.39999999999999</ele><time>2026-04-19T09:13:56.999Z</time></trkpt><trkpt lat="42.08199632534197" lon="11.860871533308519"><ele>107.0</ele><time>2026-04-19T09:13:57.999Z</time></trkpt><trkpt lat="42.08205952609649" lon="11.860962191036775"><ele>107.0</ele><time>2026-04-19T09:13:58.999Z</time></trkpt><trkpt lat="42.08210710766721" lon="11.861041985341569"><ele>106.99999999999999</ele><time>2026-04-19T09:13:59.999Z</time></trkpt><trkpt lat="42.082126787439385" lon="11.861132083770622"><ele>106.99999999999999</ele><time>2026-04-19T09:14:00.999Z</time></trkpt><trkpt lat="42.08222724447158" lon="11.861198449671736"><ele>107.0</ele><time>2026-04-19T09:14:02.999Z</time></trkpt><trkpt lat="42.082347050948194" lon="11.86129279305235"><ele>107.0</ele><time>2026-04-19T09:14:04.999Z</time></trkpt><trkpt lat="42.08240803039529" lon="11.861341019386149"><ele>107.99999999999999</ele><time>2026-04-19T09:14:05.999Z</time></trkpt><trkpt lat="42.08250143257671" lon="11.86135133704584"><ele>109.0</ele><time>2026-04-19T09:14:06.999Z</time></trkpt><trkpt lat="42.082570824057164" lon="11.861329754062465"><ele>110.0</ele><time>2026-04-19T09:14:07.999Z</time></trkpt><trkpt lat="42.0826896426128" lon="11.861285168045955"><ele>111.0</ele><time>2026-04-19T09:14:08.999Z</time></trkpt><trkpt lat="42.082769960899434" lon="11.861262472668363"><ele>111.99999999999999</ele><time>2026-04-19T09:14:09.999Z</time></trkpt><trkpt lat="42.08284084969795" lon="11.861251488101512"><ele>113.0</ele><time>2026-04-19T09:14:13.999Z</time></trkpt><trkpt lat="42.08280593779949" lon="11.861152004719614"><ele>112.99999999999999</ele><time>2026-04-19T09:15:59.999Z</time></trkpt><trkpt lat="42.0828355329303" lon="11.861247093448755"><ele>113.0</ele><time>2026-04-19T09:16:44.999Z</time></trkpt><trkpt lat="42.08290766932502" lon="11.861298276897115"><ele>113.0</ele><time>2026-04-19T09:24:07Z</time></trkpt><trkpt lat="42.082951834506765" lon="11.861426027417561"><ele>113.0</ele><time>2026-04-19T09:24:09Z</time></trkpt><trkpt lat="42.082977782709456" lon="11.861514170648165"><ele>112.99999999999999</ele><time>2026-04-19T09:24:10Z</time></trkpt><trkpt lat="42.082976542622056" lon="11.86160372613416"><ele>113.0</ele><time>2026-04-19T09:24:11Z</time></trkpt><trkpt lat="42.08298454747596" lon="11.86171934708076"><ele>111.33333333333333</ele><time>2026-04-19T09:24:13Z</time></trkpt><trkpt lat="42.083016463625064" lon="11.861827664113378"><ele>109.66666666666666</ele><time>2026-04-19T09:24:16Z</time></trkpt><trkpt lat="42.08303933679829" lon="11.861924386920407"><ele>108.0</ele><time>2026-04-19T09:24:19Z</time></trkpt><trkpt lat="42.08305901325711" lon="11.862009116148466"><ele>106.33333333333334</ele><time>2026-04-19T09:24:21Z</time></trkpt><trkpt lat="42.08307635692445" lon="11.862130943368909"><ele>104.66666666666667</ele><time>2026-04-19T09:24:23Z</time></trkpt><trkpt lat="42.08308204084928" lon="11.862288376180992"><ele>103.0</ele><time>2026-04-19T09:24:25Z</time></trkpt><trkpt lat="42.08312779532833" lon="11.862431822115798"><ele>103.00000000000001</ele><time>2026-04-19T09:24:27Z</time></trkpt><trkpt lat="42.08311769639698" lon="11.862346479772691"><ele>103.0</ele><time>2026-04-19T09:24:28Z</time></trkpt><trkpt lat="42.08315718145958" lon="11.862446446216076"><ele>103.0</ele><time>2026-04-19T09:24:30Z</time></trkpt><trkpt lat="42.08316856283122" lon="11.862568275086195"><ele>103.0</ele><time>2026-04-19T09:24:32Z</time></trkpt><trkpt lat="42.08316081452117" lon="11.862685624692334"><ele>103.00000000000001</ele><time>2026-04-19T09:24:34Z</time></trkpt><trkpt lat="42.08317165974671" lon="11.862800497546221"><ele>103.0</ele><time>2026-04-19T09:24:35.999Z</time></trkpt><trkpt lat="42.0831806018244" lon="11.86290478752609"><ele>102.50000000000001</ele><time>2026-04-19T09:24:37.999Z</time></trkpt><trkpt lat="42.083177677962496" lon="11.863031349343888"><ele>102.0</ele><time>2026-04-19T09:24:38.999Z</time></trkpt><trkpt lat="42.08318363998785" lon="11.863161545618674"><ele>101.5</ele><time>2026-04-19T09:24:39.999Z</time></trkpt><trkpt lat="42.083188174034824" lon="11.863255642301379"><ele>101.0</ele><time>2026-04-19T09:24:40.999Z</time></trkpt><trkpt lat="42.08319515331644" lon="11.863355098260037"><ele>100.50000000000001</ele><time>2026-04-19T09:24:41.999Z</time></trkpt><trkpt lat="42.08322519406785" lon="11.863470309862045"><ele>100.0</ele><time>2026-04-19T09:24:43.999Z</time></trkpt><trkpt lat="42.08326826072926" lon="11.86355757932338"><ele>100.00000000000001</ele><time>2026-04-19T09:24:45.999Z</time></trkpt><trkpt lat="42.083303689717425" lon="11.863652804521879"><ele>100.0</ele><time>2026-04-19T09:24:47.999Z</time></trkpt><trkpt lat="42.08333223672255" lon="11.863772612867661"><ele>100.0</ele><time>2026-04-19T09:24:49.999Z</time></trkpt><trkpt lat="42.08332097217303" lon="11.86393098421368"><ele>100.0</ele><time>2026-04-19T09:24:51.999Z</time></trkpt><trkpt lat="42.08331738174497" lon="11.864024215411137"><ele>100.00000000000001</ele><time>2026-04-19T09:24:52.999Z</time></trkpt><trkpt lat="42.08331639451101" lon="11.864114557760367"><ele>100.0</ele><time>2026-04-19T09:24:53.999Z</time></trkpt><trkpt lat="42.083313146062814" lon="11.864214695896518"><ele>99.50000000000001</ele><time>2026-04-19T09:24:54.999Z</time></trkpt><trkpt lat="42.08333131863882" lon="11.864325841089105"><ele>99.0</ele><time>2026-04-19T09:24:56.999Z</time></trkpt><trkpt lat="42.083244631079275" lon="11.86433867393614"><ele>98.5</ele><time>2026-04-19T09:25:00.999Z</time></trkpt><trkpt lat="42.08317200972173" lon="11.864355514083652"><ele>98.0</ele><time>2026-04-19T09:25:03.999Z</time></trkpt><trkpt lat="42.08311567954174" lon="11.864396531860468"><ele>97.50000000000001</ele><time>2026-04-19T09:25:05.999Z</time></trkpt><trkpt lat="42.0831062619409" lon="11.86454138106621"><ele>97.0</ele><time>2026-04-19T09:25:07.999Z</time></trkpt><trkpt lat="42.083160516010224" lon="11.864617421867315"><ele>97.00000000000001</ele><time>2026-04-19T09:25:10.999Z</time></trkpt><trkpt lat="42.083135165784725" lon="11.864708004462928"><ele>97.0</ele><time>2026-04-19T09:25:13Z</time></trkpt><trkpt lat="42.08311891343177" lon="11.864809578333913"><ele>97.0</ele><time>2026-04-19T09:25:15Z</time></trkpt><trkpt lat="42.08309849736761" lon="11.86493155632373"><ele>97.0</ele><time>2026-04-19T09:25:17Z</time></trkpt><trkpt lat="42.083169186983824" lon="11.865007030521427"><ele>97.00000000000001</ele><time>2026-04-19T09:25:20Z</time></trkpt><trkpt lat="42.08323880654422" lon="11.865048062434957"><ele>97.0</ele><time>2026-04-19T09:25:22Z</time></trkpt><trkpt lat="42.08331369791692" lon="11.865080209634764"><ele>97.42857142857143</ele><time>2026-04-19T09:25:25Z</time></trkpt><trkpt lat="42.08338309705641" lon="11.865137234710923"><ele>97.85714285714286</ele><time>2026-04-19T09:25:28Z</time></trkpt><trkpt lat="42.08344840875761" lon="11.865185579822457"><ele>98.28571428571429</ele><time>2026-04-19T09:25:55Z</time></trkpt><trkpt lat="42.08351212158637" lon="11.865201392036127"><ele>98.71428571428572</ele><time>2026-04-19T09:25:57Z</time></trkpt><trkpt lat="42.08354203195904" lon="11.865286369925187"><ele>99.14285714285714</ele><time>2026-04-19T09:26:00Z</time></trkpt><trkpt lat="42.08357198270854" lon="11.865371248892028"><ele>99.57142857142858</ele><time>2026-04-19T09:28:09Z</time></trkpt><trkpt lat="42.083593570106764" lon="11.865480656560887"><ele>100.0</ele><time>2026-04-19T09:28:11Z</time></trkpt><trkpt lat="42.08360104085118" lon="11.865568569823258"><ele>100.00000000000001</ele><time>2026-04-19T09:28:12Z</time></trkpt><trkpt lat="42.08358343670498" lon="11.865663952217952"><ele>100.0</ele><time>2026-04-19T09:28:13Z</time></trkpt><trkpt lat="42.08353766191249" lon="11.865755259116382"><ele>100.0</ele><time>2026-04-19T09:28:15Z</time></trkpt><trkpt lat="42.08346205044751" lon="11.865764763170997"><ele>100.0</ele><time>2026-04-19T09:28:17Z</time></trkpt><trkpt lat="42.08334084468657" lon="11.865717409870236"><ele>100.00000000000001</ele><time>2026-04-19T09:28:19Z</time></trkpt><trkpt lat="42.083275466821156" lon="11.865734506849503"><ele>100.0</ele><time>2026-04-19T09:28:20Z</time></trkpt><trkpt lat="42.08322152206097" lon="11.865817661984726"><ele>104.4</ele><time>2026-04-19T09:28:22Z</time></trkpt><trkpt lat="42.08316943626236" lon="11.865952823025841"><ele>108.8</ele><time>2026-04-19T09:28:24Z</time></trkpt><trkpt lat="42.083119447492386" lon="11.866088508720757"><ele>113.19999999999999</ele><time>2026-04-19T09:28:26Z</time></trkpt><trkpt lat="42.08307863013019" lon="11.866191400596843"><ele>117.6</ele><time>2026-04-19T09:28:28Z</time></trkpt><trkpt lat="42.08303172472861" lon="11.866272502510366"><ele>122.0</ele><time>2026-04-19T09:28:30Z</time></trkpt><trkpt lat="42.08292334142861" lon="11.866314342950156"><ele>121.99999999999999</ele><time>2026-04-19T09:28:32Z</time></trkpt><trkpt lat="42.08286517414466" lon="11.866361940025175"><ele>122.0</ele><time>2026-04-19T09:28:34Z</time></trkpt><trkpt lat="42.082818995671474" lon="11.866435406824232"><ele>122.0</ele><time>2026-04-19T09:28:43Z</time></trkpt><trkpt lat="42.08277815314647" lon="11.86653337739148"><ele>122.0</ele><time>2026-04-19T09:28:47Z</time></trkpt><trkpt lat="42.08271473338967" lon="11.866476801140966"><ele>121.99999999999999</ele><time>2026-04-19T09:28:50Z</time></trkpt><trkpt lat="42.08267190252417" lon="11.866411912363734"><ele>122.0</ele><time>2026-04-19T09:28:51Z</time></trkpt><trkpt lat="42.08258694606357" lon="11.866318912052177"><ele>122.0</ele><time>2026-04-19T09:28:53Z</time></trkpt><trkpt lat="42.082503296310655" lon="11.866287017427911"><ele>121.99999999999999</ele><time>2026-04-19T09:28:55Z</time></trkpt><trkpt lat="42.08239916379497" lon="11.866304253298024"><ele>121.99999999999999</ele><time>2026-04-19T09:28:57Z</time></trkpt><trkpt lat="42.08230128342655" lon="11.86626529280798"><ele>122.0</ele><time>2026-04-19T09:28:59Z</time></trkpt><trkpt lat="42.08222475666862" lon="11.866197910857004"><ele>122.0</ele><time>2026-04-19T09:29:01Z</time></trkpt><trkpt lat="42.08218428569373" lon="11.866128623607215"><ele>122.39999999999999</ele><time>2026-04-19T09:29:03Z</time></trkpt><trkpt lat="42.08218716204032" lon="11.866026404238333"><ele>122.79999999999998</ele><time>2026-04-19T09:29:05Z</time></trkpt><trkpt lat="42.08213706888141" lon="11.865917588256222"><ele>123.2</ele><time>2026-04-19T09:29:07Z</time></trkpt><trkpt lat="42.082135589606864" lon="11.86576260087612"><ele>123.6</ele><time>2026-04-19T09:29:09Z</time></trkpt><trkpt lat="42.08211075226134" lon="11.865618753213962"><ele>124.0</ele><time>2026-04-19T09:29:11Z</time></trkpt><trkpt lat="42.08204512199158" lon="11.86554386936041"><ele>124.00000000000001</ele><time>2026-04-19T09:29:13Z</time></trkpt><trkpt lat="42.0819650919459" lon="11.865543554313557"><ele>124.0</ele><time>2026-04-19T09:29:15Z</time></trkpt><trkpt lat="42.08185673257104" lon="11.865583204739425"><ele>124.0</ele><time>2026-04-19T09:29:17Z</time></trkpt><trkpt lat="42.08178573656107" lon="11.865584880907765"><ele>124.0</ele><time>2026-04-19T09:29:18Z</time></trkpt><trkpt lat="42.081725062429626" lon="11.86554479379418"><ele>124.00000000000001</ele><time>2026-04-19T09:29:20Z</time></trkpt><trkpt lat="42.08163495004668" lon="11.865466774682194"><ele>124.0</ele><time>2026-04-19T09:29:22Z</time></trkpt><trkpt lat="42.081534393302604" lon="11.865420748280682"><ele>125.00000000000001</ele><time>2026-04-19T09:29:24Z</time></trkpt><trkpt lat="42.081453381183756" lon="11.865476157435916"><ele>126.0</ele><time>2026-04-19T09:29:26Z</time></trkpt><trkpt lat="42.08138489642165" lon="11.865564037900047"><ele>127.0</ele><time>2026-04-19T09:29:28Z</time></trkpt><trkpt lat="42.08132435460899" lon="11.865607912705485"><ele>128.0</ele><time>2026-04-19T09:29:29Z</time></trkpt><trkpt lat="42.081254778300675" lon="11.86562001744296"><ele>129.0</ele><time>2026-04-19T09:29:30Z</time></trkpt><trkpt lat="42.081161209701634" lon="11.865621642790467"><ele>130.0</ele><time>2026-04-19T09:29:31Z</time></trkpt><trkpt lat="42.08105397680368" lon="11.86562193903039"><ele>130.0</ele><time>2026-04-19T09:29:32Z</time></trkpt><trkpt lat="42.080964798307555" lon="11.865623321717008"><ele>130.0</ele><time>2026-04-19T09:29:33Z</time></trkpt><trkpt lat="42.08089412074746" lon="11.865635926762135"><ele>130.0</ele><time>2026-04-19T09:29:34Z</time></trkpt><trkpt lat="42.08076824103803" lon="11.865640529242715"><ele>130.0</ele><time>2026-04-19T09:29:36Z</time></trkpt><trkpt lat="42.08064400653717" lon="11.865671357063306"><ele>130.0</ele><time>2026-04-19T09:29:38Z</time></trkpt><trkpt lat="42.080577990017304" lon="11.865700784528963"><ele>130.83333333333334</ele><time>2026-04-19T09:29:39Z</time></trkpt><trkpt lat="42.08049709528261" lon="11.86573629083782"><ele>131.66666666666669</ele><time>2026-04-19T09:29:40Z</time></trkpt><trkpt lat="42.08041324546686" lon="11.865755741918477"><ele>132.5</ele><time>2026-04-19T09:29:41Z</time></trkpt><trkpt lat="42.080341368346204" lon="11.865773711389028"><ele>133.33333333333334</ele><time>2026-04-19T09:29:42Z</time></trkpt><trkpt lat="42.0802640694686" lon="11.865781516059311"><ele>134.16666666666666</ele><time>2026-04-19T09:29:43Z</time></trkpt><trkpt lat="42.08014822669803" lon="11.865805327479027"><ele>135.0</ele><time>2026-04-19T09:29:45Z</time></trkpt><trkpt lat="42.080055391258455" lon="11.86582316836706"><ele>135.0</ele><time>2026-04-19T09:29:46Z</time></trkpt><trkpt lat="42.079946423570654" lon="11.865839595123608"><ele>135.0</ele><time>2026-04-19T09:29:48Z</time></trkpt><trkpt lat="42.079841910428804" lon="11.865837969111102"><ele>135.0</ele><time>2026-04-19T09:29:50Z</time></trkpt><trkpt lat="42.079769360389456" lon="11.865969395207554"><ele>135.0</ele><time>2026-04-19T09:29:52Z</time></trkpt><trkpt lat="42.07975375985295" lon="11.866080312170768"><ele>135.0</ele><time>2026-04-19T09:29:53Z</time></trkpt><trkpt lat="42.07973328887577" lon="11.86617370873956"><ele>136.2</ele><time>2026-04-19T09:29:54Z</time></trkpt><trkpt lat="42.07970356092361" lon="11.866262753029345"><ele>137.4</ele><time>2026-04-19T09:29:55Z</time></trkpt><trkpt lat="42.079699808852205" lon="11.866422034932118"><ele>138.6</ele><time>2026-04-19T09:29:57Z</time></trkpt><trkpt lat="42.07978368992845" lon="11.866528577684784"><ele>139.8</ele><time>2026-04-19T09:29:59Z</time></trkpt><trkpt lat="42.079848542681574" lon="11.866544736980215"><ele>141.0</ele><time>2026-04-19T09:30:00Z</time></trkpt><trkpt lat="42.07993478088954" lon="11.866518591185876"><ele>141.8</ele><time>2026-04-19T09:30:01Z</time></trkpt><trkpt lat="42.08006183501759" lon="11.866517139401198"><ele>142.6</ele><time>2026-04-19T09:30:02Z</time></trkpt><trkpt lat="42.080134560114594" lon="11.866572278923632"><ele>143.4</ele><time>2026-04-19T09:30:03Z</time></trkpt><trkpt lat="42.08019808110026" lon="11.866650763169671"><ele>144.2</ele><time>2026-04-19T09:30:04Z</time></trkpt><trkpt lat="42.080222251941265" lon="11.866752938860033"><ele>145.0</ele><time>2026-04-19T09:30:05Z</time></trkpt><trkpt lat="42.080217837356805" lon="11.866855013651586"><ele>146.33333333333334</ele><time>2026-04-19T09:30:06Z</time></trkpt><trkpt lat="42.080223607483106" lon="11.866969640386268"><ele>147.66666666666669</ele><time>2026-04-19T09:30:07Z</time></trkpt><trkpt lat="42.08020413507495" lon="11.8670926603021"><ele>149.0</ele><time>2026-04-19T09:30:08Z</time></trkpt><trkpt lat="42.08018796742915" lon="11.867188534415085"><ele>150.33333333333334</ele><time>2026-04-19T09:30:09Z</time></trkpt><trkpt lat="42.08016946699604" lon="11.867307358048757"><ele>151.66666666666666</ele><time>2026-04-19T09:30:10Z</time></trkpt><trkpt lat="42.08016928725037" lon="11.86744051901225"><ele>153.0</ele><time>2026-04-19T09:30:11Z</time></trkpt><trkpt lat="42.080163724077515" lon="11.867559146768725"><ele>154.0</ele><time>2026-04-19T09:30:12Z</time></trkpt><trkpt lat="42.080164295098484" lon="11.867668946005024"><ele>155.0</ele><time>2026-04-19T09:30:13Z</time></trkpt><trkpt lat="42.08017212559173" lon="11.867783950508672"><ele>156.0</ele><time>2026-04-19T09:30:14Z</time></trkpt><trkpt lat="42.080171747797564" lon="11.867890065735304"><ele>157.0</ele><time>2026-04-19T09:30:15Z</time></trkpt><trkpt lat="42.08014622331222" lon="11.868040218893816"><ele>158.0</ele><time>2026-04-19T09:30:17Z</time></trkpt><trkpt lat="42.08010578728823" lon="11.868108625354044"><ele>159.0</ele><time>2026-04-19T09:30:18Z</time></trkpt><trkpt lat="42.080036899855415" lon="11.868235372228758"><ele>159.0</ele><time>2026-04-19T09:30:20Z</time></trkpt><trkpt lat="42.07999516289871" lon="11.868336414763967"><ele>159.0</ele><time>2026-04-19T09:30:22Z</time></trkpt><trkpt lat="42.079960969308225" lon="11.868433208637494"><ele>159.0</ele><time>2026-04-19T09:30:24Z</time></trkpt><trkpt lat="42.079890613536605" lon="11.868610683903745"><ele>159.0</ele><time>2026-04-19T09:30:26Z</time></trkpt><trkpt lat="42.07985607420558" lon="11.868729191776847"><ele>159.0</ele><time>2026-04-19T09:30:27Z</time></trkpt><trkpt lat="42.07982575523023" lon="11.868834891108637"><ele>160.5</ele><time>2026-04-19T09:30:28Z</time></trkpt><trkpt lat="42.07978802903566" lon="11.868928161460044"><ele>162.0</ele><time>2026-04-19T09:30:29Z</time></trkpt><trkpt lat="42.079752708221456" lon="11.869034364879207"><ele>163.5</ele><time>2026-04-19T09:30:30Z</time></trkpt><trkpt lat="42.07972105385903" lon="11.869140455771571"><ele>165.0</ele><time>2026-04-19T09:30:31Z</time></trkpt><trkpt lat="42.07968329971735" lon="11.869245262384837"><ele>166.5</ele><time>2026-04-19T09:30:32Z</time></trkpt><trkpt lat="42.07964515746017" lon="11.869329520561353"><ele>168.0</ele><time>2026-04-19T09:30:33Z</time></trkpt><trkpt lat="42.07960340919184" lon="11.86940460490487"><ele>170.0</ele><time>2026-04-19T09:30:34Z</time></trkpt><trkpt lat="42.079561218402404" lon="11.869501628159806"><ele>172.0</ele><time>2026-04-19T09:30:35Z</time></trkpt><trkpt lat="42.07952083983905" lon="11.869590984070365"><ele>174.0</ele><time>2026-04-19T09:30:36Z</time></trkpt><trkpt lat="42.079484888895536" lon="11.869669250180515"><ele>176.0</ele><time>2026-04-19T09:30:37Z</time></trkpt><trkpt lat="42.079440131879295" lon="11.869805779453372"><ele>178.0</ele><time>2026-04-19T09:30:39Z</time></trkpt><trkpt lat="42.07937422516716" lon="11.869946302998407"><ele>178.0</ele><time>2026-04-19T09:30:41Z</time></trkpt><trkpt lat="42.07935916525975" lon="11.870031232062567"><ele>178.0</ele><time>2026-04-19T09:30:43Z</time></trkpt><trkpt lat="42.07941686633564" lon="11.870145825539094"><ele>178.0</ele><time>2026-04-19T09:30:45Z</time></trkpt><trkpt lat="42.07950764388349" lon="11.870212075277434"><ele>178.0</ele><time>2026-04-19T09:30:47Z</time></trkpt><trkpt lat="42.07958615218444" lon="11.870228017833236"><ele>178.0</ele><time>2026-04-19T09:30:48Z</time></trkpt><trkpt lat="42.07965770685926" lon="11.870260223248128"><ele>178.0</ele><time>2026-04-19T09:30:49Z</time></trkpt><trkpt lat="42.07976616177087" lon="11.870340183014953"><ele>181.2</ele><time>2026-04-19T09:30:51Z</time></trkpt><trkpt lat="42.07985524628479" lon="11.87039295532309"><ele>184.4</ele><time>2026-04-19T09:30:53Z</time></trkpt><trkpt lat="42.07994619764425" lon="11.870444588872939"><ele>187.6</ele><time>2026-04-19T09:30:55Z</time></trkpt><trkpt lat="42.080035239314945" lon="11.870496237919669"><ele>190.79999999999998</ele><time>2026-04-19T09:30:57Z</time></trkpt><trkpt lat="42.08013370907819" lon="11.870508757343835"><ele>194.0</ele><time>2026-04-19T09:30:59Z</time></trkpt><trkpt lat="42.080254331067664" lon="11.87051029123474"><ele>194.0</ele><time>2026-04-19T09:31:01Z</time></trkpt><trkpt lat="42.08038169939441" lon="11.870560898342996"><ele>194.0</ele><time>2026-04-19T09:31:03Z</time></trkpt><trkpt lat="42.08049971832797" lon="11.870635984203266"><ele>194.0</ele><time>2026-04-19T09:31:05Z</time></trkpt><trkpt lat="42.08054584471226" lon="11.870699866640141"><ele>194.0</ele><time>2026-04-19T09:31:06Z</time></trkpt><trkpt lat="42.08059310202253" lon="11.870776317638892"><ele>194.0</ele><time>2026-04-19T09:31:07Z</time></trkpt><trkpt lat="42.08064377265085" lon="11.870908062813852"><ele>194.50000000000003</ele><time>2026-04-19T09:31:09Z</time></trkpt><trkpt lat="42.08068287411188" lon="11.871009296759468"><ele>195.0</ele><time>2026-04-19T09:31:11Z</time></trkpt><trkpt lat="42.0807605046878" lon="11.871029443033011"><ele>195.5</ele><time>2026-04-19T09:31:13Z</time></trkpt><trkpt lat="42.08082075538066" lon="11.870962345034327"><ele>196.0</ele><time>2026-04-19T09:31:15Z</time></trkpt><trkpt lat="42.08085443743958" lon="11.870844758545685"><ele>196.50000000000003</ele><time>2026-04-19T09:31:17Z</time></trkpt><trkpt lat="42.08088934492703" lon="11.870767610358577"><ele>197.0</ele><time>2026-04-19T09:31:19Z</time></trkpt><trkpt lat="42.080956812958476" lon="11.870726414297641"><ele>197.0</ele><time>2026-04-19T09:31:21Z</time></trkpt><trkpt lat="42.08103125656271" lon="11.87066477970737"><ele>197.0</ele><time>2026-04-19T09:31:23Z</time></trkpt><trkpt lat="42.081084877862956" lon="11.870597360417214"><ele>197.0</ele><time>2026-04-19T09:31:25Z</time></trkpt><trkpt lat="42.081162156320815" lon="11.870537322868763"><ele>197.0</ele><time>2026-04-19T09:31:27Z</time></trkpt><trkpt lat="42.08125192536431" lon="11.870476625143256"><ele>197.0</ele><time>2026-04-19T09:31:29Z</time></trkpt><trkpt lat="42.08138792433655" lon="11.870459637783702"><ele>197.0</ele><time>2026-04-19T09:31:31Z</time></trkpt><trkpt lat="42.08146677448539" lon="11.870445162604154"><ele>197.0</ele><time>2026-04-19T09:31:32Z</time></trkpt><trkpt lat="42.08158139853081" lon="11.870439448813041"><ele>197.0</ele><time>2026-04-19T09:31:34Z</time></trkpt><trkpt lat="42.08166090811421" lon="11.870466252306453"><ele>197.0</ele><time>2026-04-19T09:31:36Z</time></trkpt><trkpt lat="42.08175535929316" lon="11.870522829125877"><ele>197.0</ele><time>2026-04-19T09:31:38Z</time></trkpt><trkpt lat="42.0818264153345" lon="11.870555623268617"><ele>198.8</ele><time>2026-04-19T09:31:39Z</time></trkpt><trkpt lat="42.081906360076346" lon="11.870599082344382"><ele>200.6</ele><time>2026-04-19T09:31:40Z</time></trkpt><trkpt lat="42.081988277641166" lon="11.87064324072821"><ele>202.4</ele><time>2026-04-19T09:31:41Z</time></trkpt><trkpt lat="42.0820739692597" lon="11.870678462775619"><ele>204.20000000000002</ele><time>2026-04-19T09:31:42Z</time></trkpt><trkpt lat="42.082166751014945" lon="11.870718481209222"><ele>206.0</ele><time>2026-04-19T09:31:43Z</time></trkpt><trkpt lat="42.082254945901326" lon="11.870753026410956"><ele>206.0</ele><time>2026-04-19T09:31:44Z</time></trkpt><trkpt lat="42.08232096335757" lon="11.870786831023027"><ele>206.0</ele><time>2026-04-19T09:31:45Z</time></trkpt><trkpt lat="42.08240543971052" lon="11.870861338100314"><ele>206.0</ele><time>2026-04-19T09:31:51Z</time></trkpt><trkpt lat="42.08251431883972" lon="11.870941508378761"><ele>206.0</ele><time>2026-04-19T09:31:53Z</time></trkpt><trkpt lat="42.08259813275991" lon="11.870986734411813"><ele>206.0</ele><time>2026-04-19T09:31:54Z</time></trkpt><trkpt lat="42.082680751744554" lon="11.87101391667403"><ele>208.00000000000003</ele><time>2026-04-19T09:31:55Z</time></trkpt><trkpt lat="42.08275087006498" lon="11.871022858725746"><ele>210.0</ele><time>2026-04-19T09:31:56Z</time></trkpt><trkpt lat="42.08282088420501" lon="11.871020860727668"><ele>212.0</ele><time>2026-04-19T09:31:57Z</time></trkpt><trkpt lat="42.08289878622462" lon="11.87103725120581"><ele>214.0</ele><time>2026-04-19T09:31:58Z</time></trkpt><trkpt lat="42.08300376536037" lon="11.871119083108804"><ele>216.00000000000003</ele><time>2026-04-19T09:32:00Z</time></trkpt><trkpt lat="42.08310532992933" lon="11.87116671138976"><ele>218.0</ele><time>2026-04-19T09:32:02Z</time></trkpt><trkpt lat="42.08316586372455" lon="11.871191156351987"><ele>218.0</ele><time>2026-04-19T09:32:03Z</time></trkpt><trkpt lat="42.08322283018489" lon="11.871241811216068"><ele>218.0</ele><time>2026-04-19T09:32:04Z</time></trkpt><trkpt lat="42.083304321223764" lon="11.87135535670076"><ele>218.0</ele><time>2026-04-19T09:32:06Z</time></trkpt><trkpt lat="42.08338639605118" lon="11.871463213695762"><ele>218.0</ele><time>2026-04-19T09:32:08Z</time></trkpt><trkpt lat="42.08346751892134" lon="11.871555268874646"><ele>218.0</ele><time>2026-04-19T09:32:10Z</time></trkpt><trkpt lat="42.08354332267695" lon="11.87165586149453"><ele>218.0</ele><time>2026-04-19T09:32:12Z</time></trkpt><trkpt lat="42.083622496657064" lon="11.871727571088499"><ele>218.0</ele><time>2026-04-19T09:32:14Z</time></trkpt><trkpt lat="42.083706612707985" lon="11.871790825744716"><ele>218.0</ele><time>2026-04-19T09:32:16Z</time></trkpt><trkpt lat="42.08376750710925" lon="11.871876848050722"><ele>218.0</ele><time>2026-04-19T09:32:18Z</time></trkpt><trkpt lat="42.08385489204445" lon="11.87198052759532"><ele>218.0</ele><time>2026-04-19T09:32:20Z</time></trkpt><trkpt lat="42.083960541691305" lon="11.872079623183199"><ele>220.16666666666669</ele><time>2026-04-19T09:32:22Z</time></trkpt><trkpt lat="42.08403256703424" lon="11.872121948902704"><ele>222.33333333333334</ele><time>2026-04-19T09:32:23Z</time></trkpt><trkpt lat="42.08410059642283" lon="11.872171708672763"><ele>224.5</ele><time>2026-04-19T09:32:24Z</time></trkpt><trkpt lat="42.084159783535746" lon="11.872213973595827"><ele>226.66666666666669</ele><time>2026-04-19T09:32:25Z</time></trkpt><trkpt lat="42.084235404072786" lon="11.872335378505618"><ele>228.83333333333334</ele><time>2026-04-19T09:32:27Z</time></trkpt><trkpt lat="42.084278731911056" lon="11.872402436497632"><ele>231.0</ele><time>2026-04-19T09:32:28Z</time></trkpt><trkpt lat="42.08438793577437" lon="11.872508226240297"><ele>233.20000000000002</ele><time>2026-04-19T09:32:30Z</time></trkpt><trkpt lat="42.08447831818113" lon="11.872614620258293"><ele>235.40000000000003</ele><time>2026-04-19T09:32:32Z</time></trkpt><trkpt lat="42.08455111828926" lon="11.87269561646521"><ele>237.6</ele><time>2026-04-19T09:32:34Z</time></trkpt><trkpt lat="42.08460321028037" lon="11.872756214261793"><ele>239.8</ele><time>2026-04-19T09:32:36Z</time></trkpt><trkpt lat="42.08474126418604" lon="11.87267915556428"><ele>242.0</ele><time>2026-04-19T09:34:44Z</time></trkpt><trkpt lat="42.08481021349148" lon="11.872618251835455"><ele>240.66666666666669</ele><time>2026-04-19T09:34:45Z</time></trkpt><trkpt lat="42.08489202414193" lon="11.872539275798307"><ele>239.33333333333334</ele><time>2026-04-19T09:34:46Z</time></trkpt><trkpt lat="42.08495984038463" lon="11.87246435394873"><ele>238.0</ele><time>2026-04-19T09:34:47Z</time></trkpt><trkpt lat="42.08503437604239" lon="11.872409581423245"><ele>236.66666666666669</ele><time>2026-04-19T09:34:48Z</time></trkpt><trkpt lat="42.085116888018916" lon="11.872360836442551"><ele>235.33333333333334</ele><time>2026-04-19T09:34:49Z</time></trkpt><trkpt lat="42.085187345663584" lon="11.872335431077564"><ele>234.0</ele><time>2026-04-19T09:34:50Z</time></trkpt><trkpt lat="42.085250561440674" lon="11.872304313633359"><ele>234.0</ele><time>2026-04-19T09:34:51Z</time></trkpt><trkpt lat="42.085316184918064" lon="11.872272217630835"><ele>234.0</ele><time>2026-04-19T09:34:52Z</time></trkpt><trkpt lat="42.08538997090111" lon="11.872238800065643"><ele>234.0</ele><time>2026-04-19T09:34:53Z</time></trkpt><trkpt lat="42.08546675869331" lon="11.872185497315327"><ele>234.0</ele><time>2026-04-19T09:34:54Z</time></trkpt><trkpt lat="42.08556646394183" lon="11.872097651356244"><ele>234.0</ele><time>2026-04-19T09:34:56Z</time></trkpt><trkpt lat="42.085619846567894" lon="11.872052268245493"><ele>234.0</ele><time>2026-04-19T09:34:57Z</time></trkpt><trkpt lat="42.08573742255736" lon="11.871979504208085"><ele>234.14285714285717</ele><time>2026-04-19T09:34:59Z</time></trkpt><trkpt lat="42.08580003189227" lon="11.871925981564821"><ele>234.2857142857143</ele><time>2026-04-19T09:35:00Z</time></trkpt><trkpt lat="42.08585570583728" lon="11.87185545056594"><ele>234.42857142857144</ele><time>2026-04-19T09:35:01Z</time></trkpt><trkpt lat="42.085919616738344" lon="11.871800149142672"><ele>234.57142857142856</ele><time>2026-04-19T09:35:02Z</time></trkpt><trkpt lat="42.085972164572745" lon="11.871735313008699"><ele>234.7142857142857</ele><time>2026-04-19T09:35:03Z</time></trkpt><trkpt lat="42.08602197261" lon="11.87166657630262"><ele>234.85714285714283</ele><time>2026-04-19T09:35:04Z</time></trkpt><trkpt lat="42.08606790246085" lon="11.871593129630366"><ele>235.0</ele><time>2026-04-19T09:35:05Z</time></trkpt><trkpt lat="42.0861631358853" lon="11.871485007325196"><ele>234.99999999999997</ele><time>2026-04-19T09:35:07Z</time></trkpt><trkpt lat="42.08621981688603" lon="11.871445074537231"><ele>235.0</ele><time>2026-04-19T09:35:08Z</time></trkpt><trkpt lat="42.08634105978169" lon="11.87147740902244"><ele>235.0</ele><time>2026-04-19T09:35:10Z</time></trkpt><trkpt lat="42.086417538728654" lon="11.871504475323084"><ele>235.0</ele><time>2026-04-19T09:35:11Z</time></trkpt><trkpt lat="42.08649160500483" lon="11.871539756276906"><ele>234.99999999999997</ele><time>2026-04-19T09:35:12Z</time></trkpt><trkpt lat="42.0865610433214" lon="11.871573851773931"><ele>235.0</ele><time>2026-04-19T09:35:13Z</time></trkpt><trkpt lat="42.08662929928673" lon="11.87160617309888"><ele>235.6</ele><time>2026-04-19T09:35:13.999Z</time></trkpt><trkpt lat="42.08670584879609" lon="11.871637528399864"><ele>236.2</ele><time>2026-04-19T09:35:14.999Z</time></trkpt><trkpt lat="42.0867983410521" lon="11.871668430670807"><ele>236.8</ele><time>2026-04-19T09:35:15.999Z</time></trkpt><trkpt lat="42.086881625750145" lon="11.871677067971259"><ele>237.4</ele><time>2026-04-19T09:35:16.999Z</time></trkpt><trkpt lat="42.08697673147273" lon="11.871646004714794"><ele>238.0</ele><time>2026-04-19T09:35:17.999Z</time></trkpt><trkpt lat="42.08707345786713" lon="11.871601549153375"><ele>237.99999999999997</ele><time>2026-04-19T09:35:18.999Z</time></trkpt><trkpt lat="42.08716530255765" lon="11.871606108764713"><ele>238.0</ele><time>2026-04-19T09:35:19.999Z</time></trkpt><trkpt lat="42.087261032361255" lon="11.87159359384744"><ele>238.0</ele><time>2026-04-19T09:35:20.999Z</time></trkpt><trkpt lat="42.0873320727896" lon="11.871584306610023"><ele>238.0</ele><time>2026-04-19T09:35:21.999Z</time></trkpt><trkpt lat="42.08741217480623" lon="11.871554871915777"><ele>237.99999999999997</ele><time>2026-04-19T09:35:22.999Z</time></trkpt><trkpt lat="42.08750979045557" lon="11.87155580517005"><ele>238.0</ele><time>2026-04-19T09:35:23.999Z</time></trkpt><trkpt lat="42.08759105019868" lon="11.871542249395281"><ele>236.60000000000002</ele><time>2026-04-19T09:35:24.999Z</time></trkpt><trkpt lat="42.08767391679409" lon="11.871519427618782"><ele>235.20000000000002</ele><time>2026-04-19T09:35:25.999Z</time></trkpt><trkpt lat="42.08781488911646" lon="11.871508311941641"><ele>233.8</ele><time>2026-04-19T09:35:27.999Z</time></trkpt><trkpt lat="42.08788846553274" lon="11.871492255886503"><ele>232.4</ele><time>2026-04-19T09:35:28.999Z</time></trkpt><trkpt lat="42.08798289856491" lon="11.871497471684593"><ele>231.0</ele><time>2026-04-19T09:35:29.999Z</time></trkpt><trkpt lat="42.08809018302147" lon="11.871494629184362"><ele>231.0</ele><time>2026-04-19T09:35:30.999Z</time></trkpt><trkpt lat="42.088186178613135" lon="11.871502937340649"><ele>231.00000000000003</ele><time>2026-04-19T09:35:31.999Z</time></trkpt><trkpt lat="42.088279887518844" lon="11.871522187357137"><ele>231.00000000000003</ele><time>2026-04-19T09:35:32.999Z</time></trkpt><trkpt lat="42.08837608787885" lon="11.871540402302756"><ele>231.0</ele><time>2026-04-19T09:35:33.999Z</time></trkpt><trkpt lat="42.08845965855437" lon="11.871586858290424"><ele>231.0</ele><time>2026-04-19T09:35:34.999Z</time></trkpt><trkpt lat="42.088540346613506" lon="11.871638936961531"><ele>230.66666666666666</ele><time>2026-04-19T09:35:35.999Z</time></trkpt><trkpt lat="42.08860651040912" lon="11.871684933658551"><ele>230.33333333333331</ele><time>2026-04-19T09:35:36.999Z</time></trkpt><trkpt lat="42.08868356130271" lon="11.871738531533861"><ele>230.0</ele><time>2026-04-19T09:35:37.999Z</time></trkpt><trkpt lat="42.088753361218075" lon="11.871794197931914"><ele>229.66666666666666</ele><time>2026-04-19T09:35:38.999Z</time></trkpt><trkpt lat="42.0888084895476" lon="11.871843468690535"><ele>229.33333333333331</ele><time>2026-04-19T09:35:39.999Z</time></trkpt><trkpt lat="42.08887873942014" lon="11.871881980801183"><ele>229.0</ele><time>2026-04-19T09:35:40.999Z</time></trkpt><trkpt lat="42.08895025289065" lon="11.871909496523827"><ele>227.39999999999998</ele><time>2026-04-19T09:35:42Z</time></trkpt><trkpt lat="42.08901843859695" lon="11.87193082149643"><ele>225.79999999999998</ele><time>2026-04-19T09:35:43Z</time></trkpt><trkpt lat="42.08915509892018" lon="11.87194963734874"><ele>224.20000000000002</ele><time>2026-04-19T09:35:45Z</time></trkpt><trkpt lat="42.089226546171766" lon="11.871966994350887"><ele>222.60000000000002</ele><time>2026-04-19T09:35:46Z</time></trkpt><trkpt lat="42.08935714762573" lon="11.87199268358823"><ele>221.0</ele><time>2026-04-19T09:35:48Z</time></trkpt><trkpt lat="42.089431473992725" lon="11.871997971529572"><ele>220.60000000000002</ele><time>2026-04-19T09:35:49Z</time></trkpt><trkpt lat="42.08955012247503" lon="11.872018692479976"><ele>220.20000000000002</ele><time>2026-04-19T09:35:51Z</time></trkpt><trkpt lat="42.08968329706398" lon="11.872045979949583"><ele>219.79999999999998</ele><time>2026-04-19T09:35:53Z</time></trkpt><trkpt lat="42.08975014832494" lon="11.872085699364339"><ele>219.39999999999998</ele><time>2026-04-19T09:35:54Z</time></trkpt><trkpt lat="42.08980654486781" lon="11.872163576243237"><ele>219.0</ele><time>2026-04-19T09:35:55Z</time></trkpt><trkpt lat="42.089858848688785" lon="11.872219301036903"><ele>219.0</ele><time>2026-04-19T09:35:56Z</time></trkpt><trkpt lat="42.08990322131833" lon="11.872295280451352"><ele>219.0</ele><time>2026-04-19T09:35:58Z</time></trkpt><trkpt lat="42.089771435866545" lon="11.872407972275958"><ele>219.0</ele><time>2026-04-19T09:36:00Z</time></trkpt><trkpt lat="42.08972450644332" lon="11.872469772664195"><ele>219.0</ele><time>2026-04-19T09:36:01Z</time></trkpt><trkpt lat="42.089688269683606" lon="11.872548848216589"><ele>219.0</ele><time>2026-04-19T09:36:02Z</time></trkpt><trkpt lat="42.08963979661975" lon="11.872610563343768"><ele>219.0</ele><time>2026-04-19T09:36:03Z</time></trkpt><trkpt lat="42.089605599009374" lon="11.87271232590631"><ele>215.79999999999998</ele><time>2026-04-19T09:36:04Z</time></trkpt><trkpt lat="42.089562814582436" lon="11.872804243472562"><ele>212.59999999999997</ele><time>2026-04-19T09:36:05Z</time></trkpt><trkpt lat="42.08952137715784" lon="11.872907656045806"><ele>209.4</ele><time>2026-04-19T09:36:06Z</time></trkpt><trkpt lat="42.08945255916114" lon="11.87300646012267"><ele>206.2</ele><time>2026-04-19T09:36:07Z</time></trkpt><trkpt lat="42.089397728822895" lon="11.873110316728358"><ele>203.0</ele><time>2026-04-19T09:36:08Z</time></trkpt><trkpt lat="42.08934578407956" lon="11.873208496835554"><ele>203.00000000000003</ele><time>2026-04-19T09:36:09Z</time></trkpt><trkpt lat="42.089288396179796" lon="11.873317672192737"><ele>203.0</ele><time>2026-04-19T09:36:10Z</time></trkpt><trkpt lat="42.08924066594754" lon="11.873412377392357"><ele>203.0</ele><time>2026-04-19T09:36:11Z</time></trkpt><trkpt lat="42.08920433512181" lon="11.873513524639744"><ele>203.0</ele><time>2026-04-19T09:36:12Z</time></trkpt><trkpt lat="42.08915266829104" lon="11.873608746223654"><ele>203.00000000000003</ele><time>2026-04-19T09:36:13Z</time></trkpt><trkpt lat="42.089110456718174" lon="11.873693597911533"><ele>203.0</ele><time>2026-04-19T09:36:14Z</time></trkpt><trkpt lat="42.08906887179009" lon="11.873788541120405"><ele>201.16666666666669</ele><time>2026-04-19T09:36:15Z</time></trkpt><trkpt lat="42.08901034382835" lon="11.873885845626855"><ele>199.33333333333334</ele><time>2026-04-19T09:36:16Z</time></trkpt><trkpt lat="42.08895967592151" lon="11.873991629264426"><ele>197.5</ele><time>2026-04-19T09:36:17Z</time></trkpt><trkpt lat="42.08891802665511" lon="11.874076650012828"><ele>195.66666666666669</ele><time>2026-04-19T09:36:18Z</time></trkpt><trkpt lat="42.08888499913096" lon="11.87416858149027"><ele>193.83333333333334</ele><time>2026-04-19T09:36:19Z</time></trkpt><trkpt lat="42.088834854971154" lon="11.874221242485797"><ele>192.0</ele><time>2026-04-19T09:36:20Z</time></trkpt><trkpt lat="42.08877003836208" lon="11.87433707537241"><ele>189.33333333333334</ele><time>2026-04-19T09:36:22Z</time></trkpt><trkpt lat="42.08872489949586" lon="11.874410136930152"><ele>186.66666666666666</ele><time>2026-04-19T09:36:23Z</time></trkpt><trkpt lat="42.0886736430922" lon="11.874486062767081"><ele>184.0</ele><time>2026-04-19T09:36:24Z</time></trkpt><trkpt lat="42.088619358478304" lon="11.874556280061977"><ele>181.33333333333331</ele><time>2026-04-19T09:36:25Z</time></trkpt><trkpt lat="42.08855015467409" lon="11.874632367245278"><ele>178.66666666666666</ele><time>2026-04-19T09:36:26Z</time></trkpt><trkpt lat="42.08845357692948" lon="11.874688684626669"><ele>176.0</ele><time>2026-04-19T09:36:27Z</time></trkpt><trkpt lat="42.08836342279368" lon="11.87474190278244"><ele>176.0</ele><time>2026-04-19T09:36:28Z</time></trkpt><trkpt lat="42.08829219987564" lon="11.874818437693147"><ele>176.0</ele><time>2026-04-19T09:36:29Z</time></trkpt><trkpt lat="42.088236455537476" lon="11.874912940554628"><ele>176.0</ele><time>2026-04-19T09:36:30Z</time></trkpt><trkpt lat="42.08817726765938" lon="11.875005164375004"><ele>176.0</ele><time>2026-04-19T09:36:31Z</time></trkpt><trkpt lat="42.08811458286336" lon="11.875102836992257"><ele>176.0</ele><time>2026-04-19T09:36:32Z</time></trkpt><trkpt lat="42.08795908209061" lon="11.87508093394243"><ele>175.0</ele><time>2026-04-19T09:36:33Z</time></trkpt><trkpt lat="42.08788077669787" lon="11.87515371629643"><ele>174.0</ele><time>2026-04-19T09:36:34Z</time></trkpt><trkpt lat="42.0877983419324" lon="11.87522594284355"><ele>173.0</ele><time>2026-04-19T09:36:35Z</time></trkpt><trkpt lat="42.0877094556924" lon="11.87529510549951"><ele>172.0</ele><time>2026-04-19T09:36:36Z</time></trkpt><trkpt lat="42.08763509342834" lon="11.875365462804652"><ele>171.0</ele><time>2026-04-19T09:36:37Z</time></trkpt><trkpt lat="42.087590956889095" lon="11.87544902655908"><ele>171.0</ele><time>2026-04-19T09:36:38Z</time></trkpt><trkpt lat="42.08757097001889" lon="11.875556413977403"><ele>171.0</ele><time>2026-04-19T09:36:39Z</time></trkpt><trkpt lat="42.087550734682196" lon="11.875650734152353"><ele>171.0</ele><time>2026-04-19T09:36:40Z</time></trkpt><trkpt lat="42.08752534905071" lon="11.87576181922113"><ele>171.0</ele><time>2026-04-19T09:36:41Z</time></trkpt><trkpt lat="42.087502063850174" lon="11.875874419348895"><ele>171.0</ele><time>2026-04-19T09:36:42Z</time></trkpt><trkpt lat="42.087459695766164" lon="11.87597190187653"><ele>171.0</ele><time>2026-04-19T09:36:43Z</time></trkpt><trkpt lat="42.08739741901477" lon="11.876043096284107"><ele>169.16666666666666</ele><time>2026-04-19T09:36:44Z</time></trkpt><trkpt lat="42.08734708506098" lon="11.876122174537404"><ele>167.33333333333334</ele><time>2026-04-19T09:36:45Z</time></trkpt><trkpt lat="42.087315908184074" lon="11.876202083251602"><ele>165.5</ele><time>2026-04-19T09:36:46Z</time></trkpt><trkpt lat="42.087288363430375" lon="11.876287422269083"><ele>163.66666666666669</ele><time>2026-04-19T09:36:47Z</time></trkpt><trkpt lat="42.08724090724312" lon="11.876369314935314"><ele>161.83333333333334</ele><time>2026-04-19T09:36:48Z</time></trkpt><trkpt lat="42.08716673505291" lon="11.876446806565907"><ele>160.0</ele><time>2026-04-19T09:36:49Z</time></trkpt><trkpt lat="42.08711558244305" lon="11.876530234160033"><ele>160.0</ele><time>2026-04-19T09:36:50Z</time></trkpt><trkpt lat="42.087081442404816" lon="11.876630615441986"><ele>160.0</ele><time>2026-04-19T09:36:51Z</time></trkpt><trkpt lat="42.087051868205535" lon="11.87674501051979"><ele>160.0</ele><time>2026-04-19T09:36:52Z</time></trkpt><trkpt lat="42.08703980491273" lon="11.876840516679826"><ele>160.0</ele><time>2026-04-19T09:36:53Z</time></trkpt><trkpt lat="42.08703043009853" lon="11.87695743107371"><ele>160.0</ele><time>2026-04-19T09:36:54Z</time></trkpt><trkpt lat="42.086987358554865" lon="11.87707674298865"><ele>160.0</ele><time>2026-04-19T09:36:55Z</time></trkpt><trkpt lat="42.0869384815162" lon="11.87715473210855"><ele>158.5</ele><time>2026-04-19T09:36:56Z</time></trkpt><trkpt lat="42.086894287595634" lon="11.877228526015154"><ele>157.0</ele><time>2026-04-19T09:36:57Z</time></trkpt><trkpt lat="42.086823775721825" lon="11.877321007262776"><ele>155.5</ele><time>2026-04-19T09:36:58Z</time></trkpt><trkpt lat="42.0867551299044" lon="11.87736274865833"><ele>154.0</ele><time>2026-04-19T09:36:59Z</time></trkpt><trkpt lat="42.086689682607634" lon="11.877412341019571"><ele>152.5</ele><time>2026-04-19T09:37:00Z</time></trkpt><trkpt lat="42.08663393099354" lon="11.877488597630084"><ele>151.0</ele><time>2026-04-19T09:37:01Z</time></trkpt><trkpt lat="42.08658189223208" lon="11.877573066443107"><ele>148.5</ele><time>2026-04-19T09:37:02Z</time></trkpt><trkpt lat="42.086529260173535" lon="11.877650112142579"><ele>146.0</ele><time>2026-04-19T09:37:03Z</time></trkpt><trkpt lat="42.086472055829354" lon="11.87772212191669"><ele>143.5</ele><time>2026-04-19T09:37:04Z</time></trkpt><trkpt lat="42.08641679477486" lon="11.877780490398841"><ele>141.0</ele><time>2026-04-19T09:37:05Z</time></trkpt><trkpt lat="42.08634772470819" lon="11.87784185056558"><ele>138.5</ele><time>2026-04-19T09:37:06Z</time></trkpt><trkpt lat="42.08628259798803" lon="11.877929812046057"><ele>136.0</ele><time>2026-04-19T09:37:07Z</time></trkpt><trkpt lat="42.086232117601604" lon="11.878033610609814"><ele>135.99999999999997</ele><time>2026-04-19T09:37:08Z</time></trkpt><trkpt lat="42.0861888107091" lon="11.878124838108205"><ele>136.0</ele><time>2026-04-19T09:37:09Z</time></trkpt><trkpt lat="42.08613958236558" lon="11.878211211544162"><ele>136.0</ele><time>2026-04-19T09:37:10Z</time></trkpt><trkpt lat="42.08609414077932" lon="11.878279660813421"><ele>136.0</ele><time>2026-04-19T09:37:11Z</time></trkpt><trkpt lat="42.08605279030707" lon="11.87834535411446"><ele>136.0</ele><time>2026-04-19T09:37:11.999Z</time></trkpt><trkpt lat="42.08601889174633" lon="11.878425605218"><ele>135.99999999999997</ele><time>2026-04-19T09:37:12.999Z</time></trkpt><trkpt lat="42.08598431552294" lon="11.878511203813543"><ele>136.0</ele><time>2026-04-19T09:37:13.999Z</time></trkpt><trkpt lat="42.085951637905715" lon="11.878607071635786"><ele>134.5</ele><time>2026-04-19T09:37:14.999Z</time></trkpt><trkpt lat="42.0859180188907" lon="11.878703093205171"><ele>133.0</ele><time>2026-04-19T09:37:15.999Z</time></trkpt><trkpt lat="42.08588172438651" lon="11.878813038063472"><ele>131.5</ele><time>2026-04-19T09:37:16.999Z</time></trkpt><trkpt lat="42.08584469201385" lon="11.87891296943572"><ele>130.0</ele><time>2026-04-19T09:37:17.999Z</time></trkpt><trkpt lat="42.08583259422298" lon="11.879024453873269"><ele>128.5</ele><time>2026-04-19T09:37:18.999Z</time></trkpt><trkpt lat="42.085820362873676" lon="11.87913752416584"><ele>127.0</ele><time>2026-04-19T09:37:19.999Z</time></trkpt><trkpt lat="42.08580837727364" lon="11.879266266119771"><ele>125.42857142857143</ele><time>2026-04-19T09:37:20.999Z</time></trkpt><trkpt lat="42.085818744125824" lon="11.879370722343658"><ele>123.85714285714286</ele><time>2026-04-19T09:37:21.999Z</time></trkpt><trkpt lat="42.08582905481923" lon="11.879469452007761"><ele>122.28571428571429</ele><time>2026-04-19T09:37:22.999Z</time></trkpt><trkpt lat="42.08585094869043" lon="11.879556268178494"><ele>120.71428571428572</ele><time>2026-04-19T09:37:23.999Z</time></trkpt><trkpt lat="42.08586661426122" lon="11.87965385688633"><ele>119.14285714285714</ele><time>2026-04-19T09:37:24.999Z</time></trkpt><trkpt lat="42.08586992103823" lon="11.879747188881286"><ele>117.57142857142858</ele><time>2026-04-19T09:37:25.999Z</time></trkpt><trkpt lat="42.085853071250625" lon="11.879852681072816"><ele>116.00000000000001</ele><time>2026-04-19T09:37:26.999Z</time></trkpt><trkpt lat="42.085829702235145" lon="11.879942157199453"><ele>116.0</ele><time>2026-04-19T09:37:27.999Z</time></trkpt><trkpt lat="42.085790081282575" lon="11.88003475248677"><ele>116.0</ele><time>2026-04-19T09:37:28.999Z</time></trkpt><trkpt lat="42.085736925448835" lon="11.880114901070849"><ele>116.0</ele><time>2026-04-19T09:37:29.999Z</time></trkpt><trkpt lat="42.08565964636321" lon="11.880194130025949"><ele>116.0</ele><time>2026-04-19T09:37:30.999Z</time></trkpt><trkpt lat="42.085576332442926" lon="11.880260203203717"><ele>116.0</ele><time>2026-04-19T09:37:31.999Z</time></trkpt><trkpt lat="42.08550231593874" lon="11.88034523599326"><ele>113.16666666666666</ele><time>2026-04-19T09:37:32.999Z</time></trkpt><trkpt lat="42.08543244946859" lon="11.880440753056048"><ele>110.33333333333333</ele><time>2026-04-19T09:37:33.999Z</time></trkpt><trkpt lat="42.0853707421994" lon="11.88053333092041"><ele>107.5</ele><time>2026-04-19T09:37:34.999Z</time></trkpt><trkpt lat="42.08533865538151" lon="11.880634767170617"><ele>104.66666666666666</ele><time>2026-04-19T09:37:35.999Z</time></trkpt><trkpt lat="42.08532752848308" lon="11.880736011890006"><ele>101.83333333333333</ele><time>2026-04-19T09:37:36.999Z</time></trkpt><trkpt lat="42.0853070914959" lon="11.880843016816042"><ele>99.0</ele><time>2026-04-19T09:37:37.999Z</time></trkpt><trkpt lat="42.085260917391594" lon="11.88094235855958"><ele>97.6</ele><time>2026-04-19T09:37:38.999Z</time></trkpt><trkpt lat="42.08521339938606" lon="11.881039203541235"><ele>96.2</ele><time>2026-04-19T09:37:39.999Z</time></trkpt><trkpt lat="42.08517433408712" lon="11.88112862978918"><ele>94.8</ele><time>2026-04-19T09:37:40.999Z</time></trkpt><trkpt lat="42.08515755185914" lon="11.881223491622332"><ele>93.39999999999999</ele><time>2026-04-19T09:37:41.999Z</time></trkpt><trkpt lat="42.085156018354056" lon="11.881413430105729"><ele>92.0</ele><time>2026-04-19T09:37:43.999Z</time></trkpt><trkpt lat="42.085156123674274" lon="11.881518729348839"><ele>92.0</ele><time>2026-04-19T09:37:44.999Z</time></trkpt><trkpt lat="42.08515385789826" lon="11.881629151687678"><ele>92.0</ele><time>2026-04-19T09:37:45.999Z</time></trkpt><trkpt lat="42.085139891673066" lon="11.881734804721736"><ele>92.0</ele><time>2026-04-19T09:37:46.999Z</time></trkpt><trkpt lat="42.08510462940188" lon="11.881839239047254"><ele>92.0</ele><time>2026-04-19T09:37:48Z</time></trkpt><trkpt lat="42.08506235220404" lon="11.881959158852105"><ele>92.0</ele><time>2026-04-19T09:37:49Z</time></trkpt><trkpt lat="42.085020544893226" lon="11.882072818892537"><ele>92.0</ele><time>2026-04-19T09:37:50Z</time></trkpt><trkpt lat="42.084990071563006" lon="11.882184454205065"><ele>91.85714285714286</ele><time>2026-04-19T09:37:51Z</time></trkpt><trkpt lat="42.08496108318006" lon="11.882278942870878"><ele>91.71428571428571</ele><time>2026-04-19T09:37:52Z</time></trkpt><trkpt lat="42.08492562391707" lon="11.882370468535274"><ele>91.57142857142857</ele><time>2026-04-19T09:37:53Z</time></trkpt><trkpt lat="42.08489829221833" lon="11.882451171825252"><ele>91.42857142857143</ele><time>2026-04-19T09:37:54Z</time></trkpt><trkpt lat="42.08486751548261" lon="11.882542595289364"><ele>91.28571428571428</ele><time>2026-04-19T09:37:56Z</time></trkpt><trkpt lat="42.08483048571346" lon="11.88263529796587"><ele>91.14285714285714</ele><time>2026-04-19T09:37:58Z</time></trkpt><trkpt lat="42.08481626982927" lon="11.88271868409909"><ele>91.0</ele><time>2026-04-19T09:38:01Z</time></trkpt><trkpt lat="42.08481784852719" lon="11.88281461079484"><ele>90.83333333333333</ele><time>2026-04-19T09:38:31Z</time></trkpt><trkpt lat="42.08482719852803" lon="11.88290739471747"><ele>90.66666666666666</ele><time>2026-04-19T09:38:34Z</time></trkpt><trkpt lat="42.08478361602016" lon="11.882991401338085"><ele>90.5</ele><time>2026-04-19T09:38:39Z</time></trkpt><trkpt lat="42.08472203580249" lon="11.883091310002992"><ele>90.33333333333333</ele><time>2026-04-19T09:38:44Z</time></trkpt><trkpt lat="42.084657543513174" lon="11.883120000705368"><ele>90.16666666666667</ele><time>2026-04-19T09:38:47Z</time></trkpt><trkpt lat="42.08457578370447" lon="11.88312776315542"><ele>90.0</ele><time>2026-04-19T09:38:49Z</time></trkpt><trkpt lat="42.08451554525772" lon="11.883153031333626"><ele>90.0</ele><time>2026-04-19T09:38:51Z</time></trkpt><trkpt lat="42.08444888307979" lon="11.883179178605422"><ele>90.0</ele><time>2026-04-19T09:38:53Z</time></trkpt><trkpt lat="42.084402407274254" lon="11.883256174915315"><ele>90.0</ele><time>2026-04-19T09:38:55Z</time></trkpt><trkpt lat="42.08443503016577" lon="11.883351658453225"><ele>90.0</ele><time>2026-04-19T09:38:58Z</time></trkpt><trkpt lat="42.084559928245355" lon="11.88356598760756"><ele>90.0</ele><time>2026-04-19T09:38:59Z</time></trkpt><trkpt lat="42.08459925298326" lon="11.883655773206044"><ele>90.66666666666667</ele><time>2026-04-19T09:39:00Z</time></trkpt><trkpt lat="42.084658515650354" lon="11.883738415266182"><ele>91.33333333333333</ele><time>2026-04-19T09:39:01Z</time></trkpt><trkpt lat="42.084715846256984" lon="11.88381479753646"><ele>92.0</ele><time>2026-04-19T09:39:02Z</time></trkpt><trkpt lat="42.08477380655258" lon="11.883868803250806"><ele>92.66666666666666</ele><time>2026-04-19T09:39:03Z</time></trkpt><trkpt lat="42.08482765645904" lon="11.883937757501867"><ele>93.33333333333333</ele><time>2026-04-19T09:39:04Z</time></trkpt><trkpt lat="42.08488925213821" lon="11.884005153994618"><ele>94.0</ele><time>2026-04-19T09:39:05Z</time></trkpt><trkpt lat="42.084941683836924" lon="11.88406729711532"><ele>95.5</ele><time>2026-04-19T09:39:06Z</time></trkpt><trkpt lat="42.085031283298896" lon="11.884174603343938"><ele>97.0</ele><time>2026-04-19T09:39:08Z</time></trkpt><trkpt lat="42.08511784759176" lon="11.884291388366195"><ele>98.5</ele><time>2026-04-19T09:39:10Z</time></trkpt><trkpt lat="42.08517022994801" lon="11.884424319915924"><ele>100.0</ele><time>2026-04-19T09:39:12Z</time></trkpt><trkpt lat="42.08526237379269" lon="11.884483673921583"><ele>101.8</ele><time>2026-04-19T09:39:13.999Z</time></trkpt><trkpt lat="42.08527064388413" lon="11.88458162154046"><ele>103.6</ele><time>2026-04-19T09:39:15.999Z</time></trkpt><trkpt lat="42.0852382209381" lon="11.884721607431015"><ele>105.4</ele><time>2026-04-19T09:39:17.999Z</time></trkpt><trkpt lat="42.085165015075184" lon="11.884843280118549"><ele>107.2</ele><time>2026-04-19T09:39:19.999Z</time></trkpt><trkpt lat="42.08515410211017" lon="11.884986611935794"><ele>109.0</ele><time>2026-04-19T09:39:21.999Z</time></trkpt><trkpt lat="42.08515374180765" lon="11.88508002293847"><ele>111.0</ele><time>2026-04-19T09:39:22.999Z</time></trkpt><trkpt lat="42.085158933059496" lon="11.885170965832428"><ele>113.0</ele><time>2026-04-19T09:39:23.999Z</time></trkpt><trkpt lat="42.08517524674323" lon="11.88529565139685"><ele>115.0</ele><time>2026-04-19T09:39:25.999Z</time></trkpt><trkpt lat="42.085154219354045" lon="11.88544401630855"><ele>117.0</ele><time>2026-04-19T09:39:28.999Z</time></trkpt><trkpt lat="42.08514627527032" lon="11.885546830149668"><ele>119.0</ele><time>2026-04-19T09:39:30.999Z</time></trkpt><trkpt lat="42.08511548230975" lon="11.885682763214064"><ele>118.99999999999999</ele><time>2026-04-19T09:39:32.999Z</time></trkpt><trkpt lat="42.08509424756818" lon="11.88583649392809"><ele>119.0</ele><time>2026-04-19T09:39:34.999Z</time></trkpt><trkpt lat="42.08508698913218" lon="11.885926006634588"><ele>119.0</ele><time>2026-04-19T09:39:35.999Z</time></trkpt><trkpt lat="42.08508548616774" lon="11.886024314310736"><ele>119.0</ele><time>2026-04-19T09:39:36.999Z</time></trkpt><trkpt lat="42.085080860436825" lon="11.886119712448664"><ele>118.99999999999999</ele><time>2026-04-19T09:39:37.999Z</time></trkpt><trkpt lat="42.085096282916346" lon="11.886207640199762"><ele>119.0</ele><time>2026-04-19T09:39:38.999Z</time></trkpt><trkpt lat="42.08511400005805" lon="11.886295619575137"><ele>119.66666666666666</ele><time>2026-04-19T09:39:39.999Z</time></trkpt><trkpt lat="42.085134564180336" lon="11.886390178290268"><ele>120.33333333333333</ele><time>2026-04-19T09:39:40.999Z</time></trkpt><trkpt lat="42.08515281411611" lon="11.8865043735442"><ele>121.0</ele><time>2026-04-19T09:39:41.999Z</time></trkpt><trkpt lat="42.08517038449867" lon="11.88661241548547"><ele>121.66666666666666</ele><time>2026-04-19T09:39:42.999Z</time></trkpt><trkpt lat="42.0851891099601" lon="11.886704054186554"><ele>122.33333333333333</ele><time>2026-04-19T09:39:43.999Z</time></trkpt><trkpt lat="42.085208131060455" lon="11.886804091830506"><ele>123.0</ele><time>2026-04-19T09:39:44.999Z</time></trkpt><trkpt lat="42.08522507519822" lon="11.886887526187515"><ele>123.80000000000001</ele><time>2026-04-19T09:39:45.999Z</time></trkpt><trkpt lat="42.085276318200755" lon="11.887035984959917"><ele>124.60000000000001</ele><time>2026-04-19T09:39:47.999Z</time></trkpt><trkpt lat="42.0853159307542" lon="11.88718642249866"><ele>125.39999999999999</ele><time>2026-04-19T09:39:49.999Z</time></trkpt><trkpt lat="42.085368603140125" lon="11.887317846564883"><ele>126.19999999999999</ele><time>2026-04-19T09:39:51.999Z</time></trkpt><trkpt lat="42.085398177955376" lon="11.887404455231355"><ele>127.0</ele><time>2026-04-19T09:39:52.999Z</time></trkpt><trkpt lat="42.08543455257924" lon="11.887497338238006"><ele>127.00000000000001</ele><time>2026-04-19T09:39:54Z</time></trkpt><trkpt lat="42.08547110414315" lon="11.887577675431594"><ele>127.0</ele><time>2026-04-19T09:39:55Z</time></trkpt><trkpt lat="42.08552916865699" lon="11.887728536396635"><ele>127.0</ele><time>2026-04-19T09:39:57Z</time></trkpt><trkpt lat="42.08555726922513" lon="11.887807836800368"><ele>127.0</ele><time>2026-04-19T09:39:58Z</time></trkpt><trkpt lat="42.085594687034664" lon="11.887880208828317"><ele>127.00000000000001</ele><time>2026-04-19T09:39:59Z</time></trkpt><trkpt lat="42.085639468758856" lon="11.887940812669672"><ele>127.0</ele><time>2026-04-19T09:40:00Z</time></trkpt><trkpt lat="42.0857210598527" lon="11.888027460671719"><ele>128.83333333333334</ele><time>2026-04-19T09:40:02Z</time></trkpt><trkpt lat="42.08580885337255" lon="11.888085872115353"><ele>130.66666666666669</ele><time>2026-04-19T09:40:04Z</time></trkpt><trkpt lat="42.08587642666368" lon="11.888158751825864"><ele>132.5</ele><time>2026-04-19T09:40:06Z</time></trkpt><trkpt lat="42.08591602879163" lon="11.888226449709142"><ele>134.33333333333334</ele><time>2026-04-19T09:40:08Z</time></trkpt><trkpt lat="42.08595305235583" lon="11.888306270467403"><ele>136.16666666666666</ele><time>2026-04-19T09:40:10Z</time></trkpt><trkpt lat="42.085967400846215" lon="11.888400980665697"><ele>138.0</ele><time>2026-04-19T09:40:12Z</time></trkpt><trkpt lat="42.08599105553348" lon="11.888541452292351"><ele>140.0</ele><time>2026-04-19T09:40:14Z</time></trkpt><trkpt lat="42.086027681268554" lon="11.888666089083562"><ele>142.0</ele><time>2026-04-19T09:40:16Z</time></trkpt><trkpt lat="42.08606336342083" lon="11.888786366546336"><ele>144.0</ele><time>2026-04-19T09:40:18Z</time></trkpt><trkpt lat="42.08611663255159" lon="11.888907582777742"><ele>146.0</ele><time>2026-04-19T09:40:20Z</time></trkpt><trkpt lat="42.08618914325932" lon="11.8890321436194"><ele>148.0</ele><time>2026-04-19T09:40:22Z</time></trkpt><trkpt lat="42.08626228613756" lon="11.889131698204576"><ele>148.0</ele><time>2026-04-19T09:40:24Z</time></trkpt><trkpt lat="42.08634289124628" lon="11.88920009150677"><ele>148.0</ele><time>2026-04-19T09:40:26Z</time></trkpt><trkpt lat="42.0864433019339" lon="11.889256916879145"><ele>148.0</ele><time>2026-04-19T09:40:28Z</time></trkpt><trkpt lat="42.08656229892392" lon="11.889280566926095"><ele>148.0</ele><time>2026-04-19T09:40:30Z</time></trkpt><trkpt lat="42.08667676966574" lon="11.88932264254086"><ele>148.0</ele><time>2026-04-19T09:40:32Z</time></trkpt><trkpt lat="42.08676143804281" lon="11.889349324468382"><ele>150.83333333333334</ele><time>2026-04-19T09:40:33Z</time></trkpt><trkpt lat="42.086832669661014" lon="11.889430013028242"><ele>153.66666666666669</ele><time>2026-04-19T09:40:34Z</time></trkpt><trkpt lat="42.08690794830468" lon="11.889503025518957"><ele>156.5</ele><time>2026-04-19T09:40:35Z</time></trkpt><trkpt lat="42.08698055487538" lon="11.889575994756633"><ele>159.33333333333334</ele><time>2026-04-19T09:40:36Z</time></trkpt><trkpt lat="42.08704960006567" lon="11.889644743376055"><ele>162.16666666666666</ele><time>2026-04-19T09:40:37Z</time></trkpt><trkpt lat="42.08711061693729" lon="11.88970632879117"><ele>165.0</ele><time>2026-04-19T09:40:38Z</time></trkpt><trkpt lat="42.08717583319268" lon="11.889749323473547"><ele>165.0</ele><time>2026-04-19T09:40:39Z</time></trkpt><trkpt lat="42.087256867898844" lon="11.889861495089537"><ele>165.0</ele><time>2026-04-19T09:40:41Z</time></trkpt><trkpt lat="42.08725215850416" lon="11.890036138494814"><ele>165.0</ele><time>2026-04-19T09:40:43Z</time></trkpt><trkpt lat="42.08725725698167" lon="11.890151025840693"><ele>165.0</ele><time>2026-04-19T09:40:44Z</time></trkpt><trkpt lat="42.087250377197755" lon="11.890252768061355"><ele>165.0</ele><time>2026-04-19T09:40:45Z</time></trkpt><trkpt lat="42.08719029140906" lon="11.890384989047773"><ele>166.6</ele><time>2026-04-19T09:40:47Z</time></trkpt><trkpt lat="42.087150999432275" lon="11.890461938805796"><ele>168.2</ele><time>2026-04-19T09:40:48Z</time></trkpt><trkpt lat="42.0871074367423" lon="11.89054965138028"><ele>169.8</ele><time>2026-04-19T09:40:49Z</time></trkpt><trkpt lat="42.08708350448086" lon="11.890665721315989"><ele>171.4</ele><time>2026-04-19T09:40:50Z</time></trkpt><trkpt lat="42.087075807533935" lon="11.890801722761054"><ele>173.0</ele><time>2026-04-19T09:40:51Z</time></trkpt><trkpt lat="42.087077104765164" lon="11.890954315225892"><ele>174.5</ele><time>2026-04-19T09:40:52Z</time></trkpt><trkpt lat="42.08709972887008" lon="11.891132493056304"><ele>176.0</ele><time>2026-04-19T09:40:53Z</time></trkpt><trkpt lat="42.08712578798181" lon="11.891304197587955"><ele>177.5</ele><time>2026-04-19T09:40:54Z</time></trkpt><trkpt lat="42.08713277231922" lon="11.891452008389912"><ele>179.0</ele><time>2026-04-19T09:40:55Z</time></trkpt><trkpt lat="42.08714162181807" lon="11.891595897212516"><ele>179.0</ele><time>2026-04-19T09:40:56Z</time></trkpt><trkpt lat="42.08715393204923" lon="11.8917342560716"><ele>179.0</ele><time>2026-04-19T09:40:57Z</time></trkpt><trkpt lat="42.0871875898969" lon="11.89186746523807"><ele>179.0</ele><time>2026-04-19T09:40:58Z</time></trkpt><trkpt lat="42.08724242168514" lon="11.891988886361268"><ele>179.0</ele><time>2026-04-19T09:40:59Z</time></trkpt><trkpt lat="42.08731138962865" lon="11.892094913119859"><ele>179.0</ele><time>2026-04-19T09:41:00Z</time></trkpt><trkpt lat="42.08736837872504" lon="11.892167924307785"><ele>182.0</ele><time>2026-04-19T09:41:01Z</time></trkpt><trkpt lat="42.08742729005632" lon="11.892206605631635"><ele>185.0</ele><time>2026-04-19T09:41:02Z</time></trkpt><trkpt lat="42.08753831089676" lon="11.892270095285191"><ele>188.0</ele><time>2026-04-19T09:41:04Z</time></trkpt><trkpt lat="42.08764422184703" lon="11.892355413105577"><ele>191.0</ele><time>2026-04-19T09:41:06Z</time></trkpt><trkpt lat="42.08764082072659" lon="11.89249112331365"><ele>194.0</ele><time>2026-04-19T09:41:07.999Z</time></trkpt><trkpt lat="42.08763351082844" lon="11.892587305493654"><ele>195.33333333333334</ele><time>2026-04-19T09:41:09.999Z</time></trkpt><trkpt lat="42.08765365265242" lon="11.892702008546879"><ele>196.66666666666669</ele><time>2026-04-19T09:41:11.999Z</time></trkpt><trkpt lat="42.087662020008764" lon="11.892802019654415"><ele>198.0</ele><time>2026-04-19T09:41:12.999Z</time></trkpt><trkpt lat="42.08767680902659" lon="11.892901585673382"><ele>199.33333333333331</ele><time>2026-04-19T09:41:13.999Z</time></trkpt><trkpt lat="42.08770341300959" lon="11.892996678703273"><ele>200.66666666666666</ele><time>2026-04-19T09:41:14.999Z</time></trkpt><trkpt lat="42.08773867861" lon="11.89308311255612"><ele>202.0</ele><time>2026-04-19T09:41:15.999Z</time></trkpt><trkpt lat="42.08779461322004" lon="11.893181634824685"><ele>202.0</ele><time>2026-04-19T09:41:16.999Z</time></trkpt><trkpt lat="42.08785286949134" lon="11.893291928341144"><ele>202.0</ele><time>2026-04-19T09:41:17.999Z</time></trkpt><trkpt lat="42.08789745592132" lon="11.893412501486397"><ele>202.0</ele><time>2026-04-19T09:41:18.999Z</time></trkpt><trkpt lat="42.08794361558474" lon="11.89353312975734"><ele>202.0</ele><time>2026-04-19T09:41:19.999Z</time></trkpt><trkpt lat="42.087989423524796" lon="11.893648843184977"><ele>202.0</ele><time>2026-04-19T09:41:20.999Z</time></trkpt><trkpt lat="42.08803432967379" lon="11.89377519486702"><ele>203.2</ele><time>2026-04-19T09:41:21.999Z</time></trkpt><trkpt lat="42.08807292203659" lon="11.893910084925237"><ele>204.39999999999998</ele><time>2026-04-19T09:41:22.999Z</time></trkpt><trkpt lat="42.08809724664529" lon="11.894050961191244"><ele>205.60000000000002</ele><time>2026-04-19T09:41:23.999Z</time></trkpt><trkpt lat="42.08812255957399" lon="11.894195130992989"><ele>206.8</ele><time>2026-04-19T09:41:24.999Z</time></trkpt><trkpt lat="42.08815451023398" lon="11.894329019840098"><ele>208.0</ele><time>2026-04-19T09:41:25.999Z</time></trkpt><trkpt lat="42.08818601104805" lon="11.894473781612696"><ele>209.2</ele><time>2026-04-19T09:41:26.999Z</time></trkpt><trkpt lat="42.08820581927312" lon="11.894627914417935"><ele>210.4</ele><time>2026-04-19T09:41:27.999Z</time></trkpt><trkpt lat="42.0882252632293" lon="11.894776944889202"><ele>211.59999999999997</ele><time>2026-04-19T09:41:28.999Z</time></trkpt><trkpt lat="42.08823579983909" lon="11.894881906305828"><ele>212.79999999999998</ele><time>2026-04-19T09:41:29.999Z</time></trkpt><trkpt lat="42.08822767660583" lon="11.894966745092438"><ele>214.0</ele><time>2026-04-19T09:41:30.999Z</time></trkpt><trkpt lat="42.08821015197256" lon="11.895074084338466"><ele>215.6</ele><time>2026-04-19T09:41:31.999Z</time></trkpt><trkpt lat="42.088181816090156" lon="11.895166056411686"><ele>217.2</ele><time>2026-04-19T09:41:32.999Z</time></trkpt><trkpt lat="42.088140590717664" lon="11.895240948343606"><ele>218.79999999999998</ele><time>2026-04-19T09:41:33.999Z</time></trkpt><trkpt lat="42.088038742544185" lon="11.895372584566195"><ele>220.39999999999998</ele><time>2026-04-19T09:41:35.999Z</time></trkpt><trkpt lat="42.087979464631026" lon="11.895469900528896"><ele>222.0</ele><time>2026-04-19T09:41:36.999Z</time></trkpt><trkpt lat="42.087940786485355" lon="11.895603022570418"><ele>222.0</ele><time>2026-04-19T09:41:37.999Z</time></trkpt><trkpt lat="42.08791473833044" lon="11.895746456682033"><ele>222.0</ele><time>2026-04-19T09:41:38.999Z</time></trkpt><trkpt lat="42.08788189511379" lon="11.895899769763494"><ele>222.0</ele><time>2026-04-19T09:41:39.999Z</time></trkpt><trkpt lat="42.08785766491822" lon="11.89603657070746"><ele>222.0</ele><time>2026-04-19T09:41:40.999Z</time></trkpt><trkpt lat="42.08783180137495" lon="11.896168218597834"><ele>222.0</ele><time>2026-04-19T09:41:41.999Z</time></trkpt><trkpt lat="42.08779262166966" lon="11.896274727363073"><ele>222.39999999999998</ele><time>2026-04-19T09:41:42.999Z</time></trkpt><trkpt lat="42.08773106447277" lon="11.896357479386966"><ele>222.79999999999998</ele><time>2026-04-19T09:41:43.999Z</time></trkpt><trkpt lat="42.0876541476288" lon="11.896454549585052"><ele>223.2</ele><time>2026-04-19T09:41:44.999Z</time></trkpt><trkpt lat="42.08758306595676" lon="11.896542606356043"><ele>223.6</ele><time>2026-04-19T09:41:45.999Z</time></trkpt><trkpt lat="42.087499368906165" lon="11.896628450273552"><ele>224.0</ele><time>2026-04-19T09:41:46.999Z</time></trkpt><trkpt lat="42.08741737984828" lon="11.896722931712404"><ele>223.79999999999998</ele><time>2026-04-19T09:41:47.999Z</time></trkpt><trkpt lat="42.08734071244564" lon="11.896816189161928"><ele>223.59999999999997</ele><time>2026-04-19T09:41:48.999Z</time></trkpt><trkpt lat="42.08728597691979" lon="11.896884022407242"><ele>223.4</ele><time>2026-04-19T09:41:49.999Z</time></trkpt><trkpt lat="42.087277320020576" lon="11.897006120257068"><ele>223.2</ele><time>2026-04-19T09:41:51.999Z</time></trkpt><trkpt lat="42.087354337775245" lon="11.89712617881119"><ele>223.0</ele><time>2026-04-19T09:41:53.999Z</time></trkpt><trkpt lat="42.087408919443995" lon="11.89717209890962"><ele>226.0</ele><time>2026-04-19T09:41:54.999Z</time></trkpt><trkpt lat="42.08750893342226" lon="11.897189861770256"><ele>229.0</ele><time>2026-04-19T09:41:55.999Z</time></trkpt><trkpt lat="42.087617515901556" lon="11.89718715632696"><ele>232.0</ele><time>2026-04-19T09:41:56.999Z</time></trkpt><trkpt lat="42.08770218149139" lon="11.89717842488687"><ele>235.0</ele><time>2026-04-19T09:41:57.999Z</time></trkpt><trkpt lat="42.087789159731855" lon="11.89715777122542"><ele>238.0</ele><time>2026-04-19T09:41:58.999Z</time></trkpt><trkpt lat="42.08787345649861" lon="11.897152314383055"><ele>238.0</ele><time>2026-04-19T09:42:00Z</time></trkpt><trkpt lat="42.087989076242856" lon="11.897132217358822"><ele>238.0</ele><time>2026-04-19T09:42:02Z</time></trkpt><trkpt lat="42.08806153127991" lon="11.89710898299771"><ele>238.0</ele><time>2026-04-19T09:42:03Z</time></trkpt><trkpt lat="42.08814233587895" lon="11.897098398528458"><ele>238.0</ele><time>2026-04-19T09:42:04Z</time></trkpt><trkpt lat="42.08824143834035" lon="11.89708806273198"><ele>238.0</ele><time>2026-04-19T09:42:05Z</time></trkpt><trkpt lat="42.08834210942468" lon="11.897092263161474"><ele>240.28571428571428</ele><time>2026-04-19T09:42:06Z</time></trkpt><trkpt lat="42.088423669381264" lon="11.897098524680425"><ele>242.57142857142856</ele><time>2026-04-19T09:42:07Z</time></trkpt><trkpt lat="42.08851506357753" lon="11.897109683266612"><ele>244.85714285714286</ele><time>2026-04-19T09:42:08Z</time></trkpt><trkpt lat="42.088576746172194" lon="11.89714227896929"><ele>247.14285714285714</ele><time>2026-04-19T09:42:09Z</time></trkpt><trkpt lat="42.08862970454296" lon="11.897200962811477"><ele>249.42857142857142</ele><time>2026-04-19T09:42:10Z</time></trkpt><trkpt lat="42.08868080787824" lon="11.897267282832312"><ele>251.71428571428572</ele><time>2026-04-19T09:42:11Z</time></trkpt><trkpt lat="42.088714346734385" lon="11.897344129830657"><ele>254.0</ele><time>2026-04-19T09:42:12Z</time></trkpt><trkpt lat="42.088766285747596" lon="11.897429585925448"><ele>254.00000000000003</ele><time>2026-04-19T09:42:13Z</time></trkpt><trkpt lat="42.08880476281364" lon="11.897524423327765"><ele>254.0</ele><time>2026-04-19T09:42:14Z</time></trkpt><trkpt lat="42.088848824984865" lon="11.897625549209117"><ele>254.0</ele><time>2026-04-19T09:42:15Z</time></trkpt><trkpt lat="42.088916009840894" lon="11.897708103868938"><ele>254.0</ele><time>2026-04-19T09:42:16Z</time></trkpt><trkpt lat="42.08897048726839" lon="11.897787011352449"><ele>254.00000000000003</ele><time>2026-04-19T09:42:17Z</time></trkpt><trkpt lat="42.089012067970636" lon="11.897854006328926"><ele>254.0</ele><time>2026-04-19T09:42:18Z</time></trkpt><trkpt lat="42.089063718634115" lon="11.897914822460685"><ele>257.4</ele><time>2026-04-19T09:42:19Z</time></trkpt><trkpt lat="42.089133537597384" lon="11.897979064758749"><ele>260.79999999999995</ele><time>2026-04-19T09:42:20Z</time></trkpt><trkpt lat="42.089206706213886" lon="11.898060902729963"><ele>264.20000000000005</ele><time>2026-04-19T09:42:21Z</time></trkpt><trkpt lat="42.089245892688616" lon="11.898141835793163"><ele>267.6</ele><time>2026-04-19T09:42:22Z</time></trkpt><trkpt lat="42.08926644505205" lon="11.898223171687748"><ele>271.0</ele><time>2026-04-19T09:42:23Z</time></trkpt><trkpt lat="42.089321826508055" lon="11.898390208859986"><ele>272.6</ele><time>2026-04-19T09:42:25Z</time></trkpt><trkpt lat="42.08935836392011" lon="11.898506800616927"><ele>274.20000000000005</ele><time>2026-04-19T09:42:26Z</time></trkpt><trkpt lat="42.08938510451934" lon="11.898613101398267"><ele>275.79999999999995</ele><time>2026-04-19T09:42:27Z</time></trkpt><trkpt lat="42.08940530776323" lon="11.898741045811606"><ele>277.4</ele><time>2026-04-19T09:42:28Z</time></trkpt><trkpt lat="42.08942776171387" lon="11.898881962482493"><ele>279.0</ele><time>2026-04-19T09:42:29Z</time></trkpt><trkpt lat="42.08944810296135" lon="11.899005091581412"><ele>279.0</ele><time>2026-04-19T09:42:30Z</time></trkpt><trkpt lat="42.089468313987275" lon="11.899087594346373"><ele>279.0</ele><time>2026-04-19T09:42:31Z</time></trkpt><trkpt lat="42.08942768646739" lon="11.899211755759099"><ele>279.0</ele><time>2026-04-19T09:42:33Z</time></trkpt><trkpt lat="42.08936900099475" lon="11.89928733678859"><ele>279.0</ele><time>2026-04-19T09:42:34Z</time></trkpt><trkpt lat="42.08928299223351" lon="11.899360107902195"><ele>279.0</ele><time>2026-04-19T09:42:35Z</time></trkpt><trkpt lat="42.089210434213555" lon="11.899436815388801"><ele>279.0</ele><time>2026-04-19T09:42:36Z</time></trkpt><trkpt lat="42.08913799531102" lon="11.899480669741248"><ele>279.2857142857143</ele><time>2026-04-19T09:42:37Z</time></trkpt><trkpt lat="42.08906875886211" lon="11.899537120347876"><ele>279.57142857142856</ele><time>2026-04-19T09:42:38Z</time></trkpt><trkpt lat="42.0890087425356" lon="11.899616428423032"><ele>279.8571428571429</ele><time>2026-04-19T09:42:39Z</time></trkpt><trkpt lat="42.088962474005754" lon="11.899688224612548"><ele>280.1428571428571</ele><time>2026-04-19T09:42:40Z</time></trkpt><trkpt lat="42.08892153449671" lon="11.89975700491844"><ele>280.42857142857144</ele><time>2026-04-19T09:42:41Z</time></trkpt><trkpt lat="42.08887687855034" lon="11.899831391749132"><ele>280.7142857142857</ele><time>2026-04-19T09:42:42Z</time></trkpt><trkpt lat="42.08883238953807" lon="11.899916234688854"><ele>281.0</ele><time>2026-04-19T09:42:43Z</time></trkpt><trkpt lat="42.0887884511183" lon="11.899993201096514"><ele>281.0</ele><time>2026-04-19T09:42:44Z</time></trkpt><trkpt lat="42.08874872754524" lon="11.90007803916734"><ele>281.0</ele><time>2026-04-19T09:42:45Z</time></trkpt><trkpt lat="42.08870811169088" lon="11.900169277422888"><ele>281.0</ele><time>2026-04-19T09:42:46Z</time></trkpt><trkpt lat="42.088666711297016" lon="11.90026044439493"><ele>281.0</ele><time>2026-04-19T09:42:47Z</time></trkpt><trkpt lat="42.088627987058764" lon="11.900366074127115"><ele>281.0</ele><time>2026-04-19T09:42:48Z</time></trkpt><trkpt lat="42.088587402529754" lon="11.900485094605406"><ele>281.0</ele><time>2026-04-19T09:42:49Z</time></trkpt><trkpt lat="42.08855025280598" lon="11.900597196955669"><ele>283.6</ele><time>2026-04-19T09:42:50Z</time></trkpt><trkpt lat="42.08851368601081" lon="11.900698233973072"><ele>286.20000000000005</ele><time>2026-04-19T09:42:51Z</time></trkpt><trkpt lat="42.08847702471956" lon="11.900820711849917"><ele>288.79999999999995</ele><time>2026-04-19T09:42:52Z</time></trkpt><trkpt lat="42.08845118842101" lon="11.900936285004219"><ele>291.4</ele><time>2026-04-19T09:42:53Z</time></trkpt><trkpt lat="42.08842478134678" lon="11.901065540181003"><ele>294.0</ele><time>2026-04-19T09:42:54Z</time></trkpt><trkpt lat="42.08841491786846" lon="11.90119460226414"><ele>295.2</ele><time>2026-04-19T09:42:55Z</time></trkpt><trkpt lat="42.08839481972321" lon="11.901303378232686"><ele>296.4</ele><time>2026-04-19T09:42:56Z</time></trkpt><trkpt lat="42.08835842712435" lon="11.901414509309106"><ele>297.6</ele><time>2026-04-19T09:42:57Z</time></trkpt><trkpt lat="42.088299461608294" lon="11.901521043254027"><ele>298.8</ele><time>2026-04-19T09:42:58Z</time></trkpt><trkpt lat="42.0882259366891" lon="11.901612357475296"><ele>300.0</ele><time>2026-04-19T09:42:59Z</time></trkpt><trkpt lat="42.08816121024678" lon="11.901712472340645"><ele>300.6666666666667</ele><time>2026-04-19T09:43:00Z</time></trkpt><trkpt lat="42.08808936154267" lon="11.90179270870062"><ele>301.3333333333333</ele><time>2026-04-19T09:43:01Z</time></trkpt><trkpt lat="42.088019497327934" lon="11.901864472713408"><ele>302.0</ele><time>2026-04-19T09:43:02Z</time></trkpt><trkpt lat="42.08796758694867" lon="11.901940953507946"><ele>302.66666666666663</ele><time>2026-04-19T09:43:03Z</time></trkpt><trkpt lat="42.087951180068266" lon="11.902026741822741"><ele>303.3333333333333</ele><time>2026-04-19T09:43:04Z</time></trkpt><trkpt lat="42.08797033220124" lon="11.902168765491336"><ele>304.0</ele><time>2026-04-19T09:43:06Z</time></trkpt><trkpt lat="42.08800705371868" lon="11.902282129776406"><ele>304.0</ele><time>2026-04-19T09:43:08Z</time></trkpt><trkpt lat="42.08805876285236" lon="11.90239048363785"><ele>304.0</ele><time>2026-04-19T09:43:10Z</time></trkpt><trkpt lat="42.088130258074706" lon="11.90248102222512"><ele>304.0</ele><time>2026-04-19T09:43:12Z</time></trkpt><trkpt lat="42.08818654878266" lon="11.902534789864292"><ele>304.0</ele><time>2026-04-19T09:43:14Z</time></trkpt><trkpt lat="42.088239143135645" lon="11.902587546280106"><ele>304.0</ele><time>2026-04-19T09:43:16Z</time></trkpt><trkpt lat="42.08830471977548" lon="11.902672706140006"><ele>304.0</ele><time>2026-04-19T09:43:20Z</time></trkpt><trkpt lat="42.08837523920099" lon="11.90273657229283"><ele>304.2</ele><time>2026-04-19T09:43:21.999Z</time></trkpt><trkpt lat="42.08843789182738" lon="11.902783471925103"><ele>304.4</ele><time>2026-04-19T09:43:22.999Z</time></trkpt><trkpt lat="42.088516717312" lon="11.902846020137181"><ele>304.6</ele><time>2026-04-19T09:43:23.999Z</time></trkpt><trkpt lat="42.088615527750584" lon="11.90291509526232"><ele>304.8</ele><time>2026-04-19T09:43:24.999Z</time></trkpt><trkpt lat="42.08872803451733" lon="11.902980944433128"><ele>305.0</ele><time>2026-04-19T09:43:25.999Z</time></trkpt><trkpt lat="42.088806498694915" lon="11.903063981625726"><ele>305.0</ele><time>2026-04-19T09:43:26.999Z</time></trkpt><trkpt lat="42.08889232908868" lon="11.90313993580179"><ele>305.0</ele><time>2026-04-19T09:43:27.999Z</time></trkpt><trkpt lat="42.08900783711228" lon="11.903198027351333"><ele>305.0</ele><time>2026-04-19T09:43:28.999Z</time></trkpt><trkpt lat="42.089139090876664" lon="11.903239435919884"><ele>305.0</ele><time>2026-04-19T09:43:29.999Z</time></trkpt><trkpt lat="42.08925801360501" lon="11.903256633305325"><ele>307.25</ele><time>2026-04-19T09:43:30.999Z</time></trkpt><trkpt lat="42.089385122206494" lon="11.90325543152751"><ele>309.5</ele><time>2026-04-19T09:43:31.999Z</time></trkpt><trkpt lat="42.08949231958388" lon="11.90323733663913"><ele>311.75</ele><time>2026-04-19T09:43:32.999Z</time></trkpt><trkpt lat="42.08959977109751" lon="11.903194392967285"><ele>314.0</ele><time>2026-04-19T09:43:33.999Z</time></trkpt><trkpt lat="42.08970106468006" lon="11.903126206085114"><ele>314.0</ele><time>2026-04-19T09:43:34.999Z</time></trkpt><trkpt lat="42.089797761259604" lon="11.90308121238649"><ele>314.0</ele><time>2026-04-19T09:43:35.999Z</time></trkpt><trkpt lat="42.08989870377742" lon="11.903054724939587"><ele>314.0</ele><time>2026-04-19T09:43:36.999Z</time></trkpt><trkpt lat="42.089994361609634" lon="11.903039344731775"><ele>314.0</ele><time>2026-04-19T09:43:37.999Z</time></trkpt><trkpt lat="42.090077469269346" lon="11.903073696719348"><ele>314.0</ele><time>2026-04-19T09:43:38.999Z</time></trkpt><trkpt lat="42.09017333586029" lon="11.903099569834785"><ele>313.5</ele><time>2026-04-19T09:43:39.999Z</time></trkpt><trkpt lat="42.09029495060025" lon="11.903123702559927"><ele>313.0</ele><time>2026-04-19T09:43:40.999Z</time></trkpt><trkpt lat="42.09041352164343" lon="11.903182642028412"><ele>312.5</ele><time>2026-04-19T09:43:41.999Z</time></trkpt><trkpt lat="42.090531450522505" lon="11.903225287014662"><ele>312.0</ele><time>2026-04-19T09:43:42.999Z</time></trkpt><trkpt lat="42.09066666981431" lon="11.90326041743097"><ele>312.75</ele><time>2026-04-19T09:43:43.999Z</time></trkpt><trkpt lat="42.09078018960244" lon="11.90329668614294"><ele>313.5</ele><time>2026-04-19T09:43:44.999Z</time></trkpt><trkpt lat="42.09090227821803" lon="11.903355649820972"><ele>314.25</ele><time>2026-04-19T09:43:45.999Z</time></trkpt><trkpt lat="42.091027664728806" lon="11.903402168866851"><ele>315.0</ele><time>2026-04-19T09:43:46.999Z</time></trkpt><trkpt lat="42.09114446666371" lon="11.903442652450364"><ele>312.25</ele><time>2026-04-19T09:43:47.999Z</time></trkpt><trkpt lat="42.091242219056596" lon="11.903509059321845"><ele>309.5</ele><time>2026-04-19T09:43:48.999Z</time></trkpt><trkpt lat="42.09132580322301" lon="11.903628360542278"><ele>306.75</ele><time>2026-04-19T09:43:49.999Z</time></trkpt><trkpt lat="42.09140709301282" lon="11.903750600951291"><ele>304.0</ele><time>2026-04-19T09:43:50.999Z</time></trkpt><trkpt lat="42.091463245056296" lon="11.90386066256501"><ele>304.0</ele><time>2026-04-19T09:43:51.999Z</time></trkpt><trkpt lat="42.09153523437046" lon="11.90395640796923"><ele>304.0</ele><time>2026-04-19T09:43:52.999Z</time></trkpt><trkpt lat="42.09161783732735" lon="11.904081816053653"><ele>304.0</ele><time>2026-04-19T09:43:53.999Z</time></trkpt><trkpt lat="42.09171502701089" lon="11.904193147470057"><ele>304.0</ele><time>2026-04-19T09:43:54.999Z</time></trkpt><trkpt lat="42.09178883159851" lon="11.904289129982518"><ele>303.8</ele><time>2026-04-19T09:43:55.999Z</time></trkpt><trkpt lat="42.0918410066706" lon="11.904363254244545"><ele>303.59999999999997</ele><time>2026-04-19T09:43:56.999Z</time></trkpt><trkpt lat="42.091906775840826" lon="11.904443515559343"><ele>303.4</ele><time>2026-04-19T09:43:57.999Z</time></trkpt><trkpt lat="42.09199605988508" lon="11.904539538382858"><ele>303.2</ele><time>2026-04-19T09:43:58.999Z</time></trkpt><trkpt lat="42.09211221780527" lon="11.904688522508001"><ele>303.0</ele><time>2026-04-19T09:43:59.999Z</time></trkpt><trkpt lat="42.09222101124546" lon="11.904831174259774"><ele>303.0</ele><time>2026-04-19T09:44:00.999Z</time></trkpt><trkpt lat="42.09231642351235" lon="11.904956338885851"><ele>303.0</ele><time>2026-04-19T09:44:01.999Z</time></trkpt><trkpt lat="42.09240580695539" lon="11.905071075054007"><ele>303.0</ele><time>2026-04-19T09:44:02.999Z</time></trkpt><trkpt lat="42.09247452797578" lon="11.905167200231604"><ele>303.0</ele><time>2026-04-19T09:44:03.999Z</time></trkpt><trkpt lat="42.092563974933725" lon="11.90523888985393"><ele>303.5</ele><time>2026-04-19T09:44:04.999Z</time></trkpt><trkpt lat="42.09267146638474" lon="11.905291044080638"><ele>304.0</ele><time>2026-04-19T09:44:06Z</time></trkpt><trkpt lat="42.09278290822672" lon="11.905330022568151"><ele>304.5</ele><time>2026-04-19T09:44:07Z</time></trkpt><trkpt lat="42.09289730874093" lon="11.905371759799742"><ele>305.0</ele><time>2026-04-19T09:44:08Z</time></trkpt><trkpt lat="42.09301622430237" lon="11.905399084124383"><ele>305.0</ele><time>2026-04-19T09:44:09Z</time></trkpt><trkpt lat="42.09313587100863" lon="11.90542545083827"><ele>305.0</ele><time>2026-04-19T09:44:10Z</time></trkpt><trkpt lat="42.09325142688026" lon="11.905470841718094"><ele>305.0</ele><time>2026-04-19T09:44:11Z</time></trkpt><trkpt lat="42.09335202395926" lon="11.905540678714688"><ele>305.0</ele><time>2026-04-19T09:44:12Z</time></trkpt><trkpt lat="42.09346060561521" lon="11.905610634888388"><ele>305.75</ele><time>2026-04-19T09:44:13Z</time></trkpt><trkpt lat="42.093567789352605" lon="11.90566604098471"><ele>306.5</ele><time>2026-04-19T09:44:14Z</time></trkpt><trkpt lat="42.09369211871192" lon="11.905708169678274"><ele>307.25</ele><time>2026-04-19T09:44:15Z</time></trkpt><trkpt lat="42.09381033740145" lon="11.905739019732803"><ele>308.0</ele><time>2026-04-19T09:44:16Z</time></trkpt><trkpt lat="42.09391456010781" lon="11.90576913622023"><ele>308.0</ele><time>2026-04-19T09:44:17Z</time></trkpt><trkpt lat="42.094010955793806" lon="11.90583093414296"><ele>308.0</ele><time>2026-04-19T09:44:18Z</time></trkpt><trkpt lat="42.0941022488111" lon="11.905873245006713"><ele>308.0</ele><time>2026-04-19T09:44:19Z</time></trkpt><trkpt lat="42.09418418931344" lon="11.905931649498697"><ele>308.0</ele><time>2026-04-19T09:44:20Z</time></trkpt><trkpt lat="42.09425988824733" lon="11.906014804390978"><ele>308.0</ele><time>2026-04-19T09:44:21Z</time></trkpt><trkpt lat="42.09435208066973" lon="11.906069959927263"><ele>308.6</ele><time>2026-04-19T09:44:22Z</time></trkpt><trkpt lat="42.09443465703281" lon="11.906161333693095"><ele>309.20000000000005</ele><time>2026-04-19T09:44:23Z</time></trkpt><trkpt lat="42.09450644669132" lon="11.906243758181013"><ele>309.8</ele><time>2026-04-19T09:44:24Z</time></trkpt><trkpt lat="42.09457276349443" lon="11.906343122763573"><ele>310.40000000000003</ele><time>2026-04-19T09:44:25Z</time></trkpt><trkpt lat="42.09462879934136" lon="11.906440993625244"><ele>311.0</ele><time>2026-04-19T09:44:26Z</time></trkpt><trkpt lat="42.09465870520739" lon="11.906536357848388"><ele>311.0</ele><time>2026-04-19T09:44:27Z</time></trkpt><trkpt lat="42.094684825476115" lon="11.90664393426225"><ele>311.0</ele><time>2026-04-19T09:44:28Z</time></trkpt><trkpt lat="42.09469793402224" lon="11.90673877205205"><ele>311.0</ele><time>2026-04-19T09:44:29Z</time></trkpt><trkpt lat="42.09471732908298" lon="11.906844616102687"><ele>311.0</ele><time>2026-04-19T09:44:30Z</time></trkpt><trkpt lat="42.094754377773945" lon="11.906961546643442"><ele>311.0</ele><time>2026-04-19T09:44:31Z</time></trkpt><trkpt lat="42.09479514427253" lon="11.907079587505086"><ele>311.0</ele><time>2026-04-19T09:44:32Z</time></trkpt><trkpt lat="42.09483500660923" lon="11.907206873988265"><ele>311.0</ele><time>2026-04-19T09:44:33Z</time></trkpt><trkpt lat="42.094873168306584" lon="11.907324016544322"><ele>311.0</ele><time>2026-04-19T09:44:34Z</time></trkpt><trkpt lat="42.094909998630236" lon="11.907427293749203"><ele>311.0</ele><time>2026-04-19T09:44:35Z</time></trkpt><trkpt lat="42.094952483485315" lon="11.90751370425277"><ele>311.0</ele><time>2026-04-19T09:44:36Z</time></trkpt><trkpt lat="42.09500181468077" lon="11.907606567689543"><ele>311.0</ele><time>2026-04-19T09:44:37Z</time></trkpt><trkpt lat="42.095064569098604" lon="11.907674850393315"><ele>311.0</ele><time>2026-04-19T09:44:38Z</time></trkpt><trkpt lat="42.09511945984838" lon="11.9077437907291"><ele>313.6</ele><time>2026-04-19T09:44:39Z</time></trkpt><trkpt lat="42.0952002991441" lon="11.907839048762686"><ele>316.20000000000005</ele><time>2026-04-19T09:44:40Z</time></trkpt><trkpt lat="42.095270744847646" lon="11.907894280689678"><ele>318.79999999999995</ele><time>2026-04-19T09:44:41Z</time></trkpt><trkpt lat="42.0953366646069" lon="11.907962338127383"><ele>321.4</ele><time>2026-04-19T09:44:42Z</time></trkpt><trkpt lat="42.09540489008878" lon="11.908043056845381"><ele>324.0</ele><time>2026-04-19T09:44:43Z</time></trkpt><trkpt lat="42.09547867617846" lon="11.908130520915014"><ele>324.0</ele><time>2026-04-19T09:44:44Z</time></trkpt><trkpt lat="42.09555323345685" lon="11.908201340716257"><ele>324.0</ele><time>2026-04-19T09:44:45Z</time></trkpt><trkpt lat="42.09562013533725" lon="11.908297719098782"><ele>324.0</ele><time>2026-04-19T09:44:46Z</time></trkpt><trkpt lat="42.09570477213119" lon="11.90837138373014"><ele>324.0</ele><time>2026-04-19T09:44:47Z</time></trkpt><trkpt lat="42.09576772371399" lon="11.908466985181569"><ele>324.0</ele><time>2026-04-19T09:44:48Z</time></trkpt><trkpt lat="42.095831940004466" lon="11.908577460548331"><ele>326.4</ele><time>2026-04-19T09:44:49Z</time></trkpt><trkpt lat="42.095900915838" lon="11.90866148249946"><ele>328.79999999999995</ele><time>2026-04-19T09:44:50Z</time></trkpt><trkpt lat="42.09596834915786" lon="11.908752360427075"><ele>331.20000000000005</ele><time>2026-04-19T09:44:51Z</time></trkpt><trkpt lat="42.09602421491717" lon="11.908856364698053"><ele>333.6</ele><time>2026-04-19T09:44:52Z</time></trkpt><trkpt lat="42.09607000507784" lon="11.908955311636923"><ele>336.0</ele><time>2026-04-19T09:44:53Z</time></trkpt><trkpt lat="42.09611336519744" lon="11.909053682721298"><ele>336.0</ele><time>2026-04-19T09:44:54Z</time></trkpt><trkpt lat="42.09615638824265" lon="11.909151950045912"><ele>336.0</ele><time>2026-04-19T09:44:55Z</time></trkpt><trkpt lat="42.096195189680614" lon="11.909219237607966"><ele>336.0</ele><time>2026-04-19T09:44:56Z</time></trkpt><trkpt lat="42.0962266090261" lon="11.90930367504046"><ele>336.0</ele><time>2026-04-19T09:44:58Z</time></trkpt><trkpt lat="42.09613604060702" lon="11.909294499084467"><ele>336.0</ele><time>2026-04-19T09:45:25.999Z</time></trkpt><trkpt lat="42.09601051092574" lon="11.909300862158728"><ele>336.0</ele><time>2026-04-19T09:45:27.999Z</time></trkpt><trkpt lat="42.09592719398281" lon="11.909307315962169"><ele>335.8333333333333</ele><time>2026-04-19T09:45:28.999Z</time></trkpt><trkpt lat="42.09584777526608" lon="11.909295068099436"><ele>335.6666666666667</ele><time>2026-04-19T09:45:29.999Z</time></trkpt><trkpt lat="42.09576112756903" lon="11.909263968239863"><ele>335.5</ele><time>2026-04-19T09:45:30.999Z</time></trkpt><trkpt lat="42.09567920728448" lon="11.909261952362106"><ele>335.33333333333337</ele><time>2026-04-19T09:45:31.999Z</time></trkpt><trkpt lat="42.09559417870265" lon="11.909295416462285"><ele>335.1666666666667</ele><time>2026-04-19T09:45:32.999Z</time></trkpt><trkpt lat="42.09550968973765" lon="11.909366671189952"><ele>335.0</ele><time>2026-04-19T09:45:33.999Z</time></trkpt><trkpt lat="42.095440289309494" lon="11.909456614620174"><ele>333.2</ele><time>2026-04-19T09:45:34.999Z</time></trkpt><trkpt lat="42.095367688001005" lon="11.909562839455827"><ele>331.4</ele><time>2026-04-19T09:45:35.999Z</time></trkpt><trkpt lat="42.09528419021058" lon="11.909670834063343"><ele>329.6</ele><time>2026-04-19T09:45:36.999Z</time></trkpt><trkpt lat="42.095205107340014" lon="11.909780530770327"><ele>327.8</ele><time>2026-04-19T09:45:37.999Z</time></trkpt><trkpt lat="42.09512776746742" lon="11.909887646662481"><ele>326.0</ele><time>2026-04-19T09:45:38.999Z</time></trkpt><trkpt lat="42.09505267463776" lon="11.909994631848265"><ele>326.8</ele><time>2026-04-19T09:45:39.999Z</time></trkpt><trkpt lat="42.09500288128878" lon="11.910122086381454"><ele>327.6</ele><time>2026-04-19T09:45:40.999Z</time></trkpt><trkpt lat="42.09495842823066" lon="11.910242797811737"><ele>328.4</ele><time>2026-04-19T09:45:41.999Z</time></trkpt><trkpt lat="42.09489745627346" lon="11.910334554825171"><ele>329.2</ele><time>2026-04-19T09:45:42.999Z</time></trkpt><trkpt lat="42.09481452254138" lon="11.91036918023232"><ele>330.0</ele><time>2026-04-19T09:45:43.999Z</time></trkpt><trkpt lat="42.094698239420886" lon="11.910384188619782"><ele>328.0</ele><time>2026-04-19T09:45:44.999Z</time></trkpt><trkpt lat="42.09454277499721" lon="11.910429889210608"><ele>326.0</ele><time>2026-04-19T09:45:45.999Z</time></trkpt><trkpt lat="42.09443145557201" lon="11.910470621382746"><ele>324.0</ele><time>2026-04-19T09:45:46.999Z</time></trkpt><trkpt lat="42.09433890265089" lon="11.910510541417421"><ele>322.0</ele><time>2026-04-19T09:45:47.999Z</time></trkpt><trkpt lat="42.0942482419237" lon="11.910532334955615"><ele>322.0</ele><time>2026-04-19T09:45:48.999Z</time></trkpt><trkpt lat="42.094171458665485" lon="11.910533090088585"><ele>322.0</ele><time>2026-04-19T09:45:49.999Z</time></trkpt><trkpt lat="42.09409544017249" lon="11.910615664144935"><ele>322.0</ele><time>2026-04-19T09:45:51.999Z</time></trkpt><trkpt lat="42.09409675346603" lon="11.910707959969582"><ele>322.0</ele><time>2026-04-19T09:45:52.999Z</time></trkpt><trkpt lat="42.09409734165071" lon="11.910819809061048"><ele>322.0</ele><time>2026-04-19T09:45:53.999Z</time></trkpt><trkpt lat="42.09409708463475" lon="11.91094014094328"><ele>322.0</ele><time>2026-04-19T09:45:54.999Z</time></trkpt><trkpt lat="42.0941110001717" lon="11.91105106104682"><ele>322.5</ele><time>2026-04-19T09:45:55.999Z</time></trkpt><trkpt lat="42.09410504655524" lon="11.911169713374981"><ele>323.0</ele><time>2026-04-19T09:45:56.999Z</time></trkpt><trkpt lat="42.094073652205644" lon="11.911270690365939"><ele>323.5</ele><time>2026-04-19T09:45:57.999Z</time></trkpt><trkpt lat="42.094025027761155" lon="11.911378272954437"><ele>324.0</ele><time>2026-04-19T09:45:58.999Z</time></trkpt><trkpt lat="42.09396724015413" lon="11.911471389262239"><ele>324.5</ele><time>2026-04-19T09:45:59.999Z</time></trkpt><trkpt lat="42.09391293414221" lon="11.911570119604294"><ele>325.0</ele><time>2026-04-19T09:46:00.999Z</time></trkpt><trkpt lat="42.09384373864766" lon="11.911677550503093"><ele>324.8</ele><time>2026-04-19T09:46:01.999Z</time></trkpt><trkpt lat="42.09376770644861" lon="11.91178548906412"><ele>324.6</ele><time>2026-04-19T09:46:02.999Z</time></trkpt><trkpt lat="42.09368339178678" lon="11.911878672821842"><ele>324.4</ele><time>2026-04-19T09:46:03.999Z</time></trkpt><trkpt lat="42.09360756378548" lon="11.911956998191641"><ele>324.2</ele><time>2026-04-19T09:46:04.999Z</time></trkpt><trkpt lat="42.093531788587484" lon="11.912028864496264"><ele>324.0</ele><time>2026-04-19T09:46:05.999Z</time></trkpt><trkpt lat="42.093438605598145" lon="11.912069855972637"><ele>324.0</ele><time>2026-04-19T09:46:06.999Z</time></trkpt><trkpt lat="42.09333797716098" lon="11.912112409549936"><ele>324.0</ele><time>2026-04-19T09:46:07.999Z</time></trkpt><trkpt lat="42.09324857244653" lon="11.912146309921475"><ele>324.0</ele><time>2026-04-19T09:46:08.999Z</time></trkpt><trkpt lat="42.09315553669275" lon="11.912171335879668"><ele>324.0</ele><time>2026-04-19T09:46:09.999Z</time></trkpt><trkpt lat="42.09304355019843" lon="11.912173030074404"><ele>324.0</ele><time>2026-04-19T09:46:10.999Z</time></trkpt><trkpt lat="42.092945556611305" lon="11.912139143705422"><ele>321.4</ele><time>2026-04-19T09:46:12Z</time></trkpt><trkpt lat="42.092843227645545" lon="11.912123749077356"><ele>318.79999999999995</ele><time>2026-04-19T09:46:13Z</time></trkpt><trkpt lat="42.092749692853545" lon="11.912080010046713"><ele>316.20000000000005</ele><time>2026-04-19T09:46:14Z</time></trkpt><trkpt lat="42.092650265083776" lon="11.912045668874535"><ele>313.6</ele><time>2026-04-19T09:46:15Z</time></trkpt><trkpt lat="42.09255084146133" lon="11.912031106702955"><ele>311.0</ele><time>2026-04-19T09:46:16Z</time></trkpt><trkpt lat="42.09244466734733" lon="11.912027238721716"><ele>309.0</ele><time>2026-04-19T09:46:17Z</time></trkpt><trkpt lat="42.09234343958604" lon="11.912026423079002"><ele>307.0</ele><time>2026-04-19T09:46:18Z</time></trkpt><trkpt lat="42.09224482218418" lon="11.912042663751249"><ele>305.0</ele><time>2026-04-19T09:46:19Z</time></trkpt><trkpt lat="42.09213426377683" lon="11.91203858391368"><ele>303.0</ele><time>2026-04-19T09:46:20Z</time></trkpt><trkpt lat="42.09203275114099" lon="11.91203217507661"><ele>301.0</ele><time>2026-04-19T09:46:21Z</time></trkpt><trkpt lat="42.0919234700063" lon="11.912033509019635"><ele>301.0</ele><time>2026-04-19T09:46:22Z</time></trkpt><trkpt lat="42.09181518208196" lon="11.912054261222002"><ele>301.0</ele><time>2026-04-19T09:46:23Z</time></trkpt><trkpt lat="42.09169993268449" lon="11.912079577562078"><ele>301.0</ele><time>2026-04-19T09:46:24Z</time></trkpt><trkpt lat="42.091590130659405" lon="11.912117927311181"><ele>301.0</ele><time>2026-04-19T09:46:25Z</time></trkpt><trkpt lat="42.091477743528436" lon="11.912166536920633"><ele>299.8</ele><time>2026-04-19T09:46:26Z</time></trkpt><trkpt lat="42.091367382758285" lon="11.91220998326379"><ele>298.6</ele><time>2026-04-19T09:46:27Z</time></trkpt><trkpt lat="42.09126386738355" lon="11.912248343609214"><ele>297.4</ele><time>2026-04-19T09:46:28Z</time></trkpt><trkpt lat="42.09115805413153" lon="11.912289505139674"><ele>296.2</ele><time>2026-04-19T09:46:29Z</time></trkpt><trkpt lat="42.091044193561984" lon="11.912309211048585"><ele>295.0</ele><time>2026-04-19T09:46:30Z</time></trkpt><trkpt lat="42.090933861796806" lon="11.912316571884222"><ele>295.0</ele><time>2026-04-19T09:46:31Z</time></trkpt><trkpt lat="42.09084129200825" lon="11.912325339041839"><ele>295.0</ele><time>2026-04-19T09:46:32Z</time></trkpt><trkpt lat="42.09076503517617" lon="11.912370440041707"><ele>295.0</ele><time>2026-04-19T09:46:33Z</time></trkpt><trkpt lat="42.09069866815191" lon="11.912437624312348"><ele>295.0</ele><time>2026-04-19T09:46:34Z</time></trkpt><trkpt lat="42.09064271404412" lon="11.912534537497637"><ele>295.0</ele><time>2026-04-19T09:46:35Z</time></trkpt><trkpt lat="42.09059308814419" lon="11.912649747803316"><ele>295.0</ele><time>2026-04-19T09:46:36Z</time></trkpt><trkpt lat="42.090534379646094" lon="11.912748079473046"><ele>295.5</ele><time>2026-04-19T09:46:37Z</time></trkpt><trkpt lat="42.09045952718593" lon="11.912847942105385"><ele>296.0</ele><time>2026-04-19T09:46:38Z</time></trkpt><trkpt lat="42.0903750691293" lon="11.912956249636986"><ele>296.5</ele><time>2026-04-19T09:46:39Z</time></trkpt><trkpt lat="42.09028866012686" lon="11.91305020554372"><ele>297.0</ele><time>2026-04-19T09:46:40Z</time></trkpt><trkpt lat="42.09018584359276" lon="11.91314781032391"><ele>297.0</ele><time>2026-04-19T09:46:41Z</time></trkpt><trkpt lat="42.0900922722728" lon="11.913227844166062"><ele>297.0</ele><time>2026-04-19T09:46:42Z</time></trkpt><trkpt lat="42.08999284004273" lon="11.91333075201417"><ele>297.0</ele><time>2026-04-19T09:46:43Z</time></trkpt><trkpt lat="42.089897056173946" lon="11.91341444265938"><ele>297.0</ele><time>2026-04-19T09:46:44Z</time></trkpt><trkpt lat="42.08981032811136" lon="11.913509147073471"><ele>296.0</ele><time>2026-04-19T09:46:45Z</time></trkpt><trkpt lat="42.08972594530036" lon="11.913598643187774"><ele>295.0</ele><time>2026-04-19T09:46:46Z</time></trkpt><trkpt lat="42.08964096414554" lon="11.913684634591926"><ele>294.0</ele><time>2026-04-19T09:46:47Z</time></trkpt><trkpt lat="42.08957079982163" lon="11.913761071938168"><ele>293.0</ele><time>2026-04-19T09:46:48Z</time></trkpt><trkpt lat="42.089500951247125" lon="11.913826449797135"><ele>292.0</ele><time>2026-04-19T09:46:49Z</time></trkpt><trkpt lat="42.08942498113776" lon="11.913883553958"><ele>292.0</ele><time>2026-04-19T09:46:50Z</time></trkpt><trkpt lat="42.08934493622179" lon="11.913890456741122"><ele>292.0</ele><time>2026-04-19T09:46:51Z</time></trkpt><trkpt lat="42.08926789893179" lon="11.913896029913273"><ele>292.0</ele><time>2026-04-19T09:46:52Z</time></trkpt><trkpt lat="42.089193248578695" lon="11.913913624612858"><ele>292.0</ele><time>2026-04-19T09:46:53Z</time></trkpt><trkpt lat="42.089132325187265" lon="11.91395572200491"><ele>292.0</ele><time>2026-04-19T09:46:54Z</time></trkpt><trkpt lat="42.08906486377606" lon="11.914031775633347"><ele>292.0</ele><time>2026-04-19T09:46:55Z</time></trkpt><trkpt lat="42.089005058414585" lon="11.914124686410537"><ele>291.16666666666663</ele><time>2026-04-19T09:46:56Z</time></trkpt><trkpt lat="42.08893998851088" lon="11.914215162061172"><ele>290.3333333333333</ele><time>2026-04-19T09:46:57Z</time></trkpt><trkpt lat="42.08887700539895" lon="11.914278234852903"><ele>289.5</ele><time>2026-04-19T09:46:58Z</time></trkpt><trkpt lat="42.08880299614089" lon="11.914334657236127"><ele>288.6666666666667</ele><time>2026-04-19T09:46:59Z</time></trkpt><trkpt lat="42.08872727429605" lon="11.914363836515069"><ele>287.83333333333337</ele><time>2026-04-19T09:47:00Z</time></trkpt><trkpt lat="42.088639148009236" lon="11.914373605891525"><ele>287.0</ele><time>2026-04-19T09:47:01Z</time></trkpt><trkpt lat="42.08854050666716" lon="11.91438429934567"><ele>286.83333333333337</ele><time>2026-04-19T09:47:02Z</time></trkpt><trkpt lat="42.088440098501096" lon="11.914404845835127"><ele>286.6666666666667</ele><time>2026-04-19T09:47:03Z</time></trkpt><trkpt lat="42.08834856254849" lon="11.914445109049016"><ele>286.5</ele><time>2026-04-19T09:47:04Z</time></trkpt><trkpt lat="42.088279335719484" lon="11.91448512741167"><ele>286.3333333333333</ele><time>2026-04-19T09:47:05Z</time></trkpt><trkpt lat="42.08821306228723" lon="11.914551257700952"><ele>286.16666666666663</ele><time>2026-04-19T09:47:06Z</time></trkpt><trkpt lat="42.08816046789612" lon="11.914638850204053"><ele>286.0</ele><time>2026-04-19T09:47:07Z</time></trkpt><trkpt lat="42.08810893464896" lon="11.914701942305411"><ele>286.0</ele><time>2026-04-19T09:47:08Z</time></trkpt><trkpt lat="42.08803766970136" lon="11.914750495235667"><ele>286.0</ele><time>2026-04-19T09:47:09Z</time></trkpt><trkpt lat="42.08796002762846" lon="11.914773880272929"><ele>286.0</ele><time>2026-04-19T09:47:10Z</time></trkpt><trkpt lat="42.087876997717025" lon="11.91480426397892"><ele>286.0</ele><time>2026-04-19T09:47:11Z</time></trkpt><trkpt lat="42.08779634189353" lon="11.91484497108071"><ele>286.0</ele><time>2026-04-19T09:47:12Z</time></trkpt><trkpt lat="42.0877019065671" lon="11.914905664097725"><ele>286.0</ele><time>2026-04-19T09:47:13Z</time></trkpt><trkpt lat="42.08762143619239" lon="11.914985038402506"><ele>284.6</ele><time>2026-04-19T09:47:14Z</time></trkpt><trkpt lat="42.0875399065978" lon="11.91507534225576"><ele>283.20000000000005</ele><time>2026-04-19T09:47:15Z</time></trkpt><trkpt lat="42.08744968075661" lon="11.915156034980086"><ele>281.79999999999995</ele><time>2026-04-19T09:47:16Z</time></trkpt><trkpt lat="42.08736381022427" lon="11.915224187074395"><ele>280.4</ele><time>2026-04-19T09:47:17Z</time></trkpt><trkpt lat="42.08728453035592" lon="11.91529533208602"><ele>279.0</ele><time>2026-04-19T09:47:18Z</time></trkpt><trkpt lat="42.08720617773233" lon="11.915371264252652"><ele>279.0</ele><time>2026-04-19T09:47:19Z</time></trkpt><trkpt lat="42.08711947787479" lon="11.9154408446944"><ele>279.0</ele><time>2026-04-19T09:47:20Z</time></trkpt><trkpt lat="42.08702360174152" lon="11.915520691447046"><ele>279.0</ele><time>2026-04-19T09:47:21Z</time></trkpt><trkpt lat="42.086933998907455" lon="11.91559727331775"><ele>279.0</ele><time>2026-04-19T09:47:22Z</time></trkpt><trkpt lat="42.08684661521049" lon="11.915662572804136"><ele>279.0</ele><time>2026-04-19T09:47:23Z</time></trkpt><trkpt lat="42.086756009729235" lon="11.915728050688541"><ele>279.0</ele><time>2026-04-19T09:47:24Z</time></trkpt><trkpt lat="42.08667587855388" lon="11.915737888726325"><ele>279.0</ele><time>2026-04-19T09:47:25Z</time></trkpt><trkpt lat="42.08660630592091" lon="11.915751028470169"><ele>279.0</ele><time>2026-04-19T09:47:25.999Z</time></trkpt><trkpt lat="42.08655043353244" lon="11.915798072106966"><ele>279.0</ele><time>2026-04-19T09:47:26.999Z</time></trkpt><trkpt lat="42.08650194815334" lon="11.9158901285163"><ele>279.0</ele><time>2026-04-19T09:47:27.999Z</time></trkpt><trkpt lat="42.08644278839067" lon="11.915959980573708"><ele>279.0</ele><time>2026-04-19T09:47:28.999Z</time></trkpt><trkpt lat="42.08636451692112" lon="11.916048952725696"><ele>277.5</ele><time>2026-04-19T09:47:29.999Z</time></trkpt><trkpt lat="42.086275893619195" lon="11.916101864722071"><ele>276.0</ele><time>2026-04-19T09:47:30.999Z</time></trkpt><trkpt lat="42.086192948851014" lon="11.9161558289272"><ele>274.5</ele><time>2026-04-19T09:47:31.999Z</time></trkpt><trkpt lat="42.086117806008616" lon="11.916184895555448"><ele>273.0</ele><time>2026-04-19T09:47:32.999Z</time></trkpt><trkpt lat="42.086045627840235" lon="11.916227143484747"><ele>271.5</ele><time>2026-04-19T09:47:33.999Z</time></trkpt><trkpt lat="42.085988039285304" lon="11.916304834959073"><ele>270.0</ele><time>2026-04-19T09:47:34.999Z</time></trkpt><trkpt lat="42.085919763502666" lon="11.916377211000615"><ele>270.0</ele><time>2026-04-19T09:47:35.999Z</time></trkpt><trkpt lat="42.08585131228344" lon="11.916478466094533"><ele>270.0</ele><time>2026-04-19T09:47:36.999Z</time></trkpt><trkpt lat="42.08577192319798" lon="11.91654657927991"><ele>270.0</ele><time>2026-04-19T09:47:37.999Z</time></trkpt><trkpt lat="42.08570273450689" lon="11.916622960058639"><ele>270.0</ele><time>2026-04-19T09:47:38.999Z</time></trkpt><trkpt lat="42.085634317805805" lon="11.9166997000249"><ele>270.0</ele><time>2026-04-19T09:47:39.999Z</time></trkpt><trkpt lat="42.08556484363532" lon="11.91675350185538"><ele>268.0</ele><time>2026-04-19T09:47:40.999Z</time></trkpt><trkpt lat="42.08548016782674" lon="11.916795961317652"><ele>266.0</ele><time>2026-04-19T09:47:41.999Z</time></trkpt><trkpt lat="42.0853808407428" lon="11.91682980513507"><ele>264.0</ele><time>2026-04-19T09:47:42.999Z</time></trkpt><trkpt lat="42.08528262726291" lon="11.916844208854613"><ele>262.0</ele><time>2026-04-19T09:47:43.999Z</time></trkpt><trkpt lat="42.08519797533147" lon="11.916808122869261"><ele>260.0</ele><time>2026-04-19T09:47:44.999Z</time></trkpt><trkpt lat="42.085112402623544" lon="11.916785476260294"><ele>260.0</ele><time>2026-04-19T09:47:45.999Z</time></trkpt><trkpt lat="42.085034801980015" lon="11.916753546619457"><ele>260.0</ele><time>2026-04-19T09:47:46.999Z</time></trkpt><trkpt lat="42.08495024611854" lon="11.916770161759512"><ele>260.0</ele><time>2026-04-19T09:47:47.999Z</time></trkpt><trkpt lat="42.08487757739086" lon="11.916789355650469"><ele>260.0</ele><time>2026-04-19T09:47:48.999Z</time></trkpt><trkpt lat="42.08481145235573" lon="11.916804503489953"><ele>260.0</ele><time>2026-04-19T09:47:49.999Z</time></trkpt><trkpt lat="42.0846986184236" lon="11.91683417434447"><ele>260.0</ele><time>2026-04-19T09:47:51.999Z</time></trkpt><trkpt lat="42.084622610130474" lon="11.916876627365921"><ele>261.83333333333337</ele><time>2026-04-19T09:47:53.999Z</time></trkpt><trkpt lat="42.08461547735805" lon="11.916966608647725"><ele>263.6666666666667</ele><time>2026-04-19T09:48:40Z</time></trkpt><trkpt lat="42.08460931604691" lon="11.917116676908723"><ele>265.5</ele><time>2026-04-19T09:48:42Z</time></trkpt><trkpt lat="42.08460294818968" lon="11.917266533678507"><ele>267.3333333333333</ele><time>2026-04-19T09:48:44Z</time></trkpt><trkpt lat="42.08461099939548" lon="11.91735594841599"><ele>269.16666666666663</ele><time>2026-04-19T09:48:45Z</time></trkpt><trkpt lat="42.084622998407404" lon="11.917443317267526"><ele>271.0</ele><time>2026-04-19T09:48:46Z</time></trkpt><trkpt lat="42.08464593812851" lon="11.917525990315717"><ele>269.8333333333333</ele><time>2026-04-19T09:48:47Z</time></trkpt><trkpt lat="42.08467004229707" lon="11.917621786978916"><ele>268.66666666666663</ele><time>2026-04-19T09:48:48Z</time></trkpt><trkpt lat="42.084692043371646" lon="11.917706327388021"><ele>267.5</ele><time>2026-04-19T09:48:49Z</time></trkpt><trkpt lat="42.08471519473184" lon="11.917790760747087"><ele>266.3333333333333</ele><time>2026-04-19T09:48:50Z</time></trkpt><trkpt lat="42.084740349746816" lon="11.91794245485499"><ele>265.1666666666667</ele><time>2026-04-19T09:48:52Z</time></trkpt><trkpt lat="42.08472530449919" lon="11.91807141484627"><ele>264.0</ele><time>2026-04-19T09:48:54Z</time></trkpt><trkpt lat="42.084673714630014" lon="11.918200470065448"><ele>264.0</ele><time>2026-04-19T09:48:56Z</time></trkpt><trkpt lat="42.08463563442756" lon="11.9182875932733"><ele>264.0</ele><time>2026-04-19T09:48:57Z</time></trkpt><trkpt lat="42.08461608604967" lon="11.918371730519592"><ele>264.0</ele><time>2026-04-19T09:48:58Z</time></trkpt><trkpt lat="42.08462937879644" lon="11.918555278247617"><ele>264.0</ele><time>2026-04-19T09:49:00Z</time></trkpt><trkpt lat="42.08465129966816" lon="11.918688779674914"><ele>264.0</ele><time>2026-04-19T09:49:02Z</time></trkpt><trkpt lat="42.08464011184741" lon="11.91882344222936"><ele>263.5</ele><time>2026-04-19T09:49:04Z</time></trkpt><trkpt lat="42.08458929329466" lon="11.918893771266577"><ele>263.0</ele><time>2026-04-19T09:49:05Z</time></trkpt><trkpt lat="42.08454401903325" lon="11.918974633932887"><ele>262.5</ele><time>2026-04-19T09:49:06Z</time></trkpt><trkpt lat="42.08445868285044" lon="11.919101407848542"><ele>262.0</ele><time>2026-04-19T09:49:08Z</time></trkpt><trkpt lat="42.08442992935682" lon="11.91920126788696"><ele>261.5</ele><time>2026-04-19T09:49:09Z</time></trkpt><trkpt lat="42.084392388248176" lon="11.919288758697204"><ele>261.0</ele><time>2026-04-19T09:49:10Z</time></trkpt><trkpt lat="42.08433656610793" lon="11.919353924843424"><ele>261.0</ele><time>2026-04-19T09:49:11Z</time></trkpt><trkpt lat="42.08428637961942" lon="11.919411598216088"><ele>261.0</ele><time>2026-04-19T09:49:12Z</time></trkpt><trkpt lat="42.0841984227123" lon="11.919511571307229"><ele>261.0</ele><time>2026-04-19T09:49:14Z</time></trkpt><trkpt lat="42.08410243691404" lon="11.919613647718622"><ele>261.0</ele><time>2026-04-19T09:49:16Z</time></trkpt><trkpt lat="42.08405031517542" lon="11.919702683667412"><ele>261.0</ele><time>2026-04-19T09:49:17Z</time></trkpt><trkpt lat="42.08398603724908" lon="11.919782026689393"><ele>262.40000000000003</ele><time>2026-04-19T09:49:18Z</time></trkpt><trkpt lat="42.083921267579875" lon="11.919823218362735"><ele>263.8</ele><time>2026-04-19T09:49:19Z</time></trkpt><trkpt lat="42.08379797978142" lon="11.91989773401231"><ele>265.20000000000005</ele><time>2026-04-19T09:49:21Z</time></trkpt><trkpt lat="42.08372481250939" lon="11.919999958493552"><ele>266.6</ele><time>2026-04-19T09:49:23Z</time></trkpt><trkpt lat="42.08365734763451" lon="11.92007034611925"><ele>268.0</ele><time>2026-04-19T09:49:24.999Z</time></trkpt><trkpt lat="42.083612237054055" lon="11.9201331519724"><ele>268.0</ele><time>2026-04-19T09:49:25.999Z</time></trkpt><trkpt lat="42.08354232408853" lon="11.920272846854227"><ele>268.0</ele><time>2026-04-19T09:49:27.999Z</time></trkpt><trkpt lat="42.08349092475469" lon="11.920360402856138"><ele>268.0</ele><time>2026-04-19T09:49:28.999Z</time></trkpt><trkpt lat="42.08343922479782" lon="11.920444145812898"><ele>268.0</ele><time>2026-04-19T09:49:29.999Z</time></trkpt><trkpt lat="42.08336211982925" lon="11.92049829995984"><ele>268.0</ele><time>2026-04-19T09:49:30.999Z</time></trkpt><trkpt lat="42.08330829203256" lon="11.920568127425062"><ele>268.0</ele><time>2026-04-19T09:49:31.999Z</time></trkpt><trkpt lat="42.083265430863996" lon="11.920631374939642"><ele>268.0</ele><time>2026-04-19T09:49:32.999Z</time></trkpt><trkpt lat="42.08322665432817" lon="11.920700318446515"><ele>268.0</ele><time>2026-04-19T09:49:33.999Z</time></trkpt><trkpt lat="42.08317986822218" lon="11.920773844290743"><ele>268.0</ele><time>2026-04-19T09:49:35.999Z</time></trkpt><trkpt lat="42.08309214930763" lon="11.920809686610797"><ele>268.0</ele><time>2026-04-19T09:49:37.999Z</time></trkpt><trkpt lat="42.082998604287745" lon="11.92086548189557"><ele>268.0</ele><time>2026-04-19T09:49:39.999Z</time></trkpt><trkpt lat="42.08293132853412" lon="11.920826970339386"><ele>270.0</ele><time>2026-04-19T09:49:40.999Z</time></trkpt><trkpt lat="42.082851156126814" lon="11.920778162415973"><ele>272.0</ele><time>2026-04-19T09:49:42.999Z</time></trkpt><trkpt lat="42.082784212016165" lon="11.920809533614912"><ele>274.0</ele><time>2026-04-19T09:49:43.999Z</time></trkpt><trkpt lat="42.08259929497312" lon="11.921002408494713"><ele>276.0</ele><time>2026-04-19T09:49:48.999Z</time></trkpt><trkpt lat="42.082534705560825" lon="11.92106163606558"><ele>276.0</ele><time>2026-04-19T09:49:49.999Z</time></trkpt><trkpt lat="42.08249875358921" lon="11.920982719139044"><ele>276.0</ele><time>2026-04-19T09:49:52.999Z</time></trkpt><trkpt lat="42.08237405963239" lon="11.921087893304014"><ele>276.0</ele><time>2026-04-19T09:49:54.999Z</time></trkpt><trkpt lat="42.082270701864935" lon="11.921215807677681"><ele>276.0</ele><time>2026-04-19T09:49:55.999Z</time></trkpt><trkpt lat="42.08219265027199" lon="11.921367434855854"><ele>275.2</ele><time>2026-04-19T09:49:56.999Z</time></trkpt><trkpt lat="42.08213781457429" lon="11.921512808724037"><ele>274.40000000000003</ele><time>2026-04-19T09:49:57.999Z</time></trkpt><trkpt lat="42.082109859607584" lon="11.921648901774537"><ele>273.6</ele><time>2026-04-19T09:49:58.999Z</time></trkpt><trkpt lat="42.08209367574506" lon="11.921781159833731"><ele>272.8</ele><time>2026-04-19T09:50:00.999Z</time></trkpt><trkpt lat="42.08204639246736" lon="11.921921760882732"><ele>272.0</ele><time>2026-04-19T09:50:02.999Z</time></trkpt><trkpt lat="42.08195119887935" lon="11.922010118241746"><ele>270.0</ele><time>2026-04-19T09:50:04.999Z</time></trkpt><trkpt lat="42.081875188009384" lon="11.922082116400752"><ele>268.0</ele><time>2026-04-19T09:50:06.999Z</time></trkpt><trkpt lat="42.081806337078554" lon="11.922158327097739"><ele>266.0</ele><time>2026-04-19T09:50:08.999Z</time></trkpt><trkpt lat="42.08173260306212" lon="11.92215471155414"><ele>264.0</ele><time>2026-04-19T09:50:10.999Z</time></trkpt><trkpt lat="42.08165107930454" lon="11.922115275184863"><ele>262.0</ele><time>2026-04-19T09:50:12.999Z</time></trkpt><trkpt lat="42.081579915302726" lon="11.922080272665195"><ele>260.0</ele><time>2026-04-19T09:50:14.999Z</time></trkpt><trkpt lat="42.08147860684464" lon="11.922080145136345"><ele>259.4</ele><time>2026-04-19T09:50:16.999Z</time></trkpt><trkpt lat="42.08138322942677" lon="11.922131161738461"><ele>258.8</ele><time>2026-04-19T09:50:18.999Z</time></trkpt><trkpt lat="42.08131240703408" lon="11.922146984910098"><ele>258.2</ele><time>2026-04-19T09:50:20.999Z</time></trkpt><trkpt lat="42.081381196875995" lon="11.922159694742708"><ele>257.6</ele><time>2026-04-19T09:50:21.999Z</time></trkpt><trkpt lat="42.08119447898112" lon="11.92221511758492"><ele>257.0</ele><time>2026-04-19T09:50:26Z</time></trkpt><trkpt lat="42.08107693941305" lon="11.922255380671084"><ele>257.0</ele><time>2026-04-19T09:50:28Z</time></trkpt><trkpt lat="42.080991537805964" lon="11.922252661167922"><ele>257.0</ele><time>2026-04-19T09:50:29Z</time></trkpt><trkpt lat="42.08088081622961" lon="11.922295275793648"><ele>257.0</ele><time>2026-04-19T09:50:30Z</time></trkpt><trkpt lat="42.080791833832166" lon="11.922346927116827"><ele>257.0</ele><time>2026-04-19T09:50:31Z</time></trkpt><trkpt lat="42.08071891084093" lon="11.92243043296689"><ele>257.0</ele><time>2026-04-19T09:50:32Z</time></trkpt><trkpt lat="42.08063814075472" lon="11.922530773433879"><ele>255.0</ele><time>2026-04-19T09:50:33Z</time></trkpt><trkpt lat="42.08054974563669" lon="11.922621589393819"><ele>253.0</ele><time>2026-04-19T09:50:34Z</time></trkpt><trkpt lat="42.08047401431519" lon="11.922708536104938"><ele>251.0</ele><time>2026-04-19T09:50:35Z</time></trkpt><trkpt lat="42.080399083064115" lon="11.922792130819456"><ele>249.0</ele><time>2026-04-19T09:50:36Z</time></trkpt><trkpt lat="42.08031219435727" lon="11.922776307474372"><ele>247.0</ele><time>2026-04-19T09:50:37Z</time></trkpt><trkpt lat="42.080235082716854" lon="11.922779796291579"><ele>246.99999999999997</ele><time>2026-04-19T09:50:38Z</time></trkpt><trkpt lat="42.080157376398155" lon="11.922782724608826"><ele>247.0</ele><time>2026-04-19T09:50:39Z</time></trkpt><trkpt lat="42.08008781368744" lon="11.922818766700436"><ele>247.0</ele><time>2026-04-19T09:50:40Z</time></trkpt><trkpt lat="42.080023265871695" lon="11.922842866427475"><ele>247.0</ele><time>2026-04-19T09:50:41Z</time></trkpt><trkpt lat="42.0799300926715" lon="11.922799083207916"><ele>246.99999999999997</ele><time>2026-04-19T09:50:43Z</time></trkpt><trkpt lat="42.07985760076899" lon="11.922803898426439"><ele>247.0</ele><time>2026-04-19T09:50:44Z</time></trkpt><trkpt lat="42.07973370662544" lon="11.922865790396964"><ele>246.6</ele><time>2026-04-19T09:50:46Z</time></trkpt><trkpt lat="42.07962822769999" lon="11.922850985884795"><ele>246.2</ele><time>2026-04-19T09:50:48Z</time></trkpt><trkpt lat="42.07956475167066" lon="11.922837659486317"><ele>245.8</ele><time>2026-04-19T09:50:49Z</time></trkpt><trkpt lat="42.079486398798096" lon="11.922828571362297"><ele>245.4</ele><time>2026-04-19T09:50:50Z</time></trkpt><trkpt lat="42.07941681168492" lon="11.922851435572523"><ele>245.0</ele><time>2026-04-19T09:50:51Z</time></trkpt><trkpt lat="42.0792845462007" lon="11.922861976089095"><ele>245.0</ele><time>2026-04-19T09:50:53Z</time></trkpt><trkpt lat="42.0791775530607" lon="11.922865231922001"><ele>245.0</ele><time>2026-04-19T09:50:55Z</time></trkpt><trkpt lat="42.079107692066216" lon="11.922862508320557"><ele>245.0</ele><time>2026-04-19T09:50:57Z</time></trkpt><trkpt lat="42.079016522411074" lon="11.922835671970653"><ele>245.0</ele><time>2026-04-19T09:50:59Z</time></trkpt><trkpt lat="42.078906084123524" lon="11.92287706663884"><ele>245.0</ele><time>2026-04-19T09:51:01Z</time></trkpt><trkpt lat="42.07882687679919" lon="11.9228931416653"><ele>244.6</ele><time>2026-04-19T09:51:03Z</time></trkpt><trkpt lat="42.07870413599596" lon="11.922901325037392"><ele>244.2</ele><time>2026-04-19T09:51:05Z</time></trkpt><trkpt lat="42.07864069151442" lon="11.92289824866744"><ele>243.8</ele><time>2026-04-19T09:51:06Z</time></trkpt><trkpt lat="42.07856541148963" lon="11.92289895031124"><ele>243.4</ele><time>2026-04-19T09:51:07Z</time></trkpt><trkpt lat="42.07844273966486" lon="11.922883311638213"><ele>243.0</ele><time>2026-04-19T09:51:09Z</time></trkpt><trkpt lat="42.07834640416928" lon="11.92292268044946"><ele>243.0</ele><time>2026-04-19T09:51:11Z</time></trkpt><trkpt lat="42.078272656855525" lon="11.923037292222196"><ele>243.0</ele><time>2026-04-19T09:51:13Z</time></trkpt><trkpt lat="42.07822573712533" lon="11.923108859516525"><ele>243.0</ele><time>2026-04-19T09:51:14Z</time></trkpt><trkpt lat="42.078157580017304" lon="11.92321907697133"><ele>243.0</ele><time>2026-04-19T09:51:16Z</time></trkpt><trkpt lat="42.07810082484386" lon="11.923294976243152"><ele>243.0</ele><time>2026-04-19T09:51:17Z</time></trkpt><trkpt lat="42.07805084251766" lon="11.923362358411268"><ele>243.0</ele><time>2026-04-19T09:51:18Z</time></trkpt><trkpt lat="42.077964739806994" lon="11.923445089220948"><ele>243.8</ele><time>2026-04-19T09:51:20Z</time></trkpt><trkpt lat="42.07798265161518" lon="11.92330280740766"><ele>244.60000000000002</ele><time>2026-04-19T09:52:34Z</time></trkpt><trkpt lat="42.078045819913854" lon="11.923234648959667"><ele>245.39999999999998</ele><time>2026-04-19T09:52:36Z</time></trkpt><trkpt lat="42.078061246067826" lon="11.923130434143157"><ele>246.2</ele><time>2026-04-19T09:52:37Z</time></trkpt><trkpt lat="42.07810721131174" lon="11.922978546041593"><ele>247.0</ele><time>2026-04-19T09:52:39Z</time></trkpt><trkpt lat="42.0780773035334" lon="11.922892306698387"><ele>246.99999999999997</ele><time>2026-04-19T09:52:41Z</time></trkpt><trkpt lat="42.078004428846036" lon="11.922876892796737"><ele>247.0</ele><time>2026-04-19T09:52:43Z</time></trkpt><trkpt lat="42.07792792655665" lon="11.92286161108044"><ele>247.0</ele><time>2026-04-19T09:52:44Z</time></trkpt><trkpt lat="42.077863707625255" lon="11.922861204311474"><ele>247.0</ele><time>2026-04-19T09:52:45Z</time></trkpt><trkpt lat="42.07778632844177" lon="11.922846878638302"><ele>246.99999999999997</ele><time>2026-04-19T09:52:46Z</time></trkpt><trkpt lat="42.07768980387809" lon="11.922842506175884"><ele>247.0</ele><time>2026-04-19T09:52:48Z</time></trkpt><trkpt lat="42.07760747426749" lon="11.922818734202231"><ele>246.99999999999997</ele><time>2026-04-19T09:52:50Z</time></trkpt><trkpt lat="42.077530257405535" lon="11.92282920610955"><ele>247.0</ele><time>2026-04-19T09:52:52Z</time></trkpt><trkpt lat="42.077442285264496" lon="11.922826996121676"><ele>247.0</ele><time>2026-04-19T09:52:54Z</time></trkpt><trkpt lat="42.07734771591348" lon="11.922824943783892"><ele>247.0</ele><time>2026-04-19T09:52:56Z</time></trkpt><trkpt lat="42.07728378689649" lon="11.922825370678327"><ele>246.99999999999997</ele><time>2026-04-19T09:52:57Z</time></trkpt><trkpt lat="42.07718838176873" lon="11.922752524032902"><ele>247.0</ele><time>2026-04-19T09:52:59Z</time></trkpt><trkpt lat="42.077130703736444" lon="11.922808341778293"><ele>247.49999999999997</ele><time>2026-04-19T09:53:07Z</time></trkpt><trkpt lat="42.07707422980495" lon="11.92272898624401"><ele>248.0</ele><time>2026-04-19T09:53:10Z</time></trkpt><trkpt lat="42.0770365742764" lon="11.92264750963801"><ele>248.5</ele><time>2026-04-19T09:53:12Z</time></trkpt><trkpt lat="42.07697156831323" lon="11.922598311600831"><ele>249.0</ele><time>2026-04-19T09:53:14Z</time></trkpt><trkpt lat="42.07690157678386" lon="11.922565441647865"><ele>249.49999999999997</ele><time>2026-04-19T09:53:16Z</time></trkpt><trkpt lat="42.07685128239479" lon="11.92249037697325"><ele>250.0</ele><time>2026-04-19T09:53:18Z</time></trkpt><trkpt lat="42.07678480730272" lon="11.922434756441115"><ele>252.33333333333331</ele><time>2026-04-19T09:53:20Z</time></trkpt><trkpt lat="42.07669946864072" lon="11.922476307791039"><ele>254.66666666666666</ele><time>2026-04-19T09:53:24Z</time></trkpt><trkpt lat="42.076592436261436" lon="11.922445906932857"><ele>257.0</ele><time>2026-04-19T09:53:26Z</time></trkpt><trkpt lat="42.0765195126691" lon="11.922413765984345"><ele>259.3333333333333</ele><time>2026-04-19T09:53:29Z</time></trkpt><trkpt lat="42.07645334593985" lon="11.922437494488554"><ele>261.6666666666667</ele><time>2026-04-19T09:53:31Z</time></trkpt><trkpt lat="42.07636245082705" lon="11.922415171171554"><ele>264.0</ele><time>2026-04-19T09:53:33Z</time></trkpt><trkpt lat="42.076266118490274" lon="11.92244698043709"><ele>265.3333333333333</ele><time>2026-04-19T09:53:35Z</time></trkpt><trkpt lat="42.07620024934435" lon="11.922392327881301"><ele>266.6666666666667</ele><time>2026-04-19T09:53:37Z</time></trkpt><trkpt lat="42.076162233661286" lon="11.922296692560794"><ele>268.0</ele><time>2026-04-19T09:53:39Z</time></trkpt><trkpt lat="42.07608628525845" lon="11.922308035500492"><ele>269.33333333333337</ele><time>2026-04-19T09:53:41Z</time></trkpt><trkpt lat="42.076009191979175" lon="11.922298288041858"><ele>270.6666666666667</ele><time>2026-04-19T09:53:42Z</time></trkpt><trkpt lat="42.07589661983326" lon="11.922251595822033"><ele>272.0</ele><time>2026-04-19T09:53:43Z</time></trkpt><trkpt lat="42.07582841376903" lon="11.922212773378355"><ele>273.0</ele><time>2026-04-19T09:53:44Z</time></trkpt><trkpt lat="42.075735859287434" lon="11.922141364917694"><ele>274.0</ele><time>2026-04-19T09:53:45Z</time></trkpt><trkpt lat="42.07563466423293" lon="11.922057247221447"><ele>275.0</ele><time>2026-04-19T09:53:46Z</time></trkpt><trkpt lat="42.075538491883755" lon="11.92201705646276"><ele>276.0</ele><time>2026-04-19T09:53:47Z</time></trkpt><trkpt lat="42.07542873541677" lon="11.921939858109804"><ele>276.0</ele><time>2026-04-19T09:53:49Z</time></trkpt><trkpt lat="42.0753620557948" lon="11.92189439814227"><ele>276.0</ele><time>2026-04-19T09:53:49.999Z</time></trkpt><trkpt lat="42.07529239697764" lon="11.921833250750678"><ele>276.0</ele><time>2026-04-19T09:53:50.999Z</time></trkpt><trkpt lat="42.07521579118161" lon="11.921742905495927"><ele>276.0</ele><time>2026-04-19T09:53:52.999Z</time></trkpt><trkpt lat="42.07515003786404" lon="11.921700839220385"><ele>276.0</ele><time>2026-04-19T09:53:55.999Z</time></trkpt><trkpt lat="42.07513567283586" lon="11.921609870451537"><ele>276.0</ele><time>2026-04-19T09:53:58.999Z</time></trkpt><trkpt lat="42.07504715401589" lon="11.921556744830326"><ele>274.40000000000003</ele><time>2026-04-19T09:54:01.999Z</time></trkpt><trkpt lat="42.074972619006516" lon="11.921512156698137"><ele>272.8</ele><time>2026-04-19T09:54:05.999Z</time></trkpt><trkpt lat="42.074876130581146" lon="11.92150371981869"><ele>271.20000000000005</ele><time>2026-04-19T09:54:11.999Z</time></trkpt><trkpt lat="42.07479558836209" lon="11.921437846452987"><ele>269.6</ele><time>2026-04-19T09:54:13.999Z</time></trkpt><trkpt lat="42.07473400091408" lon="11.921363599725947"><ele>268.0</ele><time>2026-04-19T09:54:15.999Z</time></trkpt><trkpt lat="42.074633484947604" lon="11.921291023087539"><ele>267.5</ele><time>2026-04-19T09:54:17.999Z</time></trkpt><trkpt lat="42.074551308030706" lon="11.921307118262897"><ele>267.0</ele><time>2026-04-19T09:54:19.999Z</time></trkpt><trkpt lat="42.074495041440734" lon="11.921363184922468"><ele>266.5</ele><time>2026-04-19T09:54:21.999Z</time></trkpt><trkpt lat="42.074403855486985" lon="11.921351457774032"><ele>266.0</ele><time>2026-04-19T09:54:24.999Z</time></trkpt><trkpt lat="42.0743252625639" lon="11.921312340320505"><ele>265.5</ele><time>2026-04-19T09:54:26.999Z</time></trkpt><trkpt lat="42.07432059372028" lon="11.921200222458184"><ele>265.0</ele><time>2026-04-19T09:54:28.999Z</time></trkpt><trkpt lat="42.074210408388055" lon="11.921142007405804"><ele>265.0</ele><time>2026-04-19T09:54:30.999Z</time></trkpt><trkpt lat="42.07412689096852" lon="11.921090397104232"><ele>265.0</ele><time>2026-04-19T09:54:32.999Z</time></trkpt><trkpt lat="42.07405289407027" lon="11.921086771895164"><ele>265.0</ele><time>2026-04-19T09:54:34.999Z</time></trkpt><trkpt lat="42.07394056770716" lon="11.921072839868293"><ele>265.0</ele><time>2026-04-19T09:54:38Z</time></trkpt><trkpt lat="42.07387425604357" lon="11.921099339689846"><ele>265.0</ele><time>2026-04-19T09:54:40Z</time></trkpt><trkpt lat="42.07375718499837" lon="11.921163991562622"><ele>264.0</ele><time>2026-04-19T09:54:43Z</time></trkpt><trkpt lat="42.073689971622784" lon="11.921149031937897"><ele>263.0</ele><time>2026-04-19T09:54:46Z</time></trkpt><trkpt lat="42.07362978503818" lon="11.921197428875228"><ele>262.0</ele><time>2026-04-19T09:54:55Z</time></trkpt><trkpt lat="42.073545669341904" lon="11.921209724847678"><ele>261.0</ele><time>2026-04-19T09:55:04Z</time></trkpt><trkpt lat="42.07349892672309" lon="11.921094475477659"><ele>260.0</ele><time>2026-04-19T09:55:06Z</time></trkpt><trkpt lat="42.073500428055446" lon="11.921000112193651"><ele>259.0</ele><time>2026-04-19T09:55:08Z</time></trkpt><trkpt lat="42.07342969323178" lon="11.92089963990983"><ele>259.0</ele><time>2026-04-19T09:55:11Z</time></trkpt><trkpt lat="42.073351375480314" lon="11.920910496458134"><ele>259.0</ele><time>2026-04-19T09:55:13Z</time></trkpt><trkpt lat="42.073273459096114" lon="11.920914085383577"><ele>259.0</ele><time>2026-04-19T09:55:15Z</time></trkpt><trkpt lat="42.07319071690506" lon="11.920874094769921"><ele>259.0</ele><time>2026-04-19T09:55:18Z</time></trkpt><trkpt lat="42.07312614931763" lon="11.920893954998867"><ele>259.0</ele><time>2026-04-19T09:55:20Z</time></trkpt><trkpt lat="42.073043660807734" lon="11.920942486729308"><ele>259.0</ele><time>2026-04-19T09:55:22Z</time></trkpt><trkpt lat="42.0729576037456" lon="11.921009765023104"><ele>257.16666666666663</ele><time>2026-04-19T09:55:24Z</time></trkpt><trkpt lat="42.0728980594871" lon="11.921060144120256"><ele>255.33333333333331</ele><time>2026-04-19T09:55:26Z</time></trkpt><trkpt lat="42.07283636601242" lon="11.921120109171897"><ele>253.5</ele><time>2026-04-19T09:55:28Z</time></trkpt><trkpt lat="42.07276648423892" lon="11.921149233514251"><ele>251.66666666666669</ele><time>2026-04-19T09:55:30Z</time></trkpt><trkpt lat="42.072703035896005" lon="11.92109974808259"><ele>249.83333333333334</ele><time>2026-04-19T09:55:32Z</time></trkpt><trkpt lat="42.0726213732357" lon="11.921024340176983"><ele>248.0</ele><time>2026-04-19T09:55:34Z</time></trkpt><trkpt lat="42.0725773013484" lon="11.92095279084134"><ele>248.00000000000003</ele><time>2026-04-19T09:55:36Z</time></trkpt><trkpt lat="42.07255702316527" lon="11.920872439830053"><ele>248.0</ele><time>2026-04-19T09:55:58.999Z</time></trkpt><trkpt lat="42.072597608111934" lon="11.920957190062579"><ele>248.0</ele><time>2026-04-19T09:56:22.999Z</time></trkpt><trkpt lat="42.0725348882408" lon="11.921012823674578"><ele>248.0</ele><time>2026-04-19T09:56:29.999Z</time></trkpt><trkpt lat="42.072474992150596" lon="11.920962881246139"><ele>248.00000000000003</ele><time>2026-04-19T09:56:33.999Z</time></trkpt><trkpt lat="42.07240165221965" lon="11.920942845158937"><ele>248.0</ele><time>2026-04-19T09:56:36.999Z</time></trkpt><trkpt lat="42.07230956452574" lon="11.92099349771681"><ele>246.83333333333334</ele><time>2026-04-19T09:56:39.999Z</time></trkpt><trkpt lat="42.0722376770083" lon="11.92106297674947"><ele>245.66666666666669</ele><time>2026-04-19T09:56:42Z</time></trkpt><trkpt lat="42.07215013474277" lon="11.92110397546204"><ele>244.5</ele><time>2026-04-19T09:56:45Z</time></trkpt><trkpt lat="42.07207197284278" lon="11.921119791688321"><ele>243.33333333333331</ele><time>2026-04-19T09:56:48Z</time></trkpt><trkpt lat="42.07200806290648" lon="11.921119439460357"><ele>242.16666666666666</ele><time>2026-04-19T09:56:51Z</time></trkpt><trkpt lat="42.07198791152541" lon="11.92120948607059"><ele>241.0</ele><time>2026-04-19T09:57:45Z</time></trkpt><trkpt lat="42.07192035493633" lon="11.921261947666963"><ele>240.99999999999997</ele><time>2026-04-19T09:57:48Z</time></trkpt><trkpt lat="42.07180770886659" lon="11.921278868112138"><ele>241.0</ele><time>2026-04-19T09:57:51Z</time></trkpt><trkpt lat="42.07172254005571" lon="11.921270826681207"><ele>241.0</ele><time>2026-04-19T09:57:52.999Z</time></trkpt><trkpt lat="42.071666464956394" lon="11.921199983920816"><ele>241.0</ele><time>2026-04-19T09:57:54.999Z</time></trkpt><trkpt lat="42.071597476463616" lon="11.921166264140819"><ele>240.99999999999997</ele><time>2026-04-19T09:57:56.999Z</time></trkpt><trkpt lat="42.07152811236889" lon="11.921122774544594"><ele>241.0</ele><time>2026-04-19T09:57:58.999Z</time></trkpt><trkpt lat="42.07145202289067" lon="11.921054196581272"><ele>240.2857142857143</ele><time>2026-04-19T09:58:01.999Z</time></trkpt><trkpt lat="42.071386058713244" lon="11.9210493314795"><ele>239.5714285714286</ele><time>2026-04-19T09:58:04.999Z</time></trkpt><trkpt lat="42.07131994477944" lon="11.921002992304517"><ele>238.85714285714286</ele><time>2026-04-19T09:58:27.999Z</time></trkpt><trkpt lat="42.07125504690406" lon="11.921027498381795"><ele>238.14285714285717</ele><time>2026-04-19T09:58:29.999Z</time></trkpt><trkpt lat="42.07120335338624" lon="11.921079857716995"><ele>237.42857142857144</ele><time>2026-04-19T09:58:31.999Z</time></trkpt><trkpt lat="42.071141984262525" lon="11.921101511817648"><ele>236.71428571428572</ele><time>2026-04-19T09:58:33.999Z</time></trkpt><trkpt lat="42.07108153616499" lon="11.921147583407098"><ele>236.0</ele><time>2026-04-19T09:58:36.999Z</time></trkpt><trkpt lat="42.071006915824135" lon="11.921128991563128"><ele>236.0</ele><time>2026-04-19T09:58:42.999Z</time></trkpt><trkpt lat="42.0709219475109" lon="11.921205462835703"><ele>236.00000000000003</ele><time>2026-04-19T09:58:51Z</time></trkpt><trkpt lat="42.07083534887423" lon="11.921262862659242"><ele>236.00000000000003</ele><time>2026-04-19T09:58:53Z</time></trkpt><trkpt lat="42.07073749026995" lon="11.9212994912223"><ele>236.0</ele><time>2026-04-19T09:58:55Z</time></trkpt><trkpt lat="42.070651459222596" lon="11.921317568283689"><ele>236.0</ele><time>2026-04-19T09:58:57Z</time></trkpt><trkpt lat="42.07054198556433" lon="11.92128366782001"><ele>233.20000000000002</ele><time>2026-04-19T09:58:59Z</time></trkpt><trkpt lat="42.07045052282171" lon="11.921224679459735"><ele>230.40000000000003</ele><time>2026-04-19T09:59:01Z</time></trkpt><trkpt lat="42.070358263177695" lon="11.921179473313057"><ele>227.6</ele><time>2026-04-19T09:59:03Z</time></trkpt><trkpt lat="42.07027708933525" lon="11.921181337153724"><ele>224.8</ele><time>2026-04-19T09:59:05Z</time></trkpt><trkpt lat="42.07020420983061" lon="11.921222543066948"><ele>222.0</ele><time>2026-04-19T09:59:07Z</time></trkpt><trkpt lat="42.070120801438456" lon="11.921292363864376"><ele>222.0</ele><time>2026-04-19T09:59:09Z</time></trkpt><trkpt lat="42.07003407687494" lon="11.92138186529261"><ele>222.0</ele><time>2026-04-19T09:59:11Z</time></trkpt><trkpt lat="42.0699870008597" lon="11.921464179399274"><ele>222.0</ele><time>2026-04-19T09:59:12Z</time></trkpt><trkpt lat="42.06993870963434" lon="11.921552381567068"><ele>222.0</ele><time>2026-04-19T09:59:13Z</time></trkpt><trkpt lat="42.06989629229423" lon="11.92161552765101"><ele>222.0</ele><time>2026-04-19T09:59:14Z</time></trkpt><trkpt lat="42.06982104878717" lon="11.92163846051105"><ele>222.0</ele><time>2026-04-19T09:59:16Z</time></trkpt><trkpt lat="42.06974494392765" lon="11.921718252288553"><ele>221.39999999999998</ele><time>2026-04-19T09:59:18Z</time></trkpt><trkpt lat="42.069678400917546" lon="11.921792558043226"><ele>220.79999999999998</ele><time>2026-04-19T09:59:20Z</time></trkpt><trkpt lat="42.069593447878155" lon="11.92184713792075"><ele>220.2</ele><time>2026-04-19T09:59:22Z</time></trkpt><trkpt lat="42.06947051407512" lon="11.92185914670186"><ele>219.6</ele><time>2026-04-19T09:59:24Z</time></trkpt><trkpt lat="42.069371094941964" lon="11.921850952653799"><ele>219.0</ele><time>2026-04-19T09:59:26Z</time></trkpt><trkpt lat="42.06929794846528" lon="11.921895660716856"><ele>219.0</ele><time>2026-04-19T09:59:28Z</time></trkpt><trkpt lat="42.06923488519687" lon="11.92192718209479"><ele>218.99999999999997</ele><time>2026-04-19T09:59:30Z</time></trkpt><trkpt lat="42.06912693205219" lon="11.921893364060866"><ele>218.99999999999997</ele><time>2026-04-19T09:59:32Z</time></trkpt><trkpt lat="42.069022289291595" lon="11.921889808405812"><ele>219.0</ele><time>2026-04-19T09:59:34Z</time></trkpt><trkpt lat="42.0689301924802" lon="11.92191549181159"><ele>219.0</ele><time>2026-04-19T09:59:36Z</time></trkpt><trkpt lat="42.068860868368986" lon="11.921976965523747"><ele>215.66666666666666</ele><time>2026-04-19T09:59:38Z</time></trkpt><trkpt lat="42.068793130650526" lon="11.92208899336463"><ele>212.33333333333331</ele><time>2026-04-19T09:59:40Z</time></trkpt><trkpt lat="42.06874822804701" lon="11.922152670273599"><ele>209.0</ele><time>2026-04-19T09:59:41Z</time></trkpt><trkpt lat="42.068689816547554" lon="11.922214516975814"><ele>205.66666666666666</ele><time>2026-04-19T09:59:42Z</time></trkpt><trkpt lat="42.06861587301934" lon="11.922267965802225"><ele>202.33333333333331</ele><time>2026-04-19T09:59:44Z</time></trkpt><trkpt lat="42.068557498573774" lon="11.922316288396775"><ele>199.0</ele><time>2026-04-19T09:59:45Z</time></trkpt><trkpt lat="42.06847992554655" lon="11.922411867922653"><ele>198.99999999999997</ele><time>2026-04-19T09:59:47Z</time></trkpt><trkpt lat="42.06839857583247" lon="11.922481822027112"><ele>199.0</ele><time>2026-04-19T09:59:49Z</time></trkpt><trkpt lat="42.06834314540381" lon="11.922595505464358"><ele>199.0</ele><time>2026-04-19T09:59:51Z</time></trkpt><trkpt lat="42.068292466770075" lon="11.922658681739946"><ele>199.0</ele><time>2026-04-19T09:59:53Z</time></trkpt><trkpt lat="42.06823478952473" lon="11.922743435091522"><ele>198.99999999999997</ele><time>2026-04-19T09:59:55.999Z</time></trkpt><trkpt lat="42.06817263783298" lon="11.92278554823308"><ele>199.0</ele><time>2026-04-19T09:59:58.999Z</time></trkpt><trkpt lat="42.06808566004542" lon="11.922858728687824"><ele>196.49999999999997</ele><time>2026-04-19T10:00:00.999Z</time></trkpt><trkpt lat="42.067982518490176" lon="11.922894119499999"><ele>194.0</ele><time>2026-04-19T10:00:02.999Z</time></trkpt><trkpt lat="42.06789923229291" lon="11.922918350961725"><ele>191.5</ele><time>2026-04-19T10:00:04.999Z</time></trkpt><trkpt lat="42.067811156703705" lon="11.922954300127058"><ele>189.0</ele><time>2026-04-19T10:00:06.999Z</time></trkpt><trkpt lat="42.06775104322883" lon="11.922979506784904"><ele>186.5</ele><time>2026-04-19T10:00:08.999Z</time></trkpt><trkpt lat="42.06771497246048" lon="11.92310681225612"><ele>184.0</ele><time>2026-04-19T10:00:10.999Z</time></trkpt><trkpt lat="42.06771917228864" lon="11.923207959907622"><ele>184.0</ele><time>2026-04-19T10:00:11.999Z</time></trkpt><trkpt lat="42.06768208970746" lon="11.923302446542257"><ele>184.0</ele><time>2026-04-19T10:00:13.999Z</time></trkpt><trkpt lat="42.067625327682116" lon="11.923395398408656"><ele>184.0</ele><time>2026-04-19T10:00:15.999Z</time></trkpt><trkpt lat="42.067553975662015" lon="11.923479098682394"><ele>184.0</ele><time>2026-04-19T10:00:18.999Z</time></trkpt><trkpt lat="42.06749376355771" lon="11.923519409000063"><ele>184.0</ele><time>2026-04-19T10:00:21.999Z</time></trkpt><trkpt lat="42.067428507102285" lon="11.92353663730135"><ele>184.0</ele><time>2026-04-19T10:00:24.999Z</time></trkpt><trkpt lat="42.06735745853261" lon="11.923499405678132"><ele>182.0</ele><time>2026-04-19T10:00:26.999Z</time></trkpt><trkpt lat="42.06727897633893" lon="11.923486962652904"><ele>180.0</ele><time>2026-04-19T10:00:28.999Z</time></trkpt><trkpt lat="42.06722809475665" lon="11.923433066045474"><ele>178.0</ele><time>2026-04-19T10:00:30.999Z</time></trkpt><trkpt lat="42.0671813900659" lon="11.923355354300522"><ele>176.0</ele><time>2026-04-19T10:00:32.999Z</time></trkpt><trkpt lat="42.06709167845512" lon="11.923304598072367"><ele>174.0</ele><time>2026-04-19T10:00:35.999Z</time></trkpt><trkpt lat="42.06703703376081" lon="11.923259778038178"><ele>172.0</ele><time>2026-04-19T10:00:36.999Z</time></trkpt><trkpt lat="42.0669499938787" lon="11.923147127339552"><ele>172.0</ele><time>2026-04-19T10:00:38.999Z</time></trkpt><trkpt lat="42.06685389630871" lon="11.923068202922623"><ele>172.0</ele><time>2026-04-19T10:00:40.999Z</time></trkpt><trkpt lat="42.066789358327746" lon="11.923050025887783"><ele>172.0</ele><time>2026-04-19T10:00:41.999Z</time></trkpt><trkpt lat="42.0666665977625" lon="11.923023897712097"><ele>172.0</ele><time>2026-04-19T10:00:43.999Z</time></trkpt><trkpt lat="42.066568237869014" lon="11.923009901219817"><ele>172.0</ele><time>2026-04-19T10:00:45.999Z</time></trkpt><trkpt lat="42.06650274278259" lon="11.923043207257383"><ele>172.66666666666669</ele><time>2026-04-19T10:01:00Z</time></trkpt><trkpt lat="42.06642165428187" lon="11.92306780280748"><ele>173.33333333333334</ele><time>2026-04-19T10:01:03Z</time></trkpt><trkpt lat="42.06644853185539" lon="11.922983723663716"><ele>174.0</ele><time>2026-04-19T10:01:13Z</time></trkpt><trkpt lat="42.06638901401079" lon="11.923038852902215"><ele>174.66666666666666</ele><time>2026-04-19T10:01:39Z</time></trkpt><trkpt lat="42.066312146020906" lon="11.923042206743707"><ele>175.33333333333331</ele><time>2026-04-19T10:01:41Z</time></trkpt><trkpt lat="42.06623833221927" lon="11.923094487649287"><ele>176.0</ele><time>2026-04-19T10:01:43Z</time></trkpt><trkpt lat="42.066170653437844" lon="11.923157247256873"><ele>176.0</ele><time>2026-04-19T10:01:44Z</time></trkpt><trkpt lat="42.0660692162252" lon="11.92316319645703"><ele>176.0</ele><time>2026-04-19T10:01:49Z</time></trkpt><trkpt lat="42.06598206466962" lon="11.923220085126669"><ele>176.0</ele><time>2026-04-19T10:01:52Z</time></trkpt><trkpt lat="42.06590515900785" lon="11.92322412097691"><ele>176.0</ele><time>2026-04-19T10:01:56Z</time></trkpt><trkpt lat="42.06584361762966" lon="11.923200901157749"><ele>176.0</ele><time>2026-04-19T10:02:03.999Z</time></trkpt><trkpt lat="42.06577936522021" lon="11.923193426675473"><ele>176.0</ele><time>2026-04-19T10:02:27.999Z</time></trkpt><trkpt lat="42.065723244149964" lon="11.92323694369919"><ele>175.33333333333331</ele><time>2026-04-19T10:02:34.999Z</time></trkpt><trkpt lat="42.06574501875177" lon="11.923321633941192"><ele>174.66666666666666</ele><time>2026-04-19T10:02:43.999Z</time></trkpt><trkpt lat="42.06570209772876" lon="11.923427799415586"><ele>174.0</ele><time>2026-04-19T10:03:06Z</time></trkpt><trkpt lat="42.065623675758154" lon="11.923476570444091"><ele>173.33333333333334</ele><time>2026-04-19T10:03:08Z</time></trkpt><trkpt lat="42.06550994506161" lon="11.923553408468123"><ele>172.66666666666669</ele><time>2026-04-19T10:03:10Z</time></trkpt><trkpt lat="42.06543457537623" lon="11.923579158263353"><ele>172.0</ele><time>2026-04-19T10:03:11Z</time></trkpt><trkpt lat="42.06535745330891" lon="11.923606505380093"><ele>172.0</ele><time>2026-04-19T10:03:12Z</time></trkpt><trkpt lat="42.06528935873377" lon="11.923658657533604"><ele>172.0</ele><time>2026-04-19T10:03:13Z</time></trkpt><trkpt lat="42.06517908215211" lon="11.923731183244158"><ele>172.0</ele><time>2026-04-19T10:03:15Z</time></trkpt><trkpt lat="42.06511939475825" lon="11.923776497423956"><ele>172.0</ele><time>2026-04-19T10:03:16Z</time></trkpt><trkpt lat="42.06507136931112" lon="11.923856423914955"><ele>172.0</ele><time>2026-04-19T10:03:17Z</time></trkpt><trkpt lat="42.06502033178926" lon="11.923916922007736"><ele>172.0</ele><time>2026-04-19T10:03:18Z</time></trkpt><trkpt lat="42.064915784780275" lon="11.923992915440348"><ele>172.2857142857143</ele><time>2026-04-19T10:03:20Z</time></trkpt><trkpt lat="42.06484443199172" lon="11.924009217969566"><ele>172.57142857142858</ele><time>2026-04-19T10:03:21Z</time></trkpt><trkpt lat="42.064782797871814" lon="11.924044492964564"><ele>172.85714285714286</ele><time>2026-04-19T10:03:22Z</time></trkpt><trkpt lat="42.064712396992284" lon="11.924076029642679"><ele>173.14285714285717</ele><time>2026-04-19T10:03:24Z</time></trkpt><trkpt lat="42.064640430378915" lon="11.924127039624663"><ele>173.42857142857144</ele><time>2026-04-19T10:03:27Z</time></trkpt><trkpt lat="42.064574296935064" lon="11.92412447270416"><ele>173.71428571428572</ele><time>2026-04-19T10:03:31Z</time></trkpt><trkpt lat="42.06450849692183" lon="11.924156496467504"><ele>174.0</ele><time>2026-04-19T10:03:34Z</time></trkpt><trkpt lat="42.06442903640205" lon="11.924203995035883"><ele>174.0</ele><time>2026-04-19T10:03:36Z</time></trkpt><trkpt lat="42.06432681492267" lon="11.924174332475063"><ele>174.0</ele><time>2026-04-19T10:03:38Z</time></trkpt><trkpt lat="42.06421129819081" lon="11.924188124845212"><ele>174.0</ele><time>2026-04-19T10:03:40Z</time></trkpt><trkpt lat="42.06414384563637" lon="11.92419540850141"><ele>174.0</ele><time>2026-04-19T10:03:41Z</time></trkpt><trkpt lat="42.0640222859324" lon="11.924233194290837"><ele>174.0</ele><time>2026-04-19T10:03:43Z</time></trkpt><trkpt lat="42.06394869189508" lon="11.92426765549996"><ele>175.0</ele><time>2026-04-19T10:03:44Z</time></trkpt><trkpt lat="42.06387868792765" lon="11.924307330742066"><ele>176.0</ele><time>2026-04-19T10:03:45Z</time></trkpt><trkpt lat="42.063793037454644" lon="11.924356896949051"><ele>177.0</ele><time>2026-04-19T10:03:46Z</time></trkpt><trkpt lat="42.06371461423738" lon="11.924393622910689"><ele>178.0</ele><time>2026-04-19T10:03:47Z</time></trkpt><trkpt lat="42.06364657646019" lon="11.924431563892695"><ele>179.0</ele><time>2026-04-19T10:03:48Z</time></trkpt><trkpt lat="42.063579736439166" lon="11.924481229207641"><ele>180.0</ele><time>2026-04-19T10:03:49Z</time></trkpt><trkpt lat="42.063505883882875" lon="11.924512892748902"><ele>180.0</ele><time>2026-04-19T10:03:50Z</time></trkpt><trkpt lat="42.06342742469226" lon="11.924523784404684"><ele>180.0</ele><time>2026-04-19T10:03:51Z</time></trkpt><trkpt lat="42.06335765118689" lon="11.92453616165321"><ele>180.0</ele><time>2026-04-19T10:03:52Z</time></trkpt><trkpt lat="42.06329087971219" lon="11.924561194719791"><ele>180.0</ele><time>2026-04-19T10:03:53Z</time></trkpt><trkpt lat="42.063221471172646" lon="11.924566957535514"><ele>180.0</ele><time>2026-04-19T10:03:54Z</time></trkpt><trkpt lat="42.06309082137815" lon="11.92451202756725"><ele>180.0</ele><time>2026-04-19T10:03:56Z</time></trkpt><trkpt lat="42.06300787389817" lon="11.924481798886841"><ele>180.0</ele><time>2026-04-19T10:03:57Z</time></trkpt><trkpt lat="42.06293716651516" lon="11.924498433943839"><ele>180.0</ele><time>2026-04-19T10:03:58Z</time></trkpt><trkpt lat="42.062874198923105" lon="11.92449352989135"><ele>180.0</ele><time>2026-04-19T10:03:59Z</time></trkpt><trkpt lat="42.06279888269782" lon="11.924503590380095"><ele>180.0</ele><time>2026-04-19T10:04:00Z</time></trkpt><trkpt lat="42.06272345635384" lon="11.924527980366294"><ele>180.0</ele><time>2026-04-19T10:04:01Z</time></trkpt><trkpt lat="42.06265909601024" lon="11.924512305048857"><ele>180.0</ele><time>2026-04-19T10:04:02Z</time></trkpt><trkpt lat="42.0625622493452" lon="11.924496633979587"><ele>180.0</ele><time>2026-04-19T10:04:04Z</time></trkpt><trkpt lat="42.06245098727924" lon="11.924481166105382"><ele>180.0</ele><time>2026-04-19T10:04:05.999Z</time></trkpt><trkpt lat="42.06237373083371" lon="11.92445884894411"><ele>180.0</ele><time>2026-04-19T10:04:06.999Z</time></trkpt><trkpt lat="42.06225993667356" lon="11.924463655500201"><ele>180.0</ele><time>2026-04-19T10:04:08.999Z</time></trkpt><trkpt lat="42.062167603950066" lon="11.924481026745514"><ele>180.0</ele><time>2026-04-19T10:04:10.999Z</time></trkpt><trkpt lat="42.06204836457887" lon="11.924466873423148"><ele>180.16666666666666</ele><time>2026-04-19T10:04:12.999Z</time></trkpt><trkpt lat="42.06197699274917" lon="11.924464512588846"><ele>180.33333333333334</ele><time>2026-04-19T10:04:13.999Z</time></trkpt><trkpt lat="42.06190803634444" lon="11.924444891484095"><ele>180.5</ele><time>2026-04-19T10:04:14.999Z</time></trkpt><trkpt lat="42.061828392465365" lon="11.924433971359651"><ele>180.66666666666669</ele><time>2026-04-19T10:04:15.999Z</time></trkpt><trkpt lat="42.06176243550724" lon="11.92442991500795"><ele>180.83333333333334</ele><time>2026-04-19T10:04:16.999Z</time></trkpt><trkpt lat="42.06169930631381" lon="11.924419703343858"><ele>181.0</ele><time>2026-04-19T10:04:17.999Z</time></trkpt><trkpt lat="42.06159945531768" lon="11.924357636081796"><ele>181.0</ele><time>2026-04-19T10:04:19.999Z</time></trkpt><trkpt lat="42.06155636108133" lon="11.9242896157636"><ele>181.0</ele><time>2026-04-19T10:04:20.999Z</time></trkpt><trkpt lat="42.06150585760007" lon="11.92423542297957"><ele>181.0</ele><time>2026-04-19T10:04:21.999Z</time></trkpt><trkpt lat="42.06138636660208" lon="11.924190547141057"><ele>181.0</ele><time>2026-04-19T10:04:23.999Z</time></trkpt><trkpt lat="42.06131815661769" lon="11.924159888950047"><ele>181.0</ele><time>2026-04-19T10:04:24.999Z</time></trkpt><trkpt lat="42.06125029418339" lon="11.924111448155182"><ele>181.0</ele><time>2026-04-19T10:04:25.999Z</time></trkpt><trkpt lat="42.0611486005755" lon="11.924053263793054"><ele>178.5</ele><time>2026-04-19T10:04:27.999Z</time></trkpt><trkpt lat="42.06106552909188" lon="11.923994349251394"><ele>176.0</ele><time>2026-04-19T10:04:29.999Z</time></trkpt><trkpt lat="42.06097988447322" lon="11.924009425193823"><ele>173.5</ele><time>2026-04-19T10:04:32.999Z</time></trkpt><trkpt lat="42.06086655229798" lon="11.924086044497033"><ele>171.0</ele><time>2026-04-19T10:04:34.999Z</time></trkpt><trkpt lat="42.0607994354939" lon="11.924097553876521"><ele>168.5</ele><time>2026-04-19T10:04:35.999Z</time></trkpt><trkpt lat="42.06073794114618" lon="11.924123977352508"><ele>166.0</ele><time>2026-04-19T10:04:36.999Z</time></trkpt><trkpt lat="42.06064104895175" lon="11.92417053902881"><ele>165.4</ele><time>2026-04-19T10:04:38.999Z</time></trkpt><trkpt lat="42.060551045348156" lon="11.924214177949082"><ele>164.8</ele><time>2026-04-19T10:04:40.999Z</time></trkpt><trkpt lat="42.06045557006748" lon="11.924285537080397"><ele>164.20000000000002</ele><time>2026-04-19T10:04:42.999Z</time></trkpt><trkpt lat="42.06036753169512" lon="11.924333554571001"><ele>163.60000000000002</ele><time>2026-04-19T10:04:44.999Z</time></trkpt><trkpt lat="42.060304884753144" lon="11.92435626244859"><ele>163.0</ele><time>2026-04-19T10:04:45.999Z</time></trkpt><trkpt lat="42.060204662149175" lon="11.92440540999576"><ele>164.25</ele><time>2026-04-19T10:04:47.999Z</time></trkpt><trkpt lat="42.06006695981685" lon="11.92433706739659"><ele>165.5</ele><time>2026-04-19T10:04:49.999Z</time></trkpt><trkpt lat="42.059950178677056" lon="11.924249539483005"><ele>166.75</ele><time>2026-04-19T10:04:50.999Z</time></trkpt><trkpt lat="42.05985546297057" lon="11.924200325532167"><ele>168.0</ele><time>2026-04-19T10:04:51.999Z</time></trkpt><trkpt lat="42.059783047487464" lon="11.924159858776804"><ele>168.0</ele><time>2026-04-19T10:04:52.999Z</time></trkpt><trkpt lat="42.05972450188447" lon="11.924106781681926"><ele>168.0</ele><time>2026-04-19T10:04:53.999Z</time></trkpt><trkpt lat="42.059661650071746" lon="11.924044444303972"><ele>168.0</ele><time>2026-04-19T10:04:55.999Z</time></trkpt><trkpt lat="42.05960492840479" lon="11.923964271986868"><ele>168.0</ele><time>2026-04-19T10:04:57.999Z</time></trkpt><trkpt lat="42.05954463693557" lon="11.923869595543756"><ele>168.0</ele><time>2026-04-19T10:04:59.999Z</time></trkpt><trkpt lat="42.05945845126267" lon="11.923717174839409"><ele>168.0</ele><time>2026-04-19T10:05:01.999Z</time></trkpt><trkpt lat="42.05940482474993" lon="11.923562525559506"><ele>168.0</ele><time>2026-04-19T10:05:03.999Z</time></trkpt><trkpt lat="42.059318868546505" lon="11.92340542182823"><ele>168.0</ele><time>2026-04-19T10:05:06Z</time></trkpt><trkpt lat="42.059215384457545" lon="11.923350046205021"><ele>168.0</ele><time>2026-04-19T10:05:08Z</time></trkpt><trkpt lat="42.05914256283659" lon="11.923351922707235"><ele>168.0</ele><time>2026-04-19T10:05:09Z</time></trkpt><trkpt lat="42.059013096820166" lon="11.923353201278942"><ele>168.0</ele><time>2026-04-19T10:05:11Z</time></trkpt><trkpt lat="42.05893697014624" lon="11.923349169189441"><ele>168.0</ele><time>2026-04-19T10:05:12Z</time></trkpt><trkpt lat="42.05886739139945" lon="11.92337012101679"><ele>168.0</ele><time>2026-04-19T10:05:13Z</time></trkpt><trkpt lat="42.0587252263571" lon="11.923404411097529"><ele>168.0</ele><time>2026-04-19T10:05:15Z</time></trkpt><trkpt lat="42.05865298084551" lon="11.923424214837617"><ele>168.0</ele><time>2026-04-19T10:05:16Z</time></trkpt><trkpt lat="42.05855801487108" lon="11.923393752526787"><ele>168.0</ele><time>2026-04-19T10:05:18Z</time></trkpt><trkpt lat="42.05844789350592" lon="11.92339693317124"><ele>168.0</ele><time>2026-04-19T10:05:20Z</time></trkpt><trkpt lat="42.05837811589948" lon="11.923414605805553"><ele>168.0</ele><time>2026-04-19T10:05:21Z</time></trkpt><trkpt lat="42.058297048262844" lon="11.92342615161453"><ele>168.0</ele><time>2026-04-19T10:05:22Z</time></trkpt><trkpt lat="42.05821115440146" lon="11.923437785430638"><ele>168.0</ele><time>2026-04-19T10:05:23Z</time></trkpt><trkpt lat="42.05813594241807" lon="11.923462418681813"><ele>165.8</ele><time>2026-04-19T10:05:24Z</time></trkpt><trkpt lat="42.05805822479003" lon="11.923520300408073"><ele>163.60000000000002</ele><time>2026-04-19T10:05:25Z</time></trkpt><trkpt lat="42.05795107344306" lon="11.923569046232787"><ele>161.39999999999998</ele><time>2026-04-19T10:05:27Z</time></trkpt><trkpt lat="42.05784394962827" lon="11.923513652720255"><ele>159.2</ele><time>2026-04-19T10:05:29Z</time></trkpt><trkpt lat="42.057738720463526" lon="11.923517527859847"><ele>157.0</ele><time>2026-04-19T10:05:31Z</time></trkpt><trkpt lat="42.05760708024922" lon="11.92357682008183"><ele>157.0</ele><time>2026-04-19T10:05:36Z</time></trkpt><trkpt lat="42.05745788744111" lon="11.923642165834128"><ele>157.0</ele><time>2026-04-19T10:05:39Z</time></trkpt><trkpt lat="42.057348876107405" lon="11.923660389113227"><ele>157.0</ele><time>2026-04-19T10:05:40Z</time></trkpt><trkpt lat="42.05726309827714" lon="11.92367734070324"><ele>157.0</ele><time>2026-04-19T10:05:41Z</time></trkpt><trkpt lat="42.05715060997977" lon="11.923661524647663"><ele>155.4</ele><time>2026-04-19T10:05:43Z</time></trkpt><trkpt lat="42.05708125700498" lon="11.92369085355663"><ele>153.79999999999998</ele><time>2026-04-19T10:05:47Z</time></trkpt><trkpt lat="42.05701688166088" lon="11.923681220639526"><ele>152.2</ele><time>2026-04-19T10:05:49Z</time></trkpt><trkpt lat="42.056898472655504" lon="11.923669083956694"><ele>150.6</ele><time>2026-04-19T10:05:51Z</time></trkpt><trkpt lat="42.056802217487146" lon="11.923644015509577"><ele>149.0</ele><time>2026-04-19T10:05:52Z</time></trkpt><trkpt lat="42.056694788906654" lon="11.923621857612387"><ele>147.8</ele><time>2026-04-19T10:05:53Z</time></trkpt><trkpt lat="42.05658857482052" lon="11.923605721269482"><ele>146.60000000000002</ele><time>2026-04-19T10:05:54Z</time></trkpt><trkpt lat="42.0565113724864" lon="11.923567900556481"><ele>145.4</ele><time>2026-04-19T10:05:55Z</time></trkpt><trkpt lat="42.0564301102154" lon="11.923552104365575"><ele>144.20000000000002</ele><time>2026-04-19T10:05:56Z</time></trkpt><trkpt lat="42.05632949214005" lon="11.923529683083991"><ele>143.0</ele><time>2026-04-19T10:05:58Z</time></trkpt><trkpt lat="42.056238900923056" lon="11.923423336603879"><ele>141.0</ele><time>2026-04-19T10:06:00Z</time></trkpt><trkpt lat="42.05611864158052" lon="11.923394566284449"><ele>139.0</ele><time>2026-04-19T10:06:02Z</time></trkpt><trkpt lat="42.0560383699245" lon="11.923391434234436"><ele>137.0</ele><time>2026-04-19T10:06:03Z</time></trkpt><trkpt lat="42.05597138419114" lon="11.92338162301334"><ele>135.0</ele><time>2026-04-19T10:06:04Z</time></trkpt><trkpt lat="42.055901086645285" lon="11.923372330883627"><ele>133.0</ele><time>2026-04-19T10:06:05Z</time></trkpt><trkpt lat="42.05582562806774" lon="11.923354793011175"><ele>131.0</ele><time>2026-04-19T10:06:06Z</time></trkpt><trkpt lat="42.0557558635568" lon="11.923350347157543"><ele>130.42857142857144</ele><time>2026-04-19T10:06:07Z</time></trkpt><trkpt lat="42.0556869435426" lon="11.923341382496254"><ele>129.85714285714286</ele><time>2026-04-19T10:06:08Z</time></trkpt><trkpt lat="42.05562028308692" lon="11.923336101430372"><ele>129.28571428571428</ele><time>2026-04-19T10:06:09Z</time></trkpt><trkpt lat="42.05555334669871" lon="11.923326270895389"><ele>128.71428571428572</ele><time>2026-04-19T10:06:10Z</time></trkpt><trkpt lat="42.055493964513225" lon="11.923281869399922"><ele>128.14285714285714</ele><time>2026-04-19T10:06:11Z</time></trkpt><trkpt lat="42.05544481877305" lon="11.923227501696832"><ele>127.57142857142858</ele><time>2026-04-19T10:06:12Z</time></trkpt><trkpt lat="42.05537243279742" lon="11.923180639902364"><ele>127.0</ele><time>2026-04-19T10:06:13.999Z</time></trkpt><trkpt lat="42.055293410092276" lon="11.92307424485064"><ele>127.0</ele><time>2026-04-19T10:06:15.999Z</time></trkpt><trkpt lat="42.05522115375957" lon="11.923049391452368"><ele>126.99999999999999</ele><time>2026-04-19T10:06:17.999Z</time></trkpt><trkpt lat="42.05512429664658" lon="11.923108230850401"><ele>126.99999999999999</ele><time>2026-04-19T10:06:19.999Z</time></trkpt><trkpt lat="42.05505613113819" lon="11.923091515462776"><ele>127.0</ele><time>2026-04-19T10:06:20.999Z</time></trkpt><trkpt lat="42.05493337666178" lon="11.923011411527211"><ele>127.0</ele><time>2026-04-19T10:06:22.999Z</time></trkpt><trkpt lat="42.054852244586044" lon="11.922988507965098"><ele>123.39999999999999</ele><time>2026-04-19T10:06:23.999Z</time></trkpt><trkpt lat="42.05473686139027" lon="11.922906084774539"><ele>119.79999999999998</ele><time>2026-04-19T10:06:25.999Z</time></trkpt><trkpt lat="42.054625967750106" lon="11.922832514547666"><ele>116.2</ele><time>2026-04-19T10:06:27.999Z</time></trkpt><trkpt lat="42.054566197153676" lon="11.922708580614797"><ele>112.6</ele><time>2026-04-19T10:06:29.999Z</time></trkpt><trkpt lat="42.0545105720158" lon="11.922655583521756"><ele>109.0</ele><time>2026-04-19T10:06:30.999Z</time></trkpt><trkpt lat="42.054454400056265" lon="11.922606967628978"><ele>109.0</ele><time>2026-04-19T10:06:31.999Z</time></trkpt><trkpt lat="42.054393795917925" lon="11.922478503104236"><ele>109.0</ele><time>2026-04-19T10:06:33.999Z</time></trkpt><trkpt lat="42.05431569909779" lon="11.922447540791287"><ele>109.0</ele><time>2026-04-19T10:06:35.999Z</time></trkpt><trkpt lat="42.05426974118668" lon="11.922572732179182"><ele>109.0</ele><time>2026-04-19T10:06:37.999Z</time></trkpt><trkpt lat="42.054292131787335" lon="11.922684882486207"><ele>109.0</ele><time>2026-04-19T10:06:43.999Z</time></trkpt><trkpt lat="42.05428462147383" lon="11.922773532536773"><ele>109.0</ele><time>2026-04-19T10:06:45.999Z</time></trkpt><trkpt lat="42.05425924777841" lon="11.92289038683907"><ele>109.0</ele><time>2026-04-19T10:06:48.999Z</time></trkpt><trkpt lat="42.05428288575968" lon="11.923002198669526"><ele>109.0</ele><time>2026-04-19T10:06:50.999Z</time></trkpt><trkpt lat="42.05430716633079" lon="11.923086413902595"><ele>109.0</ele><time>2026-04-19T10:06:51.999Z</time></trkpt><trkpt lat="42.05434407589866" lon="11.923211937759826"><ele>109.0</ele><time>2026-04-19T10:06:53.999Z</time></trkpt><trkpt lat="42.054375089135306" lon="11.923362310746429"><ele>107.5</ele><time>2026-04-19T10:06:55.999Z</time></trkpt><trkpt lat="42.054396840332906" lon="11.923514204471205"><ele>106.0</ele><time>2026-04-19T10:06:57.999Z</time></trkpt><trkpt lat="42.05437504767406" lon="11.923653241122231"><ele>104.5</ele><time>2026-04-19T10:06:59.999Z</time></trkpt><trkpt lat="42.054284655464436" lon="11.923807948776817"><ele>103.0</ele><time>2026-04-19T10:07:01.999Z</time></trkpt><trkpt lat="42.054191147167145" lon="11.923891933548786"><ele>98.60000000000001</ele><time>2026-04-19T10:07:03.999Z</time></trkpt><trkpt lat="42.054108294718624" lon="11.923974793451379"><ele>94.2</ele><time>2026-04-19T10:07:05.999Z</time></trkpt><trkpt lat="42.05403743986925" lon="11.924088719302764"><ele>89.8</ele><time>2026-04-19T10:07:07.999Z</time></trkpt><trkpt lat="42.05398275260503" lon="11.924242792588831"><ele>85.4</ele><time>2026-04-19T10:07:09.999Z</time></trkpt><trkpt lat="42.05395131206921" lon="11.924322412489776"><ele>81.0</ele><time>2026-04-19T10:07:10.999Z</time></trkpt><trkpt lat="42.0538974356743" lon="11.924438905449309"><ele>80.8</ele><time>2026-04-19T10:07:13Z</time></trkpt><trkpt lat="42.05384652057862" lon="11.92456573713775"><ele>80.6</ele><time>2026-04-19T10:07:15Z</time></trkpt><trkpt lat="42.05379129000007" lon="11.924627252719644"><ele>80.4</ele><time>2026-04-19T10:07:16Z</time></trkpt><trkpt lat="42.053739156842234" lon="11.924694004554624"><ele>80.2</ele><time>2026-04-19T10:07:17Z</time></trkpt><trkpt lat="42.05366039353279" lon="11.924806969756926"><ele>80.0</ele><time>2026-04-19T10:07:19Z</time></trkpt><trkpt lat="42.0536515317801" lon="11.924954278239545"><ele>79.4</ele><time>2026-04-19T10:07:21Z</time></trkpt><trkpt lat="42.053664857342696" lon="11.925112707212687"><ele>78.8</ele><time>2026-04-19T10:07:23Z</time></trkpt><trkpt lat="42.05364543194781" lon="11.925280484992765"><ele>78.2</ele><time>2026-04-19T10:07:25Z</time></trkpt><trkpt lat="42.053643062310826" lon="11.92537473619443"><ele>77.6</ele><time>2026-04-19T10:07:26Z</time></trkpt><trkpt lat="42.05363859619994" lon="11.925520526031914"><ele>77.0</ele><time>2026-04-19T10:07:28Z</time></trkpt><trkpt lat="42.05359871832003" lon="11.925600819952503"><ele>77.0</ele><time>2026-04-19T10:07:29Z</time></trkpt><trkpt lat="42.053520425492124" lon="11.925718313648353"><ele>77.0</ele><time>2026-04-19T10:07:31Z</time></trkpt><trkpt lat="42.053442132837716" lon="11.925825327999323"><ele>77.0</ele><time>2026-04-19T10:07:33Z</time></trkpt><trkpt lat="42.05338809752863" lon="11.925880048460638"><ele>77.0</ele><time>2026-04-19T10:07:35Z</time></trkpt><trkpt lat="42.0533227695696" lon="11.925915663333866"><ele>77.0</ele><time>2026-04-19T10:07:41Z</time></trkpt><trkpt lat="42.05325147526306" lon="11.925945021758698"><ele>77.0</ele><time>2026-04-19T10:07:44Z</time></trkpt><trkpt lat="42.053182011843575" lon="11.92596295252478"><ele>75.5</ele><time>2026-04-19T10:07:45Z</time></trkpt><trkpt lat="42.05312770775318" lon="11.926008377199558"><ele>74.0</ele><time>2026-04-19T10:07:46Z</time></trkpt><trkpt lat="42.05301421674069" lon="11.926038137032458"><ele>72.5</ele><time>2026-04-19T10:07:48Z</time></trkpt><trkpt lat="42.05294716188712" lon="11.926046051305686"><ele>71.0</ele><time>2026-04-19T10:07:49Z</time></trkpt><trkpt lat="42.05288375332805" lon="11.926045794196712"><ele>69.5</ele><time>2026-04-19T10:07:50Z</time></trkpt><trkpt lat="42.052766247505225" lon="11.926073608016484"><ele>68.0</ele><time>2026-04-19T10:07:52Z</time></trkpt><trkpt lat="42.052695115831206" lon="11.92606754335709"><ele>67.99999999999999</ele><time>2026-04-19T10:07:53Z</time></trkpt><trkpt lat="42.05262437919387" lon="11.926058326451086"><ele>68.0</ele><time>2026-04-19T10:07:54Z</time></trkpt><trkpt lat="42.05254384903216" lon="11.92606542277402"><ele>68.0</ele><time>2026-04-19T10:07:55Z</time></trkpt><trkpt lat="42.05247247919345" lon="11.926073135726465"><ele>68.0</ele><time>2026-04-19T10:07:56Z</time></trkpt><trkpt lat="42.05240312991368" lon="11.926073576744313"><ele>68.0</ele><time>2026-04-19T10:07:57Z</time></trkpt><trkpt lat="42.05232946735961" lon="11.926076875460517"><ele>67.99999999999999</ele><time>2026-04-19T10:07:58Z</time></trkpt><trkpt lat="42.05226252561832" lon="11.926076681190064"><ele>68.0</ele><time>2026-04-19T10:07:59Z</time></trkpt><trkpt lat="42.05218838623324" lon="11.926073770872463"><ele>66.5</ele><time>2026-04-19T10:08:00Z</time></trkpt><trkpt lat="42.05211907842507" lon="11.926064231577964"><ele>65.0</ele><time>2026-04-19T10:08:01Z</time></trkpt><trkpt lat="42.05203102350258" lon="11.926055147944984"><ele>63.5</ele><time>2026-04-19T10:08:02Z</time></trkpt><trkpt lat="42.0519430580654" lon="11.926043539753449"><ele>62.0</ele><time>2026-04-19T10:08:03Z</time></trkpt><trkpt lat="42.0518653563585" lon="11.926040363588243"><ele>60.50000000000001</ele><time>2026-04-19T10:08:04Z</time></trkpt><trkpt lat="42.05178874971539" lon="11.926046582127773"><ele>59.0</ele><time>2026-04-19T10:08:05Z</time></trkpt><trkpt lat="42.051709662324456" lon="11.926043943426523"><ele>59.00000000000001</ele><time>2026-04-19T10:08:06Z</time></trkpt><trkpt lat="42.05163885063995" lon="11.926026692610153"><ele>59.0</ele><time>2026-04-19T10:08:07Z</time></trkpt><trkpt lat="42.05156387196657" lon="11.92601511656092"><ele>59.0</ele><time>2026-04-19T10:08:08Z</time></trkpt><trkpt lat="42.05149050295755" lon="11.926013153675544"><ele>59.0</ele><time>2026-04-19T10:08:09Z</time></trkpt><trkpt lat="42.051399748958964" lon="11.926016431469684"><ele>59.00000000000001</ele><time>2026-04-19T10:08:10Z</time></trkpt><trkpt lat="42.051320262288066" lon="11.926013310207365"><ele>59.0</ele><time>2026-04-19T10:08:11Z</time></trkpt><trkpt lat="42.05123809296103" lon="11.926009568065503"><ele>57.833333333333336</ele><time>2026-04-19T10:08:12Z</time></trkpt><trkpt lat="42.05114798686722" lon="11.926003462106843"><ele>56.66666666666667</ele><time>2026-04-19T10:08:13Z</time></trkpt><trkpt lat="42.05106088407583" lon="11.926003577276022"><ele>55.5</ele><time>2026-04-19T10:08:14Z</time></trkpt><trkpt lat="42.050976498290986" lon="11.925991627378231"><ele>54.33333333333333</ele><time>2026-04-19T10:08:15Z</time></trkpt><trkpt lat="42.05089017966276" lon="11.92598069191486"><ele>53.166666666666664</ele><time>2026-04-19T10:08:15.999Z</time></trkpt><trkpt lat="42.050800730388744" lon="11.92598435430375"><ele>52.0</ele><time>2026-04-19T10:08:16.999Z</time></trkpt><trkpt lat="42.05071378143539" lon="11.925977537416795"><ele>50.2</ele><time>2026-04-19T10:08:17.999Z</time></trkpt><trkpt lat="42.05061562289725" lon="11.925974821807106"><ele>48.400000000000006</ele><time>2026-04-19T10:08:18.999Z</time></trkpt><trkpt lat="42.05051665663447" lon="11.92596985726941"><ele>46.599999999999994</ele><time>2026-04-19T10:08:19.999Z</time></trkpt><trkpt lat="42.05041572529018" lon="11.925960725686817"><ele>44.8</ele><time>2026-04-19T10:08:20.999Z</time></trkpt><trkpt lat="42.05032281680365" lon="11.925947672542048"><ele>43.0</ele><time>2026-04-19T10:08:21.999Z</time></trkpt><trkpt lat="42.050228777612936" lon="11.925934992176659"><ele>43.0</ele><time>2026-04-19T10:08:22.999Z</time></trkpt><trkpt lat="42.050126826472514" lon="11.925924153282699"><ele>43.0</ele><time>2026-04-19T10:08:23.999Z</time></trkpt><trkpt lat="42.05003255458934" lon="11.925907979160273"><ele>43.0</ele><time>2026-04-19T10:08:24.999Z</time></trkpt><trkpt lat="42.049933491668206" lon="11.925892048273608"><ele>43.0</ele><time>2026-04-19T10:08:25.999Z</time></trkpt><trkpt lat="42.049838153084565" lon="11.925878050175056"><ele>43.0</ele><time>2026-04-19T10:08:26.999Z</time></trkpt><trkpt lat="42.049737087904084" lon="11.925862098475784"><ele>42.4</ele><time>2026-04-19T10:08:27.999Z</time></trkpt><trkpt lat="42.04963206712561" lon="11.925845890564716"><ele>41.8</ele><time>2026-04-19T10:08:28.999Z</time></trkpt><trkpt lat="42.049526656162136" lon="11.925834789523078"><ele>41.2</ele><time>2026-04-19T10:08:29.999Z</time></trkpt><trkpt lat="42.04941299000292" lon="11.925833236051258"><ele>40.6</ele><time>2026-04-19T10:08:30.999Z</time></trkpt><trkpt lat="42.049290907299465" lon="11.925827731061126"><ele>40.0</ele><time>2026-04-19T10:08:31.999Z</time></trkpt><trkpt lat="42.04918178409159" lon="11.925821457433969"><ele>39.5</ele><time>2026-04-19T10:08:32.999Z</time></trkpt><trkpt lat="42.049083632359334" lon="11.925810680149368"><ele>39.0</ele><time>2026-04-19T10:08:33.999Z</time></trkpt><trkpt lat="42.04899654581696" lon="11.925798815439558"><ele>38.5</ele><time>2026-04-19T10:08:34.999Z</time></trkpt><trkpt lat="42.04892074826227" lon="11.925790580667828"><ele>38.0</ele><time>2026-04-19T10:08:35.999Z</time></trkpt><trkpt lat="42.04883986359597" lon="11.925792282631027"><ele>37.5</ele><time>2026-04-19T10:08:36.999Z</time></trkpt><trkpt lat="42.04873895281449" lon="11.92578649883838"><ele>37.0</ele><time>2026-04-19T10:08:37.999Z</time></trkpt><trkpt lat="42.048640747902496" lon="11.925783791381031"><ele>37.0</ele><time>2026-04-19T10:08:38.999Z</time></trkpt><trkpt lat="42.04855423877259" lon="11.925774497500916"><ele>37.0</ele><time>2026-04-19T10:08:39.999Z</time></trkpt><trkpt lat="42.04846824345413" lon="11.92576111622339"><ele>37.0</ele><time>2026-04-19T10:08:40.999Z</time></trkpt><trkpt lat="42.048380503553176" lon="11.925750088017903"><ele>37.0</ele><time>2026-04-19T10:08:41.999Z</time></trkpt><trkpt lat="42.04829812459613" lon="11.92575136090499"><ele>37.0</ele><time>2026-04-19T10:08:42.999Z</time></trkpt><trkpt lat="42.04821541067611" lon="11.925750020660798"><ele>37.0</ele><time>2026-04-19T10:08:43.999Z</time></trkpt><trkpt lat="42.04813908046317" lon="11.925742876024676"><ele>35.6</ele><time>2026-04-19T10:08:44.999Z</time></trkpt><trkpt lat="42.04805222425216" lon="11.925738712531707"><ele>34.2</ele><time>2026-04-19T10:08:45.999Z</time></trkpt><trkpt lat="42.04795434936937" lon="11.925725946982034"><ele>32.8</ele><time>2026-04-19T10:08:46.999Z</time></trkpt><trkpt lat="42.047858245261146" lon="11.925712918325056"><ele>31.4</ele><time>2026-04-19T10:08:47.999Z</time></trkpt><trkpt lat="42.04777104052551" lon="11.925698942035387"><ele>30.0</ele><time>2026-04-19T10:08:48.999Z</time></trkpt><trkpt lat="42.047689627984894" lon="11.925686466731843"><ele>30.0</ele><time>2026-04-19T10:08:49.999Z</time></trkpt><trkpt lat="42.04761235015318" lon="11.925676447920685"><ele>30.0</ele><time>2026-04-19T10:08:50.999Z</time></trkpt><trkpt lat="42.04752540356091" lon="11.925667012003178"><ele>30.0</ele><time>2026-04-19T10:08:51.999Z</time></trkpt><trkpt lat="42.04744146110457" lon="11.925656548315423"><ele>30.0</ele><time>2026-04-19T10:08:52.999Z</time></trkpt><trkpt lat="42.047354116737075" lon="11.925646839510678"><ele>30.0</ele><time>2026-04-19T10:08:53.999Z</time></trkpt><trkpt lat="42.047267641303115" lon="11.925647274537354"><ele>30.0</ele><time>2026-04-19T10:08:54.999Z</time></trkpt><trkpt lat="42.04717960609569" lon="11.925638218332635"><ele>29.6</ele><time>2026-04-19T10:08:55.999Z</time></trkpt><trkpt lat="42.047088125625976" lon="11.925635231132308"><ele>29.2</ele><time>2026-04-19T10:08:56.999Z</time></trkpt><trkpt lat="42.04699394086161" lon="11.925619789507639"><ele>28.799999999999997</ele><time>2026-04-19T10:08:57.999Z</time></trkpt><trkpt lat="42.046905910571304" lon="11.925610723127468"><ele>28.4</ele><time>2026-04-19T10:08:58.999Z</time></trkpt><trkpt lat="42.046815829474184" lon="11.925611122099943"><ele>28.0</ele><time>2026-04-19T10:08:59.999Z</time></trkpt><trkpt lat="42.04672706691533" lon="11.925606279791808"><ele>28.000000000000004</ele><time>2026-04-19T10:09:00.999Z</time></trkpt><trkpt lat="42.04664510637268" lon="11.925609411564716"><ele>28.0</ele><time>2026-04-19T10:09:01.999Z</time></trkpt><trkpt lat="42.04656534143718" lon="11.925601692200118"><ele>28.0</ele><time>2026-04-19T10:09:02.999Z</time></trkpt><trkpt lat="42.046484747212716" lon="11.925590285562388"><ele>28.0</ele><time>2026-04-19T10:09:03.999Z</time></trkpt><trkpt lat="42.04640939284873" lon="11.925571446495193"><ele>28.000000000000004</ele><time>2026-04-19T10:09:04.999Z</time></trkpt><trkpt lat="42.04633426439155" lon="11.92555379972436"><ele>28.0</ele><time>2026-04-19T10:09:05.999Z</time></trkpt><trkpt lat="42.046260026540146" lon="11.925556913750604"><ele>28.000000000000004</ele><time>2026-04-19T10:09:06.999Z</time></trkpt><trkpt lat="42.04618503076704" lon="11.925576150864778"><ele>28.0</ele><time>2026-04-19T10:09:07.999Z</time></trkpt><trkpt lat="42.046101378544165" lon="11.925589088372163"><ele>28.0</ele><time>2026-04-19T10:09:08.999Z</time></trkpt><trkpt lat="42.04602966677502" lon="11.925588034507133"><ele>28.0</ele><time>2026-04-19T10:09:09.999Z</time></trkpt><trkpt lat="42.04594700562983" lon="11.92558597495247"><ele>28.000000000000004</ele><time>2026-04-19T10:09:10.999Z</time></trkpt><trkpt lat="42.04586003166627" lon="11.9254944548135"><ele>28.0</ele><time>2026-04-19T10:09:11.999Z</time></trkpt><trkpt lat="42.04574225388508" lon="11.925474048987033"><ele>27.4</ele><time>2026-04-19T10:09:12.999Z</time></trkpt><trkpt lat="42.04562805164261" lon="11.925458928968505"><ele>26.799999999999997</ele><time>2026-04-19T10:09:13.999Z</time></trkpt><trkpt lat="42.04553223857091" lon="11.925462211065296"><ele>26.2</ele><time>2026-04-19T10:09:14.999Z</time></trkpt><trkpt lat="42.045438307212166" lon="11.925449383874502"><ele>25.6</ele><time>2026-04-19T10:09:15.999Z</time></trkpt><trkpt lat="42.045346467726" lon="11.92544327083501"><ele>25.0</ele><time>2026-04-19T10:09:16.999Z</time></trkpt><trkpt lat="42.045265573847985" lon="11.925410289505729"><ele>25.000000000000004</ele><time>2026-04-19T10:09:18Z</time></trkpt><trkpt lat="42.04518676068823" lon="11.925399184396428"><ele>25.0</ele><time>2026-04-19T10:09:19Z</time></trkpt><trkpt lat="42.04511304086507" lon="11.92538879695692"><ele>25.0</ele><time>2026-04-19T10:09:20Z</time></trkpt><trkpt lat="42.04500611622029" lon="11.925395308518299"><ele>25.0</ele><time>2026-04-19T10:09:22Z</time></trkpt><trkpt lat="42.04494959668116" lon="11.925445330205983"><ele>25.000000000000004</ele><time>2026-04-19T10:10:23.999Z</time></trkpt><trkpt lat="42.044843173118345" lon="11.925439599278533"><ele>25.0</ele><time>2026-04-19T10:10:25.999Z</time></trkpt><trkpt lat="42.04476023747853" lon="11.925409976879973"><ele>24.8</ele><time>2026-04-19T10:10:26.999Z</time></trkpt><trkpt lat="42.044665543041" lon="11.925373535775002"><ele>24.6</ele><time>2026-04-19T10:10:27.999Z</time></trkpt><trkpt lat="42.04457626112449" lon="11.925352395495132"><ele>24.4</ele><time>2026-04-19T10:10:28.999Z</time></trkpt><trkpt lat="42.044478456203855" lon="11.925359816503839"><ele>24.2</ele><time>2026-04-19T10:10:29.999Z</time></trkpt><trkpt lat="42.04437859697243" lon="11.92537775105923"><ele>24.0</ele><time>2026-04-19T10:10:30.999Z</time></trkpt><trkpt lat="42.04427784012697" lon="11.925415932339046"><ele>24.0</ele><time>2026-04-19T10:10:31.999Z</time></trkpt><trkpt lat="42.04418308515807" lon="11.925442584011696"><ele>24.0</ele><time>2026-04-19T10:10:32.999Z</time></trkpt><trkpt lat="42.04409011054419" lon="11.925478096600964"><ele>24.0</ele><time>2026-04-19T10:10:33.999Z</time></trkpt><trkpt lat="42.044004763436035" lon="11.92550127297839"><ele>24.0</ele><time>2026-04-19T10:10:34.999Z</time></trkpt><trkpt lat="42.04392518960904" lon="11.92552938812516"><ele>24.0</ele><time>2026-04-19T10:10:35.999Z</time></trkpt><trkpt lat="42.04385489441492" lon="11.925544640434888"><ele>24.0</ele><time>2026-04-19T10:10:36.999Z</time></trkpt><trkpt lat="42.043791410690595" lon="11.92548455456805"><ele>23.333333333333332</ele><time>2026-04-19T10:10:37.999Z</time></trkpt><trkpt lat="42.043731662357935" lon="11.925443174994918"><ele>22.666666666666668</ele><time>2026-04-19T10:10:38.999Z</time></trkpt><trkpt lat="42.043659153256314" lon="11.925414988969308"><ele>22.0</ele><time>2026-04-19T10:10:39.999Z</time></trkpt><trkpt lat="42.04357418881752" lon="11.92537965021718"><ele>21.333333333333336</ele><time>2026-04-19T10:10:40.999Z</time></trkpt><trkpt lat="42.043478009449906" lon="11.925340003999533"><ele>20.666666666666668</ele><time>2026-04-19T10:10:41.999Z</time></trkpt><trkpt lat="42.04338784553861" lon="11.92530527069381"><ele>20.0</ele><time>2026-04-19T10:10:42.999Z</time></trkpt><trkpt lat="42.04330498538104" lon="11.925275076227726"><ele>19.666666666666668</ele><time>2026-04-19T10:10:43.999Z</time></trkpt><trkpt lat="42.04322440823949" lon="11.925245727942706"><ele>19.333333333333336</ele><time>2026-04-19T10:10:44.999Z</time></trkpt><trkpt lat="42.04314437670947" lon="11.9252315148755"><ele>19.0</ele><time>2026-04-19T10:10:45.999Z</time></trkpt><trkpt lat="42.0430609982016" lon="11.925198039683432"><ele>18.666666666666668</ele><time>2026-04-19T10:10:46.999Z</time></trkpt><trkpt lat="42.04296338194077" lon="11.92517714507773"><ele>18.333333333333332</ele><time>2026-04-19T10:10:47.999Z</time></trkpt><trkpt lat="42.04287374162043" lon="11.925164021748854"><ele>18.0</ele><time>2026-04-19T10:10:48.999Z</time></trkpt><trkpt lat="42.04278150596597" lon="11.92515485923746"><ele>18.0</ele><time>2026-04-19T10:10:49.999Z</time></trkpt><trkpt lat="42.04268599086001" lon="11.925154000359846"><ele>18.0</ele><time>2026-04-19T10:10:50.999Z</time></trkpt><trkpt lat="42.04258595240421" lon="11.925151526946808"><ele>18.0</ele><time>2026-04-19T10:10:51.999Z</time></trkpt><trkpt lat="42.04248656636201" lon="11.92513711960079"><ele>18.0</ele><time>2026-04-19T10:10:52.999Z</time></trkpt><trkpt lat="42.042386530730475" lon="11.925126377174255"><ele>18.0</ele><time>2026-04-19T10:10:53.999Z</time></trkpt><trkpt lat="42.04228468562499" lon="11.925133810057696"><ele>17.0</ele><time>2026-04-19T10:10:54.999Z</time></trkpt><trkpt lat="42.042183502158096" lon="11.925102830988223"><ele>16.0</ele><time>2026-04-19T10:10:55.999Z</time></trkpt><trkpt lat="42.04207224006807" lon="11.925094829902331"><ele>15.0</ele><time>2026-04-19T10:10:56.999Z</time></trkpt><trkpt lat="42.041973794797165" lon="11.925087750505506"><ele>14.0</ele><time>2026-04-19T10:10:57.999Z</time></trkpt><trkpt lat="42.04186698258409" lon="11.925079556575266"><ele>13.0</ele><time>2026-04-19T10:10:58.999Z</time></trkpt><trkpt lat="42.041761890878284" lon="11.92508848334903"><ele>13.25</ele><time>2026-04-19T10:10:59.999Z</time></trkpt><trkpt lat="42.04165359829234" lon="11.925061506449595"><ele>13.5</ele><time>2026-04-19T10:11:00.999Z</time></trkpt><trkpt lat="42.04154456476824" lon="11.925066451086693"><ele>13.75</ele><time>2026-04-19T10:11:01.999Z</time></trkpt><trkpt lat="42.04142651969399" lon="11.925055060945512"><ele>14.0</ele><time>2026-04-19T10:11:02.999Z</time></trkpt><trkpt lat="42.04130920579668" lon="11.925044705039586"><ele>13.5</ele><time>2026-04-19T10:11:03.999Z</time></trkpt><trkpt lat="42.04117986276073" lon="11.925036195078432"><ele>13.0</ele><time>2026-04-19T10:11:04.999Z</time></trkpt><trkpt lat="42.04103328824098" lon="11.925021503078115"><ele>12.5</ele><time>2026-04-19T10:11:05.999Z</time></trkpt><trkpt lat="42.04090840465554" lon="11.92501354209956"><ele>12.0</ele><time>2026-04-19T10:11:06.999Z</time></trkpt><trkpt lat="42.040788709794576" lon="11.925005335794049"><ele>11.2</ele><time>2026-04-19T10:11:07.999Z</time></trkpt><trkpt lat="42.04067414737496" lon="11.92499761881129"><ele>10.399999999999999</ele><time>2026-04-19T10:11:08.999Z</time></trkpt><trkpt lat="42.04056027614637" lon="11.924989503802486"><ele>9.600000000000001</ele><time>2026-04-19T10:11:09.999Z</time></trkpt><trkpt lat="42.04044739040131" lon="11.92498385016971"><ele>8.8</ele><time>2026-04-19T10:11:10.999Z</time></trkpt><trkpt lat="42.0403472084683" lon="11.924974146555233"><ele>8.0</ele><time>2026-04-19T10:11:11.999Z</time></trkpt><trkpt lat="42.04025658480489" lon="11.924947707265256"><ele>7.999999999999999</ele><time>2026-04-19T10:11:12.999Z</time></trkpt><trkpt lat="42.04017030913676" lon="11.924948059625908"><ele>8.0</ele><time>2026-04-19T10:11:13.999Z</time></trkpt><trkpt lat="42.040097548747106" lon="11.924978745105912"><ele>8.0</ele><time>2026-04-19T10:11:14.999Z</time></trkpt><trkpt lat="42.0400278916768" lon="11.925031533645033"><ele>8.0</ele><time>2026-04-19T10:11:15.999Z</time></trkpt><trkpt lat="42.03997778422648" lon="11.925112678740819"><ele>7.999999999999999</ele><time>2026-04-19T10:11:16.999Z</time></trkpt><trkpt lat="42.039936412241715" lon="11.925225246860542"><ele>8.0</ele><time>2026-04-19T10:11:17.999Z</time></trkpt><trkpt lat="42.039882609341475" lon="11.925359018220588"><ele>7.25</ele><time>2026-04-19T10:11:18.999Z</time></trkpt><trkpt lat="42.03983334287343" lon="11.925494839559462"><ele>6.5</ele><time>2026-04-19T10:11:19.999Z</time></trkpt><trkpt lat="42.03978639860139" lon="11.925634419819852"><ele>5.75</ele><time>2026-04-19T10:11:20.999Z</time></trkpt><trkpt lat="42.039737128979304" lon="11.92577772109315"><ele>5.0</ele><time>2026-04-19T10:11:21.999Z</time></trkpt><trkpt lat="42.03968082697914" lon="11.925926793353135"><ele>5.0</ele><time>2026-04-19T10:11:22.999Z</time></trkpt><trkpt lat="42.03963171336671" lon="11.926069614831611"><ele>5.0</ele><time>2026-04-19T10:11:24Z</time></trkpt><trkpt lat="42.03959316166011" lon="11.926191730603879"><ele>5.0</ele><time>2026-04-19T10:11:25Z</time></trkpt><trkpt lat="42.039554474021195" lon="11.926311274844165"><ele>5.0</ele><time>2026-04-19T10:11:26Z</time></trkpt><trkpt lat="42.03951375420008" lon="11.926413986690356"><ele>5.0</ele><time>2026-04-19T10:11:27Z</time></trkpt><trkpt lat="42.03948203956287" lon="11.926523640489728"><ele>5.0</ele><time>2026-04-19T10:11:28Z</time></trkpt><trkpt lat="42.039432992256714" lon="11.926629864948586"><ele>5.0</ele><time>2026-04-19T10:11:29Z</time></trkpt><trkpt lat="42.03939814638023" lon="11.926737422751213"><ele>5.0</ele><time>2026-04-19T10:11:30Z</time></trkpt><trkpt lat="42.03935884784049" lon="11.926858724332693"><ele>5.0</ele><time>2026-04-19T10:11:31Z</time></trkpt><trkpt lat="42.03932297221129" lon="11.926969460535043"><ele>5.0</ele><time>2026-04-19T10:11:32Z</time></trkpt><trkpt lat="42.03928606660655" lon="11.9270833760816"><ele>5.0</ele><time>2026-04-19T10:11:33Z</time></trkpt><trkpt lat="42.03925878109938" lon="11.927187232371391"><ele>5.0</ele><time>2026-04-19T10:11:34Z</time></trkpt><trkpt lat="42.03922215302284" lon="11.92727713769127"><ele>5.0</ele><time>2026-04-19T10:11:35Z</time></trkpt><trkpt lat="42.03918974786989" lon="11.927376606277715"><ele>5.0</ele><time>2026-04-19T10:11:36Z</time></trkpt><trkpt lat="42.03917073373205" lon="11.92749364026672"><ele>5.0</ele><time>2026-04-19T10:11:37Z</time></trkpt><trkpt lat="42.03913503820964" lon="11.927591655942468"><ele>5.0</ele><time>2026-04-19T10:11:38Z</time></trkpt><trkpt lat="42.03910917235368" lon="11.927685412230469"><ele>5.0</ele><time>2026-04-19T10:11:39Z</time></trkpt><trkpt lat="42.039083771255136" lon="11.927774410786084"><ele>5.0</ele><time>2026-04-19T10:11:40Z</time></trkpt><trkpt lat="42.03905443382676" lon="11.927866842996643"><ele>5.0</ele><time>2026-04-19T10:11:42Z</time></trkpt><trkpt lat="42.03904947156229" lon="11.927966531576"><ele>5.0</ele><time>2026-04-19T10:12:37.999Z</time></trkpt><trkpt lat="42.038990874915406" lon="11.928085425149089"><ele>5.0</ele><time>2026-04-19T10:12:39.999Z</time></trkpt><trkpt lat="42.03893704530153" lon="11.92816520719122"><ele>5.0</ele><time>2026-04-19T10:12:40.999Z</time></trkpt><trkpt lat="42.038888759854686" lon="11.928266959631694"><ele>5.0</ele><time>2026-04-19T10:12:41.999Z</time></trkpt><trkpt lat="42.03882221186695" lon="11.928343485842293"><ele>5.0</ele><time>2026-04-19T10:12:42.999Z</time></trkpt><trkpt lat="42.0387828789022" lon="11.928445371591316"><ele>5.0</ele><time>2026-04-19T10:12:43.999Z</time></trkpt><trkpt lat="42.03872142250042" lon="11.928544048872546"><ele>5.0</ele><time>2026-04-19T10:12:44.999Z</time></trkpt><trkpt lat="42.03864851108384" lon="11.928644959824492"><ele>5.0</ele><time>2026-04-19T10:12:45.999Z</time></trkpt><trkpt lat="42.038591468828294" lon="11.928746791454502"><ele>5.333333333333334</ele><time>2026-04-19T10:12:46.999Z</time></trkpt><trkpt lat="42.038540091501666" lon="11.928839754205661"><ele>5.666666666666667</ele><time>2026-04-19T10:12:47.999Z</time></trkpt><trkpt lat="42.038487696105534" lon="11.928935527889715"><ele>6.0</ele><time>2026-04-19T10:12:48.999Z</time></trkpt><trkpt lat="42.03844198369845" lon="11.92902118429754"><ele>6.333333333333334</ele><time>2026-04-19T10:12:49.999Z</time></trkpt><trkpt lat="42.03840091186894" lon="11.929102232679034"><ele>6.666666666666667</ele><time>2026-04-19T10:12:50.999Z</time></trkpt><trkpt lat="42.03836584319399" lon="11.929173087559473"><ele>7.0</ele><time>2026-04-19T10:12:51.999Z</time></trkpt><trkpt lat="42.038337690233824" lon="11.929264738451199"><ele>6.8</ele><time>2026-04-19T10:12:52.999Z</time></trkpt><trkpt lat="42.03829499742448" lon="11.929346715433551"><ele>6.6</ele><time>2026-04-19T10:12:53.999Z</time></trkpt><trkpt lat="42.038250085490176" lon="11.929474007547322"><ele>6.3999999999999995</ele><time>2026-04-19T10:12:55.999Z</time></trkpt><trkpt lat="42.03821426490728" lon="11.929635714509352"><ele>6.199999999999999</ele><time>2026-04-19T10:12:57.999Z</time></trkpt><trkpt lat="42.0381903929723" lon="11.92973544888649"><ele>6.0</ele><time>2026-04-19T10:12:58.999Z</time></trkpt><trkpt lat="42.03816930333323" lon="11.929836842108347"><ele>6.0</ele><time>2026-04-19T10:12:59.999Z</time></trkpt><trkpt lat="42.038150050972384" lon="11.929936694136028"><ele>6.0</ele><time>2026-04-19T10:13:00.999Z</time></trkpt><trkpt lat="42.03812910746776" lon="11.930031293256532"><ele>6.0</ele><time>2026-04-19T10:13:01.999Z</time></trkpt><trkpt lat="42.038108761139156" lon="11.930127714031284"><ele>6.0</ele><time>2026-04-19T10:13:02.999Z</time></trkpt><trkpt lat="42.03808349931802" lon="11.93022737523036"><ele>6.0</ele><time>2026-04-19T10:13:03.999Z</time></trkpt><trkpt lat="42.03805639763878" lon="11.930351412208127"><ele>6.0</ele><time>2026-04-19T10:13:04.999Z</time></trkpt><trkpt lat="42.038028357489736" lon="11.930500377893058"><ele>6.25</ele><time>2026-04-19T10:13:05.999Z</time></trkpt><trkpt lat="42.03799685601222" lon="11.930665420904035"><ele>6.5</ele><time>2026-04-19T10:13:06.999Z</time></trkpt><trkpt lat="42.03796152447893" lon="11.930844472767378"><ele>6.75</ele><time>2026-04-19T10:13:07.999Z</time></trkpt><trkpt lat="42.03793420801975" lon="11.931003346343385"><ele>7.0</ele><time>2026-04-19T10:13:08.999Z</time></trkpt><trkpt lat="42.03790528511192" lon="11.931142425824872"><ele>7.8</ele><time>2026-04-19T10:13:09.999Z</time></trkpt><trkpt lat="42.03787401776766" lon="11.93126537385646"><ele>8.6</ele><time>2026-04-19T10:13:10.999Z</time></trkpt><trkpt lat="42.03784714324371" lon="11.931398826447522"><ele>9.4</ele><time>2026-04-19T10:13:11.999Z</time></trkpt><trkpt lat="42.037818476395856" lon="11.931558705288737"><ele>10.200000000000001</ele><time>2026-04-19T10:13:12.999Z</time></trkpt><trkpt lat="42.03779029725205" lon="11.931705839375235"><ele>11.0</ele><time>2026-04-19T10:13:13.999Z</time></trkpt><trkpt lat="42.03774090192235" lon="11.931852114958591"><ele>11.200000000000001</ele><time>2026-04-19T10:13:14.999Z</time></trkpt><trkpt lat="42.037701279327806" lon="11.931976021026001"><ele>11.4</ele><time>2026-04-19T10:13:15.999Z</time></trkpt><trkpt lat="42.037682355839976" lon="11.932095194550168"><ele>11.6</ele><time>2026-04-19T10:13:16.999Z</time></trkpt><trkpt lat="42.0376587016241" lon="11.932222694465894"><ele>11.8</ele><time>2026-04-19T10:13:17.999Z</time></trkpt><trkpt lat="42.03763329914861" lon="11.932357518527336"><ele>12.0</ele><time>2026-04-19T10:13:18.999Z</time></trkpt><trkpt lat="42.037612278479365" lon="11.932497137388598"><ele>12.25</ele><time>2026-04-19T10:13:19.999Z</time></trkpt><trkpt lat="42.03755764427423" lon="11.932628297356635"><ele>12.5</ele><time>2026-04-19T10:13:20.999Z</time></trkpt><trkpt lat="42.03750080429543" lon="11.932764098035884"><ele>12.75</ele><time>2026-04-19T10:13:21.999Z</time></trkpt><trkpt lat="42.03744598051432" lon="11.932916283623562"><ele>13.0</ele><time>2026-04-19T10:13:22.999Z</time></trkpt><trkpt lat="42.03739335156924" lon="11.93305087049235"><ele>13.0</ele><time>2026-04-19T10:13:23.999Z</time></trkpt><trkpt lat="42.037341580684" lon="11.933176223895586"><ele>13.0</ele><time>2026-04-19T10:13:24.999Z</time></trkpt><trkpt lat="42.03729424671911" lon="11.9333003324334"><ele>13.0</ele><time>2026-04-19T10:13:25.999Z</time></trkpt><trkpt lat="42.03724859025342" lon="11.933419753354027"><ele>13.0</ele><time>2026-04-19T10:13:26.999Z</time></trkpt><trkpt lat="42.03719786799414" lon="11.933552425097144"><ele>13.0</ele><time>2026-04-19T10:13:27.999Z</time></trkpt><trkpt lat="42.03714692946258" lon="11.933722215436878"><ele>13.5</ele><time>2026-04-19T10:13:28.999Z</time></trkpt><trkpt lat="42.037085651140714" lon="11.93389254094353"><ele>14.0</ele><time>2026-04-19T10:13:30Z</time></trkpt><trkpt lat="42.037027579308884" lon="11.934042607935494"><ele>14.5</ele><time>2026-04-19T10:13:31Z</time></trkpt><trkpt lat="42.03698153646916" lon="11.934196559556076"><ele>15.0</ele><time>2026-04-19T10:13:32Z</time></trkpt><trkpt lat="42.0369198255601" lon="11.934337940244921"><ele>15.25</ele><time>2026-04-19T10:13:33Z</time></trkpt><trkpt lat="42.036881123338596" lon="11.934503602157674"><ele>15.5</ele><time>2026-04-19T10:13:34Z</time></trkpt><trkpt lat="42.03683308858302" lon="11.934649135008563"><ele>15.75</ele><time>2026-04-19T10:13:35Z</time></trkpt><trkpt lat="42.03678595494778" lon="11.934793375574854"><ele>16.0</ele><time>2026-04-19T10:13:36Z</time></trkpt><trkpt lat="42.0367430648938" lon="11.934929018895328"><ele>16.400000000000002</ele><time>2026-04-19T10:13:37Z</time></trkpt><trkpt lat="42.036698551323276" lon="11.935065697653723"><ele>16.8</ele><time>2026-04-19T10:13:38Z</time></trkpt><trkpt lat="42.03666412459991" lon="11.935199964063116"><ele>17.200000000000003</ele><time>2026-04-19T10:13:39Z</time></trkpt><trkpt lat="42.03661464187578" lon="11.935316707688008"><ele>17.6</ele><time>2026-04-19T10:13:40Z</time></trkpt><trkpt lat="42.03657705655231" lon="11.935447034846831"><ele>18.0</ele><time>2026-04-19T10:13:41Z</time></trkpt><trkpt lat="42.036548898029345" lon="11.935579198465955"><ele>17.333333333333332</ele><time>2026-04-19T10:13:42Z</time></trkpt><trkpt lat="42.036512418334596" lon="11.93570697639887"><ele>16.666666666666668</ele><time>2026-04-19T10:13:43Z</time></trkpt><trkpt lat="42.03645995605951" lon="11.935813044697845"><ele>16.0</ele><time>2026-04-19T10:13:44Z</time></trkpt><trkpt lat="42.03642271828503" lon="11.935926146613712"><ele>15.333333333333334</ele><time>2026-04-19T10:13:45Z</time></trkpt><trkpt lat="42.03638852099815" lon="11.936030013433728"><ele>14.666666666666668</ele><time>2026-04-19T10:13:46Z</time></trkpt><trkpt lat="42.03637328153452" lon="11.936128053502703"><ele>14.0</ele><time>2026-04-19T10:13:47Z</time></trkpt><trkpt lat="42.036346549066316" lon="11.936211410125983"><ele>14.000000000000002</ele><time>2026-04-19T10:13:48Z</time></trkpt><trkpt lat="42.036288003973986" lon="11.936345243022187"><ele>14.0</ele><time>2026-04-19T10:13:50Z</time></trkpt><trkpt lat="42.036268731181956" lon="11.936441989725035"><ele>14.0</ele><time>2026-04-19T10:13:52Z</time></trkpt><trkpt lat="42.03623862022564" lon="11.936532215371166"><ele>14.0</ele><time>2026-04-19T10:13:57Z</time></trkpt><trkpt lat="42.03621469633029" lon="11.93661700280534"><ele>14.000000000000002</ele><time>2026-04-19T10:14:01Z</time></trkpt><trkpt lat="42.0361644002108" lon="11.93672401692169"><ele>14.0</ele><time>2026-04-19T10:14:04Z</time></trkpt><trkpt lat="42.03611201621317" lon="11.93689151902095"><ele>14.399999999999999</ele><time>2026-04-19T10:14:06Z</time></trkpt><trkpt lat="42.036068167592276" lon="11.937001307365254"><ele>14.799999999999999</ele><time>2026-04-19T10:14:07Z</time></trkpt><trkpt lat="42.03602232032125" lon="11.93713130687488"><ele>15.200000000000001</ele><time>2026-04-19T10:14:08Z</time></trkpt><trkpt lat="42.035970441510194" lon="11.937260962177048"><ele>15.600000000000001</ele><time>2026-04-19T10:14:09Z</time></trkpt><trkpt lat="42.03591781308024" lon="11.937401804113039"><ele>16.0</ele><time>2026-04-19T10:14:10Z</time></trkpt><trkpt lat="42.03585009605833" lon="11.937539286993548"><ele>16.5</ele><time>2026-04-19T10:14:11Z</time></trkpt><trkpt lat="42.03579828366115" lon="11.937677179832253"><ele>17.0</ele><time>2026-04-19T10:14:12Z</time></trkpt><trkpt lat="42.03574519081694" lon="11.937817233870547"><ele>17.5</ele><time>2026-04-19T10:14:13Z</time></trkpt><trkpt lat="42.03568909885633" lon="11.93795416465953"><ele>18.0</ele><time>2026-04-19T10:14:14Z</time></trkpt><trkpt lat="42.035638737747156" lon="11.938073843352367"><ele>18.0</ele><time>2026-04-19T10:14:15Z</time></trkpt><trkpt lat="42.0356020358803" lon="11.938205019648843"><ele>18.0</ele><time>2026-04-19T10:14:16Z</time></trkpt><trkpt lat="42.03555192837844" lon="11.938305736734396"><ele>18.0</ele><time>2026-04-19T10:14:17Z</time></trkpt><trkpt lat="42.03551287206027" lon="11.938401030626718"><ele>18.0</ele><time>2026-04-19T10:14:18Z</time></trkpt><trkpt lat="42.035480200903464" lon="11.938480379752924"><ele>18.0</ele><time>2026-04-19T10:14:19Z</time></trkpt><trkpt lat="42.03543552249821" lon="11.938606456751446"><ele>18.0</ele><time>2026-04-19T10:14:21Z</time></trkpt><trkpt lat="42.03540806125976" lon="11.938683443479947"><ele>18.8</ele><time>2026-04-19T10:14:30Z</time></trkpt><trkpt lat="42.035449070016284" lon="11.938750194887945"><ele>19.6</ele><time>2026-04-19T10:15:50Z</time></trkpt><trkpt lat="42.035492014376864" lon="11.938837197347686"><ele>20.400000000000002</ele><time>2026-04-19T10:15:53Z</time></trkpt><trkpt lat="42.035595598216055" lon="11.938881084708473"><ele>21.200000000000003</ele><time>2026-04-19T10:15:55Z</time></trkpt><trkpt lat="42.03568030437065" lon="11.938893526863705"><ele>22.0</ele><time>2026-04-19T10:15:56Z</time></trkpt><trkpt lat="42.03579800374175" lon="11.938903866560727"><ele>22.75</ele><time>2026-04-19T10:15:57Z</time></trkpt><trkpt lat="42.03591695668759" lon="11.938935426369882"><ele>23.5</ele><time>2026-04-19T10:15:58Z</time></trkpt><trkpt lat="42.03603456395468" lon="11.938975267617025"><ele>24.25</ele><time>2026-04-19T10:15:59Z</time></trkpt><trkpt lat="42.03614416022842" lon="11.939018968501303"><ele>25.0</ele><time>2026-04-19T10:16:00Z</time></trkpt><trkpt lat="42.03624230681477" lon="11.939066969564282"><ele>25.0</ele><time>2026-04-19T10:16:01Z</time></trkpt><trkpt lat="42.03631361632462" lon="11.93912251878549"><ele>25.0</ele><time>2026-04-19T10:16:02Z</time></trkpt><trkpt lat="42.03638740059655" lon="11.939178671662237"><ele>25.0</ele><time>2026-04-19T10:16:03Z</time></trkpt><trkpt lat="42.036464414771494" lon="11.939233993992117"><ele>25.0</ele><time>2026-04-19T10:16:04Z</time></trkpt><trkpt lat="42.03654948056699" lon="11.939302012758114"><ele>25.0</ele><time>2026-04-19T10:16:05Z</time></trkpt><trkpt lat="42.03664468679392" lon="11.939375096192288"><ele>25.5</ele><time>2026-04-19T10:16:06Z</time></trkpt><trkpt lat="42.03673214800846" lon="11.939448374466853"><ele>26.0</ele><time>2026-04-19T10:16:07Z</time></trkpt><trkpt lat="42.036824290296174" lon="11.939530356119795"><ele>26.5</ele><time>2026-04-19T10:16:08Z</time></trkpt><trkpt lat="42.03693999262375" lon="11.939619999644336"><ele>27.0</ele><time>2026-04-19T10:16:09Z</time></trkpt><trkpt lat="42.03707154198528" lon="11.939712869976178"><ele>27.0</ele><time>2026-04-19T10:16:10Z</time></trkpt><trkpt lat="42.03718925079103" lon="11.93979598829804"><ele>27.0</ele><time>2026-04-19T10:16:11Z</time></trkpt><trkpt lat="42.03730336180526" lon="11.939883540350154"><ele>27.0</ele><time>2026-04-19T10:16:12Z</time></trkpt><trkpt lat="42.03741580069664" lon="11.939977311912576"><ele>27.0</ele><time>2026-04-19T10:16:13Z</time></trkpt><trkpt lat="42.03754559522269" lon="11.94006553143587"><ele>27.25</ele><time>2026-04-19T10:16:14Z</time></trkpt><trkpt lat="42.03765310595104" lon="11.940152651258929"><ele>27.5</ele><time>2026-04-19T10:16:15Z</time></trkpt><trkpt lat="42.03776769401496" lon="11.940232490483032"><ele>27.75</ele><time>2026-04-19T10:16:16Z</time></trkpt><trkpt lat="42.03786495771377" lon="11.940306531651084"><ele>28.0</ele><time>2026-04-19T10:16:17Z</time></trkpt><trkpt lat="42.03796628502873" lon="11.940359482184865"><ele>28.0</ele><time>2026-04-19T10:16:18Z</time></trkpt><trkpt lat="42.03806997671844" lon="11.940386707720045"><ele>27.999999999999996</ele><time>2026-04-19T10:16:19Z</time></trkpt><trkpt lat="42.03816223978263" lon="11.94040324813598"><ele>27.999999999999996</ele><time>2026-04-19T10:16:20Z</time></trkpt><trkpt lat="42.03824009896183" lon="11.940418668308892"><ele>28.0</ele><time>2026-04-19T10:16:21Z</time></trkpt><trkpt lat="42.03830582057468" lon="11.940426744354456"><ele>28.0</ele><time>2026-04-19T10:16:22Z</time></trkpt><trkpt lat="42.03835078072577" lon="11.940675229009702"><ele>28.2</ele><time>2026-04-19T10:16:26Z</time></trkpt><trkpt lat="42.038343083801024" lon="11.940774342431093"><ele>28.4</ele><time>2026-04-19T10:16:27Z</time></trkpt><trkpt lat="42.038349722814786" lon="11.940890725998038"><ele>28.599999999999998</ele><time>2026-04-19T10:16:28Z</time></trkpt><trkpt lat="42.0383243858952" lon="11.941015116297342"><ele>28.799999999999997</ele><time>2026-04-19T10:16:29Z</time></trkpt><trkpt lat="42.03831231820377" lon="11.941170512435697"><ele>29.0</ele><time>2026-04-19T10:16:30Z</time></trkpt><trkpt lat="42.03829799517103" lon="11.941354951147021"><ele>29.0</ele><time>2026-04-19T10:16:31Z</time></trkpt><trkpt lat="42.038285303852476" lon="11.941518377965107"><ele>29.0</ele><time>2026-04-19T10:16:32Z</time></trkpt><trkpt lat="42.03827336023053" lon="11.941677359946272"><ele>29.0</ele><time>2026-04-19T10:16:33Z</time></trkpt><trkpt lat="42.03827643991995" lon="11.941854594489687"><ele>29.0</ele><time>2026-04-19T10:16:34Z</time></trkpt><trkpt lat="42.038262152625826" lon="11.942021802992018"><ele>29.0</ele><time>2026-04-19T10:16:35Z</time></trkpt><trkpt lat="42.0382455921502" lon="11.942169727112404"><ele>29.0</ele><time>2026-04-19T10:16:36Z</time></trkpt><trkpt lat="42.038232006489146" lon="11.942334076412298"><ele>29.0</ele><time>2026-04-19T10:16:37Z</time></trkpt><trkpt lat="42.038222531641345" lon="11.942499789700804"><ele>29.0</ele><time>2026-04-19T10:16:38Z</time></trkpt><trkpt lat="42.038215527732135" lon="11.942659477549244"><ele>29.0</ele><time>2026-04-19T10:16:39Z</time></trkpt><trkpt lat="42.038203702964275" lon="11.942819293817939"><ele>29.0</ele><time>2026-04-19T10:16:40Z</time></trkpt><trkpt lat="42.038194848949594" lon="11.942973232683473"><ele>29.0</ele><time>2026-04-19T10:16:40.999Z</time></trkpt><trkpt lat="42.03817273325776" lon="11.943132956301302"><ele>29.0</ele><time>2026-04-19T10:16:41.999Z</time></trkpt><trkpt lat="42.038163034301796" lon="11.943293086994288"><ele>29.0</ele><time>2026-04-19T10:16:42.999Z</time></trkpt><trkpt lat="42.03815239987849" lon="11.94345020953434"><ele>29.0</ele><time>2026-04-19T10:16:43.999Z</time></trkpt><trkpt lat="42.038145164267405" lon="11.943608162897487"><ele>29.0</ele><time>2026-04-19T10:16:44.999Z</time></trkpt><trkpt lat="42.03813601865391" lon="11.943772504261888"><ele>29.0</ele><time>2026-04-19T10:16:45.999Z</time></trkpt><trkpt lat="42.03812747022483" lon="11.943936448019677"><ele>29.0</ele><time>2026-04-19T10:16:46.999Z</time></trkpt><trkpt lat="42.03811609951369" lon="11.944089578421705"><ele>29.0</ele><time>2026-04-19T10:16:47.999Z</time></trkpt><trkpt lat="42.03810579620338" lon="11.944237273803783"><ele>29.0</ele><time>2026-04-19T10:16:48.999Z</time></trkpt><trkpt lat="42.03809522075332" lon="11.944393302925983"><ele>29.0</ele><time>2026-04-19T10:16:49.999Z</time></trkpt><trkpt lat="42.038086978003896" lon="11.944557324551845"><ele>29.75</ele><time>2026-04-19T10:16:50.999Z</time></trkpt><trkpt lat="42.03807230722671" lon="11.944721815939996"><ele>30.5</ele><time>2026-04-19T10:16:51.999Z</time></trkpt><trkpt lat="42.03806229988564" lon="11.944883431594427"><ele>31.25</ele><time>2026-04-19T10:16:52.999Z</time></trkpt><trkpt lat="42.0380409663248" lon="11.945044553703427"><ele>32.0</ele><time>2026-04-19T10:16:53.999Z</time></trkpt><trkpt lat="42.03803446448313" lon="11.945210675959016"><ele>32.0</ele><time>2026-04-19T10:16:54.999Z</time></trkpt><trkpt lat="42.0380231333416" lon="11.945374410977681"><ele>32.0</ele><time>2026-04-19T10:16:55.999Z</time></trkpt><trkpt lat="42.038015806293565" lon="11.945540907480561"><ele>32.0</ele><time>2026-04-19T10:16:56.999Z</time></trkpt><trkpt lat="42.038006611151445" lon="11.945712356210379"><ele>32.0</ele><time>2026-04-19T10:16:57.999Z</time></trkpt><trkpt lat="42.03799391612116" lon="11.945883733272863"><ele>32.25</ele><time>2026-04-19T10:16:58.999Z</time></trkpt><trkpt lat="42.03798094719803" lon="11.946054628756716"><ele>32.5</ele><time>2026-04-19T10:16:59.999Z</time></trkpt><trkpt lat="42.037975197910804" lon="11.946216145888746"><ele>32.75</ele><time>2026-04-19T10:17:00.999Z</time></trkpt><trkpt lat="42.03796481383994" lon="11.94638555061197"><ele>33.0</ele><time>2026-04-19T10:17:01.999Z</time></trkpt><trkpt lat="42.03795474134451" lon="11.946551281666116"><ele>33.5</ele><time>2026-04-19T10:17:02.999Z</time></trkpt><trkpt lat="42.037945351844854" lon="11.946716531597097"><ele>34.0</ele><time>2026-04-19T10:17:03.999Z</time></trkpt><trkpt lat="42.037929602370426" lon="11.946887018925706"><ele>34.5</ele><time>2026-04-19T10:17:04.999Z</time></trkpt><trkpt lat="42.03791738876205" lon="11.947060708529845"><ele>35.0</ele><time>2026-04-19T10:17:05.999Z</time></trkpt><trkpt lat="42.03790754810566" lon="11.947226371528023"><ele>35.0</ele><time>2026-04-19T10:17:06.999Z</time></trkpt><trkpt lat="42.037874216864125" lon="11.947386593248094"><ele>35.0</ele><time>2026-04-19T10:17:07.999Z</time></trkpt><trkpt lat="42.037858858842114" lon="11.947549330361406"><ele>35.0</ele><time>2026-04-19T10:17:08.999Z</time></trkpt><trkpt lat="42.03784206056364" lon="11.947716564573794"><ele>35.0</ele><time>2026-04-19T10:17:09.999Z</time></trkpt><trkpt lat="42.03782651374726" lon="11.94788138263096"><ele>35.25</ele><time>2026-04-19T10:17:10.999Z</time></trkpt><trkpt lat="42.037817803582165" lon="11.948055959181698"><ele>35.5</ele><time>2026-04-19T10:17:11.999Z</time></trkpt><trkpt lat="42.03778680565037" lon="11.948222144057736"><ele>35.75</ele><time>2026-04-19T10:17:12.999Z</time></trkpt><trkpt lat="42.03777193984268" lon="11.948390602571255"><ele>36.0</ele><time>2026-04-19T10:17:13.999Z</time></trkpt><trkpt lat="42.03775648078172" lon="11.948549852190341"><ele>36.2</ele><time>2026-04-19T10:17:14.999Z</time></trkpt><trkpt lat="42.03774163406284" lon="11.948701085268514"><ele>36.400000000000006</ele><time>2026-04-19T10:17:15.999Z</time></trkpt><trkpt lat="42.03772495035498" lon="11.948842978581842"><ele>36.6</ele><time>2026-04-19T10:17:16.999Z</time></trkpt><trkpt lat="42.03771030527502" lon="11.948980132206216"><ele>36.800000000000004</ele><time>2026-04-19T10:17:17.999Z</time></trkpt><trkpt lat="42.037696239356656" lon="11.949106674259825"><ele>37.0</ele><time>2026-04-19T10:17:18.999Z</time></trkpt><trkpt lat="42.037683019131116" lon="11.949219576311599"><ele>37.4</ele><time>2026-04-19T10:17:19.999Z</time></trkpt><trkpt lat="42.0376725596173" lon="11.94932495176021"><ele>37.800000000000004</ele><time>2026-04-19T10:17:20.999Z</time></trkpt><trkpt lat="42.037662571344775" lon="11.949438685963404"><ele>38.2</ele><time>2026-04-19T10:17:21.999Z</time></trkpt><trkpt lat="42.0376526737985" lon="11.949571430798851"><ele>38.6</ele><time>2026-04-19T10:17:22.999Z</time></trkpt><trkpt lat="42.03763861093113" lon="11.949717242294223"><ele>39.0</ele><time>2026-04-19T10:17:23.999Z</time></trkpt><trkpt lat="42.03761576588186" lon="11.949856513036519"><ele>39.0</ele><time>2026-04-19T10:17:24.999Z</time></trkpt><trkpt lat="42.03759646257149" lon="11.950000093484986"><ele>39.0</ele><time>2026-04-19T10:17:25.999Z</time></trkpt><trkpt lat="42.03758116955632" lon="11.950141484315772"><ele>39.0</ele><time>2026-04-19T10:17:26.999Z</time></trkpt><trkpt lat="42.03756135144754" lon="11.95028762420264"><ele>39.0</ele><time>2026-04-19T10:17:27.999Z</time></trkpt><trkpt lat="42.037542704415515" lon="11.950437660402857"><ele>39.0</ele><time>2026-04-19T10:17:28.999Z</time></trkpt><trkpt lat="42.037526083121975" lon="11.950585743218326"><ele>39.0</ele><time>2026-04-19T10:17:29.999Z</time></trkpt><trkpt lat="42.03750761403791" lon="11.950737967235074"><ele>39.0</ele><time>2026-04-19T10:17:30.999Z</time></trkpt><trkpt lat="42.03749179034927" lon="11.950896959865686"><ele>39.0</ele><time>2026-04-19T10:17:31.999Z</time></trkpt><trkpt lat="42.03747865263982" lon="11.951041320495706"><ele>39.0</ele><time>2026-04-19T10:17:32.999Z</time></trkpt><trkpt lat="42.03744659467509" lon="11.951177817064242"><ele>39.0</ele><time>2026-04-19T10:17:33.999Z</time></trkpt><trkpt lat="42.037437180646585" lon="11.951320891442911"><ele>38.0</ele><time>2026-04-19T10:17:34.999Z</time></trkpt><trkpt lat="42.03742592307088" lon="11.951442875240804"><ele>37.0</ele><time>2026-04-19T10:17:35.999Z</time></trkpt><trkpt lat="42.03740966090692" lon="11.951570928166266"><ele>36.0</ele><time>2026-04-19T10:17:36.999Z</time></trkpt><trkpt lat="42.03740254539358" lon="11.951681098164983"><ele>35.0</ele><time>2026-04-19T10:17:37.999Z</time></trkpt><trkpt lat="42.03739171388611" lon="11.951780347102497"><ele>34.0</ele><time>2026-04-19T10:17:38.999Z</time></trkpt><trkpt lat="42.037369562918336" lon="11.951880766046939"><ele>33.0</ele><time>2026-04-19T10:17:39.999Z</time></trkpt><trkpt lat="42.03734512492956" lon="11.951996912869598"><ele>33.0</ele><time>2026-04-19T10:17:40.999Z</time></trkpt><trkpt lat="42.037327868343674" lon="11.952126695408255"><ele>33.0</ele><time>2026-04-19T10:17:42Z</time></trkpt><trkpt lat="42.03731415903629" lon="11.952260320722496"><ele>33.0</ele><time>2026-04-19T10:17:43Z</time></trkpt><trkpt lat="42.03729822478297" lon="11.952396243274897"><ele>33.0</ele><time>2026-04-19T10:17:44Z</time></trkpt><trkpt lat="42.03728337525225" lon="11.952551502681368"><ele>33.0</ele><time>2026-04-19T10:17:45Z</time></trkpt><trkpt lat="42.03727341912943" lon="11.952699799200223"><ele>33.25</ele><time>2026-04-19T10:17:46Z</time></trkpt><trkpt lat="42.03725820839667" lon="11.952852260350797"><ele>33.5</ele><time>2026-04-19T10:17:47Z</time></trkpt><trkpt lat="42.03724161524298" lon="11.95300422701353"><ele>33.75</ele><time>2026-04-19T10:17:48Z</time></trkpt><trkpt lat="42.03722399697254" lon="11.953165259916824"><ele>34.0</ele><time>2026-04-19T10:17:49Z</time></trkpt><trkpt lat="42.037206962069824" lon="11.953330170480305"><ele>34.5</ele><time>2026-04-19T10:17:50Z</time></trkpt><trkpt lat="42.037188392747" lon="11.95350380845973"><ele>35.0</ele><time>2026-04-19T10:17:51Z</time></trkpt><trkpt lat="42.03717413029345" lon="11.95368534094454"><ele>35.5</ele><time>2026-04-19T10:17:52Z</time></trkpt><trkpt lat="42.037154877868524" lon="11.953851612276836"><ele>36.0</ele><time>2026-04-19T10:17:53Z</time></trkpt><trkpt lat="42.03713082173544" lon="11.954013298874198"><ele>36.0</ele><time>2026-04-19T10:17:54Z</time></trkpt><trkpt lat="42.037106922387366" lon="11.95416025752656"><ele>36.0</ele><time>2026-04-19T10:17:55Z</time></trkpt><trkpt lat="42.03708783025445" lon="11.954315875336299"><ele>36.0</ele><time>2026-04-19T10:17:56Z</time></trkpt><trkpt lat="42.03706342109124" lon="11.954473862432028"><ele>36.0</ele><time>2026-04-19T10:17:57Z</time></trkpt><trkpt lat="42.03704620814593" lon="11.954611147738568"><ele>36.0</ele><time>2026-04-19T10:17:58Z</time></trkpt><trkpt lat="42.03703632818313" lon="11.954746968982626"><ele>36.0</ele><time>2026-04-19T10:17:59Z</time></trkpt><trkpt lat="42.03702371983457" lon="11.954876350013421"><ele>36.0</ele><time>2026-04-19T10:18:00Z</time></trkpt><trkpt lat="42.0370189063874" lon="11.95501570156194"><ele>36.0</ele><time>2026-04-19T10:18:01Z</time></trkpt><trkpt lat="42.037002167546746" lon="11.955157954460468"><ele>36.0</ele><time>2026-04-19T10:18:02Z</time></trkpt><trkpt lat="42.03698868419273" lon="11.955299457036519"><ele>35.75</ele><time>2026-04-19T10:18:03Z</time></trkpt><trkpt lat="42.036964998980096" lon="11.955441504502023"><ele>35.5</ele><time>2026-04-19T10:18:04Z</time></trkpt><trkpt lat="42.03693647768755" lon="11.955586180385854"><ele>35.25</ele><time>2026-04-19T10:18:05Z</time></trkpt><trkpt lat="42.036913019808466" lon="11.955731646869571"><ele>35.0</ele><time>2026-04-19T10:18:06Z</time></trkpt><trkpt lat="42.03688866962976" lon="11.955892024454288"><ele>35.0</ele><time>2026-04-19T10:18:07Z</time></trkpt><trkpt lat="42.03686477442334" lon="11.95604178916524"><ele>35.0</ele><time>2026-04-19T10:18:08Z</time></trkpt><trkpt lat="42.03685296405904" lon="11.956204853822733"><ele>35.0</ele><time>2026-04-19T10:18:09Z</time></trkpt><trkpt lat="42.03682881351568" lon="11.956349381932435"><ele>35.0</ele><time>2026-04-19T10:18:10Z</time></trkpt><trkpt lat="42.036811980096005" lon="11.956512597808857"><ele>35.0</ele><time>2026-04-19T10:18:11Z</time></trkpt><trkpt lat="42.036806018349175" lon="11.956661362230946"><ele>35.0</ele><time>2026-04-19T10:18:12Z</time></trkpt><trkpt lat="42.03681136460048" lon="11.956794876313223"><ele>35.0</ele><time>2026-04-19T10:18:13Z</time></trkpt><trkpt lat="42.0368197035302" lon="11.95691291667371"><ele>35.0</ele><time>2026-04-19T10:18:14Z</time></trkpt><trkpt lat="42.036832124922526" lon="11.957013979116127"><ele>35.0</ele><time>2026-04-19T10:18:15Z</time></trkpt><trkpt lat="42.036844938092294" lon="11.95717169868605"><ele>35.0</ele><time>2026-04-19T10:18:17Z</time></trkpt><trkpt lat="42.03685842500715" lon="11.957266125774982"><ele>35.0</ele><time>2026-04-19T10:18:18Z</time></trkpt><trkpt lat="42.03687002744651" lon="11.957399657174909"><ele>35.0</ele><time>2026-04-19T10:18:19Z</time></trkpt><trkpt lat="42.03687818788661" lon="11.957483826855134"><ele>35.0</ele><time>2026-04-19T10:18:20Z</time></trkpt><trkpt lat="42.03688522147141" lon="11.957603442410843"><ele>35.0</ele><time>2026-04-19T10:18:21Z</time></trkpt><trkpt lat="42.03635172960848" lon="11.957643594275519"><ele>34.4</ele><time>2026-04-19T10:18:23Z</time></trkpt><trkpt lat="42.03625419489463" lon="11.957635541556364"><ele>33.8</ele><time>2026-04-19T10:18:24Z</time></trkpt><trkpt lat="42.0361550418103" lon="11.957622601645687"><ele>33.2</ele><time>2026-04-19T10:18:25Z</time></trkpt><trkpt lat="42.036062823268374" lon="11.957610470561923"><ele>32.6</ele><time>2026-04-19T10:18:26Z</time></trkpt><trkpt lat="42.03595824919075" lon="11.95757586446872"><ele>32.0</ele><time>2026-04-19T10:18:27Z</time></trkpt><trkpt lat="42.035877928017484" lon="11.957517485361105"><ele>31.999999999999996</ele><time>2026-04-19T10:18:28Z</time></trkpt><trkpt lat="42.03580939678273" lon="11.957437916955342"><ele>32.0</ele><time>2026-04-19T10:18:29Z</time></trkpt><trkpt lat="42.035731955996354" lon="11.957362715600167"><ele>32.0</ele><time>2026-04-19T10:18:30Z</time></trkpt><trkpt lat="42.035654076216815" lon="11.957312773692149"><ele>32.0</ele><time>2026-04-19T10:18:31Z</time></trkpt><trkpt lat="42.035574218833645" lon="11.957271455621415"><ele>31.999999999999996</ele><time>2026-04-19T10:18:32Z</time></trkpt><trkpt lat="42.03548531190092" lon="11.957245215105075"><ele>32.0</ele><time>2026-04-19T10:18:33Z</time></trkpt><trkpt lat="42.03538538512813" lon="11.957225626599165"><ele>31.200000000000003</ele><time>2026-04-19T10:18:34Z</time></trkpt><trkpt lat="42.035293255535514" lon="11.957180647554553"><ele>30.400000000000002</ele><time>2026-04-19T10:18:35Z</time></trkpt><trkpt lat="42.03519935947874" lon="11.95713112697372"><ele>29.599999999999998</ele><time>2026-04-19T10:18:36Z</time></trkpt><trkpt lat="42.03509771402607" lon="11.957082025294893"><ele>28.799999999999997</ele><time>2026-04-19T10:18:37Z</time></trkpt><trkpt lat="42.03499030801186" lon="11.957035061974114"><ele>28.0</ele><time>2026-04-19T10:18:38Z</time></trkpt><trkpt lat="42.03488093593038" lon="11.956985384704266"><ele>27.599999999999998</ele><time>2026-04-19T10:18:39Z</time></trkpt><trkpt lat="42.03477387687928" lon="11.956939897542437"><ele>27.199999999999996</ele><time>2026-04-19T10:18:40Z</time></trkpt><trkpt lat="42.034669403497894" lon="11.95689941652773"><ele>26.8</ele><time>2026-04-19T10:18:41Z</time></trkpt><trkpt lat="42.03456087959241" lon="11.956856610445822"><ele>26.4</ele><time>2026-04-19T10:18:42Z</time></trkpt><trkpt lat="42.03445127128032" lon="11.956816500580754"><ele>26.0</ele><time>2026-04-19T10:18:43Z</time></trkpt><trkpt lat="42.03433528413988" lon="11.956778972240995"><ele>26.0</ele><time>2026-04-19T10:18:44Z</time></trkpt><trkpt lat="42.034219842933084" lon="11.956740940517852"><ele>26.0</ele><time>2026-04-19T10:18:44.999Z</time></trkpt><trkpt lat="42.03410080635997" lon="11.956701465341183"><ele>26.0</ele><time>2026-04-19T10:18:45.999Z</time></trkpt><trkpt lat="42.03398621194878" lon="11.956667080337443"><ele>26.0</ele><time>2026-04-19T10:18:46.999Z</time></trkpt><trkpt lat="42.03387708284412" lon="11.956632745906392"><ele>26.0</ele><time>2026-04-19T10:18:47.999Z</time></trkpt><trkpt lat="42.03377231564041" lon="11.956596471967723"><ele>26.0</ele><time>2026-04-19T10:18:48.999Z</time></trkpt><trkpt lat="42.03366836171654" lon="11.956546241864586"><ele>26.0</ele><time>2026-04-19T10:18:49.999Z</time></trkpt><trkpt lat="42.033554308121175" lon="11.956476437144614"><ele>26.0</ele><time>2026-04-19T10:18:50.999Z</time></trkpt><trkpt lat="42.0334330195359" lon="11.956405917093122"><ele>26.0</ele><time>2026-04-19T10:18:51.999Z</time></trkpt><trkpt lat="42.03331761961995" lon="11.956355710611271"><ele>26.0</ele><time>2026-04-19T10:18:52.999Z</time></trkpt><trkpt lat="42.03321033351325" lon="11.956305587449275"><ele>26.0</ele><time>2026-04-19T10:18:53.999Z</time></trkpt><trkpt lat="42.03312158725794" lon="11.956268236569201"><ele>26.0</ele><time>2026-04-19T10:18:54.999Z</time></trkpt><trkpt lat="42.033042006990414" lon="11.956229631743781"><ele>26.0</ele><time>2026-04-19T10:18:55.999Z</time></trkpt><trkpt lat="42.032951450425195" lon="11.956185605423165"><ele>25.75</ele><time>2026-04-19T10:18:56.999Z</time></trkpt><trkpt lat="42.032849084374895" lon="11.95612952647151"><ele>25.5</ele><time>2026-04-19T10:18:57.999Z</time></trkpt><trkpt lat="42.03273449078913" lon="11.956071798676742"><ele>25.25</ele><time>2026-04-19T10:18:58.999Z</time></trkpt><trkpt lat="42.03261276363697" lon="11.956010308257403"><ele>25.0</ele><time>2026-04-19T10:18:59.999Z</time></trkpt><trkpt lat="42.03250013014497" lon="11.955954350181027"><ele>24.8</ele><time>2026-04-19T10:19:00.999Z</time></trkpt><trkpt lat="42.032398320735986" lon="11.955903819972923"><ele>24.6</ele><time>2026-04-19T10:19:01.999Z</time></trkpt><trkpt lat="42.03229061299005" lon="11.955862430208912"><ele>24.4</ele><time>2026-04-19T10:19:02.999Z</time></trkpt><trkpt lat="42.03218132268997" lon="11.955818743193039"><ele>24.2</ele><time>2026-04-19T10:19:03.999Z</time></trkpt><trkpt lat="42.032078951116624" lon="11.955784016937763"><ele>24.0</ele><time>2026-04-19T10:19:04.999Z</time></trkpt><trkpt lat="42.03198408988448" lon="11.955760937132938"><ele>24.0</ele><time>2026-04-19T10:19:05.999Z</time></trkpt><trkpt lat="42.031893907652325" lon="11.95573678659937"><ele>24.0</ele><time>2026-04-19T10:19:06.999Z</time></trkpt><trkpt lat="42.0317897681283" lon="11.9557035873138"><ele>24.0</ele><time>2026-04-19T10:19:07.999Z</time></trkpt><trkpt lat="42.03169135722519" lon="11.955686684422425"><ele>24.0</ele><time>2026-04-19T10:19:08.999Z</time></trkpt><trkpt lat="42.03160131734338" lon="11.955668987720808"><ele>24.0</ele><time>2026-04-19T10:19:09.999Z</time></trkpt><trkpt lat="42.03151425685649" lon="11.955645429843052"><ele>23.2</ele><time>2026-04-19T10:19:10.999Z</time></trkpt><trkpt lat="42.031426591059045" lon="11.955606141124342"><ele>22.4</ele><time>2026-04-19T10:19:11.999Z</time></trkpt><trkpt lat="42.03134368256171" lon="11.955564224300423"><ele>21.6</ele><time>2026-04-19T10:19:12.999Z</time></trkpt><trkpt lat="42.03125183416372" lon="11.955515633725927"><ele>20.8</ele><time>2026-04-19T10:19:13.999Z</time></trkpt><trkpt lat="42.031142516252636" lon="11.955453856185471"><ele>20.0</ele><time>2026-04-19T10:19:14.999Z</time></trkpt><trkpt lat="42.031044335061615" lon="11.955399049002626"><ele>20.0</ele><time>2026-04-19T10:19:15.999Z</time></trkpt><trkpt lat="42.030950266818884" lon="11.955352815641437"><ele>20.0</ele><time>2026-04-19T10:19:16.999Z</time></trkpt><trkpt lat="42.030845998932286" lon="11.955304835008224"><ele>20.0</ele><time>2026-04-19T10:19:17.999Z</time></trkpt><trkpt lat="42.03074050132988" lon="11.95525625076738"><ele>20.0</ele><time>2026-04-19T10:19:18.999Z</time></trkpt><trkpt lat="42.03064245292149" lon="11.955214768029675"><ele>20.0</ele><time>2026-04-19T10:19:19.999Z</time></trkpt><trkpt lat="42.030544544277376" lon="11.955173053942898"><ele>19.666666666666668</ele><time>2026-04-19T10:19:20.999Z</time></trkpt><trkpt lat="42.03045742573711" lon="11.955132959029415"><ele>19.333333333333336</ele><time>2026-04-19T10:19:21.999Z</time></trkpt><trkpt lat="42.030372728187416" lon="11.955089730621761"><ele>19.0</ele><time>2026-04-19T10:19:22.999Z</time></trkpt><trkpt lat="42.030299611413156" lon="11.95504926009148"><ele>18.666666666666668</ele><time>2026-04-19T10:19:23.999Z</time></trkpt><trkpt lat="42.03023720270791" lon="11.95500127365179"><ele>18.333333333333332</ele><time>2026-04-19T10:19:24.999Z</time></trkpt><trkpt lat="42.03017638026587" lon="11.954963951028523"><ele>18.0</ele><time>2026-04-19T10:19:25.999Z</time></trkpt><trkpt lat="42.03009734631769" lon="11.954912128069957"><ele>17.8</ele><time>2026-04-19T10:19:26.999Z</time></trkpt><trkpt lat="42.030014551738766" lon="11.954863140751002"><ele>17.6</ele><time>2026-04-19T10:19:27.999Z</time></trkpt><trkpt lat="42.0299028170447" lon="11.954841334527247"><ele>17.4</ele><time>2026-04-19T10:19:29.999Z</time></trkpt><trkpt lat="42.029827963253965" lon="11.9549724016224"><ele>17.2</ele><time>2026-04-19T10:19:31.999Z</time></trkpt><trkpt lat="42.02981383746261" lon="11.95508049891625"><ele>17.0</ele><time>2026-04-19T10:19:32.999Z</time></trkpt><trkpt lat="42.029788463091556" lon="11.955193173977172"><ele>16.2</ele><time>2026-04-19T10:19:33.999Z</time></trkpt><trkpt lat="42.02975091305127" lon="11.955295237501339"><ele>15.399999999999999</ele><time>2026-04-19T10:19:34.999Z</time></trkpt><trkpt lat="42.029707337642414" lon="11.955414802418932"><ele>14.600000000000001</ele><time>2026-04-19T10:19:35.999Z</time></trkpt><trkpt lat="42.02967110080725" lon="11.955533609177236"><ele>13.8</ele><time>2026-04-19T10:19:36.999Z</time></trkpt><trkpt lat="42.029628974000886" lon="11.95565392693195"><ele>13.0</ele><time>2026-04-19T10:19:37.999Z</time></trkpt><trkpt lat="42.02958627972677" lon="11.955790883087934"><ele>13.2</ele><time>2026-04-19T10:19:38.999Z</time></trkpt><trkpt lat="42.029542292830754" lon="11.955917415329196"><ele>13.4</ele><time>2026-04-19T10:19:39.999Z</time></trkpt><trkpt lat="42.02950342708951" lon="11.956038508017427"><ele>13.599999999999998</ele><time>2026-04-19T10:19:40.999Z</time></trkpt><trkpt lat="42.0294919861874" lon="11.956154265131758"><ele>13.799999999999999</ele><time>2026-04-19T10:19:41.999Z</time></trkpt><trkpt lat="42.0295055304748" lon="11.9562659418292"><ele>14.0</ele><time>2026-04-19T10:19:42.999Z</time></trkpt><trkpt lat="42.02952405038869" lon="11.956393336105206"><ele>14.0</ele><time>2026-04-19T10:19:43.999Z</time></trkpt><trkpt lat="42.02953692224081" lon="11.956526650782209"><ele>13.999999999999998</ele><time>2026-04-19T10:19:44.999Z</time></trkpt><trkpt lat="42.02952849749744" lon="11.956645487583677"><ele>13.999999999999998</ele><time>2026-04-19T10:19:45.999Z</time></trkpt><trkpt lat="42.029521352117236" lon="11.95676678375934"><ele>14.0</ele><time>2026-04-19T10:19:46.999Z</time></trkpt><trkpt lat="42.02949925339505" lon="11.95689382082712"><ele>14.0</ele><time>2026-04-19T10:19:48Z</time></trkpt><trkpt lat="42.02948342864703" lon="11.957038782103623"><ele>14.0</ele><time>2026-04-19T10:19:49Z</time></trkpt><trkpt lat="42.029458453343274" lon="11.957171402234385"><ele>13.999999999999998</ele><time>2026-04-19T10:19:50Z</time></trkpt><trkpt lat="42.029419619960166" lon="11.957301906293443"><ele>13.999999999999998</ele><time>2026-04-19T10:19:51Z</time></trkpt><trkpt lat="42.02938208365784" lon="11.957429669314935"><ele>14.0</ele><time>2026-04-19T10:19:52Z</time></trkpt><trkpt lat="42.0293459625845" lon="11.957566012073055"><ele>14.0</ele><time>2026-04-19T10:19:53Z</time></trkpt><trkpt lat="42.02930535211289" lon="11.95769341417808"><ele>14.0</ele><time>2026-04-19T10:19:54Z</time></trkpt><trkpt lat="42.02926443387897" lon="11.957817830706428"><ele>13.999999999999998</ele><time>2026-04-19T10:19:55Z</time></trkpt><trkpt lat="42.0292243236934" lon="11.957923044430208"><ele>13.999999999999998</ele><time>2026-04-19T10:19:56Z</time></trkpt><trkpt lat="42.029175978421" lon="11.958021461271839"><ele>14.0</ele><time>2026-04-19T10:19:57Z</time></trkpt><trkpt lat="42.02912436387484" lon="11.958133232179872"><ele>14.0</ele><time>2026-04-19T10:19:58Z</time></trkpt><trkpt lat="42.0290736601451" lon="11.958253871388658"><ele>13.6</ele><time>2026-04-19T10:19:59Z</time></trkpt><trkpt lat="42.02901710910172" lon="11.958363717609826"><ele>13.2</ele><time>2026-04-19T10:20:00Z</time></trkpt><trkpt lat="42.028949117661995" lon="11.958463063091415"><ele>12.799999999999999</ele><time>2026-04-19T10:20:01Z</time></trkpt><trkpt lat="42.02887591801015" lon="11.95856628780479"><ele>12.399999999999999</ele><time>2026-04-19T10:20:02Z</time></trkpt><trkpt lat="42.02880978548995" lon="11.958668685856633"><ele>12.0</ele><time>2026-04-19T10:20:03Z</time></trkpt><trkpt lat="42.02874953319886" lon="11.958761747036101"><ele>12.0</ele><time>2026-04-19T10:20:04Z</time></trkpt><trkpt lat="42.0286748318102" lon="11.958885731574311"><ele>12.0</ele><time>2026-04-19T10:20:05Z</time></trkpt><trkpt lat="42.028590007359995" lon="11.95902639386699"><ele>12.0</ele><time>2026-04-19T10:20:06Z</time></trkpt><trkpt lat="42.02849707487583" lon="11.95917444497937"><ele>12.0</ele><time>2026-04-19T10:20:07Z</time></trkpt><trkpt lat="42.02841674679417" lon="11.959311621006623"><ele>12.5</ele><time>2026-04-19T10:20:08Z</time></trkpt><trkpt lat="42.028336197120666" lon="11.959446539970847"><ele>13.0</ele><time>2026-04-19T10:20:09Z</time></trkpt><trkpt lat="42.02825874927235" lon="11.95959125462034"><ele>13.5</ele><time>2026-04-19T10:20:10Z</time></trkpt><trkpt lat="42.02817699105522" lon="11.959736866231395"><ele>14.0</ele><time>2026-04-19T10:20:11Z</time></trkpt><trkpt lat="42.02809270865523" lon="11.959875261982056"><ele>14.0</ele><time>2026-04-19T10:20:12Z</time></trkpt><trkpt lat="42.02800973676386" lon="11.960016715078414"><ele>14.0</ele><time>2026-04-19T10:20:13Z</time></trkpt><trkpt lat="42.02792659763348" lon="11.960155684641045"><ele>14.0</ele><time>2026-04-19T10:20:14Z</time></trkpt><trkpt lat="42.02784396461727" lon="11.960294749903964"><ele>14.0</ele><time>2026-04-19T10:20:15Z</time></trkpt><trkpt lat="42.02777169243379" lon="11.960421833018442"><ele>13.799999999999999</ele><time>2026-04-19T10:20:16Z</time></trkpt><trkpt lat="42.02770000154135" lon="11.960532545995743"><ele>13.599999999999998</ele><time>2026-04-19T10:20:17Z</time></trkpt><trkpt lat="42.02762489977415" lon="11.96066367458341"><ele>13.4</ele><time>2026-04-19T10:20:18Z</time></trkpt><trkpt lat="42.027557761126054" lon="11.960778689888896"><ele>13.2</ele><time>2026-04-19T10:20:19Z</time></trkpt><trkpt lat="42.02749513812538" lon="11.960881845570592"><ele>13.0</ele><time>2026-04-19T10:20:20Z</time></trkpt><trkpt lat="42.02742866908171" lon="11.960994727787321"><ele>13.0</ele><time>2026-04-19T10:20:21Z</time></trkpt><trkpt lat="42.02735650802642" lon="11.96110942694527"><ele>13.0</ele><time>2026-04-19T10:20:22Z</time></trkpt><trkpt lat="42.02728408644524" lon="11.96123290685519"><ele>13.0</ele><time>2026-04-19T10:20:23Z</time></trkpt><trkpt lat="42.02721089294267" lon="11.961365932603277"><ele>13.0</ele><time>2026-04-19T10:20:24Z</time></trkpt><trkpt lat="42.02713397736971" lon="11.961493578428689"><ele>13.0</ele><time>2026-04-19T10:20:25Z</time></trkpt><trkpt lat="42.027062658786086" lon="11.961617006301232"><ele>13.0</ele><time>2026-04-19T10:20:26Z</time></trkpt><trkpt lat="42.02699373766739" lon="11.961740882266293"><ele>13.0</ele><time>2026-04-19T10:20:27Z</time></trkpt><trkpt lat="42.02692091383823" lon="11.961864972938516"><ele>13.0</ele><time>2026-04-19T10:20:28Z</time></trkpt><trkpt lat="42.026842179684685" lon="11.96199910553615"><ele>12.75</ele><time>2026-04-19T10:20:29Z</time></trkpt><trkpt lat="42.02675884622932" lon="11.962135479614968"><ele>12.5</ele><time>2026-04-19T10:20:30Z</time></trkpt><trkpt lat="42.02667200517989" lon="11.962274046068062"><ele>12.25</ele><time>2026-04-19T10:20:31Z</time></trkpt><trkpt lat="42.026588956438125" lon="11.962418190637756"><ele>12.0</ele><time>2026-04-19T10:20:32Z</time></trkpt><trkpt lat="42.02649740634793" lon="11.962560355809885"><ele>12.75</ele><time>2026-04-19T10:20:33Z</time></trkpt><trkpt lat="42.026409431733605" lon="11.962704845147625"><ele>13.5</ele><time>2026-04-19T10:20:34Z</time></trkpt><trkpt lat="42.026322526860085" lon="11.962855502487804"><ele>14.25</ele><time>2026-04-19T10:20:35Z</time></trkpt><trkpt lat="42.026236389538425" lon="11.963008871967372"><ele>15.0</ele><time>2026-04-19T10:20:36Z</time></trkpt><trkpt lat="42.026146828305684" lon="11.963151244693323"><ele>15.0</ele><time>2026-04-19T10:20:37Z</time></trkpt><trkpt lat="42.02606067657443" lon="11.963293386390925"><ele>15.0</ele><time>2026-04-19T10:20:38Z</time></trkpt><trkpt lat="42.025973443710946" lon="11.96344009844657"><ele>15.0</ele><time>2026-04-19T10:20:39Z</time></trkpt><trkpt lat="42.02588734599643" lon="11.963576647486466"><ele>15.0</ele><time>2026-04-19T10:20:40Z</time></trkpt><trkpt lat="42.02580391986457" lon="11.963714717958801"><ele>15.0</ele><time>2026-04-19T10:20:41Z</time></trkpt><trkpt lat="42.02571738551004" lon="11.963858066331413"><ele>15.0</ele><time>2026-04-19T10:20:42Z</time></trkpt><trkpt lat="42.02562931522081" lon="11.964003015809224"><ele>15.0</ele><time>2026-04-19T10:20:43Z</time></trkpt><trkpt lat="42.025540081743685" lon="11.964150660623302"><ele>15.0</ele><time>2026-04-19T10:20:44Z</time></trkpt><trkpt lat="42.02544558654635" lon="11.964307587333272"><ele>15.0</ele><time>2026-04-19T10:20:45Z</time></trkpt><trkpt lat="42.025358312454365" lon="11.964464238264947"><ele>15.0</ele><time>2026-04-19T10:20:46Z</time></trkpt><trkpt lat="42.02526754190738" lon="11.964612089675368"><ele>15.0</ele><time>2026-04-19T10:20:47Z</time></trkpt><trkpt lat="42.02517937517313" lon="11.964762913876408"><ele>15.0</ele><time>2026-04-19T10:20:48Z</time></trkpt><trkpt lat="42.02509401620796" lon="11.964905001562514"><ele>15.5</ele><time>2026-04-19T10:20:49Z</time></trkpt><trkpt lat="42.0250141872632" lon="11.96503206425885"><ele>16.0</ele><time>2026-04-19T10:20:50Z</time></trkpt><trkpt lat="42.024939042204046" lon="11.965154333202024"><ele>16.5</ele><time>2026-04-19T10:20:51Z</time></trkpt><trkpt lat="42.024865878098744" lon="11.965284333292999"><ele>17.0</ele><time>2026-04-19T10:20:51.999Z</time></trkpt><trkpt lat="42.02479138119193" lon="11.965415773814385"><ele>17.0</ele><time>2026-04-19T10:20:52.999Z</time></trkpt><trkpt lat="42.024710044669" lon="11.965548235215346"><ele>17.0</ele><time>2026-04-19T10:20:53.999Z</time></trkpt><trkpt lat="42.02463032765779" lon="11.965675419893223"><ele>17.0</ele><time>2026-04-19T10:20:54.999Z</time></trkpt><trkpt lat="42.024528894116436" lon="11.965794217778916"><ele>17.0</ele><time>2026-04-19T10:20:55.999Z</time></trkpt><trkpt lat="42.02446035796075" lon="11.965956832752832"><ele>16.75</ele><time>2026-04-19T10:20:56.999Z</time></trkpt><trkpt lat="42.024375287268676" lon="11.966086971921275"><ele>16.5</ele><time>2026-04-19T10:20:57.999Z</time></trkpt><trkpt lat="42.02428786582853" lon="11.966231842982587"><ele>16.25</ele><time>2026-04-19T10:20:58.999Z</time></trkpt><trkpt lat="42.02420597594373" lon="11.966379319051121"><ele>16.0</ele><time>2026-04-19T10:20:59.999Z</time></trkpt><trkpt lat="42.02411891610708" lon="11.966527726446081"><ele>16.0</ele><time>2026-04-19T10:21:00.999Z</time></trkpt><trkpt lat="42.02402000989288" lon="11.966658733253963"><ele>16.0</ele><time>2026-04-19T10:21:01.999Z</time></trkpt><trkpt lat="42.02393672292408" lon="11.966792440010158"><ele>16.0</ele><time>2026-04-19T10:21:02.999Z</time></trkpt><trkpt lat="42.02384937567894" lon="11.966906833620634"><ele>16.0</ele><time>2026-04-19T10:21:03.999Z</time></trkpt><trkpt lat="42.023747090934535" lon="11.967015961442048"><ele>16.0</ele><time>2026-04-19T10:21:04.999Z</time></trkpt><trkpt lat="42.02363765757078" lon="11.967125442648099"><ele>16.0</ele><time>2026-04-19T10:21:05.999Z</time></trkpt><trkpt lat="42.023539071539204" lon="11.967245230339621"><ele>16.0</ele><time>2026-04-19T10:21:06.999Z</time></trkpt><trkpt lat="42.02343084942287" lon="11.967355323825327"><ele>16.0</ele><time>2026-04-19T10:21:07.999Z</time></trkpt><trkpt lat="42.023321242394296" lon="11.967465097340416"><ele>15.5</ele><time>2026-04-19T10:21:08.999Z</time></trkpt><trkpt lat="42.023212763165134" lon="11.967574956911792"><ele>15.0</ele><time>2026-04-19T10:21:09.999Z</time></trkpt><trkpt lat="42.02310686082137" lon="11.967680011899445"><ele>14.5</ele><time>2026-04-19T10:21:10.999Z</time></trkpt><trkpt lat="42.02300136856628" lon="11.96778838027146"><ele>14.0</ele><time>2026-04-19T10:21:11.999Z</time></trkpt><trkpt lat="42.022904583187675" lon="11.96788366349656"><ele>14.0</ele><time>2026-04-19T10:21:12.999Z</time></trkpt><trkpt lat="42.02281426917781" lon="11.967968911911512"><ele>13.999999999999998</ele><time>2026-04-19T10:21:13.999Z</time></trkpt><trkpt lat="42.02272949468429" lon="11.968054880650074"><ele>13.999999999999998</ele><time>2026-04-19T10:21:14.999Z</time></trkpt><trkpt lat="42.022653429852255" lon="11.968136904828832"><ele>14.0</ele><time>2026-04-19T10:21:15.999Z</time></trkpt><trkpt lat="42.02258672530353" lon="11.968180187734713"><ele>14.0</ele><time>2026-04-19T10:21:16.999Z</time></trkpt><trkpt lat="42.02252873419055" lon="11.96824613126487"><ele>14.0</ele><time>2026-04-19T10:21:18.999Z</time></trkpt><trkpt lat="42.022422839613114" lon="11.96817587733058"><ele>13.999999999999998</ele><time>2026-04-19T10:21:20.999Z</time></trkpt><trkpt lat="42.02235963977775" lon="11.968127654771862"><ele>13.999999999999998</ele><time>2026-04-19T10:21:21.999Z</time></trkpt><trkpt lat="42.02227807889702" lon="11.967987555448664"><ele>14.0</ele><time>2026-04-19T10:21:23.999Z</time></trkpt><trkpt lat="42.02225074965526" lon="11.967902240939443"><ele>14.0</ele><time>2026-04-19T10:21:24.999Z</time></trkpt><trkpt lat="42.02217568057372" lon="11.967777623170681"><ele>14.000000000000002</ele><time>2026-04-19T10:21:26.999Z</time></trkpt><trkpt lat="42.0221256051018" lon="11.967716046155676"><ele>14.0</ele><time>2026-04-19T10:21:27.999Z</time></trkpt><trkpt lat="42.02200471237387" lon="11.967752309748489"><ele>14.0</ele><time>2026-04-19T10:21:28.999Z</time></trkpt><trkpt lat="42.02192125971544" lon="11.96772089451811"><ele>14.0</ele><time>2026-04-19T10:21:29.999Z</time></trkpt><trkpt lat="42.021838346981305" lon="11.967682481605141"><ele>14.000000000000002</ele><time>2026-04-19T10:21:30.999Z</time></trkpt><trkpt lat="42.021770362824995" lon="11.967628033294302"><ele>14.0</ele><time>2026-04-19T10:21:31.999Z</time></trkpt><trkpt lat="42.02171565295667" lon="11.967577950548483"><ele>14.0</ele><time>2026-04-19T10:21:32.999Z</time></trkpt><trkpt lat="42.021662643660335" lon="11.967521243025761"><ele>13.0</ele><time>2026-04-19T10:21:34.999Z</time></trkpt><trkpt lat="42.02176706130841" lon="11.967312680721692"><ele>13.0</ele><time>2026-04-19T10:21:39.999Z</time></trkpt></trkseg></trk></gpx>